<?xml version="1.0" encoding="UTF-8" standalone="no" ?>
<gpx xmlns="http://www.topografix.com/GPX/1/1" xmlns:xsi="http://www.w3.org/2001/XMLSchema-instance" xsi:schemaLocation="http://www.topografix.com/GPX/1/1 http://www.topografix.com/GPX/1/1/gpx.xsd" version="1.1" creator="VisuGPX - https://www.visugpx.com">
  <metadata>
    <name>Rousset Cyclisme</name>
    <desc><![CDATA[tous seul essai de circuits 2 belles descente]]></desc>
  </metadata>
  <trk>
    <name><![CDATA[Rousset Cyclisme]]></name>
    <trkseg>
      <trkpt lat="44.46909" lon="6.23299">
        <ele>707.40002441406</ele>
        <time>2020-11-05T13:09:36.000Z</time>
      </trkpt>
      <trkpt lat="44.46913" lon="6.23301">
        <ele>707.79998779297</ele>
        <time>2020-11-05T13:09:54.000Z</time>
      </trkpt>
      <trkpt lat="44.46916" lon="6.23302">
        <ele>707.79998779297</ele>
        <time>2020-11-05T13:10:11.000Z</time>
      </trkpt>
      <trkpt lat="44.46916" lon="6.23302">
        <ele>707.79998779297</ele>
        <time>2020-11-05T13:10:16.000Z</time>
      </trkpt>
      <trkpt lat="44.46918" lon="6.23302">
        <ele>708.20001220703</ele>
        <time>2020-11-05T13:10:31.000Z</time>
      </trkpt>
      <trkpt lat="44.46918" lon="6.23304">
        <ele>708</ele>
        <time>2020-11-05T13:10:47.000Z</time>
      </trkpt>
      <trkpt lat="44.46918" lon="6.23303">
        <ele>708.20001220703</ele>
        <time>2020-11-05T13:11:03.000Z</time>
      </trkpt>
      <trkpt lat="44.46918" lon="6.23303">
        <ele>708.20001220703</ele>
        <time>2020-11-05T13:11:05.000Z</time>
      </trkpt>
      <trkpt lat="44.46919" lon="6.23303">
        <ele>708</ele>
        <time>2020-11-05T13:11:25.000Z</time>
      </trkpt>
      <trkpt lat="44.46917" lon="6.23306">
        <ele>708.20001220703</ele>
        <time>2020-11-05T13:11:35.000Z</time>
      </trkpt>
      <trkpt lat="44.46916" lon="6.23305">
        <ele>708.20001220703</ele>
        <time>2020-11-05T13:11:40.000Z</time>
      </trkpt>
      <trkpt lat="44.46915" lon="6.23306">
        <ele>708.20001220703</ele>
        <time>2020-11-05T13:11:48.000Z</time>
      </trkpt>
      <trkpt lat="44.46912" lon="6.23307">
        <ele>708.20001220703</ele>
        <time>2020-11-05T13:11:49.000Z</time>
      </trkpt>
      <trkpt lat="44.46909" lon="6.2331">
        <ele>708.20001220703</ele>
        <time>2020-11-05T13:11:50.000Z</time>
      </trkpt>
      <trkpt lat="44.46903" lon="6.2332">
        <ele>708.20001220703</ele>
        <time>2020-11-05T13:11:53.000Z</time>
      </trkpt>
      <trkpt lat="44.46902" lon="6.2333">
        <ele>708</ele>
        <time>2020-11-05T13:11:55.000Z</time>
      </trkpt>
      <trkpt lat="44.469" lon="6.23349">
        <ele>708</ele>
        <time>2020-11-05T13:11:59.000Z</time>
      </trkpt>
      <trkpt lat="44.46899" lon="6.2338">
        <ele>708</ele>
        <time>2020-11-05T13:12:06.000Z</time>
      </trkpt>
      <trkpt lat="44.469" lon="6.23396">
        <ele>709.40002441406</ele>
        <time>2020-11-05T13:12:10.000Z</time>
      </trkpt>
      <trkpt lat="44.46901" lon="6.23409">
        <ele>710.59997558594</ele>
        <time>2020-11-05T13:12:13.000Z</time>
      </trkpt>
      <trkpt lat="44.46902" lon="6.23416">
        <ele>711.79998779297</ele>
        <time>2020-11-05T13:12:15.000Z</time>
      </trkpt>
      <trkpt lat="44.46903" lon="6.23429">
        <ele>712.79998779297</ele>
        <time>2020-11-05T13:12:19.000Z</time>
      </trkpt>
      <trkpt lat="44.46903" lon="6.23431">
        <ele>713</ele>
        <time>2020-11-05T13:12:20.000Z</time>
      </trkpt>
      <trkpt lat="44.469" lon="6.23428">
        <ele>713.59997558594</ele>
        <time>2020-11-05T13:12:22.000Z</time>
      </trkpt>
      <trkpt lat="44.46899" lon="6.23425">
        <ele>714</ele>
        <time>2020-11-05T13:12:23.000Z</time>
      </trkpt>
      <trkpt lat="44.46899" lon="6.23415">
        <ele>714.59997558594</ele>
        <time>2020-11-05T13:12:25.000Z</time>
      </trkpt>
      <trkpt lat="44.46897" lon="6.23394">
        <ele>714.79998779297</ele>
        <time>2020-11-05T13:12:28.000Z</time>
      </trkpt>
      <trkpt lat="44.46896" lon="6.23385">
        <ele>714.79998779297</ele>
        <time>2020-11-05T13:12:29.000Z</time>
      </trkpt>
      <trkpt lat="44.46893" lon="6.23332">
        <ele>714.79998779297</ele>
        <time>2020-11-05T13:12:34.000Z</time>
      </trkpt>
      <trkpt lat="44.46894" lon="6.23315">
        <ele>714.20001220703</ele>
        <time>2020-11-05T13:12:36.000Z</time>
      </trkpt>
      <trkpt lat="44.46897" lon="6.23308">
        <ele>713.59997558594</ele>
        <time>2020-11-05T13:12:37.000Z</time>
      </trkpt>
      <trkpt lat="44.46902" lon="6.23303">
        <ele>712.40002441406</ele>
        <time>2020-11-05T13:12:39.000Z</time>
      </trkpt>
      <trkpt lat="44.46903" lon="6.23304">
        <ele>710.59997558594</ele>
        <time>2020-11-05T13:12:41.000Z</time>
      </trkpt>
      <trkpt lat="44.46903" lon="6.23303">
        <ele>708.79998779297</ele>
        <time>2020-11-05T13:12:42.000Z</time>
      </trkpt>
      <trkpt lat="44.46903" lon="6.23303">
        <ele>708.40002441406</ele>
        <time>2020-11-05T13:12:43.000Z</time>
      </trkpt>
      <trkpt lat="44.46903" lon="6.23303">
        <ele>707.79998779297</ele>
        <time>2020-11-05T13:12:48.000Z</time>
      </trkpt>
      <trkpt lat="44.46902" lon="6.23303">
        <ele>707.79998779297</ele>
        <time>2020-11-05T13:12:59.000Z</time>
      </trkpt>
      <trkpt lat="44.46901" lon="6.23303">
        <ele>707.79998779297</ele>
        <time>2020-11-05T13:13:02.000Z</time>
      </trkpt>
      <trkpt lat="44.46896" lon="6.23305">
        <ele>707.79998779297</ele>
        <time>2020-11-05T13:13:04.000Z</time>
      </trkpt>
      <trkpt lat="44.46894" lon="6.23318">
        <ele>707.79998779297</ele>
        <time>2020-11-05T13:13:07.000Z</time>
      </trkpt>
      <trkpt lat="44.46894" lon="6.23332">
        <ele>707.79998779297</ele>
        <time>2020-11-05T13:13:10.000Z</time>
      </trkpt>
      <trkpt lat="44.46894" lon="6.23341">
        <ele>708</ele>
        <time>2020-11-05T13:13:12.000Z</time>
      </trkpt>
      <trkpt lat="44.46895" lon="6.23381">
        <ele>708.79998779297</ele>
        <time>2020-11-05T13:13:21.000Z</time>
      </trkpt>
      <trkpt lat="44.46896" lon="6.23395">
        <ele>710</ele>
        <time>2020-11-05T13:13:24.000Z</time>
      </trkpt>
      <trkpt lat="44.46897" lon="6.23404">
        <ele>711</ele>
        <time>2020-11-05T13:13:26.000Z</time>
      </trkpt>
      <trkpt lat="44.46899" lon="6.23416">
        <ele>712.20001220703</ele>
        <time>2020-11-05T13:13:29.000Z</time>
      </trkpt>
      <trkpt lat="44.46899" lon="6.2342">
        <ele>712.40002441406</ele>
        <time>2020-11-05T13:13:30.000Z</time>
      </trkpt>
      <trkpt lat="44.469" lon="6.23428">
        <ele>713.20001220703</ele>
        <time>2020-11-05T13:13:32.000Z</time>
      </trkpt>
      <trkpt lat="44.46904" lon="6.23445">
        <ele>714.40002441406</ele>
        <time>2020-11-05T13:13:36.000Z</time>
      </trkpt>
      <trkpt lat="44.46905" lon="6.23449">
        <ele>714.79998779297</ele>
        <time>2020-11-05T13:13:37.000Z</time>
      </trkpt>
      <trkpt lat="44.46905" lon="6.23453">
        <ele>715.59997558594</ele>
        <time>2020-11-05T13:13:38.000Z</time>
      </trkpt>
      <trkpt lat="44.46904" lon="6.23472">
        <ele>716.59997558594</ele>
        <time>2020-11-05T13:13:42.000Z</time>
      </trkpt>
      <trkpt lat="44.46903" lon="6.23476">
        <ele>717</ele>
        <time>2020-11-05T13:13:43.000Z</time>
      </trkpt>
      <trkpt lat="44.46898" lon="6.23487">
        <ele>717.79998779297</ele>
        <time>2020-11-05T13:13:46.000Z</time>
      </trkpt>
      <trkpt lat="44.46893" lon="6.23499">
        <ele>718.79998779297</ele>
        <time>2020-11-05T13:13:50.000Z</time>
      </trkpt>
      <trkpt lat="44.46892" lon="6.23501">
        <ele>719</ele>
        <time>2020-11-05T13:13:51.000Z</time>
      </trkpt>
      <trkpt lat="44.46887" lon="6.23512">
        <ele>720.40002441406</ele>
        <time>2020-11-05T13:13:55.000Z</time>
      </trkpt>
      <trkpt lat="44.46884" lon="6.23521">
        <ele>721.59997558594</ele>
        <time>2020-11-05T13:13:58.000Z</time>
      </trkpt>
      <trkpt lat="44.46883" lon="6.23524">
        <ele>721.79998779297</ele>
        <time>2020-11-05T13:13:59.000Z</time>
      </trkpt>
      <trkpt lat="44.4688" lon="6.23533">
        <ele>722.59997558594</ele>
        <time>2020-11-05T13:14:02.000Z</time>
      </trkpt>
      <trkpt lat="44.46876" lon="6.23544">
        <ele>723.59997558594</ele>
        <time>2020-11-05T13:14:06.000Z</time>
      </trkpt>
      <trkpt lat="44.46873" lon="6.23557">
        <ele>724.59997558594</ele>
        <time>2020-11-05T13:14:10.000Z</time>
      </trkpt>
      <trkpt lat="44.46867" lon="6.23573">
        <ele>725.79998779297</ele>
        <time>2020-11-05T13:14:15.000Z</time>
      </trkpt>
      <trkpt lat="44.46859" lon="6.23593">
        <ele>726.79998779297</ele>
        <time>2020-11-05T13:14:20.000Z</time>
      </trkpt>
      <trkpt lat="44.46856" lon="6.236">
        <ele>726.79998779297</ele>
        <time>2020-11-05T13:14:21.000Z</time>
      </trkpt>
      <trkpt lat="44.46849" lon="6.23613">
        <ele>726.79998779297</ele>
        <time>2020-11-05T13:14:23.000Z</time>
      </trkpt>
      <trkpt lat="44.46845" lon="6.23619">
        <ele>726.79998779297</ele>
        <time>2020-11-05T13:14:24.000Z</time>
      </trkpt>
      <trkpt lat="44.46842" lon="6.23623">
        <ele>726.79998779297</ele>
        <time>2020-11-05T13:14:25.000Z</time>
      </trkpt>
      <trkpt lat="44.46827" lon="6.23635">
        <ele>726.40002441406</ele>
        <time>2020-11-05T13:14:29.000Z</time>
      </trkpt>
      <trkpt lat="44.46823" lon="6.23639">
        <ele>725.40002441406</ele>
        <time>2020-11-05T13:14:30.000Z</time>
      </trkpt>
      <trkpt lat="44.46814" lon="6.23648">
        <ele>723.79998779297</ele>
        <time>2020-11-05T13:14:32.000Z</time>
      </trkpt>
      <trkpt lat="44.468" lon="6.23657">
        <ele>722.59997558594</ele>
        <time>2020-11-05T13:14:35.000Z</time>
      </trkpt>
      <trkpt lat="44.4679" lon="6.23667">
        <ele>721.40002441406</ele>
        <time>2020-11-05T13:14:38.000Z</time>
      </trkpt>
      <trkpt lat="44.46787" lon="6.23673">
        <ele>721</ele>
        <time>2020-11-05T13:14:39.000Z</time>
      </trkpt>
      <trkpt lat="44.46784" lon="6.2368">
        <ele>720.59997558594</ele>
        <time>2020-11-05T13:14:40.000Z</time>
      </trkpt>
      <trkpt lat="44.46777" lon="6.23693">
        <ele>719.40002441406</ele>
        <time>2020-11-05T13:14:42.000Z</time>
      </trkpt>
      <trkpt lat="44.46773" lon="6.237">
        <ele>718.79998779297</ele>
        <time>2020-11-05T13:14:43.000Z</time>
      </trkpt>
      <trkpt lat="44.46768" lon="6.23707">
        <ele>718.20001220703</ele>
        <time>2020-11-05T13:14:44.000Z</time>
      </trkpt>
      <trkpt lat="44.46761" lon="6.2372">
        <ele>717.20001220703</ele>
        <time>2020-11-05T13:14:46.000Z</time>
      </trkpt>
      <trkpt lat="44.46755" lon="6.23732">
        <ele>716</ele>
        <time>2020-11-05T13:14:48.000Z</time>
      </trkpt>
      <trkpt lat="44.46751" lon="6.23744">
        <ele>714.79998779297</ele>
        <time>2020-11-05T13:14:50.000Z</time>
      </trkpt>
      <trkpt lat="44.46747" lon="6.2376">
        <ele>713.79998779297</ele>
        <time>2020-11-05T13:14:53.000Z</time>
      </trkpt>
      <trkpt lat="44.46741" lon="6.23794">
        <ele>713.40002441406</ele>
        <time>2020-11-05T13:14:58.000Z</time>
      </trkpt>
      <trkpt lat="44.4674" lon="6.23816">
        <ele>713</ele>
        <time>2020-11-05T13:15:01.000Z</time>
      </trkpt>
      <trkpt lat="44.46739" lon="6.23829">
        <ele>712.79998779297</ele>
        <time>2020-11-05T13:15:03.000Z</time>
      </trkpt>
      <trkpt lat="44.46738" lon="6.23833">
        <ele>712.79998779297</ele>
        <time>2020-11-05T13:15:04.000Z</time>
      </trkpt>
      <trkpt lat="44.46733" lon="6.23842">
        <ele>712.40002441406</ele>
        <time>2020-11-05T13:15:06.000Z</time>
      </trkpt>
      <trkpt lat="44.46728" lon="6.23852">
        <ele>711.79998779297</ele>
        <time>2020-11-05T13:15:08.000Z</time>
      </trkpt>
      <trkpt lat="44.46726" lon="6.23857">
        <ele>711.40002441406</ele>
        <time>2020-11-05T13:15:09.000Z</time>
      </trkpt>
      <trkpt lat="44.46724" lon="6.23863">
        <ele>711.20001220703</ele>
        <time>2020-11-05T13:15:10.000Z</time>
      </trkpt>
      <trkpt lat="44.4672" lon="6.23876">
        <ele>710.79998779297</ele>
        <time>2020-11-05T13:15:12.000Z</time>
      </trkpt>
      <trkpt lat="44.46718" lon="6.23883">
        <ele>710.40002441406</ele>
        <time>2020-11-05T13:15:13.000Z</time>
      </trkpt>
      <trkpt lat="44.46716" lon="6.23889">
        <ele>709.59997558594</ele>
        <time>2020-11-05T13:15:14.000Z</time>
      </trkpt>
      <trkpt lat="44.46715" lon="6.23895">
        <ele>708.59997558594</ele>
        <time>2020-11-05T13:15:15.000Z</time>
      </trkpt>
      <trkpt lat="44.46713" lon="6.23898">
        <ele>707.59997558594</ele>
        <time>2020-11-05T13:15:16.000Z</time>
      </trkpt>
      <trkpt lat="44.4671" lon="6.23901">
        <ele>706.40002441406</ele>
        <time>2020-11-05T13:15:17.000Z</time>
      </trkpt>
      <trkpt lat="44.46707" lon="6.23903">
        <ele>705.20001220703</ele>
        <time>2020-11-05T13:15:18.000Z</time>
      </trkpt>
      <trkpt lat="44.46703" lon="6.23906">
        <ele>704</ele>
        <time>2020-11-05T13:15:19.000Z</time>
      </trkpt>
      <trkpt lat="44.46699" lon="6.23909">
        <ele>703</ele>
        <time>2020-11-05T13:15:20.000Z</time>
      </trkpt>
      <trkpt lat="44.46696" lon="6.23912">
        <ele>701.79998779297</ele>
        <time>2020-11-05T13:15:21.000Z</time>
      </trkpt>
      <trkpt lat="44.46693" lon="6.23914">
        <ele>700.59997558594</ele>
        <time>2020-11-05T13:15:22.000Z</time>
      </trkpt>
      <trkpt lat="44.46691" lon="6.23917">
        <ele>699.59997558594</ele>
        <time>2020-11-05T13:15:23.000Z</time>
      </trkpt>
      <trkpt lat="44.4669" lon="6.23921">
        <ele>699</ele>
        <time>2020-11-05T13:15:24.000Z</time>
      </trkpt>
      <trkpt lat="44.46689" lon="6.23925">
        <ele>698.79998779297</ele>
        <time>2020-11-05T13:15:25.000Z</time>
      </trkpt>
      <trkpt lat="44.46689" lon="6.23929">
        <ele>698.40002441406</ele>
        <time>2020-11-05T13:15:26.000Z</time>
      </trkpt>
      <trkpt lat="44.46689" lon="6.23933">
        <ele>698</ele>
        <time>2020-11-05T13:15:27.000Z</time>
      </trkpt>
      <trkpt lat="44.46689" lon="6.23943">
        <ele>697</ele>
        <time>2020-11-05T13:15:29.000Z</time>
      </trkpt>
      <trkpt lat="44.46688" lon="6.23955">
        <ele>696.40002441406</ele>
        <time>2020-11-05T13:15:31.000Z</time>
      </trkpt>
      <trkpt lat="44.46688" lon="6.23962">
        <ele>696.40002441406</ele>
        <time>2020-11-05T13:15:32.000Z</time>
      </trkpt>
      <trkpt lat="44.46684" lon="6.23985">
        <ele>696.20001220703</ele>
        <time>2020-11-05T13:15:35.000Z</time>
      </trkpt>
      <trkpt lat="44.46682" lon="6.23992">
        <ele>696.20001220703</ele>
        <time>2020-11-05T13:15:36.000Z</time>
      </trkpt>
      <trkpt lat="44.46678" lon="6.24007">
        <ele>696</ele>
        <time>2020-11-05T13:15:38.000Z</time>
      </trkpt>
      <trkpt lat="44.46678" lon="6.24014">
        <ele>695.79998779297</ele>
        <time>2020-11-05T13:15:39.000Z</time>
      </trkpt>
      <trkpt lat="44.46686" lon="6.24029">
        <ele>694.40002441406</ele>
        <time>2020-11-05T13:15:42.000Z</time>
      </trkpt>
      <trkpt lat="44.46693" lon="6.24041">
        <ele>693.40002441406</ele>
        <time>2020-11-05T13:15:44.000Z</time>
      </trkpt>
      <trkpt lat="44.46695" lon="6.24049">
        <ele>693</ele>
        <time>2020-11-05T13:15:45.000Z</time>
      </trkpt>
      <trkpt lat="44.46697" lon="6.24057">
        <ele>692.59997558594</ele>
        <time>2020-11-05T13:15:46.000Z</time>
      </trkpt>
      <trkpt lat="44.46697" lon="6.24072">
        <ele>691.79998779297</ele>
        <time>2020-11-05T13:15:48.000Z</time>
      </trkpt>
      <trkpt lat="44.46696" lon="6.24077">
        <ele>691.59997558594</ele>
        <time>2020-11-05T13:15:49.000Z</time>
      </trkpt>
      <trkpt lat="44.4669" lon="6.24081">
        <ele>690.59997558594</ele>
        <time>2020-11-05T13:15:51.000Z</time>
      </trkpt>
      <trkpt lat="44.46686" lon="6.24072">
        <ele>689.20001220703</ele>
        <time>2020-11-05T13:15:53.000Z</time>
      </trkpt>
      <trkpt lat="44.46685" lon="6.24066">
        <ele>688.20001220703</ele>
        <time>2020-11-05T13:15:54.000Z</time>
      </trkpt>
      <trkpt lat="44.46684" lon="6.24059">
        <ele>687.20001220703</ele>
        <time>2020-11-05T13:15:55.000Z</time>
      </trkpt>
      <trkpt lat="44.46681" lon="6.24047">
        <ele>685.20001220703</ele>
        <time>2020-11-05T13:15:57.000Z</time>
      </trkpt>
      <trkpt lat="44.46678" lon="6.24044">
        <ele>685</ele>
        <time>2020-11-05T13:15:58.000Z</time>
      </trkpt>
      <trkpt lat="44.46667" lon="6.24044">
        <ele>684.40002441406</ele>
        <time>2020-11-05T13:16:01.000Z</time>
      </trkpt>
      <trkpt lat="44.46666" lon="6.24048">
        <ele>683.79998779297</ele>
        <time>2020-11-05T13:16:02.000Z</time>
      </trkpt>
      <trkpt lat="44.46666" lon="6.24059">
        <ele>682.20001220703</ele>
        <time>2020-11-05T13:16:04.000Z</time>
      </trkpt>
      <trkpt lat="44.46667" lon="6.24066">
        <ele>681.40002441406</ele>
        <time>2020-11-05T13:16:05.000Z</time>
      </trkpt>
      <trkpt lat="44.46667" lon="6.24074">
        <ele>681</ele>
        <time>2020-11-05T13:16:06.000Z</time>
      </trkpt>
      <trkpt lat="44.46667" lon="6.24092">
        <ele>679.59997558594</ele>
        <time>2020-11-05T13:16:08.000Z</time>
      </trkpt>
      <trkpt lat="44.46667" lon="6.24121">
        <ele>678.40002441406</ele>
        <time>2020-11-05T13:16:11.000Z</time>
      </trkpt>
      <trkpt lat="44.46665" lon="6.24142">
        <ele>677</ele>
        <time>2020-11-05T13:16:13.000Z</time>
      </trkpt>
      <trkpt lat="44.46662" lon="6.24164">
        <ele>675.20001220703</ele>
        <time>2020-11-05T13:16:15.000Z</time>
      </trkpt>
      <trkpt lat="44.46661" lon="6.24175">
        <ele>674</ele>
        <time>2020-11-05T13:16:16.000Z</time>
      </trkpt>
      <trkpt lat="44.4666" lon="6.24185">
        <ele>673</ele>
        <time>2020-11-05T13:16:17.000Z</time>
      </trkpt>
      <trkpt lat="44.4666" lon="6.24195">
        <ele>672</ele>
        <time>2020-11-05T13:16:18.000Z</time>
      </trkpt>
      <trkpt lat="44.46659" lon="6.24204">
        <ele>671.40002441406</ele>
        <time>2020-11-05T13:16:19.000Z</time>
      </trkpt>
      <trkpt lat="44.46657" lon="6.24221">
        <ele>670</ele>
        <time>2020-11-05T13:16:21.000Z</time>
      </trkpt>
      <trkpt lat="44.46657" lon="6.2423">
        <ele>668.79998779297</ele>
        <time>2020-11-05T13:16:22.000Z</time>
      </trkpt>
      <trkpt lat="44.46655" lon="6.24247">
        <ele>667.79998779297</ele>
        <time>2020-11-05T13:16:24.000Z</time>
      </trkpt>
      <trkpt lat="44.46653" lon="6.24255">
        <ele>667.40002441406</ele>
        <time>2020-11-05T13:16:25.000Z</time>
      </trkpt>
      <trkpt lat="44.46642" lon="6.243">
        <ele>667.40002441406</ele>
        <time>2020-11-05T13:16:31.000Z</time>
      </trkpt>
      <trkpt lat="44.46634" lon="6.24355">
        <ele>668.40002441406</ele>
        <time>2020-11-05T13:16:38.000Z</time>
      </trkpt>
      <trkpt lat="44.46632" lon="6.24371">
        <ele>668.79998779297</ele>
        <time>2020-11-05T13:16:40.000Z</time>
      </trkpt>
      <trkpt lat="44.46628" lon="6.24423">
        <ele>669.40002441406</ele>
        <time>2020-11-05T13:16:46.000Z</time>
      </trkpt>
      <trkpt lat="44.46623" lon="6.24491">
        <ele>669.40002441406</ele>
        <time>2020-11-05T13:16:53.000Z</time>
      </trkpt>
      <trkpt lat="44.46621" lon="6.24521">
        <ele>669</ele>
        <time>2020-11-05T13:16:56.000Z</time>
      </trkpt>
      <trkpt lat="44.46614" lon="6.24602">
        <ele>667.59997558594</ele>
        <time>2020-11-05T13:17:04.000Z</time>
      </trkpt>
      <trkpt lat="44.46613" lon="6.24664">
        <ele>666.59997558594</ele>
        <time>2020-11-05T13:17:10.000Z</time>
      </trkpt>
      <trkpt lat="44.46614" lon="6.24675">
        <ele>666.40002441406</ele>
        <time>2020-11-05T13:17:11.000Z</time>
      </trkpt>
      <trkpt lat="44.46623" lon="6.24724">
        <ele>665.40002441406</ele>
        <time>2020-11-05T13:17:16.000Z</time>
      </trkpt>
      <trkpt lat="44.46628" lon="6.24753">
        <ele>665.40002441406</ele>
        <time>2020-11-05T13:17:19.000Z</time>
      </trkpt>
      <trkpt lat="44.46634" lon="6.24789">
        <ele>665</ele>
        <time>2020-11-05T13:17:23.000Z</time>
      </trkpt>
      <trkpt lat="44.4665" lon="6.24868">
        <ele>665.59997558594</ele>
        <time>2020-11-05T13:17:32.000Z</time>
      </trkpt>
      <trkpt lat="44.46662" lon="6.24931">
        <ele>666.20001220703</ele>
        <time>2020-11-05T13:17:39.000Z</time>
      </trkpt>
      <trkpt lat="44.46664" lon="6.2494">
        <ele>666.20001220703</ele>
        <time>2020-11-05T13:17:40.000Z</time>
      </trkpt>
      <trkpt lat="44.46681" lon="6.25009">
        <ele>666.40002441406</ele>
        <time>2020-11-05T13:17:48.000Z</time>
      </trkpt>
      <trkpt lat="44.46684" lon="6.25018">
        <ele>666.40002441406</ele>
        <time>2020-11-05T13:17:49.000Z</time>
      </trkpt>
      <trkpt lat="44.4671" lon="6.25094">
        <ele>667</ele>
        <time>2020-11-05T13:17:58.000Z</time>
      </trkpt>
      <trkpt lat="44.46717" lon="6.2512">
        <ele>667</ele>
        <time>2020-11-05T13:18:01.000Z</time>
      </trkpt>
      <trkpt lat="44.46732" lon="6.25183">
        <ele>667.20001220703</ele>
        <time>2020-11-05T13:18:08.000Z</time>
      </trkpt>
      <trkpt lat="44.46745" lon="6.25263">
        <ele>667.20001220703</ele>
        <time>2020-11-05T13:18:17.000Z</time>
      </trkpt>
      <trkpt lat="44.46754" lon="6.25333">
        <ele>667.40002441406</ele>
        <time>2020-11-05T13:18:25.000Z</time>
      </trkpt>
      <trkpt lat="44.46764" lon="6.25408">
        <ele>667.59997558594</ele>
        <time>2020-11-05T13:18:34.000Z</time>
      </trkpt>
      <trkpt lat="44.46766" lon="6.25424">
        <ele>667.79998779297</ele>
        <time>2020-11-05T13:18:36.000Z</time>
      </trkpt>
      <trkpt lat="44.46766" lon="6.25432">
        <ele>667.79998779297</ele>
        <time>2020-11-05T13:18:37.000Z</time>
      </trkpt>
      <trkpt lat="44.46772" lon="6.25475">
        <ele>668.59997558594</ele>
        <time>2020-11-05T13:18:43.000Z</time>
      </trkpt>
      <trkpt lat="44.46772" lon="6.25482">
        <ele>668.79998779297</ele>
        <time>2020-11-05T13:18:44.000Z</time>
      </trkpt>
      <trkpt lat="44.46776" lon="6.25512">
        <ele>670</ele>
        <time>2020-11-05T13:18:48.000Z</time>
      </trkpt>
      <trkpt lat="44.46778" lon="6.25529">
        <ele>670.20001220703</ele>
        <time>2020-11-05T13:18:50.000Z</time>
      </trkpt>
      <trkpt lat="44.46779" lon="6.25537">
        <ele>670.20001220703</ele>
        <time>2020-11-05T13:18:51.000Z</time>
      </trkpt>
      <trkpt lat="44.46788" lon="6.25615">
        <ele>669.59997558594</ele>
        <time>2020-11-05T13:19:00.000Z</time>
      </trkpt>
      <trkpt lat="44.46789" lon="6.25623">
        <ele>669.59997558594</ele>
        <time>2020-11-05T13:19:01.000Z</time>
      </trkpt>
      <trkpt lat="44.46799" lon="6.2567">
        <ele>669.40002441406</ele>
        <time>2020-11-05T13:19:07.000Z</time>
      </trkpt>
      <trkpt lat="44.46819" lon="6.25748">
        <ele>670</ele>
        <time>2020-11-05T13:19:17.000Z</time>
      </trkpt>
      <trkpt lat="44.46821" lon="6.25756">
        <ele>670</ele>
        <time>2020-11-05T13:19:18.000Z</time>
      </trkpt>
      <trkpt lat="44.4684" lon="6.25827">
        <ele>670.20001220703</ele>
        <time>2020-11-05T13:19:27.000Z</time>
      </trkpt>
      <trkpt lat="44.46843" lon="6.25835">
        <ele>670.20001220703</ele>
        <time>2020-11-05T13:19:28.000Z</time>
      </trkpt>
      <trkpt lat="44.46858" lon="6.25912">
        <ele>670.59997558594</ele>
        <time>2020-11-05T13:19:37.000Z</time>
      </trkpt>
      <trkpt lat="44.46863" lon="6.25981">
        <ele>670.59997558594</ele>
        <time>2020-11-05T13:19:45.000Z</time>
      </trkpt>
      <trkpt lat="44.46864" lon="6.26017">
        <ele>670.79998779297</ele>
        <time>2020-11-05T13:19:49.000Z</time>
      </trkpt>
      <trkpt lat="44.46868" lon="6.26072">
        <ele>671</ele>
        <time>2020-11-05T13:19:55.000Z</time>
      </trkpt>
      <trkpt lat="44.46869" lon="6.26123">
        <ele>671.20001220703</ele>
        <time>2020-11-05T13:20:01.000Z</time>
      </trkpt>
      <trkpt lat="44.4687" lon="6.2618">
        <ele>671.59997558594</ele>
        <time>2020-11-05T13:20:08.000Z</time>
      </trkpt>
      <trkpt lat="44.46872" lon="6.26188">
        <ele>672</ele>
        <time>2020-11-05T13:20:09.000Z</time>
      </trkpt>
      <trkpt lat="44.46876" lon="6.26202">
        <ele>673</ele>
        <time>2020-11-05T13:20:11.000Z</time>
      </trkpt>
      <trkpt lat="44.46881" lon="6.26216">
        <ele>674.59997558594</ele>
        <time>2020-11-05T13:20:13.000Z</time>
      </trkpt>
      <trkpt lat="44.46886" lon="6.26229">
        <ele>675.59997558594</ele>
        <time>2020-11-05T13:20:15.000Z</time>
      </trkpt>
      <trkpt lat="44.46893" lon="6.26243">
        <ele>676.79998779297</ele>
        <time>2020-11-05T13:20:18.000Z</time>
      </trkpt>
      <trkpt lat="44.46894" lon="6.26247">
        <ele>677.40002441406</ele>
        <time>2020-11-05T13:20:19.000Z</time>
      </trkpt>
      <trkpt lat="44.46897" lon="6.26255">
        <ele>678.20001220703</ele>
        <time>2020-11-05T13:20:21.000Z</time>
      </trkpt>
      <trkpt lat="44.46903" lon="6.26268">
        <ele>679.79998779297</ele>
        <time>2020-11-05T13:20:24.000Z</time>
      </trkpt>
      <trkpt lat="44.46906" lon="6.26277">
        <ele>680.79998779297</ele>
        <time>2020-11-05T13:20:26.000Z</time>
      </trkpt>
      <trkpt lat="44.46908" lon="6.26286">
        <ele>682</ele>
        <time>2020-11-05T13:20:28.000Z</time>
      </trkpt>
      <trkpt lat="44.4691" lon="6.263">
        <ele>683.20001220703</ele>
        <time>2020-11-05T13:20:31.000Z</time>
      </trkpt>
      <trkpt lat="44.46914" lon="6.26314">
        <ele>684.40002441406</ele>
        <time>2020-11-05T13:20:35.000Z</time>
      </trkpt>
      <trkpt lat="44.46918" lon="6.26306">
        <ele>685.20001220703</ele>
        <time>2020-11-05T13:20:38.000Z</time>
      </trkpt>
      <trkpt lat="44.46918" lon="6.26303">
        <ele>685.40002441406</ele>
        <time>2020-11-05T13:20:39.000Z</time>
      </trkpt>
      <trkpt lat="44.46918" lon="6.26293">
        <ele>686.59997558594</ele>
        <time>2020-11-05T13:20:42.000Z</time>
      </trkpt>
      <trkpt lat="44.46918" lon="6.2629">
        <ele>686.79998779297</ele>
        <time>2020-11-05T13:20:43.000Z</time>
      </trkpt>
      <trkpt lat="44.4692" lon="6.26274">
        <ele>687.40002441406</ele>
        <time>2020-11-05T13:20:48.000Z</time>
      </trkpt>
      <trkpt lat="44.46919" lon="6.26265">
        <ele>688</ele>
        <time>2020-11-05T13:20:51.000Z</time>
      </trkpt>
      <trkpt lat="44.46917" lon="6.26261">
        <ele>688.40002441406</ele>
        <time>2020-11-05T13:20:53.000Z</time>
      </trkpt>
      <trkpt lat="44.46916" lon="6.26258">
        <ele>688.79998779297</ele>
        <time>2020-11-05T13:20:54.000Z</time>
      </trkpt>
      <trkpt lat="44.46917" lon="6.26255">
        <ele>689.79998779297</ele>
        <time>2020-11-05T13:20:56.000Z</time>
      </trkpt>
      <trkpt lat="44.46921" lon="6.26254">
        <ele>691</ele>
        <time>2020-11-05T13:20:59.000Z</time>
      </trkpt>
      <trkpt lat="44.46927" lon="6.26254">
        <ele>692.20001220703</ele>
        <time>2020-11-05T13:21:03.000Z</time>
      </trkpt>
      <trkpt lat="44.46932" lon="6.26255">
        <ele>693.40002441406</ele>
        <time>2020-11-05T13:21:06.000Z</time>
      </trkpt>
      <trkpt lat="44.46936" lon="6.26255">
        <ele>695.20001220703</ele>
        <time>2020-11-05T13:21:09.000Z</time>
      </trkpt>
      <trkpt lat="44.46939" lon="6.26255">
        <ele>696</ele>
        <time>2020-11-05T13:21:11.000Z</time>
      </trkpt>
      <trkpt lat="44.4694" lon="6.26256">
        <ele>696.40002441406</ele>
        <time>2020-11-05T13:21:12.000Z</time>
      </trkpt>
      <trkpt lat="44.46943" lon="6.26257">
        <ele>697.40002441406</ele>
        <time>2020-11-05T13:21:14.000Z</time>
      </trkpt>
      <trkpt lat="44.46947" lon="6.26259">
        <ele>698.59997558594</ele>
        <time>2020-11-05T13:21:16.000Z</time>
      </trkpt>
      <trkpt lat="44.46952" lon="6.26259">
        <ele>699.79998779297</ele>
        <time>2020-11-05T13:21:19.000Z</time>
      </trkpt>
      <trkpt lat="44.46957" lon="6.26258">
        <ele>701</ele>
        <time>2020-11-05T13:21:22.000Z</time>
      </trkpt>
      <trkpt lat="44.46964" lon="6.26258">
        <ele>702.20001220703</ele>
        <time>2020-11-05T13:21:26.000Z</time>
      </trkpt>
      <trkpt lat="44.46967" lon="6.26257">
        <ele>703</ele>
        <time>2020-11-05T13:21:28.000Z</time>
      </trkpt>
      <trkpt lat="44.46969" lon="6.26257">
        <ele>703.40002441406</ele>
        <time>2020-11-05T13:21:29.000Z</time>
      </trkpt>
      <trkpt lat="44.46975" lon="6.26256">
        <ele>704.79998779297</ele>
        <time>2020-11-05T13:21:33.000Z</time>
      </trkpt>
      <trkpt lat="44.46979" lon="6.26256">
        <ele>705.79998779297</ele>
        <time>2020-11-05T13:21:36.000Z</time>
      </trkpt>
      <trkpt lat="44.4698" lon="6.26257">
        <ele>707</ele>
        <time>2020-11-05T13:21:37.000Z</time>
      </trkpt>
      <trkpt lat="44.46984" lon="6.26262">
        <ele>708.40002441406</ele>
        <time>2020-11-05T13:21:40.000Z</time>
      </trkpt>
      <trkpt lat="44.46985" lon="6.26263">
        <ele>709</ele>
        <time>2020-11-05T13:21:41.000Z</time>
      </trkpt>
      <trkpt lat="44.46987" lon="6.26267">
        <ele>709.79998779297</ele>
        <time>2020-11-05T13:21:43.000Z</time>
      </trkpt>
      <trkpt lat="44.46988" lon="6.26269">
        <ele>710.20001220703</ele>
        <time>2020-11-05T13:21:44.000Z</time>
      </trkpt>
      <trkpt lat="44.4699" lon="6.26272">
        <ele>710.79998779297</ele>
        <time>2020-11-05T13:21:46.000Z</time>
      </trkpt>
      <trkpt lat="44.46994" lon="6.26279">
        <ele>712.20001220703</ele>
        <time>2020-11-05T13:21:50.000Z</time>
      </trkpt>
      <trkpt lat="44.46996" lon="6.26283">
        <ele>712.59997558594</ele>
        <time>2020-11-05T13:21:52.000Z</time>
      </trkpt>
      <trkpt lat="44.46997" lon="6.26286">
        <ele>713.40002441406</ele>
        <time>2020-11-05T13:21:54.000Z</time>
      </trkpt>
      <trkpt lat="44.46997" lon="6.26289">
        <ele>713.59997558594</ele>
        <time>2020-11-05T13:21:55.000Z</time>
      </trkpt>
      <trkpt lat="44.46995" lon="6.26295">
        <ele>714.79998779297</ele>
        <time>2020-11-05T13:21:58.000Z</time>
      </trkpt>
      <trkpt lat="44.46995" lon="6.26301">
        <ele>716</ele>
        <time>2020-11-05T13:22:01.000Z</time>
      </trkpt>
      <trkpt lat="44.46998" lon="6.26303">
        <ele>717</ele>
        <time>2020-11-05T13:22:03.000Z</time>
      </trkpt>
      <trkpt lat="44.47" lon="6.26303">
        <ele>717.40002441406</ele>
        <time>2020-11-05T13:22:04.000Z</time>
      </trkpt>
      <trkpt lat="44.47003" lon="6.26302">
        <ele>718.59997558594</ele>
        <time>2020-11-05T13:22:06.000Z</time>
      </trkpt>
      <trkpt lat="44.47005" lon="6.26302">
        <ele>719</ele>
        <time>2020-11-05T13:22:07.000Z</time>
      </trkpt>
      <trkpt lat="44.47008" lon="6.26302">
        <ele>719.79998779297</ele>
        <time>2020-11-05T13:22:09.000Z</time>
      </trkpt>
      <trkpt lat="44.47013" lon="6.26302">
        <ele>720.79998779297</ele>
        <time>2020-11-05T13:22:12.000Z</time>
      </trkpt>
      <trkpt lat="44.4702" lon="6.26302">
        <ele>722</ele>
        <time>2020-11-05T13:22:16.000Z</time>
      </trkpt>
      <trkpt lat="44.47023" lon="6.26301">
        <ele>722.79998779297</ele>
        <time>2020-11-05T13:22:18.000Z</time>
      </trkpt>
      <trkpt lat="44.47025" lon="6.263">
        <ele>723.20001220703</ele>
        <time>2020-11-05T13:22:19.000Z</time>
      </trkpt>
      <trkpt lat="44.4703" lon="6.26296">
        <ele>724.59997558594</ele>
        <time>2020-11-05T13:22:22.000Z</time>
      </trkpt>
      <trkpt lat="44.47033" lon="6.2629">
        <ele>725.40002441406</ele>
        <time>2020-11-05T13:22:25.000Z</time>
      </trkpt>
      <trkpt lat="44.47034" lon="6.26288">
        <ele>725.79998779297</ele>
        <time>2020-11-05T13:22:26.000Z</time>
      </trkpt>
      <trkpt lat="44.47039" lon="6.26277">
        <ele>726.59997558594</ele>
        <time>2020-11-05T13:22:31.000Z</time>
      </trkpt>
      <trkpt lat="44.47039" lon="6.26272">
        <ele>727.20001220703</ele>
        <time>2020-11-05T13:22:33.000Z</time>
      </trkpt>
      <trkpt lat="44.47039" lon="6.26264">
        <ele>727.79998779297</ele>
        <time>2020-11-05T13:22:36.000Z</time>
      </trkpt>
      <trkpt lat="44.47036" lon="6.26254">
        <ele>729</ele>
        <time>2020-11-05T13:22:40.000Z</time>
      </trkpt>
      <trkpt lat="44.47036" lon="6.26252">
        <ele>729.40002441406</ele>
        <time>2020-11-05T13:22:41.000Z</time>
      </trkpt>
      <trkpt lat="44.47034" lon="6.26247">
        <ele>730.20001220703</ele>
        <time>2020-11-05T13:22:43.000Z</time>
      </trkpt>
      <trkpt lat="44.47031" lon="6.26238">
        <ele>731.40002441406</ele>
        <time>2020-11-05T13:22:47.000Z</time>
      </trkpt>
      <trkpt lat="44.47029" lon="6.26231">
        <ele>732.20001220703</ele>
        <time>2020-11-05T13:22:50.000Z</time>
      </trkpt>
      <trkpt lat="44.47028" lon="6.26227">
        <ele>732.59997558594</ele>
        <time>2020-11-05T13:22:52.000Z</time>
      </trkpt>
      <trkpt lat="44.47024" lon="6.26215">
        <ele>733.79998779297</ele>
        <time>2020-11-05T13:22:57.000Z</time>
      </trkpt>
      <trkpt lat="44.47023" lon="6.26213">
        <ele>734</ele>
        <time>2020-11-05T13:22:58.000Z</time>
      </trkpt>
      <trkpt lat="44.47021" lon="6.26206">
        <ele>734.79998779297</ele>
        <time>2020-11-05T13:23:01.000Z</time>
      </trkpt>
      <trkpt lat="44.47017" lon="6.26198">
        <ele>735.79998779297</ele>
        <time>2020-11-05T13:23:05.000Z</time>
      </trkpt>
      <trkpt lat="44.47015" lon="6.26189">
        <ele>736.59997558594</ele>
        <time>2020-11-05T13:23:09.000Z</time>
      </trkpt>
      <trkpt lat="44.47015" lon="6.26187">
        <ele>736.79998779297</ele>
        <time>2020-11-05T13:23:10.000Z</time>
      </trkpt>
      <trkpt lat="44.47016" lon="6.26186">
        <ele>736.79998779297</ele>
        <time>2020-11-05T13:23:11.000Z</time>
      </trkpt>
      <trkpt lat="44.4702" lon="6.26189">
        <ele>737</ele>
        <time>2020-11-05T13:23:14.000Z</time>
      </trkpt>
      <trkpt lat="44.47022" lon="6.26192">
        <ele>737.20001220703</ele>
        <time>2020-11-05T13:23:16.000Z</time>
      </trkpt>
      <trkpt lat="44.47026" lon="6.26197">
        <ele>737.79998779297</ele>
        <time>2020-11-05T13:23:19.000Z</time>
      </trkpt>
      <trkpt lat="44.47029" lon="6.262">
        <ele>738.59997558594</ele>
        <time>2020-11-05T13:23:21.000Z</time>
      </trkpt>
      <trkpt lat="44.47031" lon="6.26203">
        <ele>739</ele>
        <time>2020-11-05T13:23:23.000Z</time>
      </trkpt>
      <trkpt lat="44.47038" lon="6.26209">
        <ele>740.40002441406</ele>
        <time>2020-11-05T13:23:28.000Z</time>
      </trkpt>
      <trkpt lat="44.47041" lon="6.26213">
        <ele>741.59997558594</ele>
        <time>2020-11-05T13:23:31.000Z</time>
      </trkpt>
      <trkpt lat="44.47047" lon="6.26218">
        <ele>742.79998779297</ele>
        <time>2020-11-05T13:23:35.000Z</time>
      </trkpt>
      <trkpt lat="44.47052" lon="6.26222">
        <ele>744</ele>
        <time>2020-11-05T13:23:39.000Z</time>
      </trkpt>
      <trkpt lat="44.47056" lon="6.26226">
        <ele>745.59997558594</ele>
        <time>2020-11-05T13:23:42.000Z</time>
      </trkpt>
      <trkpt lat="44.47058" lon="6.26227">
        <ele>746</ele>
        <time>2020-11-05T13:23:43.000Z</time>
      </trkpt>
      <trkpt lat="44.47061" lon="6.2623">
        <ele>746.59997558594</ele>
        <time>2020-11-05T13:23:45.000Z</time>
      </trkpt>
      <trkpt lat="44.47065" lon="6.26233">
        <ele>747.79998779297</ele>
        <time>2020-11-05T13:23:48.000Z</time>
      </trkpt>
      <trkpt lat="44.47069" lon="6.26236">
        <ele>748.79998779297</ele>
        <time>2020-11-05T13:23:51.000Z</time>
      </trkpt>
      <trkpt lat="44.47072" lon="6.26239">
        <ele>749.20001220703</ele>
        <time>2020-11-05T13:23:53.000Z</time>
      </trkpt>
      <trkpt lat="44.47075" lon="6.26242">
        <ele>749.79998779297</ele>
        <time>2020-11-05T13:23:55.000Z</time>
      </trkpt>
      <trkpt lat="44.4708" lon="6.26249">
        <ele>750.79998779297</ele>
        <time>2020-11-05T13:23:59.000Z</time>
      </trkpt>
      <trkpt lat="44.47085" lon="6.26255">
        <ele>751.79998779297</ele>
        <time>2020-11-05T13:24:03.000Z</time>
      </trkpt>
      <trkpt lat="44.47086" lon="6.26257">
        <ele>752</ele>
        <time>2020-11-05T13:24:04.000Z</time>
      </trkpt>
      <trkpt lat="44.47092" lon="6.26266">
        <ele>753</ele>
        <time>2020-11-05T13:24:09.000Z</time>
      </trkpt>
      <trkpt lat="44.47095" lon="6.26275">
        <ele>754.40002441406</ele>
        <time>2020-11-05T13:24:13.000Z</time>
      </trkpt>
      <trkpt lat="44.47098" lon="6.26284">
        <ele>755.59997558594</ele>
        <time>2020-11-05T13:24:17.000Z</time>
      </trkpt>
      <trkpt lat="44.471" lon="6.26296">
        <ele>756.59997558594</ele>
        <time>2020-11-05T13:24:22.000Z</time>
      </trkpt>
      <trkpt lat="44.471" lon="6.26299">
        <ele>756.79998779297</ele>
        <time>2020-11-05T13:24:23.000Z</time>
      </trkpt>
      <trkpt lat="44.47102" lon="6.26315">
        <ele>757.79998779297</ele>
        <time>2020-11-05T13:24:30.000Z</time>
      </trkpt>
      <trkpt lat="44.47102" lon="6.26328">
        <ele>759</ele>
        <time>2020-11-05T13:24:36.000Z</time>
      </trkpt>
      <trkpt lat="44.47101" lon="6.26332">
        <ele>759.40002441406</ele>
        <time>2020-11-05T13:24:38.000Z</time>
      </trkpt>
      <trkpt lat="44.471" lon="6.26336">
        <ele>760</ele>
        <time>2020-11-05T13:24:40.000Z</time>
      </trkpt>
      <trkpt lat="44.47097" lon="6.26344">
        <ele>761.20001220703</ele>
        <time>2020-11-05T13:24:44.000Z</time>
      </trkpt>
      <trkpt lat="44.47096" lon="6.26347">
        <ele>761.59997558594</ele>
        <time>2020-11-05T13:24:46.000Z</time>
      </trkpt>
      <trkpt lat="44.47098" lon="6.26351">
        <ele>762.40002441406</ele>
        <time>2020-11-05T13:24:48.000Z</time>
      </trkpt>
      <trkpt lat="44.47101" lon="6.26353">
        <ele>763.20001220703</ele>
        <time>2020-11-05T13:24:50.000Z</time>
      </trkpt>
      <trkpt lat="44.47103" lon="6.26355">
        <ele>763.59997558594</ele>
        <time>2020-11-05T13:24:51.000Z</time>
      </trkpt>
      <trkpt lat="44.47107" lon="6.26355">
        <ele>764.59997558594</ele>
        <time>2020-11-05T13:24:53.000Z</time>
      </trkpt>
      <trkpt lat="44.47109" lon="6.26354">
        <ele>765</ele>
        <time>2020-11-05T13:24:54.000Z</time>
      </trkpt>
      <trkpt lat="44.47112" lon="6.26349">
        <ele>765.40002441406</ele>
        <time>2020-11-05T13:24:56.000Z</time>
      </trkpt>
      <trkpt lat="44.47115" lon="6.26344">
        <ele>765.59997558594</ele>
        <time>2020-11-05T13:24:58.000Z</time>
      </trkpt>
      <trkpt lat="44.47117" lon="6.26338">
        <ele>765.79998779297</ele>
        <time>2020-11-05T13:25:00.000Z</time>
      </trkpt>
      <trkpt lat="44.47123" lon="6.26319">
        <ele>766.79998779297</ele>
        <time>2020-11-05T13:25:07.000Z</time>
      </trkpt>
      <trkpt lat="44.47124" lon="6.26316">
        <ele>767</ele>
        <time>2020-11-05T13:25:08.000Z</time>
      </trkpt>
      <trkpt lat="44.47124" lon="6.26297">
        <ele>767.79998779297</ele>
        <time>2020-11-05T13:25:14.000Z</time>
      </trkpt>
      <trkpt lat="44.47123" lon="6.26288">
        <ele>768.20001220703</ele>
        <time>2020-11-05T13:25:17.000Z</time>
      </trkpt>
      <trkpt lat="44.47122" lon="6.26276">
        <ele>769</ele>
        <time>2020-11-05T13:25:21.000Z</time>
      </trkpt>
      <trkpt lat="44.47119" lon="6.26267">
        <ele>769.40002441406</ele>
        <time>2020-11-05T13:25:24.000Z</time>
      </trkpt>
      <trkpt lat="44.47118" lon="6.26253">
        <ele>770</ele>
        <time>2020-11-05T13:25:29.000Z</time>
      </trkpt>
      <trkpt lat="44.47117" lon="6.26247">
        <ele>770.40002441406</ele>
        <time>2020-11-05T13:25:31.000Z</time>
      </trkpt>
      <trkpt lat="44.47113" lon="6.26235">
        <ele>771.20001220703</ele>
        <time>2020-11-05T13:25:35.000Z</time>
      </trkpt>
      <trkpt lat="44.47109" lon="6.26225">
        <ele>771.79998779297</ele>
        <time>2020-11-05T13:25:38.000Z</time>
      </trkpt>
      <trkpt lat="44.47107" lon="6.26222">
        <ele>772</ele>
        <time>2020-11-05T13:25:39.000Z</time>
      </trkpt>
      <trkpt lat="44.47102" lon="6.26211">
        <ele>772.40002441406</ele>
        <time>2020-11-05T13:25:42.000Z</time>
      </trkpt>
      <trkpt lat="44.47103" lon="6.26206">
        <ele>772.40002441406</ele>
        <time>2020-11-05T13:25:43.000Z</time>
      </trkpt>
      <trkpt lat="44.4711" lon="6.26198">
        <ele>773</ele>
        <time>2020-11-05T13:25:46.000Z</time>
      </trkpt>
      <trkpt lat="44.47117" lon="6.26203">
        <ele>773.59997558594</ele>
        <time>2020-11-05T13:25:49.000Z</time>
      </trkpt>
      <trkpt lat="44.47122" lon="6.2622">
        <ele>774.40002441406</ele>
        <time>2020-11-05T13:25:53.000Z</time>
      </trkpt>
      <trkpt lat="44.47123" lon="6.26224">
        <ele>774.59997558594</ele>
        <time>2020-11-05T13:25:54.000Z</time>
      </trkpt>
      <trkpt lat="44.47124" lon="6.26228">
        <ele>774.79998779297</ele>
        <time>2020-11-05T13:25:55.000Z</time>
      </trkpt>
      <trkpt lat="44.47126" lon="6.2624">
        <ele>775.40002441406</ele>
        <time>2020-11-05T13:25:58.000Z</time>
      </trkpt>
      <trkpt lat="44.47131" lon="6.2626">
        <ele>776.59997558594</ele>
        <time>2020-11-05T13:26:03.000Z</time>
      </trkpt>
      <trkpt lat="44.47133" lon="6.26267">
        <ele>777</ele>
        <time>2020-11-05T13:26:05.000Z</time>
      </trkpt>
      <trkpt lat="44.47136" lon="6.26278">
        <ele>777.79998779297</ele>
        <time>2020-11-05T13:26:08.000Z</time>
      </trkpt>
      <trkpt lat="44.47142" lon="6.26291">
        <ele>779</ele>
        <time>2020-11-05T13:26:12.000Z</time>
      </trkpt>
      <trkpt lat="44.47151" lon="6.26306">
        <ele>780</ele>
        <time>2020-11-05T13:26:17.000Z</time>
      </trkpt>
      <trkpt lat="44.4716" lon="6.26317">
        <ele>780.59997558594</ele>
        <time>2020-11-05T13:26:21.000Z</time>
      </trkpt>
      <trkpt lat="44.47166" lon="6.26322">
        <ele>781.20001220703</ele>
        <time>2020-11-05T13:26:23.000Z</time>
      </trkpt>
      <trkpt lat="44.47169" lon="6.26324">
        <ele>781.59997558594</ele>
        <time>2020-11-05T13:26:24.000Z</time>
      </trkpt>
      <trkpt lat="44.47179" lon="6.2633">
        <ele>782.40002441406</ele>
        <time>2020-11-05T13:26:28.000Z</time>
      </trkpt>
      <trkpt lat="44.47183" lon="6.26334">
        <ele>783</ele>
        <time>2020-11-05T13:26:30.000Z</time>
      </trkpt>
      <trkpt lat="44.47188" lon="6.26339">
        <ele>783.59997558594</ele>
        <time>2020-11-05T13:26:33.000Z</time>
      </trkpt>
      <trkpt lat="44.47197" lon="6.2635">
        <ele>784.40002441406</ele>
        <time>2020-11-05T13:26:38.000Z</time>
      </trkpt>
      <trkpt lat="44.47198" lon="6.26353">
        <ele>784.59997558594</ele>
        <time>2020-11-05T13:26:39.000Z</time>
      </trkpt>
      <trkpt lat="44.47202" lon="6.26364">
        <ele>785.79998779297</ele>
        <time>2020-11-05T13:26:43.000Z</time>
      </trkpt>
      <trkpt lat="44.47206" lon="6.26372">
        <ele>786.79998779297</ele>
        <time>2020-11-05T13:26:46.000Z</time>
      </trkpt>
      <trkpt lat="44.47208" lon="6.26377">
        <ele>787.20001220703</ele>
        <time>2020-11-05T13:26:48.000Z</time>
      </trkpt>
      <trkpt lat="44.47214" lon="6.26394">
        <ele>788</ele>
        <time>2020-11-05T13:26:54.000Z</time>
      </trkpt>
      <trkpt lat="44.47218" lon="6.26402">
        <ele>788.79998779297</ele>
        <time>2020-11-05T13:26:57.000Z</time>
      </trkpt>
      <trkpt lat="44.47221" lon="6.26406">
        <ele>789.20001220703</ele>
        <time>2020-11-05T13:26:59.000Z</time>
      </trkpt>
      <trkpt lat="44.47232" lon="6.26422">
        <ele>790.20001220703</ele>
        <time>2020-11-05T13:27:06.000Z</time>
      </trkpt>
      <trkpt lat="44.47233" lon="6.26424">
        <ele>790.40002441406</ele>
        <time>2020-11-05T13:27:07.000Z</time>
      </trkpt>
      <trkpt lat="44.47243" lon="6.2643">
        <ele>791.79998779297</ele>
        <time>2020-11-05T13:27:12.000Z</time>
      </trkpt>
      <trkpt lat="44.47248" lon="6.26435">
        <ele>792.79998779297</ele>
        <time>2020-11-05T13:27:15.000Z</time>
      </trkpt>
      <trkpt lat="44.4725" lon="6.26436">
        <ele>793</ele>
        <time>2020-11-05T13:27:16.000Z</time>
      </trkpt>
      <trkpt lat="44.47258" lon="6.26443">
        <ele>793.79998779297</ele>
        <time>2020-11-05T13:27:20.000Z</time>
      </trkpt>
      <trkpt lat="44.4727" lon="6.26451">
        <ele>795</ele>
        <time>2020-11-05T13:27:26.000Z</time>
      </trkpt>
      <trkpt lat="44.47272" lon="6.26452">
        <ele>795</ele>
        <time>2020-11-05T13:27:27.000Z</time>
      </trkpt>
      <trkpt lat="44.47283" lon="6.26455">
        <ele>796</ele>
        <time>2020-11-05T13:27:32.000Z</time>
      </trkpt>
      <trkpt lat="44.47288" lon="6.26453">
        <ele>796.40002441406</ele>
        <time>2020-11-05T13:27:34.000Z</time>
      </trkpt>
      <trkpt lat="44.47292" lon="6.26443">
        <ele>797.20001220703</ele>
        <time>2020-11-05T13:27:38.000Z</time>
      </trkpt>
      <trkpt lat="44.47291" lon="6.26428">
        <ele>798.20001220703</ele>
        <time>2020-11-05T13:27:43.000Z</time>
      </trkpt>
      <trkpt lat="44.4729" lon="6.26425">
        <ele>798.40002441406</ele>
        <time>2020-11-05T13:27:44.000Z</time>
      </trkpt>
      <trkpt lat="44.4728" lon="6.26408">
        <ele>799</ele>
        <time>2020-11-05T13:27:51.000Z</time>
      </trkpt>
      <trkpt lat="44.47275" lon="6.26402">
        <ele>799.40002441406</ele>
        <time>2020-11-05T13:27:54.000Z</time>
      </trkpt>
      <trkpt lat="44.47266" lon="6.2639">
        <ele>800.40002441406</ele>
        <time>2020-11-05T13:28:00.000Z</time>
      </trkpt>
      <trkpt lat="44.4726" lon="6.26382">
        <ele>801.20001220703</ele>
        <time>2020-11-05T13:28:04.000Z</time>
      </trkpt>
      <trkpt lat="44.47257" lon="6.26379">
        <ele>801.59997558594</ele>
        <time>2020-11-05T13:28:06.000Z</time>
      </trkpt>
      <trkpt lat="44.47249" lon="6.26369">
        <ele>802.59997558594</ele>
        <time>2020-11-05T13:28:11.000Z</time>
      </trkpt>
      <trkpt lat="44.47246" lon="6.26364">
        <ele>803</ele>
        <time>2020-11-05T13:28:13.000Z</time>
      </trkpt>
      <trkpt lat="44.4724" lon="6.26355">
        <ele>803.59997558594</ele>
        <time>2020-11-05T13:28:17.000Z</time>
      </trkpt>
      <trkpt lat="44.4723" lon="6.26338">
        <ele>804.79998779297</ele>
        <time>2020-11-05T13:28:24.000Z</time>
      </trkpt>
      <trkpt lat="44.47229" lon="6.26336">
        <ele>804.79998779297</ele>
        <time>2020-11-05T13:28:25.000Z</time>
      </trkpt>
      <trkpt lat="44.47222" lon="6.26325">
        <ele>805.79998779297</ele>
        <time>2020-11-05T13:28:30.000Z</time>
      </trkpt>
      <trkpt lat="44.47218" lon="6.26314">
        <ele>806.40002441406</ele>
        <time>2020-11-05T13:28:34.000Z</time>
      </trkpt>
      <trkpt lat="44.47215" lon="6.26307">
        <ele>807</ele>
        <time>2020-11-05T13:28:37.000Z</time>
      </trkpt>
      <trkpt lat="44.47213" lon="6.26296">
        <ele>807.79998779297</ele>
        <time>2020-11-05T13:28:41.000Z</time>
      </trkpt>
      <trkpt lat="44.47214" lon="6.26293">
        <ele>808</ele>
        <time>2020-11-05T13:28:42.000Z</time>
      </trkpt>
      <trkpt lat="44.47221" lon="6.26284">
        <ele>809</ele>
        <time>2020-11-05T13:28:47.000Z</time>
      </trkpt>
      <trkpt lat="44.47234" lon="6.26286">
        <ele>810.20001220703</ele>
        <time>2020-11-05T13:28:53.000Z</time>
      </trkpt>
      <trkpt lat="44.47248" lon="6.26298">
        <ele>811.40002441406</ele>
        <time>2020-11-05T13:29:01.000Z</time>
      </trkpt>
      <trkpt lat="44.47252" lon="6.26301">
        <ele>811.59997558594</ele>
        <time>2020-11-05T13:29:03.000Z</time>
      </trkpt>
      <trkpt lat="44.47262" lon="6.26306">
        <ele>812.59997558594</ele>
        <time>2020-11-05T13:29:08.000Z</time>
      </trkpt>
      <trkpt lat="44.47266" lon="6.26309">
        <ele>813</ele>
        <time>2020-11-05T13:29:11.000Z</time>
      </trkpt>
      <trkpt lat="44.47271" lon="6.26314">
        <ele>813.59997558594</ele>
        <time>2020-11-05T13:29:15.000Z</time>
      </trkpt>
      <trkpt lat="44.47277" lon="6.26319">
        <ele>814.40002441406</ele>
        <time>2020-11-05T13:29:19.000Z</time>
      </trkpt>
      <trkpt lat="44.4728" lon="6.26319">
        <ele>814.79998779297</ele>
        <time>2020-11-05T13:29:21.000Z</time>
      </trkpt>
      <trkpt lat="44.47285" lon="6.26318">
        <ele>815.40002441406</ele>
        <time>2020-11-05T13:29:24.000Z</time>
      </trkpt>
      <trkpt lat="44.47288" lon="6.2632">
        <ele>816</ele>
        <time>2020-11-05T13:29:27.000Z</time>
      </trkpt>
      <trkpt lat="44.4729" lon="6.26321">
        <ele>816</ele>
        <time>2020-11-05T13:29:28.000Z</time>
      </trkpt>
      <trkpt lat="44.47291" lon="6.26323">
        <ele>816.40002441406</ele>
        <time>2020-11-05T13:29:30.000Z</time>
      </trkpt>
      <trkpt lat="44.47293" lon="6.26327">
        <ele>817</ele>
        <time>2020-11-05T13:29:32.000Z</time>
      </trkpt>
      <trkpt lat="44.47296" lon="6.2633">
        <ele>818</ele>
        <time>2020-11-05T13:29:34.000Z</time>
      </trkpt>
      <trkpt lat="44.47297" lon="6.26332">
        <ele>818.79998779297</ele>
        <time>2020-11-05T13:29:35.000Z</time>
      </trkpt>
      <trkpt lat="44.47298" lon="6.26333">
        <ele>820</ele>
        <time>2020-11-05T13:29:36.000Z</time>
      </trkpt>
      <trkpt lat="44.473" lon="6.26337">
        <ele>821.20001220703</ele>
        <time>2020-11-05T13:29:38.000Z</time>
      </trkpt>
      <trkpt lat="44.47303" lon="6.26342">
        <ele>822.20001220703</ele>
        <time>2020-11-05T13:29:41.000Z</time>
      </trkpt>
      <trkpt lat="44.47306" lon="6.26344">
        <ele>823</ele>
        <time>2020-11-05T13:29:43.000Z</time>
      </trkpt>
      <trkpt lat="44.47307" lon="6.26346">
        <ele>823.40002441406</ele>
        <time>2020-11-05T13:29:44.000Z</time>
      </trkpt>
      <trkpt lat="44.47308" lon="6.26346">
        <ele>823.79998779297</ele>
        <time>2020-11-05T13:29:45.000Z</time>
      </trkpt>
      <trkpt lat="44.47311" lon="6.26345">
        <ele>824.59997558594</ele>
        <time>2020-11-05T13:29:48.000Z</time>
      </trkpt>
      <trkpt lat="44.47311" lon="6.26342">
        <ele>825.40002441406</ele>
        <time>2020-11-05T13:29:50.000Z</time>
      </trkpt>
      <trkpt lat="44.47311" lon="6.2634">
        <ele>825.79998779297</ele>
        <time>2020-11-05T13:29:51.000Z</time>
      </trkpt>
      <trkpt lat="44.4731" lon="6.26334">
        <ele>827.40002441406</ele>
        <time>2020-11-05T13:29:54.000Z</time>
      </trkpt>
      <trkpt lat="44.4731" lon="6.26332">
        <ele>827.79998779297</ele>
        <time>2020-11-05T13:29:55.000Z</time>
      </trkpt>
      <trkpt lat="44.4731" lon="6.26328">
        <ele>828.40002441406</ele>
        <time>2020-11-05T13:29:57.000Z</time>
      </trkpt>
      <trkpt lat="44.47311" lon="6.26325">
        <ele>829.20001220703</ele>
        <time>2020-11-05T13:29:59.000Z</time>
      </trkpt>
      <trkpt lat="44.47312" lon="6.26322">
        <ele>829.59997558594</ele>
        <time>2020-11-05T13:30:01.000Z</time>
      </trkpt>
      <trkpt lat="44.47311" lon="6.26314">
        <ele>830.79998779297</ele>
        <time>2020-11-05T13:30:05.000Z</time>
      </trkpt>
      <trkpt lat="44.47313" lon="6.26307">
        <ele>831.59997558594</ele>
        <time>2020-11-05T13:30:09.000Z</time>
      </trkpt>
      <trkpt lat="44.47313" lon="6.26297">
        <ele>832.79998779297</ele>
        <time>2020-11-05T13:30:14.000Z</time>
      </trkpt>
      <trkpt lat="44.47313" lon="6.26293">
        <ele>833.40002441406</ele>
        <time>2020-11-05T13:30:16.000Z</time>
      </trkpt>
      <trkpt lat="44.47313" lon="6.26289">
        <ele>834</ele>
        <time>2020-11-05T13:30:18.000Z</time>
      </trkpt>
      <trkpt lat="44.47314" lon="6.26281">
        <ele>835.40002441406</ele>
        <time>2020-11-05T13:30:22.000Z</time>
      </trkpt>
      <trkpt lat="44.47314" lon="6.26273">
        <ele>836.59997558594</ele>
        <time>2020-11-05T13:30:26.000Z</time>
      </trkpt>
      <trkpt lat="44.47315" lon="6.26267">
        <ele>837.40002441406</ele>
        <time>2020-11-05T13:30:29.000Z</time>
      </trkpt>
      <trkpt lat="44.47316" lon="6.26265">
        <ele>837.59997558594</ele>
        <time>2020-11-05T13:30:30.000Z</time>
      </trkpt>
      <trkpt lat="44.47319" lon="6.26261">
        <ele>838.79998779297</ele>
        <time>2020-11-05T13:30:33.000Z</time>
      </trkpt>
      <trkpt lat="44.47321" lon="6.26262">
        <ele>839.20001220703</ele>
        <time>2020-11-05T13:30:35.000Z</time>
      </trkpt>
      <trkpt lat="44.47325" lon="6.26264">
        <ele>839.79998779297</ele>
        <time>2020-11-05T13:30:38.000Z</time>
      </trkpt>
      <trkpt lat="44.47326" lon="6.26265">
        <ele>840</ele>
        <time>2020-11-05T13:30:39.000Z</time>
      </trkpt>
      <trkpt lat="44.47329" lon="6.26267">
        <ele>840.79998779297</ele>
        <time>2020-11-05T13:30:41.000Z</time>
      </trkpt>
      <trkpt lat="44.47331" lon="6.2627">
        <ele>842</ele>
        <time>2020-11-05T13:30:44.000Z</time>
      </trkpt>
      <trkpt lat="44.47333" lon="6.26275">
        <ele>843</ele>
        <time>2020-11-05T13:30:47.000Z</time>
      </trkpt>
      <trkpt lat="44.47334" lon="6.26281">
        <ele>844.20001220703</ele>
        <time>2020-11-05T13:30:50.000Z</time>
      </trkpt>
      <trkpt lat="44.47335" lon="6.26286">
        <ele>845.40002441406</ele>
        <time>2020-11-05T13:30:53.000Z</time>
      </trkpt>
      <trkpt lat="44.47335" lon="6.26288">
        <ele>845.79998779297</ele>
        <time>2020-11-05T13:30:54.000Z</time>
      </trkpt>
      <trkpt lat="44.47335" lon="6.26291">
        <ele>846.59997558594</ele>
        <time>2020-11-05T13:30:56.000Z</time>
      </trkpt>
      <trkpt lat="44.47337" lon="6.26296">
        <ele>847.79998779297</ele>
        <time>2020-11-05T13:30:59.000Z</time>
      </trkpt>
      <trkpt lat="44.47341" lon="6.26296">
        <ele>849</ele>
        <time>2020-11-05T13:31:02.000Z</time>
      </trkpt>
      <trkpt lat="44.47343" lon="6.26293">
        <ele>850</ele>
        <time>2020-11-05T13:31:04.000Z</time>
      </trkpt>
      <trkpt lat="44.47343" lon="6.26291">
        <ele>850.20001220703</ele>
        <time>2020-11-05T13:31:05.000Z</time>
      </trkpt>
      <trkpt lat="44.47345" lon="6.26285">
        <ele>851.20001220703</ele>
        <time>2020-11-05T13:31:08.000Z</time>
      </trkpt>
      <trkpt lat="44.47347" lon="6.2628">
        <ele>852.20001220703</ele>
        <time>2020-11-05T13:31:11.000Z</time>
      </trkpt>
      <trkpt lat="44.47349" lon="6.26277">
        <ele>853</ele>
        <time>2020-11-05T13:31:13.000Z</time>
      </trkpt>
      <trkpt lat="44.4735" lon="6.26275">
        <ele>853.40002441406</ele>
        <time>2020-11-05T13:31:14.000Z</time>
      </trkpt>
      <trkpt lat="44.47352" lon="6.26269">
        <ele>854.79998779297</ele>
        <time>2020-11-05T13:31:17.000Z</time>
      </trkpt>
      <trkpt lat="44.47355" lon="6.26265">
        <ele>856</ele>
        <time>2020-11-05T13:31:20.000Z</time>
      </trkpt>
      <trkpt lat="44.47359" lon="6.2626">
        <ele>857.20001220703</ele>
        <time>2020-11-05T13:31:23.000Z</time>
      </trkpt>
      <trkpt lat="44.47362" lon="6.26255">
        <ele>858.40002441406</ele>
        <time>2020-11-05T13:31:26.000Z</time>
      </trkpt>
      <trkpt lat="44.47365" lon="6.2625">
        <ele>859.79998779297</ele>
        <time>2020-11-05T13:31:29.000Z</time>
      </trkpt>
      <trkpt lat="44.47371" lon="6.26246">
        <ele>860.79998779297</ele>
        <time>2020-11-05T13:31:33.000Z</time>
      </trkpt>
      <trkpt lat="44.47373" lon="6.26245">
        <ele>861</ele>
        <time>2020-11-05T13:31:34.000Z</time>
      </trkpt>
      <trkpt lat="44.47377" lon="6.26243">
        <ele>861.79998779297</ele>
        <time>2020-11-05T13:31:37.000Z</time>
      </trkpt>
      <trkpt lat="44.47379" lon="6.26238">
        <ele>862.40002441406</ele>
        <time>2020-11-05T13:31:40.000Z</time>
      </trkpt>
      <trkpt lat="44.4738" lon="6.26229">
        <ele>863</ele>
        <time>2020-11-05T13:31:46.000Z</time>
      </trkpt>
      <trkpt lat="44.47382" lon="6.26221">
        <ele>864</ele>
        <time>2020-11-05T13:31:50.000Z</time>
      </trkpt>
      <trkpt lat="44.47384" lon="6.26216">
        <ele>865</ele>
        <time>2020-11-05T13:31:53.000Z</time>
      </trkpt>
      <trkpt lat="44.47384" lon="6.26214">
        <ele>865.20001220703</ele>
        <time>2020-11-05T13:31:54.000Z</time>
      </trkpt>
      <trkpt lat="44.47385" lon="6.26207">
        <ele>866.20001220703</ele>
        <time>2020-11-05T13:31:57.000Z</time>
      </trkpt>
      <trkpt lat="44.47387" lon="6.26201">
        <ele>867.20001220703</ele>
        <time>2020-11-05T13:32:00.000Z</time>
      </trkpt>
      <trkpt lat="44.47388" lon="6.26199">
        <ele>867.59997558594</ele>
        <time>2020-11-05T13:32:01.000Z</time>
      </trkpt>
      <trkpt lat="44.47389" lon="6.26195">
        <ele>868.20001220703</ele>
        <time>2020-11-05T13:32:03.000Z</time>
      </trkpt>
      <trkpt lat="44.4739" lon="6.26188">
        <ele>869.40002441406</ele>
        <time>2020-11-05T13:32:06.000Z</time>
      </trkpt>
      <trkpt lat="44.4739" lon="6.26184">
        <ele>870.20001220703</ele>
        <time>2020-11-05T13:32:08.000Z</time>
      </trkpt>
      <trkpt lat="44.4739" lon="6.26182">
        <ele>870.59997558594</ele>
        <time>2020-11-05T13:32:09.000Z</time>
      </trkpt>
      <trkpt lat="44.4739" lon="6.26175">
        <ele>872</ele>
        <time>2020-11-05T13:32:12.000Z</time>
      </trkpt>
      <trkpt lat="44.47391" lon="6.26169">
        <ele>873.20001220703</ele>
        <time>2020-11-05T13:32:15.000Z</time>
      </trkpt>
      <trkpt lat="44.47391" lon="6.26168">
        <ele>873.59997558594</ele>
        <time>2020-11-05T13:32:16.000Z</time>
      </trkpt>
      <trkpt lat="44.47393" lon="6.26165">
        <ele>874.59997558594</ele>
        <time>2020-11-05T13:32:18.000Z</time>
      </trkpt>
      <trkpt lat="44.47394" lon="6.2616">
        <ele>876</ele>
        <time>2020-11-05T13:32:21.000Z</time>
      </trkpt>
      <trkpt lat="44.47395" lon="6.26159">
        <ele>876.59997558594</ele>
        <time>2020-11-05T13:32:22.000Z</time>
      </trkpt>
      <trkpt lat="44.47397" lon="6.26157">
        <ele>877.40002441406</ele>
        <time>2020-11-05T13:32:24.000Z</time>
      </trkpt>
      <trkpt lat="44.47399" lon="6.26154">
        <ele>878.59997558594</ele>
        <time>2020-11-05T13:32:26.000Z</time>
      </trkpt>
      <trkpt lat="44.47402" lon="6.26154">
        <ele>879.40002441406</ele>
        <time>2020-11-05T13:32:28.000Z</time>
      </trkpt>
      <trkpt lat="44.47404" lon="6.26153">
        <ele>879.79998779297</ele>
        <time>2020-11-05T13:32:29.000Z</time>
      </trkpt>
      <trkpt lat="44.47409" lon="6.26152">
        <ele>881</ele>
        <time>2020-11-05T13:32:33.000Z</time>
      </trkpt>
      <trkpt lat="44.47412" lon="6.26152">
        <ele>881.79998779297</ele>
        <time>2020-11-05T13:32:35.000Z</time>
      </trkpt>
      <trkpt lat="44.47413" lon="6.26152">
        <ele>882.20001220703</ele>
        <time>2020-11-05T13:32:36.000Z</time>
      </trkpt>
      <trkpt lat="44.47418" lon="6.26154">
        <ele>883.40002441406</ele>
        <time>2020-11-05T13:32:40.000Z</time>
      </trkpt>
      <trkpt lat="44.4742" lon="6.26156">
        <ele>884</ele>
        <time>2020-11-05T13:32:42.000Z</time>
      </trkpt>
      <trkpt lat="44.47421" lon="6.26157">
        <ele>884.20001220703</ele>
        <time>2020-11-05T13:32:43.000Z</time>
      </trkpt>
      <trkpt lat="44.47423" lon="6.26159">
        <ele>884.59997558594</ele>
        <time>2020-11-05T13:32:45.000Z</time>
      </trkpt>
      <trkpt lat="44.47426" lon="6.26161">
        <ele>885.20001220703</ele>
        <time>2020-11-05T13:32:47.000Z</time>
      </trkpt>
      <trkpt lat="44.47428" lon="6.26163">
        <ele>885.79998779297</ele>
        <time>2020-11-05T13:32:49.000Z</time>
      </trkpt>
      <trkpt lat="44.4743" lon="6.26166">
        <ele>886.20001220703</ele>
        <time>2020-11-05T13:32:51.000Z</time>
      </trkpt>
      <trkpt lat="44.47432" lon="6.26169">
        <ele>887.20001220703</ele>
        <time>2020-11-05T13:32:53.000Z</time>
      </trkpt>
      <trkpt lat="44.47433" lon="6.26171">
        <ele>887.40002441406</ele>
        <time>2020-11-05T13:32:54.000Z</time>
      </trkpt>
      <trkpt lat="44.47436" lon="6.26173">
        <ele>888.20001220703</ele>
        <time>2020-11-05T13:32:56.000Z</time>
      </trkpt>
      <trkpt lat="44.4744" lon="6.26176">
        <ele>889.40002441406</ele>
        <time>2020-11-05T13:32:59.000Z</time>
      </trkpt>
      <trkpt lat="44.47444" lon="6.26178">
        <ele>890.40002441406</ele>
        <time>2020-11-05T13:33:02.000Z</time>
      </trkpt>
      <trkpt lat="44.47449" lon="6.2618">
        <ele>891.59997558594</ele>
        <time>2020-11-05T13:33:06.000Z</time>
      </trkpt>
      <trkpt lat="44.47453" lon="6.26181">
        <ele>892.79998779297</ele>
        <time>2020-11-05T13:33:09.000Z</time>
      </trkpt>
      <trkpt lat="44.47457" lon="6.26182">
        <ele>894</ele>
        <time>2020-11-05T13:33:12.000Z</time>
      </trkpt>
      <trkpt lat="44.47461" lon="6.2618">
        <ele>895</ele>
        <time>2020-11-05T13:33:15.000Z</time>
      </trkpt>
      <trkpt lat="44.47466" lon="6.26177">
        <ele>896.40002441406</ele>
        <time>2020-11-05T13:33:18.000Z</time>
      </trkpt>
      <trkpt lat="44.4747" lon="6.26172">
        <ele>897.59997558594</ele>
        <time>2020-11-05T13:33:21.000Z</time>
      </trkpt>
      <trkpt lat="44.47472" lon="6.26167">
        <ele>898.79998779297</ele>
        <time>2020-11-05T13:33:24.000Z</time>
      </trkpt>
      <trkpt lat="44.47475" lon="6.26159">
        <ele>900.20001220703</ele>
        <time>2020-11-05T13:33:28.000Z</time>
      </trkpt>
      <trkpt lat="44.47476" lon="6.26157">
        <ele>900.40002441406</ele>
        <time>2020-11-05T13:33:29.000Z</time>
      </trkpt>
      <trkpt lat="44.47478" lon="6.26151">
        <ele>901.20001220703</ele>
        <time>2020-11-05T13:33:32.000Z</time>
      </trkpt>
      <trkpt lat="44.47481" lon="6.26142">
        <ele>902.59997558594</ele>
        <time>2020-11-05T13:33:36.000Z</time>
      </trkpt>
      <trkpt lat="44.47482" lon="6.26138">
        <ele>903.59997558594</ele>
        <time>2020-11-05T13:33:38.000Z</time>
      </trkpt>
      <trkpt lat="44.47483" lon="6.26136">
        <ele>903.79998779297</ele>
        <time>2020-11-05T13:33:39.000Z</time>
      </trkpt>
      <trkpt lat="44.47487" lon="6.26129">
        <ele>905.20001220703</ele>
        <time>2020-11-05T13:33:43.000Z</time>
      </trkpt>
      <trkpt lat="44.4749" lon="6.26125">
        <ele>905.79998779297</ele>
        <time>2020-11-05T13:33:45.000Z</time>
      </trkpt>
      <trkpt lat="44.47493" lon="6.26121">
        <ele>906.40002441406</ele>
        <time>2020-11-05T13:33:47.000Z</time>
      </trkpt>
      <trkpt lat="44.47497" lon="6.26116">
        <ele>907.59997558594</ele>
        <time>2020-11-05T13:33:50.000Z</time>
      </trkpt>
      <trkpt lat="44.47501" lon="6.26112">
        <ele>908.59997558594</ele>
        <time>2020-11-05T13:33:53.000Z</time>
      </trkpt>
      <trkpt lat="44.47511" lon="6.2611">
        <ele>909.59997558594</ele>
        <time>2020-11-05T13:33:59.000Z</time>
      </trkpt>
      <trkpt lat="44.47512" lon="6.26109">
        <ele>909.79998779297</ele>
        <time>2020-11-05T13:34:00.000Z</time>
      </trkpt>
      <trkpt lat="44.47518" lon="6.26107">
        <ele>910.79998779297</ele>
        <time>2020-11-05T13:34:05.000Z</time>
      </trkpt>
      <trkpt lat="44.47521" lon="6.26105">
        <ele>911.40002441406</ele>
        <time>2020-11-05T13:34:07.000Z</time>
      </trkpt>
      <trkpt lat="44.47523" lon="6.26103">
        <ele>912</ele>
        <time>2020-11-05T13:34:09.000Z</time>
      </trkpt>
      <trkpt lat="44.47527" lon="6.26103">
        <ele>913.20001220703</ele>
        <time>2020-11-05T13:34:12.000Z</time>
      </trkpt>
      <trkpt lat="44.4753" lon="6.26103">
        <ele>913.79998779297</ele>
        <time>2020-11-05T13:34:14.000Z</time>
      </trkpt>
      <trkpt lat="44.47533" lon="6.26103">
        <ele>914.20001220703</ele>
        <time>2020-11-05T13:34:15.000Z</time>
      </trkpt>
      <trkpt lat="44.47538" lon="6.26103">
        <ele>915.59997558594</ele>
        <time>2020-11-05T13:34:18.000Z</time>
      </trkpt>
      <trkpt lat="44.47543" lon="6.26104">
        <ele>916.79998779297</ele>
        <time>2020-11-05T13:34:21.000Z</time>
      </trkpt>
      <trkpt lat="44.47548" lon="6.26106">
        <ele>918.20001220703</ele>
        <time>2020-11-05T13:34:24.000Z</time>
      </trkpt>
      <trkpt lat="44.47553" lon="6.26106">
        <ele>919.20001220703</ele>
        <time>2020-11-05T13:34:27.000Z</time>
      </trkpt>
      <trkpt lat="44.47559" lon="6.26107">
        <ele>920.40002441406</ele>
        <time>2020-11-05T13:34:30.000Z</time>
      </trkpt>
      <trkpt lat="44.47564" lon="6.26108">
        <ele>921.40002441406</ele>
        <time>2020-11-05T13:34:33.000Z</time>
      </trkpt>
      <trkpt lat="44.47571" lon="6.26108">
        <ele>922.40002441406</ele>
        <time>2020-11-05T13:34:37.000Z</time>
      </trkpt>
      <trkpt lat="44.47574" lon="6.26106">
        <ele>922.79998779297</ele>
        <time>2020-11-05T13:34:39.000Z</time>
      </trkpt>
      <trkpt lat="44.47575" lon="6.261">
        <ele>923.59997558594</ele>
        <time>2020-11-05T13:34:42.000Z</time>
      </trkpt>
      <trkpt lat="44.47576" lon="6.26093">
        <ele>924.40002441406</ele>
        <time>2020-11-05T13:34:45.000Z</time>
      </trkpt>
      <trkpt lat="44.47576" lon="6.2609">
        <ele>925</ele>
        <time>2020-11-05T13:34:46.000Z</time>
      </trkpt>
      <trkpt lat="44.47576" lon="6.26081">
        <ele>926</ele>
        <time>2020-11-05T13:34:50.000Z</time>
      </trkpt>
      <trkpt lat="44.47574" lon="6.26069">
        <ele>927.20001220703</ele>
        <time>2020-11-05T13:34:55.000Z</time>
      </trkpt>
      <trkpt lat="44.47576" lon="6.26067">
        <ele>927.40002441406</ele>
        <time>2020-11-05T13:34:56.000Z</time>
      </trkpt>
      <trkpt lat="44.47581" lon="6.26069">
        <ele>928.59997558594</ele>
        <time>2020-11-05T13:35:00.000Z</time>
      </trkpt>
      <trkpt lat="44.47583" lon="6.26074">
        <ele>929</ele>
        <time>2020-11-05T13:35:02.000Z</time>
      </trkpt>
      <trkpt lat="44.47586" lon="6.26082">
        <ele>929.59997558594</ele>
        <time>2020-11-05T13:35:04.000Z</time>
      </trkpt>
      <trkpt lat="44.47589" lon="6.26092">
        <ele>929.59997558594</ele>
        <time>2020-11-05T13:35:06.000Z</time>
      </trkpt>
      <trkpt lat="44.47591" lon="6.26104">
        <ele>929.59997558594</ele>
        <time>2020-11-05T13:35:08.000Z</time>
      </trkpt>
      <trkpt lat="44.47597" lon="6.26122">
        <ele>929.59997558594</ele>
        <time>2020-11-05T13:35:11.000Z</time>
      </trkpt>
      <trkpt lat="44.476" lon="6.26127">
        <ele>929.59997558594</ele>
        <time>2020-11-05T13:35:12.000Z</time>
      </trkpt>
      <trkpt lat="44.47617" lon="6.26147">
        <ele>928.20001220703</ele>
        <time>2020-11-05T13:35:16.000Z</time>
      </trkpt>
      <trkpt lat="44.47621" lon="6.26153">
        <ele>927.79998779297</ele>
        <time>2020-11-05T13:35:17.000Z</time>
      </trkpt>
      <trkpt lat="44.47625" lon="6.26159">
        <ele>927.59997558594</ele>
        <time>2020-11-05T13:35:18.000Z</time>
      </trkpt>
      <trkpt lat="44.47632" lon="6.26173">
        <ele>927.40002441406</ele>
        <time>2020-11-05T13:35:20.000Z</time>
      </trkpt>
      <trkpt lat="44.47636" lon="6.26188">
        <ele>927</ele>
        <time>2020-11-05T13:35:22.000Z</time>
      </trkpt>
      <trkpt lat="44.47639" lon="6.26213">
        <ele>926.40002441406</ele>
        <time>2020-11-05T13:35:25.000Z</time>
      </trkpt>
      <trkpt lat="44.4764" lon="6.26221">
        <ele>926</ele>
        <time>2020-11-05T13:35:26.000Z</time>
      </trkpt>
      <trkpt lat="44.47642" lon="6.2623">
        <ele>925.79998779297</ele>
        <time>2020-11-05T13:35:27.000Z</time>
      </trkpt>
      <trkpt lat="44.47653" lon="6.26255">
        <ele>925.20001220703</ele>
        <time>2020-11-05T13:35:30.000Z</time>
      </trkpt>
      <trkpt lat="44.47658" lon="6.26264">
        <ele>924.79998779297</ele>
        <time>2020-11-05T13:35:31.000Z</time>
      </trkpt>
      <trkpt lat="44.47665" lon="6.26272">
        <ele>924.59997558594</ele>
        <time>2020-11-05T13:35:32.000Z</time>
      </trkpt>
      <trkpt lat="44.47686" lon="6.26295">
        <ele>924</ele>
        <time>2020-11-05T13:35:35.000Z</time>
      </trkpt>
      <trkpt lat="44.47695" lon="6.26317">
        <ele>923.20001220703</ele>
        <time>2020-11-05T13:35:37.000Z</time>
      </trkpt>
      <trkpt lat="44.47697" lon="6.26331">
        <ele>922.59997558594</ele>
        <time>2020-11-05T13:35:38.000Z</time>
      </trkpt>
      <trkpt lat="44.47697" lon="6.26345">
        <ele>921.79998779297</ele>
        <time>2020-11-05T13:35:39.000Z</time>
      </trkpt>
      <trkpt lat="44.47692" lon="6.26369">
        <ele>920.20001220703</ele>
        <time>2020-11-05T13:35:41.000Z</time>
      </trkpt>
      <trkpt lat="44.47681" lon="6.26386">
        <ele>918.40002441406</ele>
        <time>2020-11-05T13:35:43.000Z</time>
      </trkpt>
      <trkpt lat="44.47678" lon="6.26395">
        <ele>916.40002441406</ele>
        <time>2020-11-05T13:35:44.000Z</time>
      </trkpt>
      <trkpt lat="44.47677" lon="6.26405">
        <ele>915</ele>
        <time>2020-11-05T13:35:45.000Z</time>
      </trkpt>
      <trkpt lat="44.47678" lon="6.26415">
        <ele>913.40002441406</ele>
        <time>2020-11-05T13:35:46.000Z</time>
      </trkpt>
      <trkpt lat="44.4768" lon="6.26425">
        <ele>912</ele>
        <time>2020-11-05T13:35:47.000Z</time>
      </trkpt>
      <trkpt lat="44.47688" lon="6.26443">
        <ele>910.59997558594</ele>
        <time>2020-11-05T13:35:49.000Z</time>
      </trkpt>
      <trkpt lat="44.47692" lon="6.26451">
        <ele>909.79998779297</ele>
        <time>2020-11-05T13:35:50.000Z</time>
      </trkpt>
      <trkpt lat="44.47697" lon="6.26457">
        <ele>909.20001220703</ele>
        <time>2020-11-05T13:35:51.000Z</time>
      </trkpt>
      <trkpt lat="44.47706" lon="6.26474">
        <ele>907.59997558594</ele>
        <time>2020-11-05T13:35:53.000Z</time>
      </trkpt>
      <trkpt lat="44.47711" lon="6.26498">
        <ele>906.40002441406</ele>
        <time>2020-11-05T13:35:55.000Z</time>
      </trkpt>
      <trkpt lat="44.47711" lon="6.26511">
        <ele>905.59997558594</ele>
        <time>2020-11-05T13:35:56.000Z</time>
      </trkpt>
      <trkpt lat="44.4771" lon="6.26525">
        <ele>905</ele>
        <time>2020-11-05T13:35:57.000Z</time>
      </trkpt>
      <trkpt lat="44.47701" lon="6.2655">
        <ele>904</ele>
        <time>2020-11-05T13:35:59.000Z</time>
      </trkpt>
      <trkpt lat="44.47693" lon="6.26561">
        <ele>903.40002441406</ele>
        <time>2020-11-05T13:36:00.000Z</time>
      </trkpt>
      <trkpt lat="44.47676" lon="6.26578">
        <ele>901.40002441406</ele>
        <time>2020-11-05T13:36:02.000Z</time>
      </trkpt>
      <trkpt lat="44.47669" lon="6.26588">
        <ele>900.20001220703</ele>
        <time>2020-11-05T13:36:03.000Z</time>
      </trkpt>
      <trkpt lat="44.47665" lon="6.26599">
        <ele>898.79998779297</ele>
        <time>2020-11-05T13:36:04.000Z</time>
      </trkpt>
      <trkpt lat="44.47664" lon="6.26611">
        <ele>897.20001220703</ele>
        <time>2020-11-05T13:36:05.000Z</time>
      </trkpt>
      <trkpt lat="44.47666" lon="6.26624">
        <ele>895.79998779297</ele>
        <time>2020-11-05T13:36:06.000Z</time>
      </trkpt>
      <trkpt lat="44.47669" lon="6.26636">
        <ele>894.40002441406</ele>
        <time>2020-11-05T13:36:07.000Z</time>
      </trkpt>
      <trkpt lat="44.47673" lon="6.26647">
        <ele>893.40002441406</ele>
        <time>2020-11-05T13:36:08.000Z</time>
      </trkpt>
      <trkpt lat="44.47676" lon="6.26659">
        <ele>892</ele>
        <time>2020-11-05T13:36:09.000Z</time>
      </trkpt>
      <trkpt lat="44.47678" lon="6.2667">
        <ele>891</ele>
        <time>2020-11-05T13:36:10.000Z</time>
      </trkpt>
      <trkpt lat="44.4768" lon="6.26682">
        <ele>890.20001220703</ele>
        <time>2020-11-05T13:36:11.000Z</time>
      </trkpt>
      <trkpt lat="44.47681" lon="6.26693">
        <ele>889.79998779297</ele>
        <time>2020-11-05T13:36:12.000Z</time>
      </trkpt>
      <trkpt lat="44.4768" lon="6.26716">
        <ele>887.59997558594</ele>
        <time>2020-11-05T13:36:14.000Z</time>
      </trkpt>
      <trkpt lat="44.47679" lon="6.26727">
        <ele>886.59997558594</ele>
        <time>2020-11-05T13:36:15.000Z</time>
      </trkpt>
      <trkpt lat="44.47679" lon="6.26737">
        <ele>886</ele>
        <time>2020-11-05T13:36:16.000Z</time>
      </trkpt>
      <trkpt lat="44.47677" lon="6.26772">
        <ele>885</ele>
        <time>2020-11-05T13:36:20.000Z</time>
      </trkpt>
      <trkpt lat="44.47671" lon="6.26793">
        <ele>885</ele>
        <time>2020-11-05T13:36:24.000Z</time>
      </trkpt>
      <trkpt lat="44.47671" lon="6.26796">
        <ele>885</ele>
        <time>2020-11-05T13:36:25.000Z</time>
      </trkpt>
      <trkpt lat="44.47673" lon="6.268">
        <ele>885</ele>
        <time>2020-11-05T13:36:27.000Z</time>
      </trkpt>
      <trkpt lat="44.47677" lon="6.26801">
        <ele>885</ele>
        <time>2020-11-05T13:36:29.000Z</time>
      </trkpt>
      <trkpt lat="44.47678" lon="6.26801">
        <ele>885</ele>
        <time>2020-11-05T13:36:31.000Z</time>
      </trkpt>
      <trkpt lat="44.47678" lon="6.26799">
        <ele>884.79998779297</ele>
        <time>2020-11-05T13:36:38.000Z</time>
      </trkpt>
      <trkpt lat="44.47678" lon="6.26799">
        <ele>884.79998779297</ele>
        <time>2020-11-05T13:36:45.000Z</time>
      </trkpt>
      <trkpt lat="44.47681" lon="6.26801">
        <ele>884.59997558594</ele>
        <time>2020-11-05T13:36:58.000Z</time>
      </trkpt>
      <trkpt lat="44.47693" lon="6.26805">
        <ele>884.59997558594</ele>
        <time>2020-11-05T13:37:02.000Z</time>
      </trkpt>
      <trkpt lat="44.47698" lon="6.26805">
        <ele>884.59997558594</ele>
        <time>2020-11-05T13:37:03.000Z</time>
      </trkpt>
      <trkpt lat="44.47709" lon="6.26803">
        <ele>884.59997558594</ele>
        <time>2020-11-05T13:37:05.000Z</time>
      </trkpt>
      <trkpt lat="44.47728" lon="6.26807">
        <ele>884</ele>
        <time>2020-11-05T13:37:08.000Z</time>
      </trkpt>
      <trkpt lat="44.47734" lon="6.26809">
        <ele>883.20001220703</ele>
        <time>2020-11-05T13:37:09.000Z</time>
      </trkpt>
      <trkpt lat="44.47741" lon="6.2681">
        <ele>882.59997558594</ele>
        <time>2020-11-05T13:37:10.000Z</time>
      </trkpt>
      <trkpt lat="44.47753" lon="6.26809">
        <ele>881.20001220703</ele>
        <time>2020-11-05T13:37:12.000Z</time>
      </trkpt>
      <trkpt lat="44.47758" lon="6.26806">
        <ele>880.40002441406</ele>
        <time>2020-11-05T13:37:13.000Z</time>
      </trkpt>
      <trkpt lat="44.47763" lon="6.26801">
        <ele>879.20001220703</ele>
        <time>2020-11-05T13:37:14.000Z</time>
      </trkpt>
      <trkpt lat="44.47774" lon="6.26794">
        <ele>877.59997558594</ele>
        <time>2020-11-05T13:37:16.000Z</time>
      </trkpt>
      <trkpt lat="44.47781" lon="6.26793">
        <ele>876.79998779297</ele>
        <time>2020-11-05T13:37:17.000Z</time>
      </trkpt>
      <trkpt lat="44.47788" lon="6.26791">
        <ele>876.40002441406</ele>
        <time>2020-11-05T13:37:18.000Z</time>
      </trkpt>
      <trkpt lat="44.47794" lon="6.26789">
        <ele>875.79998779297</ele>
        <time>2020-11-05T13:37:19.000Z</time>
      </trkpt>
      <trkpt lat="44.47801" lon="6.26788">
        <ele>875.20001220703</ele>
        <time>2020-11-05T13:37:20.000Z</time>
      </trkpt>
      <trkpt lat="44.47808" lon="6.26788">
        <ele>874.79998779297</ele>
        <time>2020-11-05T13:37:21.000Z</time>
      </trkpt>
      <trkpt lat="44.47815" lon="6.26788">
        <ele>874</ele>
        <time>2020-11-05T13:37:22.000Z</time>
      </trkpt>
      <trkpt lat="44.47822" lon="6.26787">
        <ele>872.79998779297</ele>
        <time>2020-11-05T13:37:23.000Z</time>
      </trkpt>
      <trkpt lat="44.47834" lon="6.26784">
        <ele>870.79998779297</ele>
        <time>2020-11-05T13:37:25.000Z</time>
      </trkpt>
      <trkpt lat="44.47839" lon="6.26781">
        <ele>869.79998779297</ele>
        <time>2020-11-05T13:37:26.000Z</time>
      </trkpt>
      <trkpt lat="44.47844" lon="6.26782">
        <ele>868.59997558594</ele>
        <time>2020-11-05T13:37:27.000Z</time>
      </trkpt>
      <trkpt lat="44.47853" lon="6.26789">
        <ele>867.20001220703</ele>
        <time>2020-11-05T13:37:29.000Z</time>
      </trkpt>
      <trkpt lat="44.47865" lon="6.26799">
        <ele>865</ele>
        <time>2020-11-05T13:37:31.000Z</time>
      </trkpt>
      <trkpt lat="44.47871" lon="6.26803">
        <ele>864</ele>
        <time>2020-11-05T13:37:32.000Z</time>
      </trkpt>
      <trkpt lat="44.47878" lon="6.26806">
        <ele>863</ele>
        <time>2020-11-05T13:37:33.000Z</time>
      </trkpt>
      <trkpt lat="44.47884" lon="6.2681">
        <ele>862</ele>
        <time>2020-11-05T13:37:34.000Z</time>
      </trkpt>
      <trkpt lat="44.4789" lon="6.26814">
        <ele>861.40002441406</ele>
        <time>2020-11-05T13:37:35.000Z</time>
      </trkpt>
      <trkpt lat="44.47896" lon="6.26819">
        <ele>861</ele>
        <time>2020-11-05T13:37:36.000Z</time>
      </trkpt>
      <trkpt lat="44.47908" lon="6.26826">
        <ele>859.79998779297</ele>
        <time>2020-11-05T13:37:38.000Z</time>
      </trkpt>
      <trkpt lat="44.47913" lon="6.26829">
        <ele>859.40002441406</ele>
        <time>2020-11-05T13:37:39.000Z</time>
      </trkpt>
      <trkpt lat="44.47917" lon="6.26833">
        <ele>858.59997558594</ele>
        <time>2020-11-05T13:37:40.000Z</time>
      </trkpt>
      <trkpt lat="44.47919" lon="6.26838">
        <ele>857.79998779297</ele>
        <time>2020-11-05T13:37:41.000Z</time>
      </trkpt>
      <trkpt lat="44.47922" lon="6.26842">
        <ele>857</ele>
        <time>2020-11-05T13:37:42.000Z</time>
      </trkpt>
      <trkpt lat="44.47924" lon="6.26846">
        <ele>854.79998779297</ele>
        <time>2020-11-05T13:37:43.000Z</time>
      </trkpt>
      <trkpt lat="44.47927" lon="6.26852">
        <ele>853.40002441406</ele>
        <time>2020-11-05T13:37:45.000Z</time>
      </trkpt>
      <trkpt lat="44.4793" lon="6.26855">
        <ele>852.40002441406</ele>
        <time>2020-11-05T13:37:46.000Z</time>
      </trkpt>
      <trkpt lat="44.47932" lon="6.2686">
        <ele>851.59997558594</ele>
        <time>2020-11-05T13:37:47.000Z</time>
      </trkpt>
      <trkpt lat="44.47937" lon="6.2687">
        <ele>850</ele>
        <time>2020-11-05T13:37:49.000Z</time>
      </trkpt>
      <trkpt lat="44.47941" lon="6.26879">
        <ele>848.79998779297</ele>
        <time>2020-11-05T13:37:51.000Z</time>
      </trkpt>
      <trkpt lat="44.47941" lon="6.26883">
        <ele>847.79998779297</ele>
        <time>2020-11-05T13:37:52.000Z</time>
      </trkpt>
      <trkpt lat="44.4794" lon="6.26886">
        <ele>846.79998779297</ele>
        <time>2020-11-05T13:37:53.000Z</time>
      </trkpt>
      <trkpt lat="44.47941" lon="6.26888">
        <ele>845.79998779297</ele>
        <time>2020-11-05T13:37:54.000Z</time>
      </trkpt>
      <trkpt lat="44.47942" lon="6.26891">
        <ele>844.79998779297</ele>
        <time>2020-11-05T13:37:55.000Z</time>
      </trkpt>
      <trkpt lat="44.47944" lon="6.26893">
        <ele>843.59997558594</ele>
        <time>2020-11-05T13:37:56.000Z</time>
      </trkpt>
      <trkpt lat="44.47945" lon="6.26894">
        <ele>842.40002441406</ele>
        <time>2020-11-05T13:37:57.000Z</time>
      </trkpt>
      <trkpt lat="44.47947" lon="6.26894">
        <ele>841.20001220703</ele>
        <time>2020-11-05T13:37:58.000Z</time>
      </trkpt>
      <trkpt lat="44.47949" lon="6.26894">
        <ele>840.40002441406</ele>
        <time>2020-11-05T13:37:59.000Z</time>
      </trkpt>
      <trkpt lat="44.47949" lon="6.26895">
        <ele>839.79998779297</ele>
        <time>2020-11-05T13:38:00.000Z</time>
      </trkpt>
      <trkpt lat="44.4795" lon="6.26896">
        <ele>838.40002441406</ele>
        <time>2020-11-05T13:38:03.000Z</time>
      </trkpt>
      <trkpt lat="44.4795" lon="6.26896">
        <ele>837</ele>
        <time>2020-11-05T13:38:05.000Z</time>
      </trkpt>
      <trkpt lat="44.4795" lon="6.26896">
        <ele>835.59997558594</ele>
        <time>2020-11-05T13:38:07.000Z</time>
      </trkpt>
      <trkpt lat="44.4795" lon="6.26896">
        <ele>834.40002441406</ele>
        <time>2020-11-05T13:38:09.000Z</time>
      </trkpt>
      <trkpt lat="44.47951" lon="6.26896">
        <ele>833.40002441406</ele>
        <time>2020-11-05T13:38:16.000Z</time>
      </trkpt>
      <trkpt lat="44.47951" lon="6.26896">
        <ele>833.20001220703</ele>
        <time>2020-11-05T13:38:17.000Z</time>
      </trkpt>
      <trkpt lat="44.47954" lon="6.269">
        <ele>833</ele>
        <time>2020-11-05T13:38:29.000Z</time>
      </trkpt>
      <trkpt lat="44.47957" lon="6.269">
        <ele>832.59997558594</ele>
        <time>2020-11-05T13:38:38.000Z</time>
      </trkpt>
      <trkpt lat="44.47957" lon="6.26899">
        <ele>832.59997558594</ele>
        <time>2020-11-05T13:38:39.000Z</time>
      </trkpt>
      <trkpt lat="44.4796" lon="6.26895">
        <ele>832.40002441406</ele>
        <time>2020-11-05T13:38:41.000Z</time>
      </trkpt>
      <trkpt lat="44.47962" lon="6.26893">
        <ele>832</ele>
        <time>2020-11-05T13:38:42.000Z</time>
      </trkpt>
      <trkpt lat="44.47964" lon="6.26892">
        <ele>832</ele>
        <time>2020-11-05T13:38:43.000Z</time>
      </trkpt>
      <trkpt lat="44.47977" lon="6.26887">
        <ele>831.79998779297</ele>
        <time>2020-11-05T13:38:46.000Z</time>
      </trkpt>
      <trkpt lat="44.47981" lon="6.26884">
        <ele>831.59997558594</ele>
        <time>2020-11-05T13:38:47.000Z</time>
      </trkpt>
      <trkpt lat="44.47989" lon="6.26883">
        <ele>831</ele>
        <time>2020-11-05T13:38:49.000Z</time>
      </trkpt>
      <trkpt lat="44.47997" lon="6.26888">
        <ele>829.79998779297</ele>
        <time>2020-11-05T13:38:51.000Z</time>
      </trkpt>
      <trkpt lat="44.48003" lon="6.26892">
        <ele>828</ele>
        <time>2020-11-05T13:38:53.000Z</time>
      </trkpt>
      <trkpt lat="44.48008" lon="6.26895">
        <ele>827</ele>
        <time>2020-11-05T13:38:54.000Z</time>
      </trkpt>
      <trkpt lat="44.48012" lon="6.26897">
        <ele>825.59997558594</ele>
        <time>2020-11-05T13:38:55.000Z</time>
      </trkpt>
      <trkpt lat="44.48016" lon="6.26899">
        <ele>824.40002441406</ele>
        <time>2020-11-05T13:38:56.000Z</time>
      </trkpt>
      <trkpt lat="44.48018" lon="6.269">
        <ele>823.40002441406</ele>
        <time>2020-11-05T13:38:57.000Z</time>
      </trkpt>
      <trkpt lat="44.4802" lon="6.26901">
        <ele>821.59997558594</ele>
        <time>2020-11-05T13:38:59.000Z</time>
      </trkpt>
      <trkpt lat="44.48021" lon="6.26901">
        <ele>821.20001220703</ele>
        <time>2020-11-05T13:39:00.000Z</time>
      </trkpt>
      <trkpt lat="44.48023" lon="6.26902">
        <ele>820.59997558594</ele>
        <time>2020-11-05T13:39:01.000Z</time>
      </trkpt>
      <trkpt lat="44.48024" lon="6.26903">
        <ele>819.59997558594</ele>
        <time>2020-11-05T13:39:02.000Z</time>
      </trkpt>
      <trkpt lat="44.48026" lon="6.26906">
        <ele>818.59997558594</ele>
        <time>2020-11-05T13:39:03.000Z</time>
      </trkpt>
      <trkpt lat="44.48027" lon="6.26909">
        <ele>817.40002441406</ele>
        <time>2020-11-05T13:39:04.000Z</time>
      </trkpt>
      <trkpt lat="44.48029" lon="6.26912">
        <ele>816.59997558594</ele>
        <time>2020-11-05T13:39:05.000Z</time>
      </trkpt>
      <trkpt lat="44.48031" lon="6.26914">
        <ele>816.20001220703</ele>
        <time>2020-11-05T13:39:06.000Z</time>
      </trkpt>
      <trkpt lat="44.48043" lon="6.26925">
        <ele>815.79998779297</ele>
        <time>2020-11-05T13:39:10.000Z</time>
      </trkpt>
      <trkpt lat="44.4805" lon="6.26931">
        <ele>815</ele>
        <time>2020-11-05T13:39:12.000Z</time>
      </trkpt>
      <trkpt lat="44.48058" lon="6.26933">
        <ele>814.20001220703</ele>
        <time>2020-11-05T13:39:14.000Z</time>
      </trkpt>
      <trkpt lat="44.48062" lon="6.26933">
        <ele>813.59997558594</ele>
        <time>2020-11-05T13:39:15.000Z</time>
      </trkpt>
      <trkpt lat="44.48066" lon="6.26932">
        <ele>813</ele>
        <time>2020-11-05T13:39:16.000Z</time>
      </trkpt>
      <trkpt lat="44.4807" lon="6.26932">
        <ele>812.40002441406</ele>
        <time>2020-11-05T13:39:17.000Z</time>
      </trkpt>
      <trkpt lat="44.48077" lon="6.26931">
        <ele>811.40002441406</ele>
        <time>2020-11-05T13:39:19.000Z</time>
      </trkpt>
      <trkpt lat="44.48081" lon="6.26931">
        <ele>810.79998779297</ele>
        <time>2020-11-05T13:39:20.000Z</time>
      </trkpt>
      <trkpt lat="44.48098" lon="6.26929">
        <ele>810.20001220703</ele>
        <time>2020-11-05T13:39:24.000Z</time>
      </trkpt>
      <trkpt lat="44.48103" lon="6.2693">
        <ele>810.20001220703</ele>
        <time>2020-11-05T13:39:25.000Z</time>
      </trkpt>
      <trkpt lat="44.48135" lon="6.26937">
        <ele>810</ele>
        <time>2020-11-05T13:39:31.000Z</time>
      </trkpt>
      <trkpt lat="44.48178" lon="6.26948">
        <ele>809</ele>
        <time>2020-11-05T13:39:38.000Z</time>
      </trkpt>
      <trkpt lat="44.4819" lon="6.26949">
        <ele>808.40002441406</ele>
        <time>2020-11-05T13:39:40.000Z</time>
      </trkpt>
      <trkpt lat="44.48195" lon="6.26947">
        <ele>808</ele>
        <time>2020-11-05T13:39:41.000Z</time>
      </trkpt>
      <trkpt lat="44.48201" lon="6.26938">
        <ele>807.79998779297</ele>
        <time>2020-11-05T13:39:43.000Z</time>
      </trkpt>
      <trkpt lat="44.48204" lon="6.26929">
        <ele>807.79998779297</ele>
        <time>2020-11-05T13:39:45.000Z</time>
      </trkpt>
      <trkpt lat="44.48205" lon="6.26917">
        <ele>807.59997558594</ele>
        <time>2020-11-05T13:39:48.000Z</time>
      </trkpt>
      <trkpt lat="44.48211" lon="6.26893">
        <ele>808.40002441406</ele>
        <time>2020-11-05T13:39:55.000Z</time>
      </trkpt>
      <trkpt lat="44.4822" lon="6.26886">
        <ele>809.20001220703</ele>
        <time>2020-11-05T13:39:59.000Z</time>
      </trkpt>
      <trkpt lat="44.48226" lon="6.2688">
        <ele>810</ele>
        <time>2020-11-05T13:40:02.000Z</time>
      </trkpt>
      <trkpt lat="44.48227" lon="6.26878">
        <ele>810.20001220703</ele>
        <time>2020-11-05T13:40:03.000Z</time>
      </trkpt>
      <trkpt lat="44.48235" lon="6.26867">
        <ele>811.40002441406</ele>
        <time>2020-11-05T13:40:08.000Z</time>
      </trkpt>
      <trkpt lat="44.48237" lon="6.26865">
        <ele>812</ele>
        <time>2020-11-05T13:40:09.000Z</time>
      </trkpt>
      <trkpt lat="44.48239" lon="6.26862">
        <ele>812.40002441406</ele>
        <time>2020-11-05T13:40:10.000Z</time>
      </trkpt>
      <trkpt lat="44.48245" lon="6.26854">
        <ele>813.59997558594</ele>
        <time>2020-11-05T13:40:14.000Z</time>
      </trkpt>
      <trkpt lat="44.48251" lon="6.26848">
        <ele>814.59997558594</ele>
        <time>2020-11-05T13:40:17.000Z</time>
      </trkpt>
      <trkpt lat="44.48252" lon="6.26845">
        <ele>814.79998779297</ele>
        <time>2020-11-05T13:40:18.000Z</time>
      </trkpt>
      <trkpt lat="44.48256" lon="6.26838">
        <ele>815.79998779297</ele>
        <time>2020-11-05T13:40:21.000Z</time>
      </trkpt>
      <trkpt lat="44.48261" lon="6.26831">
        <ele>816.79998779297</ele>
        <time>2020-11-05T13:40:24.000Z</time>
      </trkpt>
      <trkpt lat="44.48263" lon="6.26826">
        <ele>817.40002441406</ele>
        <time>2020-11-05T13:40:26.000Z</time>
      </trkpt>
      <trkpt lat="44.48265" lon="6.2682">
        <ele>818</ele>
        <time>2020-11-05T13:40:28.000Z</time>
      </trkpt>
      <trkpt lat="44.48269" lon="6.26808">
        <ele>819</ele>
        <time>2020-11-05T13:40:32.000Z</time>
      </trkpt>
      <trkpt lat="44.48272" lon="6.26799">
        <ele>819.79998779297</ele>
        <time>2020-11-05T13:40:35.000Z</time>
      </trkpt>
      <trkpt lat="44.48273" lon="6.26796">
        <ele>820</ele>
        <time>2020-11-05T13:40:36.000Z</time>
      </trkpt>
      <trkpt lat="44.48276" lon="6.2679">
        <ele>821.40002441406</ele>
        <time>2020-11-05T13:40:39.000Z</time>
      </trkpt>
      <trkpt lat="44.48277" lon="6.26785">
        <ele>822</ele>
        <time>2020-11-05T13:40:41.000Z</time>
      </trkpt>
      <trkpt lat="44.48278" lon="6.26781">
        <ele>822.79998779297</ele>
        <time>2020-11-05T13:40:43.000Z</time>
      </trkpt>
      <trkpt lat="44.4828" lon="6.26773">
        <ele>824</ele>
        <time>2020-11-05T13:40:46.000Z</time>
      </trkpt>
      <trkpt lat="44.48283" lon="6.26764">
        <ele>825.20001220703</ele>
        <time>2020-11-05T13:40:50.000Z</time>
      </trkpt>
      <trkpt lat="44.48283" lon="6.26761">
        <ele>825.40002441406</ele>
        <time>2020-11-05T13:40:51.000Z</time>
      </trkpt>
      <trkpt lat="44.48285" lon="6.26754">
        <ele>826.40002441406</ele>
        <time>2020-11-05T13:40:54.000Z</time>
      </trkpt>
      <trkpt lat="44.48286" lon="6.26743">
        <ele>827.20001220703</ele>
        <time>2020-11-05T13:40:58.000Z</time>
      </trkpt>
      <trkpt lat="44.48286" lon="6.26741">
        <ele>827.40002441406</ele>
        <time>2020-11-05T13:40:59.000Z</time>
      </trkpt>
      <trkpt lat="44.48285" lon="6.26729">
        <ele>828.79998779297</ele>
        <time>2020-11-05T13:41:04.000Z</time>
      </trkpt>
      <trkpt lat="44.48284" lon="6.26724">
        <ele>829.40002441406</ele>
        <time>2020-11-05T13:41:06.000Z</time>
      </trkpt>
      <trkpt lat="44.48283" lon="6.26717">
        <ele>830</ele>
        <time>2020-11-05T13:41:09.000Z</time>
      </trkpt>
      <trkpt lat="44.48283" lon="6.26709">
        <ele>831</ele>
        <time>2020-11-05T13:41:12.000Z</time>
      </trkpt>
      <trkpt lat="44.48283" lon="6.26707">
        <ele>831.20001220703</ele>
        <time>2020-11-05T13:41:13.000Z</time>
      </trkpt>
      <trkpt lat="44.48279" lon="6.26701">
        <ele>832</ele>
        <time>2020-11-05T13:41:16.000Z</time>
      </trkpt>
      <trkpt lat="44.48277" lon="6.26696">
        <ele>832.40002441406</ele>
        <time>2020-11-05T13:41:18.000Z</time>
      </trkpt>
      <trkpt lat="44.48273" lon="6.26687">
        <ele>832.79998779297</ele>
        <time>2020-11-05T13:41:22.000Z</time>
      </trkpt>
      <trkpt lat="44.48272" lon="6.26683">
        <ele>833</ele>
        <time>2020-11-05T13:41:24.000Z</time>
      </trkpt>
      <trkpt lat="44.48271" lon="6.2668">
        <ele>833</ele>
        <time>2020-11-05T13:41:26.000Z</time>
      </trkpt>
      <trkpt lat="44.48272" lon="6.26676">
        <ele>833.20001220703</ele>
        <time>2020-11-05T13:41:28.000Z</time>
      </trkpt>
      <trkpt lat="44.48274" lon="6.2667">
        <ele>833.40002441406</ele>
        <time>2020-11-05T13:41:31.000Z</time>
      </trkpt>
      <trkpt lat="44.48276" lon="6.26664">
        <ele>833.79998779297</ele>
        <time>2020-11-05T13:41:34.000Z</time>
      </trkpt>
      <trkpt lat="44.48283" lon="6.26653">
        <ele>834.59997558594</ele>
        <time>2020-11-05T13:41:40.000Z</time>
      </trkpt>
      <trkpt lat="44.4829" lon="6.26642">
        <ele>835.59997558594</ele>
        <time>2020-11-05T13:41:46.000Z</time>
      </trkpt>
      <trkpt lat="44.48291" lon="6.2664">
        <ele>836</ele>
        <time>2020-11-05T13:41:47.000Z</time>
      </trkpt>
      <trkpt lat="44.48295" lon="6.26634">
        <ele>836.79998779297</ele>
        <time>2020-11-05T13:41:50.000Z</time>
      </trkpt>
      <trkpt lat="44.48299" lon="6.26628">
        <ele>837.79998779297</ele>
        <time>2020-11-05T13:41:53.000Z</time>
      </trkpt>
      <trkpt lat="44.483" lon="6.26626">
        <ele>838</ele>
        <time>2020-11-05T13:41:54.000Z</time>
      </trkpt>
      <trkpt lat="44.48304" lon="6.2662">
        <ele>838.79998779297</ele>
        <time>2020-11-05T13:41:57.000Z</time>
      </trkpt>
      <trkpt lat="44.48309" lon="6.26613">
        <ele>840</ele>
        <time>2020-11-05T13:42:01.000Z</time>
      </trkpt>
      <trkpt lat="44.48311" lon="6.26611">
        <ele>840.20001220703</ele>
        <time>2020-11-05T13:42:02.000Z</time>
      </trkpt>
      <trkpt lat="44.48315" lon="6.26604">
        <ele>841.20001220703</ele>
        <time>2020-11-05T13:42:06.000Z</time>
      </trkpt>
      <trkpt lat="44.48319" lon="6.26599">
        <ele>841.79998779297</ele>
        <time>2020-11-05T13:42:09.000Z</time>
      </trkpt>
      <trkpt lat="44.48321" lon="6.26596">
        <ele>842.20001220703</ele>
        <time>2020-11-05T13:42:11.000Z</time>
      </trkpt>
      <trkpt lat="44.48326" lon="6.26591">
        <ele>843.20001220703</ele>
        <time>2020-11-05T13:42:15.000Z</time>
      </trkpt>
      <trkpt lat="44.4833" lon="6.26587">
        <ele>844</ele>
        <time>2020-11-05T13:42:18.000Z</time>
      </trkpt>
      <trkpt lat="44.48331" lon="6.26586">
        <ele>844.20001220703</ele>
        <time>2020-11-05T13:42:19.000Z</time>
      </trkpt>
      <trkpt lat="44.48337" lon="6.26581">
        <ele>845.20001220703</ele>
        <time>2020-11-05T13:42:23.000Z</time>
      </trkpt>
      <trkpt lat="44.4834" lon="6.26577">
        <ele>846.20001220703</ele>
        <time>2020-11-05T13:42:26.000Z</time>
      </trkpt>
      <trkpt lat="44.48343" lon="6.26574">
        <ele>847</ele>
        <time>2020-11-05T13:42:28.000Z</time>
      </trkpt>
      <trkpt lat="44.48348" lon="6.26567">
        <ele>848.20001220703</ele>
        <time>2020-11-05T13:42:32.000Z</time>
      </trkpt>
      <trkpt lat="44.4835" lon="6.26563">
        <ele>848.59997558594</ele>
        <time>2020-11-05T13:42:34.000Z</time>
      </trkpt>
      <trkpt lat="44.48352" lon="6.26559">
        <ele>849</ele>
        <time>2020-11-05T13:42:36.000Z</time>
      </trkpt>
      <trkpt lat="44.48355" lon="6.2655">
        <ele>850.20001220703</ele>
        <time>2020-11-05T13:42:40.000Z</time>
      </trkpt>
      <trkpt lat="44.48357" lon="6.26541">
        <ele>851.20001220703</ele>
        <time>2020-11-05T13:42:44.000Z</time>
      </trkpt>
      <trkpt lat="44.48359" lon="6.26533">
        <ele>852.20001220703</ele>
        <time>2020-11-05T13:42:48.000Z</time>
      </trkpt>
      <trkpt lat="44.48362" lon="6.26525">
        <ele>853.20001220703</ele>
        <time>2020-11-05T13:42:52.000Z</time>
      </trkpt>
      <trkpt lat="44.48367" lon="6.26518">
        <ele>854.40002441406</ele>
        <time>2020-11-05T13:42:56.000Z</time>
      </trkpt>
      <trkpt lat="44.48367" lon="6.26514">
        <ele>855</ele>
        <time>2020-11-05T13:42:58.000Z</time>
      </trkpt>
      <trkpt lat="44.48367" lon="6.26512">
        <ele>855.40002441406</ele>
        <time>2020-11-05T13:42:59.000Z</time>
      </trkpt>
      <trkpt lat="44.48365" lon="6.26512">
        <ele>855.59997558594</ele>
        <time>2020-11-05T13:43:00.000Z</time>
      </trkpt>
      <trkpt lat="44.48359" lon="6.26515">
        <ele>856.20001220703</ele>
        <time>2020-11-05T13:43:03.000Z</time>
      </trkpt>
      <trkpt lat="44.48356" lon="6.26519">
        <ele>856.79998779297</ele>
        <time>2020-11-05T13:43:05.000Z</time>
      </trkpt>
      <trkpt lat="44.48348" lon="6.26528">
        <ele>857.40002441406</ele>
        <time>2020-11-05T13:43:09.000Z</time>
      </trkpt>
      <trkpt lat="44.48336" lon="6.26531">
        <ele>857.59997558594</ele>
        <time>2020-11-05T13:43:14.000Z</time>
      </trkpt>
      <trkpt lat="44.48322" lon="6.26523">
        <ele>857.79998779297</ele>
        <time>2020-11-05T13:43:20.000Z</time>
      </trkpt>
      <trkpt lat="44.48316" lon="6.26519">
        <ele>858</ele>
        <time>2020-11-05T13:43:23.000Z</time>
      </trkpt>
      <trkpt lat="44.48308" lon="6.26514">
        <ele>858</ele>
        <time>2020-11-05T13:43:26.000Z</time>
      </trkpt>
      <trkpt lat="44.48295" lon="6.26506">
        <ele>858</ele>
        <time>2020-11-05T13:43:30.000Z</time>
      </trkpt>
      <trkpt lat="44.48279" lon="6.26494">
        <ele>858</ele>
        <time>2020-11-05T13:43:37.000Z</time>
      </trkpt>
      <trkpt lat="44.48272" lon="6.26479">
        <ele>857.79998779297</ele>
        <time>2020-11-05T13:43:43.000Z</time>
      </trkpt>
      <trkpt lat="44.48269" lon="6.26463">
        <ele>857.79998779297</ele>
        <time>2020-11-05T13:43:48.000Z</time>
      </trkpt>
      <trkpt lat="44.48268" lon="6.26441">
        <ele>857.79998779297</ele>
        <time>2020-11-05T13:43:54.000Z</time>
      </trkpt>
      <trkpt lat="44.48266" lon="6.26429">
        <ele>857</ele>
        <time>2020-11-05T13:43:58.000Z</time>
      </trkpt>
      <trkpt lat="44.48266" lon="6.26426">
        <ele>856.79998779297</ele>
        <time>2020-11-05T13:43:59.000Z</time>
      </trkpt>
      <trkpt lat="44.48266" lon="6.26421">
        <ele>856</ele>
        <time>2020-11-05T13:44:01.000Z</time>
      </trkpt>
      <trkpt lat="44.48266" lon="6.26416">
        <ele>854.79998779297</ele>
        <time>2020-11-05T13:44:03.000Z</time>
      </trkpt>
      <trkpt lat="44.48265" lon="6.26414">
        <ele>854.59997558594</ele>
        <time>2020-11-05T13:44:04.000Z</time>
      </trkpt>
      <trkpt lat="44.48264" lon="6.26412">
        <ele>854.59997558594</ele>
        <time>2020-11-05T13:44:05.000Z</time>
      </trkpt>
      <trkpt lat="44.48256" lon="6.2641">
        <ele>854.20001220703</ele>
        <time>2020-11-05T13:44:11.000Z</time>
      </trkpt>
      <trkpt lat="44.48254" lon="6.26412">
        <ele>854.20001220703</ele>
        <time>2020-11-05T13:44:12.000Z</time>
      </trkpt>
      <trkpt lat="44.48253" lon="6.26413">
        <ele>854</ele>
        <time>2020-11-05T13:44:13.000Z</time>
      </trkpt>
      <trkpt lat="44.48253" lon="6.26418">
        <ele>853.79998779297</ele>
        <time>2020-11-05T13:44:15.000Z</time>
      </trkpt>
      <trkpt lat="44.48251" lon="6.2642">
        <ele>853.79998779297</ele>
        <time>2020-11-05T13:44:16.000Z</time>
      </trkpt>
      <trkpt lat="44.48248" lon="6.26425">
        <ele>853.79998779297</ele>
        <time>2020-11-05T13:44:18.000Z</time>
      </trkpt>
      <trkpt lat="44.48246" lon="6.26429">
        <ele>853.40002441406</ele>
        <time>2020-11-05T13:44:20.000Z</time>
      </trkpt>
      <trkpt lat="44.48241" lon="6.26437">
        <ele>852.59997558594</ele>
        <time>2020-11-05T13:44:23.000Z</time>
      </trkpt>
      <trkpt lat="44.48238" lon="6.26441">
        <ele>851.79998779297</ele>
        <time>2020-11-05T13:44:25.000Z</time>
      </trkpt>
      <trkpt lat="44.48237" lon="6.26444">
        <ele>851.40002441406</ele>
        <time>2020-11-05T13:44:26.000Z</time>
      </trkpt>
      <trkpt lat="44.48231" lon="6.26456">
        <ele>850.59997558594</ele>
        <time>2020-11-05T13:44:30.000Z</time>
      </trkpt>
      <trkpt lat="44.48229" lon="6.2646">
        <ele>850.20001220703</ele>
        <time>2020-11-05T13:44:31.000Z</time>
      </trkpt>
      <trkpt lat="44.48226" lon="6.2647">
        <ele>849.20001220703</ele>
        <time>2020-11-05T13:44:34.000Z</time>
      </trkpt>
      <trkpt lat="44.48221" lon="6.2648">
        <ele>847.79998779297</ele>
        <time>2020-11-05T13:44:37.000Z</time>
      </trkpt>
      <trkpt lat="44.48216" lon="6.26488">
        <ele>846.59997558594</ele>
        <time>2020-11-05T13:44:40.000Z</time>
      </trkpt>
      <trkpt lat="44.48214" lon="6.26495">
        <ele>845.59997558594</ele>
        <time>2020-11-05T13:44:43.000Z</time>
      </trkpt>
      <trkpt lat="44.48213" lon="6.26496">
        <ele>845.40002441406</ele>
        <time>2020-11-05T13:44:44.000Z</time>
      </trkpt>
      <trkpt lat="44.4821" lon="6.26499">
        <ele>844.20001220703</ele>
        <time>2020-11-05T13:44:46.000Z</time>
      </trkpt>
      <trkpt lat="44.48208" lon="6.26502">
        <ele>843.20001220703</ele>
        <time>2020-11-05T13:44:48.000Z</time>
      </trkpt>
      <trkpt lat="44.48208" lon="6.26504">
        <ele>842.79998779297</ele>
        <time>2020-11-05T13:44:49.000Z</time>
      </trkpt>
      <trkpt lat="44.48205" lon="6.26507">
        <ele>842.20001220703</ele>
        <time>2020-11-05T13:44:52.000Z</time>
      </trkpt>
      <trkpt lat="44.48203" lon="6.26506">
        <ele>841.79998779297</ele>
        <time>2020-11-05T13:44:55.000Z</time>
      </trkpt>
      <trkpt lat="44.48202" lon="6.26502">
        <ele>841.79998779297</ele>
        <time>2020-11-05T13:44:57.000Z</time>
      </trkpt>
      <trkpt lat="44.48201" lon="6.26494">
        <ele>841.79998779297</ele>
        <time>2020-11-05T13:45:01.000Z</time>
      </trkpt>
      <trkpt lat="44.48201" lon="6.26488">
        <ele>842.20001220703</ele>
        <time>2020-11-05T13:45:05.000Z</time>
      </trkpt>
      <trkpt lat="44.48202" lon="6.26485">
        <ele>843</ele>
        <time>2020-11-05T13:45:07.000Z</time>
      </trkpt>
      <trkpt lat="44.48203" lon="6.26481">
        <ele>844</ele>
        <time>2020-11-05T13:45:09.000Z</time>
      </trkpt>
      <trkpt lat="44.48203" lon="6.26478">
        <ele>845</ele>
        <time>2020-11-05T13:45:11.000Z</time>
      </trkpt>
      <trkpt lat="44.48204" lon="6.26475">
        <ele>846.20001220703</ele>
        <time>2020-11-05T13:45:13.000Z</time>
      </trkpt>
      <trkpt lat="44.48204" lon="6.26473">
        <ele>847.40002441406</ele>
        <time>2020-11-05T13:45:14.000Z</time>
      </trkpt>
      <trkpt lat="44.48204" lon="6.26471">
        <ele>847.79998779297</ele>
        <time>2020-11-05T13:45:15.000Z</time>
      </trkpt>
      <trkpt lat="44.48204" lon="6.26469">
        <ele>848.40002441406</ele>
        <time>2020-11-05T13:45:16.000Z</time>
      </trkpt>
      <trkpt lat="44.48204" lon="6.26465">
        <ele>849.40002441406</ele>
        <time>2020-11-05T13:45:18.000Z</time>
      </trkpt>
      <trkpt lat="44.48204" lon="6.26461">
        <ele>850.40002441406</ele>
        <time>2020-11-05T13:45:20.000Z</time>
      </trkpt>
      <trkpt lat="44.48203" lon="6.26455">
        <ele>851.79998779297</ele>
        <time>2020-11-05T13:45:22.000Z</time>
      </trkpt>
      <trkpt lat="44.48203" lon="6.26451">
        <ele>853</ele>
        <time>2020-11-05T13:45:24.000Z</time>
      </trkpt>
      <trkpt lat="44.48203" lon="6.26447">
        <ele>854</ele>
        <time>2020-11-05T13:45:26.000Z</time>
      </trkpt>
      <trkpt lat="44.48204" lon="6.26443">
        <ele>855</ele>
        <time>2020-11-05T13:45:28.000Z</time>
      </trkpt>
      <trkpt lat="44.48204" lon="6.26441">
        <ele>855.59997558594</ele>
        <time>2020-11-05T13:45:29.000Z</time>
      </trkpt>
      <trkpt lat="44.48203" lon="6.26437">
        <ele>856.40002441406</ele>
        <time>2020-11-05T13:45:31.000Z</time>
      </trkpt>
      <trkpt lat="44.482" lon="6.26434">
        <ele>857.20001220703</ele>
        <time>2020-11-05T13:45:33.000Z</time>
      </trkpt>
      <trkpt lat="44.48199" lon="6.26433">
        <ele>857.59997558594</ele>
        <time>2020-11-05T13:45:34.000Z</time>
      </trkpt>
      <trkpt lat="44.48195" lon="6.26428">
        <ele>858.79998779297</ele>
        <time>2020-11-05T13:45:37.000Z</time>
      </trkpt>
      <trkpt lat="44.48193" lon="6.26422">
        <ele>860.20001220703</ele>
        <time>2020-11-05T13:45:40.000Z</time>
      </trkpt>
      <trkpt lat="44.48192" lon="6.26419">
        <ele>861.40002441406</ele>
        <time>2020-11-05T13:45:42.000Z</time>
      </trkpt>
      <trkpt lat="44.4819" lon="6.26412">
        <ele>862.59997558594</ele>
        <time>2020-11-05T13:45:45.000Z</time>
      </trkpt>
      <trkpt lat="44.4819" lon="6.2641">
        <ele>863</ele>
        <time>2020-11-05T13:45:46.000Z</time>
      </trkpt>
      <trkpt lat="44.48189" lon="6.26405">
        <ele>863.79998779297</ele>
        <time>2020-11-05T13:45:48.000Z</time>
      </trkpt>
      <trkpt lat="44.48188" lon="6.26396">
        <ele>865</ele>
        <time>2020-11-05T13:45:52.000Z</time>
      </trkpt>
      <trkpt lat="44.48186" lon="6.26389">
        <ele>866.40002441406</ele>
        <time>2020-11-05T13:45:55.000Z</time>
      </trkpt>
      <trkpt lat="44.48185" lon="6.26382">
        <ele>867.40002441406</ele>
        <time>2020-11-05T13:45:58.000Z</time>
      </trkpt>
      <trkpt lat="44.48184" lon="6.26378">
        <ele>868.20001220703</ele>
        <time>2020-11-05T13:46:00.000Z</time>
      </trkpt>
      <trkpt lat="44.48183" lon="6.26376">
        <ele>868.59997558594</ele>
        <time>2020-11-05T13:46:01.000Z</time>
      </trkpt>
      <trkpt lat="44.4818" lon="6.26368">
        <ele>869.59997558594</ele>
        <time>2020-11-05T13:46:05.000Z</time>
      </trkpt>
      <trkpt lat="44.48178" lon="6.26366">
        <ele>870</ele>
        <time>2020-11-05T13:46:06.000Z</time>
      </trkpt>
      <trkpt lat="44.48177" lon="6.26363">
        <ele>870.59997558594</ele>
        <time>2020-11-05T13:46:08.000Z</time>
      </trkpt>
      <trkpt lat="44.48176" lon="6.2636">
        <ele>871</ele>
        <time>2020-11-05T13:46:09.000Z</time>
      </trkpt>
      <trkpt lat="44.48175" lon="6.26356">
        <ele>872.20001220703</ele>
        <time>2020-11-05T13:46:11.000Z</time>
      </trkpt>
      <trkpt lat="44.48174" lon="6.26352">
        <ele>873</ele>
        <time>2020-11-05T13:46:13.000Z</time>
      </trkpt>
      <trkpt lat="44.48173" lon="6.26349">
        <ele>873.40002441406</ele>
        <time>2020-11-05T13:46:14.000Z</time>
      </trkpt>
      <trkpt lat="44.48171" lon="6.26342">
        <ele>874.79998779297</ele>
        <time>2020-11-05T13:46:17.000Z</time>
      </trkpt>
      <trkpt lat="44.48169" lon="6.26337">
        <ele>876</ele>
        <time>2020-11-05T13:46:20.000Z</time>
      </trkpt>
      <trkpt lat="44.48168" lon="6.26333">
        <ele>876.79998779297</ele>
        <time>2020-11-05T13:46:22.000Z</time>
      </trkpt>
      <trkpt lat="44.48168" lon="6.26331">
        <ele>877.40002441406</ele>
        <time>2020-11-05T13:46:23.000Z</time>
      </trkpt>
      <trkpt lat="44.48166" lon="6.26326">
        <ele>878.79998779297</ele>
        <time>2020-11-05T13:46:26.000Z</time>
      </trkpt>
      <trkpt lat="44.48163" lon="6.26322">
        <ele>880.59997558594</ele>
        <time>2020-11-05T13:46:29.000Z</time>
      </trkpt>
      <trkpt lat="44.4816" lon="6.2632">
        <ele>881.79998779297</ele>
        <time>2020-11-05T13:46:32.000Z</time>
      </trkpt>
      <trkpt lat="44.48158" lon="6.26318">
        <ele>883</ele>
        <time>2020-11-05T13:46:34.000Z</time>
      </trkpt>
      <trkpt lat="44.48155" lon="6.26316">
        <ele>884.20001220703</ele>
        <time>2020-11-05T13:46:36.000Z</time>
      </trkpt>
      <trkpt lat="44.48152" lon="6.26313">
        <ele>886</ele>
        <time>2020-11-05T13:46:38.000Z</time>
      </trkpt>
      <trkpt lat="44.48149" lon="6.2631">
        <ele>887</ele>
        <time>2020-11-05T13:46:40.000Z</time>
      </trkpt>
      <trkpt lat="44.48145" lon="6.26306">
        <ele>888.40002441406</ele>
        <time>2020-11-05T13:46:43.000Z</time>
      </trkpt>
      <trkpt lat="44.48143" lon="6.26303">
        <ele>889.59997558594</ele>
        <time>2020-11-05T13:46:45.000Z</time>
      </trkpt>
      <trkpt lat="44.48141" lon="6.26299">
        <ele>890.79998779297</ele>
        <time>2020-11-05T13:46:47.000Z</time>
      </trkpt>
      <trkpt lat="44.48139" lon="6.26296">
        <ele>891.79998779297</ele>
        <time>2020-11-05T13:46:49.000Z</time>
      </trkpt>
      <trkpt lat="44.48137" lon="6.26293">
        <ele>892.59997558594</ele>
        <time>2020-11-05T13:46:51.000Z</time>
      </trkpt>
      <trkpt lat="44.48137" lon="6.26291">
        <ele>893.20001220703</ele>
        <time>2020-11-05T13:46:52.000Z</time>
      </trkpt>
      <trkpt lat="44.48134" lon="6.26287">
        <ele>894.40002441406</ele>
        <time>2020-11-05T13:46:55.000Z</time>
      </trkpt>
      <trkpt lat="44.48131" lon="6.26282">
        <ele>895.40002441406</ele>
        <time>2020-11-05T13:46:58.000Z</time>
      </trkpt>
      <trkpt lat="44.4813" lon="6.26281">
        <ele>895.79998779297</ele>
        <time>2020-11-05T13:46:59.000Z</time>
      </trkpt>
      <trkpt lat="44.48127" lon="6.26277">
        <ele>896.59997558594</ele>
        <time>2020-11-05T13:47:01.000Z</time>
      </trkpt>
      <trkpt lat="44.48122" lon="6.26273">
        <ele>897.79998779297</ele>
        <time>2020-11-05T13:47:04.000Z</time>
      </trkpt>
      <trkpt lat="44.4812" lon="6.26272">
        <ele>898.20001220703</ele>
        <time>2020-11-05T13:47:05.000Z</time>
      </trkpt>
      <trkpt lat="44.48117" lon="6.2627">
        <ele>899</ele>
        <time>2020-11-05T13:47:07.000Z</time>
      </trkpt>
      <trkpt lat="44.4811" lon="6.26262">
        <ele>899.59997558594</ele>
        <time>2020-11-05T13:47:12.000Z</time>
      </trkpt>
      <trkpt lat="44.48099" lon="6.26249">
        <ele>899.79998779297</ele>
        <time>2020-11-05T13:47:19.000Z</time>
      </trkpt>
      <trkpt lat="44.48095" lon="6.26235">
        <ele>900.20001220703</ele>
        <time>2020-11-05T13:47:26.000Z</time>
      </trkpt>
      <trkpt lat="44.48094" lon="6.26233">
        <ele>900.20001220703</ele>
        <time>2020-11-05T13:47:27.000Z</time>
      </trkpt>
      <trkpt lat="44.48093" lon="6.26229">
        <ele>900.40002441406</ele>
        <time>2020-11-05T13:47:29.000Z</time>
      </trkpt>
      <trkpt lat="44.4809" lon="6.26222">
        <ele>900.79998779297</ele>
        <time>2020-11-05T13:47:33.000Z</time>
      </trkpt>
      <trkpt lat="44.48088" lon="6.2622">
        <ele>901</ele>
        <time>2020-11-05T13:47:34.000Z</time>
      </trkpt>
      <trkpt lat="44.48086" lon="6.26216">
        <ele>901.40002441406</ele>
        <time>2020-11-05T13:47:36.000Z</time>
      </trkpt>
      <trkpt lat="44.48082" lon="6.26208">
        <ele>901.79998779297</ele>
        <time>2020-11-05T13:47:40.000Z</time>
      </trkpt>
      <trkpt lat="44.48077" lon="6.26197">
        <ele>902.59997558594</ele>
        <time>2020-11-05T13:47:45.000Z</time>
      </trkpt>
      <trkpt lat="44.48073" lon="6.26186">
        <ele>903.59997558594</ele>
        <time>2020-11-05T13:47:50.000Z</time>
      </trkpt>
      <trkpt lat="44.4807" lon="6.26179">
        <ele>904.40002441406</ele>
        <time>2020-11-05T13:47:53.000Z</time>
      </trkpt>
      <trkpt lat="44.48069" lon="6.26177">
        <ele>904.59997558594</ele>
        <time>2020-11-05T13:47:54.000Z</time>
      </trkpt>
      <trkpt lat="44.48062" lon="6.26166">
        <ele>905.79998779297</ele>
        <time>2020-11-05T13:48:00.000Z</time>
      </trkpt>
      <trkpt lat="44.48061" lon="6.26164">
        <ele>906</ele>
        <time>2020-11-05T13:48:01.000Z</time>
      </trkpt>
      <trkpt lat="44.48059" lon="6.2616">
        <ele>907</ele>
        <time>2020-11-05T13:48:03.000Z</time>
      </trkpt>
      <trkpt lat="44.48052" lon="6.26152">
        <ele>908</ele>
        <time>2020-11-05T13:48:08.000Z</time>
      </trkpt>
      <trkpt lat="44.48049" lon="6.26147">
        <ele>908.79998779297</ele>
        <time>2020-11-05T13:48:11.000Z</time>
      </trkpt>
      <trkpt lat="44.48048" lon="6.26146">
        <ele>909</ele>
        <time>2020-11-05T13:48:12.000Z</time>
      </trkpt>
      <trkpt lat="44.48044" lon="6.26138">
        <ele>910.20001220703</ele>
        <time>2020-11-05T13:48:17.000Z</time>
      </trkpt>
      <trkpt lat="44.48043" lon="6.26136">
        <ele>910.40002441406</ele>
        <time>2020-11-05T13:48:18.000Z</time>
      </trkpt>
      <trkpt lat="44.4804" lon="6.2613">
        <ele>911.40002441406</ele>
        <time>2020-11-05T13:48:21.000Z</time>
      </trkpt>
      <trkpt lat="44.4804" lon="6.26123">
        <ele>912.20001220703</ele>
        <time>2020-11-05T13:48:24.000Z</time>
      </trkpt>
      <trkpt lat="44.4804" lon="6.26121">
        <ele>912.59997558594</ele>
        <time>2020-11-05T13:48:25.000Z</time>
      </trkpt>
      <trkpt lat="44.4804" lon="6.26111">
        <ele>913.79998779297</ele>
        <time>2020-11-05T13:48:29.000Z</time>
      </trkpt>
      <trkpt lat="44.48041" lon="6.26106">
        <ele>915</ele>
        <time>2020-11-05T13:48:31.000Z</time>
      </trkpt>
      <trkpt lat="44.48042" lon="6.26099">
        <ele>916.40002441406</ele>
        <time>2020-11-05T13:48:34.000Z</time>
      </trkpt>
      <trkpt lat="44.4804" lon="6.26089">
        <ele>917.79998779297</ele>
        <time>2020-11-05T13:48:38.000Z</time>
      </trkpt>
      <trkpt lat="44.48038" lon="6.26083">
        <ele>918.79998779297</ele>
        <time>2020-11-05T13:48:41.000Z</time>
      </trkpt>
      <trkpt lat="44.48035" lon="6.26075">
        <ele>919.79998779297</ele>
        <time>2020-11-05T13:48:45.000Z</time>
      </trkpt>
      <trkpt lat="44.48031" lon="6.26068">
        <ele>921</ele>
        <time>2020-11-05T13:48:49.000Z</time>
      </trkpt>
      <trkpt lat="44.48029" lon="6.26064">
        <ele>921.59997558594</ele>
        <time>2020-11-05T13:48:51.000Z</time>
      </trkpt>
      <trkpt lat="44.48027" lon="6.2606">
        <ele>922</ele>
        <time>2020-11-05T13:48:53.000Z</time>
      </trkpt>
      <trkpt lat="44.48025" lon="6.26055">
        <ele>923.40002441406</ele>
        <time>2020-11-05T13:48:56.000Z</time>
      </trkpt>
      <trkpt lat="44.48023" lon="6.26051">
        <ele>924.40002441406</ele>
        <time>2020-11-05T13:48:58.000Z</time>
      </trkpt>
      <trkpt lat="44.48023" lon="6.26049">
        <ele>924.59997558594</ele>
        <time>2020-11-05T13:48:59.000Z</time>
      </trkpt>
      <trkpt lat="44.4802" lon="6.26043">
        <ele>925.79998779297</ele>
        <time>2020-11-05T13:49:03.000Z</time>
      </trkpt>
      <trkpt lat="44.4802" lon="6.26039">
        <ele>926.59997558594</ele>
        <time>2020-11-05T13:49:05.000Z</time>
      </trkpt>
      <trkpt lat="44.48019" lon="6.26036">
        <ele>927.20001220703</ele>
        <time>2020-11-05T13:49:07.000Z</time>
      </trkpt>
      <trkpt lat="44.48016" lon="6.26028">
        <ele>928.20001220703</ele>
        <time>2020-11-05T13:49:11.000Z</time>
      </trkpt>
      <trkpt lat="44.48015" lon="6.26026">
        <ele>928.40002441406</ele>
        <time>2020-11-05T13:49:12.000Z</time>
      </trkpt>
      <trkpt lat="44.48012" lon="6.26013">
        <ele>929.40002441406</ele>
        <time>2020-11-05T13:49:17.000Z</time>
      </trkpt>
      <trkpt lat="44.48011" lon="6.26008">
        <ele>929.79998779297</ele>
        <time>2020-11-05T13:49:19.000Z</time>
      </trkpt>
      <trkpt lat="44.48009" lon="6.25997">
        <ele>930.40002441406</ele>
        <time>2020-11-05T13:49:23.000Z</time>
      </trkpt>
      <trkpt lat="44.48008" lon="6.25989">
        <ele>930.59997558594</ele>
        <time>2020-11-05T13:49:25.000Z</time>
      </trkpt>
      <trkpt lat="44.48002" lon="6.25959">
        <ele>930.79998779297</ele>
        <time>2020-11-05T13:49:33.000Z</time>
      </trkpt>
      <trkpt lat="44.47998" lon="6.25931">
        <ele>930.79998779297</ele>
        <time>2020-11-05T13:49:42.000Z</time>
      </trkpt>
      <trkpt lat="44.47991" lon="6.25911">
        <ele>931</ele>
        <time>2020-11-05T13:49:50.000Z</time>
      </trkpt>
      <trkpt lat="44.47985" lon="6.25899">
        <ele>931.40002441406</ele>
        <time>2020-11-05T13:49:55.000Z</time>
      </trkpt>
      <trkpt lat="44.47978" lon="6.2589">
        <ele>931.79998779297</ele>
        <time>2020-11-05T13:49:59.000Z</time>
      </trkpt>
      <trkpt lat="44.47966" lon="6.25876">
        <ele>932.59997558594</ele>
        <time>2020-11-05T13:50:07.000Z</time>
      </trkpt>
      <trkpt lat="44.47962" lon="6.25871">
        <ele>933.20001220703</ele>
        <time>2020-11-05T13:50:10.000Z</time>
      </trkpt>
      <trkpt lat="44.47957" lon="6.25866">
        <ele>933.59997558594</ele>
        <time>2020-11-05T13:50:13.000Z</time>
      </trkpt>
      <trkpt lat="44.47946" lon="6.25856">
        <ele>934.79998779297</ele>
        <time>2020-11-05T13:50:20.000Z</time>
      </trkpt>
      <trkpt lat="44.47937" lon="6.25848">
        <ele>936.20001220703</ele>
        <time>2020-11-05T13:50:26.000Z</time>
      </trkpt>
      <trkpt lat="44.47936" lon="6.25847">
        <ele>936.59997558594</ele>
        <time>2020-11-05T13:50:27.000Z</time>
      </trkpt>
      <trkpt lat="44.47932" lon="6.25842">
        <ele>937.40002441406</ele>
        <time>2020-11-05T13:50:30.000Z</time>
      </trkpt>
      <trkpt lat="44.47926" lon="6.25833">
        <ele>938.40002441406</ele>
        <time>2020-11-05T13:50:35.000Z</time>
      </trkpt>
      <trkpt lat="44.47925" lon="6.25831">
        <ele>938.79998779297</ele>
        <time>2020-11-05T13:50:36.000Z</time>
      </trkpt>
      <trkpt lat="44.47923" lon="6.25825">
        <ele>939.59997558594</ele>
        <time>2020-11-05T13:50:39.000Z</time>
      </trkpt>
      <trkpt lat="44.4792" lon="6.25816">
        <ele>940.59997558594</ele>
        <time>2020-11-05T13:50:43.000Z</time>
      </trkpt>
      <trkpt lat="44.47919" lon="6.25812">
        <ele>941.20001220703</ele>
        <time>2020-11-05T13:50:45.000Z</time>
      </trkpt>
      <trkpt lat="44.47917" lon="6.25803">
        <ele>942</ele>
        <time>2020-11-05T13:50:49.000Z</time>
      </trkpt>
      <trkpt lat="44.47916" lon="6.25801">
        <ele>942</ele>
        <time>2020-11-05T13:50:50.000Z</time>
      </trkpt>
      <trkpt lat="44.47916" lon="6.258">
        <ele>942.20001220703</ele>
        <time>2020-11-05T13:50:51.000Z</time>
      </trkpt>
      <trkpt lat="44.47914" lon="6.25791">
        <ele>942.79998779297</ele>
        <time>2020-11-05T13:50:55.000Z</time>
      </trkpt>
      <trkpt lat="44.47913" lon="6.25785">
        <ele>943</ele>
        <time>2020-11-05T13:50:57.000Z</time>
      </trkpt>
      <trkpt lat="44.47913" lon="6.25782">
        <ele>943</ele>
        <time>2020-11-05T13:50:58.000Z</time>
      </trkpt>
      <trkpt lat="44.47911" lon="6.25778">
        <ele>943.40002441406</ele>
        <time>2020-11-05T13:51:00.000Z</time>
      </trkpt>
      <trkpt lat="44.47909" lon="6.25773">
        <ele>943.59997558594</ele>
        <time>2020-11-05T13:51:02.000Z</time>
      </trkpt>
      <trkpt lat="44.479" lon="6.25759">
        <ele>944.20001220703</ele>
        <time>2020-11-05T13:51:08.000Z</time>
      </trkpt>
      <trkpt lat="44.47892" lon="6.25745">
        <ele>944.59997558594</ele>
        <time>2020-11-05T13:51:15.000Z</time>
      </trkpt>
      <trkpt lat="44.47888" lon="6.25729">
        <ele>945.20001220703</ele>
        <time>2020-11-05T13:51:21.000Z</time>
      </trkpt>
      <trkpt lat="44.47887" lon="6.25726">
        <ele>945.40002441406</ele>
        <time>2020-11-05T13:51:22.000Z</time>
      </trkpt>
      <trkpt lat="44.47886" lon="6.25708">
        <ele>946.20001220703</ele>
        <time>2020-11-05T13:51:28.000Z</time>
      </trkpt>
      <trkpt lat="44.47887" lon="6.257">
        <ele>946.40002441406</ele>
        <time>2020-11-05T13:51:30.000Z</time>
      </trkpt>
      <trkpt lat="44.47889" lon="6.25688">
        <ele>947.20001220703</ele>
        <time>2020-11-05T13:51:34.000Z</time>
      </trkpt>
      <trkpt lat="44.47891" lon="6.25683">
        <ele>947.59997558594</ele>
        <time>2020-11-05T13:51:36.000Z</time>
      </trkpt>
      <trkpt lat="44.47897" lon="6.25662">
        <ele>948</ele>
        <time>2020-11-05T13:51:43.000Z</time>
      </trkpt>
      <trkpt lat="44.47899" lon="6.25655">
        <ele>948.40002441406</ele>
        <time>2020-11-05T13:51:45.000Z</time>
      </trkpt>
      <trkpt lat="44.47902" lon="6.2564">
        <ele>948.40002441406</ele>
        <time>2020-11-05T13:51:48.000Z</time>
      </trkpt>
      <trkpt lat="44.47908" lon="6.25618">
        <ele>948.40002441406</ele>
        <time>2020-11-05T13:51:53.000Z</time>
      </trkpt>
      <trkpt lat="44.47914" lon="6.25604">
        <ele>948.59997558594</ele>
        <time>2020-11-05T13:51:57.000Z</time>
      </trkpt>
      <trkpt lat="44.47913" lon="6.25601">
        <ele>948.40002441406</ele>
        <time>2020-11-05T13:51:58.000Z</time>
      </trkpt>
      <trkpt lat="44.47906" lon="6.25589">
        <ele>948.40002441406</ele>
        <time>2020-11-05T13:52:02.000Z</time>
      </trkpt>
      <trkpt lat="44.47901" lon="6.25574">
        <ele>948.59997558594</ele>
        <time>2020-11-05T13:52:07.000Z</time>
      </trkpt>
      <trkpt lat="44.47904" lon="6.25552">
        <ele>948.79998779297</ele>
        <time>2020-11-05T13:52:14.000Z</time>
      </trkpt>
      <trkpt lat="44.47909" lon="6.25543">
        <ele>949</ele>
        <time>2020-11-05T13:52:19.000Z</time>
      </trkpt>
      <trkpt lat="44.47909" lon="6.25538">
        <ele>949.40002441406</ele>
        <time>2020-11-05T13:52:21.000Z</time>
      </trkpt>
      <trkpt lat="44.47908" lon="6.25533">
        <ele>950.20001220703</ele>
        <time>2020-11-05T13:52:24.000Z</time>
      </trkpt>
      <trkpt lat="44.47907" lon="6.25532">
        <ele>950.59997558594</ele>
        <time>2020-11-05T13:52:25.000Z</time>
      </trkpt>
      <trkpt lat="44.479" lon="6.25528">
        <ele>952</ele>
        <time>2020-11-05T13:52:30.000Z</time>
      </trkpt>
      <trkpt lat="44.47898" lon="6.25527">
        <ele>952.20001220703</ele>
        <time>2020-11-05T13:52:31.000Z</time>
      </trkpt>
      <trkpt lat="44.47897" lon="6.25527">
        <ele>952.59997558594</ele>
        <time>2020-11-05T13:52:32.000Z</time>
      </trkpt>
      <trkpt lat="44.47894" lon="6.25528">
        <ele>953.20001220703</ele>
        <time>2020-11-05T13:52:34.000Z</time>
      </trkpt>
      <trkpt lat="44.47889" lon="6.25531">
        <ele>954.59997558594</ele>
        <time>2020-11-05T13:52:38.000Z</time>
      </trkpt>
      <trkpt lat="44.47888" lon="6.25532">
        <ele>954.79998779297</ele>
        <time>2020-11-05T13:52:39.000Z</time>
      </trkpt>
      <trkpt lat="44.47884" lon="6.25537">
        <ele>955.79998779297</ele>
        <time>2020-11-05T13:52:43.000Z</time>
      </trkpt>
      <trkpt lat="44.47883" lon="6.25541">
        <ele>956.40002441406</ele>
        <time>2020-11-05T13:52:45.000Z</time>
      </trkpt>
      <trkpt lat="44.47883" lon="6.25543">
        <ele>956.79998779297</ele>
        <time>2020-11-05T13:52:46.000Z</time>
      </trkpt>
      <trkpt lat="44.47882" lon="6.25545">
        <ele>957.40002441406</ele>
        <time>2020-11-05T13:52:47.000Z</time>
      </trkpt>
      <trkpt lat="44.47879" lon="6.25547">
        <ele>958.20001220703</ele>
        <time>2020-11-05T13:52:49.000Z</time>
      </trkpt>
      <trkpt lat="44.47878" lon="6.25547">
        <ele>958.59997558594</ele>
        <time>2020-11-05T13:52:50.000Z</time>
      </trkpt>
      <trkpt lat="44.47874" lon="6.25545">
        <ele>959.20001220703</ele>
        <time>2020-11-05T13:52:53.000Z</time>
      </trkpt>
      <trkpt lat="44.47874" lon="6.25542">
        <ele>959.79998779297</ele>
        <time>2020-11-05T13:52:55.000Z</time>
      </trkpt>
      <trkpt lat="44.47874" lon="6.25538">
        <ele>960.59997558594</ele>
        <time>2020-11-05T13:52:57.000Z</time>
      </trkpt>
      <trkpt lat="44.47875" lon="6.2553">
        <ele>961.79998779297</ele>
        <time>2020-11-05T13:53:01.000Z</time>
      </trkpt>
      <trkpt lat="44.47878" lon="6.25524">
        <ele>962.79998779297</ele>
        <time>2020-11-05T13:53:05.000Z</time>
      </trkpt>
      <trkpt lat="44.47881" lon="6.25513">
        <ele>964.20001220703</ele>
        <time>2020-11-05T13:53:10.000Z</time>
      </trkpt>
      <trkpt lat="44.4788" lon="6.25504">
        <ele>965.20001220703</ele>
        <time>2020-11-05T13:53:14.000Z</time>
      </trkpt>
      <trkpt lat="44.4788" lon="6.255">
        <ele>965.79998779297</ele>
        <time>2020-11-05T13:53:16.000Z</time>
      </trkpt>
      <trkpt lat="44.47881" lon="6.25493">
        <ele>966.59997558594</ele>
        <time>2020-11-05T13:53:19.000Z</time>
      </trkpt>
      <trkpt lat="44.47883" lon="6.25484">
        <ele>967.59997558594</ele>
        <time>2020-11-05T13:53:23.000Z</time>
      </trkpt>
      <trkpt lat="44.47883" lon="6.25479">
        <ele>968</ele>
        <time>2020-11-05T13:53:25.000Z</time>
      </trkpt>
      <trkpt lat="44.47887" lon="6.25471">
        <ele>968.79998779297</ele>
        <time>2020-11-05T13:53:29.000Z</time>
      </trkpt>
      <trkpt lat="44.47889" lon="6.25469">
        <ele>969.20001220703</ele>
        <time>2020-11-05T13:53:31.000Z</time>
      </trkpt>
      <trkpt lat="44.47893" lon="6.25464">
        <ele>969.79998779297</ele>
        <time>2020-11-05T13:53:34.000Z</time>
      </trkpt>
      <trkpt lat="44.47895" lon="6.25457">
        <ele>970.59997558594</ele>
        <time>2020-11-05T13:53:38.000Z</time>
      </trkpt>
      <trkpt lat="44.47893" lon="6.25454">
        <ele>971</ele>
        <time>2020-11-05T13:53:40.000Z</time>
      </trkpt>
      <trkpt lat="44.47889" lon="6.25451">
        <ele>971.59997558594</ele>
        <time>2020-11-05T13:53:43.000Z</time>
      </trkpt>
      <trkpt lat="44.47886" lon="6.25451">
        <ele>972</ele>
        <time>2020-11-05T13:53:45.000Z</time>
      </trkpt>
      <trkpt lat="44.4788" lon="6.25455">
        <ele>973.20001220703</ele>
        <time>2020-11-05T13:53:49.000Z</time>
      </trkpt>
      <trkpt lat="44.47874" lon="6.25455">
        <ele>974.40002441406</ele>
        <time>2020-11-05T13:53:53.000Z</time>
      </trkpt>
      <trkpt lat="44.47871" lon="6.25455">
        <ele>975</ele>
        <time>2020-11-05T13:53:55.000Z</time>
      </trkpt>
      <trkpt lat="44.47869" lon="6.25456">
        <ele>975.40002441406</ele>
        <time>2020-11-05T13:53:56.000Z</time>
      </trkpt>
      <trkpt lat="44.47867" lon="6.25456">
        <ele>975.59997558594</ele>
        <time>2020-11-05T13:53:57.000Z</time>
      </trkpt>
      <trkpt lat="44.47859" lon="6.25455">
        <ele>976.79998779297</ele>
        <time>2020-11-05T13:54:02.000Z</time>
      </trkpt>
      <trkpt lat="44.47853" lon="6.25454">
        <ele>977.59997558594</ele>
        <time>2020-11-05T13:54:05.000Z</time>
      </trkpt>
      <trkpt lat="44.4785" lon="6.25454">
        <ele>978</ele>
        <time>2020-11-05T13:54:07.000Z</time>
      </trkpt>
      <trkpt lat="44.47842" lon="6.25452">
        <ele>979</ele>
        <time>2020-11-05T13:54:12.000Z</time>
      </trkpt>
      <trkpt lat="44.4784" lon="6.25452">
        <ele>979.40002441406</ele>
        <time>2020-11-05T13:54:13.000Z</time>
      </trkpt>
      <trkpt lat="44.47834" lon="6.2545">
        <ele>980.20001220703</ele>
        <time>2020-11-05T13:54:16.000Z</time>
      </trkpt>
      <trkpt lat="44.47822" lon="6.25449">
        <ele>981.40002441406</ele>
        <time>2020-11-05T13:54:21.000Z</time>
      </trkpt>
      <trkpt lat="44.47814" lon="6.25447">
        <ele>982.20001220703</ele>
        <time>2020-11-05T13:54:26.000Z</time>
      </trkpt>
      <trkpt lat="44.47807" lon="6.25445">
        <ele>982.40002441406</ele>
        <time>2020-11-05T13:54:30.000Z</time>
      </trkpt>
      <trkpt lat="44.47806" lon="6.25443">
        <ele>982.40002441406</ele>
        <time>2020-11-05T13:54:31.000Z</time>
      </trkpt>
      <trkpt lat="44.47805" lon="6.25441">
        <ele>982.59997558594</ele>
        <time>2020-11-05T13:54:32.000Z</time>
      </trkpt>
      <trkpt lat="44.47808" lon="6.25432">
        <ele>983</ele>
        <time>2020-11-05T13:54:36.000Z</time>
      </trkpt>
      <trkpt lat="44.4781" lon="6.25428">
        <ele>983.20001220703</ele>
        <time>2020-11-05T13:54:38.000Z</time>
      </trkpt>
      <trkpt lat="44.47813" lon="6.25417">
        <ele>983.59997558594</ele>
        <time>2020-11-05T13:54:43.000Z</time>
      </trkpt>
      <trkpt lat="44.47816" lon="6.25406">
        <ele>984.79998779297</ele>
        <time>2020-11-05T13:54:48.000Z</time>
      </trkpt>
      <trkpt lat="44.47817" lon="6.25402">
        <ele>985.20001220703</ele>
        <time>2020-11-05T13:54:50.000Z</time>
      </trkpt>
      <trkpt lat="44.47821" lon="6.25393">
        <ele>985.79998779297</ele>
        <time>2020-11-05T13:54:54.000Z</time>
      </trkpt>
      <trkpt lat="44.47825" lon="6.25383">
        <ele>987.40002441406</ele>
        <time>2020-11-05T13:54:59.000Z</time>
      </trkpt>
      <trkpt lat="44.47826" lon="6.25381">
        <ele>987.59997558594</ele>
        <time>2020-11-05T13:55:00.000Z</time>
      </trkpt>
      <trkpt lat="44.4783" lon="6.25374">
        <ele>988.79998779297</ele>
        <time>2020-11-05T13:55:04.000Z</time>
      </trkpt>
      <trkpt lat="44.47834" lon="6.25366">
        <ele>989.59997558594</ele>
        <time>2020-11-05T13:55:08.000Z</time>
      </trkpt>
      <trkpt lat="44.47834" lon="6.25364">
        <ele>989.79998779297</ele>
        <time>2020-11-05T13:55:09.000Z</time>
      </trkpt>
      <trkpt lat="44.47838" lon="6.25356">
        <ele>990.79998779297</ele>
        <time>2020-11-05T13:55:13.000Z</time>
      </trkpt>
      <trkpt lat="44.47841" lon="6.25348">
        <ele>992</ele>
        <time>2020-11-05T13:55:17.000Z</time>
      </trkpt>
      <trkpt lat="44.47841" lon="6.25346">
        <ele>992.20001220703</ele>
        <time>2020-11-05T13:55:18.000Z</time>
      </trkpt>
      <trkpt lat="44.47843" lon="6.25339">
        <ele>993</ele>
        <time>2020-11-05T13:55:21.000Z</time>
      </trkpt>
      <trkpt lat="44.47845" lon="6.25332">
        <ele>994.20001220703</ele>
        <time>2020-11-05T13:55:25.000Z</time>
      </trkpt>
      <trkpt lat="44.47845" lon="6.25329">
        <ele>994.59997558594</ele>
        <time>2020-11-05T13:55:26.000Z</time>
      </trkpt>
      <trkpt lat="44.47846" lon="6.25325">
        <ele>995.40002441406</ele>
        <time>2020-11-05T13:55:28.000Z</time>
      </trkpt>
      <trkpt lat="44.47846" lon="6.25316">
        <ele>996.79998779297</ele>
        <time>2020-11-05T13:55:32.000Z</time>
      </trkpt>
      <trkpt lat="44.47847" lon="6.25313">
        <ele>997</ele>
        <time>2020-11-05T13:55:33.000Z</time>
      </trkpt>
      <trkpt lat="44.47849" lon="6.25309">
        <ele>997.79998779297</ele>
        <time>2020-11-05T13:55:35.000Z</time>
      </trkpt>
      <trkpt lat="44.4785" lon="6.25301">
        <ele>999.20001220703</ele>
        <time>2020-11-05T13:55:38.000Z</time>
      </trkpt>
      <trkpt lat="44.47851" lon="6.25294">
        <ele>1000.4000244141</ele>
        <time>2020-11-05T13:55:41.000Z</time>
      </trkpt>
      <trkpt lat="44.47852" lon="6.25285">
        <ele>1001.4000244141</ele>
        <time>2020-11-05T13:55:45.000Z</time>
      </trkpt>
      <trkpt lat="44.47855" lon="6.25273">
        <ele>1002.5999755859</ele>
        <time>2020-11-05T13:55:50.000Z</time>
      </trkpt>
      <trkpt lat="44.47856" lon="6.25268">
        <ele>1003</ele>
        <time>2020-11-05T13:55:52.000Z</time>
      </trkpt>
      <trkpt lat="44.47858" lon="6.2526">
        <ele>1004</ele>
        <time>2020-11-05T13:55:55.000Z</time>
      </trkpt>
      <trkpt lat="44.4786" lon="6.25247">
        <ele>1005</ele>
        <time>2020-11-05T13:56:00.000Z</time>
      </trkpt>
      <trkpt lat="44.47861" lon="6.25239">
        <ele>1005.5999755859</ele>
        <time>2020-11-05T13:56:03.000Z</time>
      </trkpt>
      <trkpt lat="44.47862" lon="6.25234">
        <ele>1006.200012207</ele>
        <time>2020-11-05T13:56:05.000Z</time>
      </trkpt>
      <trkpt lat="44.47865" lon="6.25221">
        <ele>1007.200012207</ele>
        <time>2020-11-05T13:56:10.000Z</time>
      </trkpt>
      <trkpt lat="44.47864" lon="6.25212">
        <ele>1008</ele>
        <time>2020-11-05T13:56:13.000Z</time>
      </trkpt>
      <trkpt lat="44.47863" lon="6.25207">
        <ele>1008.4000244141</ele>
        <time>2020-11-05T13:56:15.000Z</time>
      </trkpt>
      <trkpt lat="44.47858" lon="6.25198">
        <ele>1009</ele>
        <time>2020-11-05T13:56:19.000Z</time>
      </trkpt>
      <trkpt lat="44.47852" lon="6.2519">
        <ele>1010</ele>
        <time>2020-11-05T13:56:23.000Z</time>
      </trkpt>
      <trkpt lat="44.47845" lon="6.25179">
        <ele>1011</ele>
        <time>2020-11-05T13:56:28.000Z</time>
      </trkpt>
      <trkpt lat="44.47836" lon="6.25155">
        <ele>1011.799987793</ele>
        <time>2020-11-05T13:56:35.000Z</time>
      </trkpt>
      <trkpt lat="44.47833" lon="6.25144">
        <ele>1012</ele>
        <time>2020-11-05T13:56:38.000Z</time>
      </trkpt>
      <trkpt lat="44.47826" lon="6.25122">
        <ele>1012.200012207</ele>
        <time>2020-11-05T13:56:43.000Z</time>
      </trkpt>
      <trkpt lat="44.47813" lon="6.25085">
        <ele>1012.4000244141</ele>
        <time>2020-11-05T13:56:52.000Z</time>
      </trkpt>
      <trkpt lat="44.478" lon="6.25053">
        <ele>1013</ele>
        <time>2020-11-05T13:57:00.000Z</time>
      </trkpt>
      <trkpt lat="44.47793" lon="6.25037">
        <ele>1013</ele>
        <time>2020-11-05T13:57:04.000Z</time>
      </trkpt>
      <trkpt lat="44.47789" lon="6.25027">
        <ele>1013.200012207</ele>
        <time>2020-11-05T13:57:07.000Z</time>
      </trkpt>
      <trkpt lat="44.47778" lon="6.25001">
        <ele>1014</ele>
        <time>2020-11-05T13:57:14.000Z</time>
      </trkpt>
      <trkpt lat="44.47777" lon="6.24997">
        <ele>1014.200012207</ele>
        <time>2020-11-05T13:57:15.000Z</time>
      </trkpt>
      <trkpt lat="44.47769" lon="6.24973">
        <ele>1015.200012207</ele>
        <time>2020-11-05T13:57:21.000Z</time>
      </trkpt>
      <trkpt lat="44.47768" lon="6.24969">
        <ele>1015.4000244141</ele>
        <time>2020-11-05T13:57:22.000Z</time>
      </trkpt>
      <trkpt lat="44.47765" lon="6.24949">
        <ele>1016.5999755859</ele>
        <time>2020-11-05T13:57:27.000Z</time>
      </trkpt>
      <trkpt lat="44.47764" lon="6.24937">
        <ele>1017.5999755859</ele>
        <time>2020-11-05T13:57:30.000Z</time>
      </trkpt>
      <trkpt lat="44.47765" lon="6.24933">
        <ele>1018</ele>
        <time>2020-11-05T13:57:31.000Z</time>
      </trkpt>
      <trkpt lat="44.47765" lon="6.24921">
        <ele>1019</ele>
        <time>2020-11-05T13:57:34.000Z</time>
      </trkpt>
      <trkpt lat="44.47767" lon="6.24902">
        <ele>1020</ele>
        <time>2020-11-05T13:57:38.000Z</time>
      </trkpt>
      <trkpt lat="44.47768" lon="6.24897">
        <ele>1020.200012207</ele>
        <time>2020-11-05T13:57:39.000Z</time>
      </trkpt>
      <trkpt lat="44.47772" lon="6.2488">
        <ele>1021</ele>
        <time>2020-11-05T13:57:43.000Z</time>
      </trkpt>
      <trkpt lat="44.47776" lon="6.24871">
        <ele>1021.200012207</ele>
        <time>2020-11-05T13:57:45.000Z</time>
      </trkpt>
      <trkpt lat="44.47787" lon="6.24844">
        <ele>1021.4000244141</ele>
        <time>2020-11-05T13:57:51.000Z</time>
      </trkpt>
      <trkpt lat="44.47798" lon="6.24827">
        <ele>1021.5999755859</ele>
        <time>2020-11-05T13:57:57.000Z</time>
      </trkpt>
      <trkpt lat="44.4781" lon="6.24792">
        <ele>1021.799987793</ele>
        <time>2020-11-05T13:58:06.000Z</time>
      </trkpt>
      <trkpt lat="44.47809" lon="6.24783">
        <ele>1022.200012207</ele>
        <time>2020-11-05T13:58:08.000Z</time>
      </trkpt>
      <trkpt lat="44.47805" lon="6.24771">
        <ele>1022.5999755859</ele>
        <time>2020-11-05T13:58:11.000Z</time>
      </trkpt>
      <trkpt lat="44.47795" lon="6.24744">
        <ele>1023.200012207</ele>
        <time>2020-11-05T13:58:19.000Z</time>
      </trkpt>
      <trkpt lat="44.47795" lon="6.2474">
        <ele>1023.200012207</ele>
        <time>2020-11-05T13:58:20.000Z</time>
      </trkpt>
      <trkpt lat="44.47793" lon="6.24721">
        <ele>1024.4000244141</ele>
        <time>2020-11-05T13:58:25.000Z</time>
      </trkpt>
      <trkpt lat="44.47792" lon="6.24711">
        <ele>1025</ele>
        <time>2020-11-05T13:58:28.000Z</time>
      </trkpt>
      <trkpt lat="44.47792" lon="6.24707">
        <ele>1025.4000244141</ele>
        <time>2020-11-05T13:58:29.000Z</time>
      </trkpt>
      <trkpt lat="44.47791" lon="6.2469">
        <ele>1026.5999755859</ele>
        <time>2020-11-05T13:58:34.000Z</time>
      </trkpt>
      <trkpt lat="44.47791" lon="6.2468">
        <ele>1027.4000244141</ele>
        <time>2020-11-05T13:58:37.000Z</time>
      </trkpt>
      <trkpt lat="44.47792" lon="6.24678">
        <ele>1027.8000488281</ele>
        <time>2020-11-05T13:58:38.000Z</time>
      </trkpt>
      <trkpt lat="44.47793" lon="6.24667">
        <ele>1028.8000488281</ele>
        <time>2020-11-05T13:58:42.000Z</time>
      </trkpt>
      <trkpt lat="44.47793" lon="6.24662">
        <ele>1030</ele>
        <time>2020-11-05T13:58:44.000Z</time>
      </trkpt>
      <trkpt lat="44.47794" lon="6.24657">
        <ele>1030.8000488281</ele>
        <time>2020-11-05T13:58:46.000Z</time>
      </trkpt>
      <trkpt lat="44.47795" lon="6.24655">
        <ele>1031</ele>
        <time>2020-11-05T13:58:47.000Z</time>
      </trkpt>
      <trkpt lat="44.47798" lon="6.24643">
        <ele>1032.1999511719</ele>
        <time>2020-11-05T13:58:53.000Z</time>
      </trkpt>
      <trkpt lat="44.47801" lon="6.24636">
        <ele>1033.1999511719</ele>
        <time>2020-11-05T13:58:57.000Z</time>
      </trkpt>
      <trkpt lat="44.47802" lon="6.2463">
        <ele>1033.8000488281</ele>
        <time>2020-11-05T13:59:00.000Z</time>
      </trkpt>
      <trkpt lat="44.47803" lon="6.24626">
        <ele>1034.1999511719</ele>
        <time>2020-11-05T13:59:02.000Z</time>
      </trkpt>
      <trkpt lat="44.47809" lon="6.24615">
        <ele>1035.4000244141</ele>
        <time>2020-11-05T13:59:07.000Z</time>
      </trkpt>
      <trkpt lat="44.4781" lon="6.24613">
        <ele>1035.5999755859</ele>
        <time>2020-11-05T13:59:08.000Z</time>
      </trkpt>
      <trkpt lat="44.47813" lon="6.24604">
        <ele>1036.8000488281</ele>
        <time>2020-11-05T13:59:12.000Z</time>
      </trkpt>
      <trkpt lat="44.47814" lon="6.24599">
        <ele>1037.1999511719</ele>
        <time>2020-11-05T13:59:14.000Z</time>
      </trkpt>
      <trkpt lat="44.47817" lon="6.24585">
        <ele>1038</ele>
        <time>2020-11-05T13:59:19.000Z</time>
      </trkpt>
      <trkpt lat="44.4782" lon="6.2458">
        <ele>1038.4000244141</ele>
        <time>2020-11-05T13:59:21.000Z</time>
      </trkpt>
      <trkpt lat="44.47824" lon="6.24571">
        <ele>1039.1999511719</ele>
        <time>2020-11-05T13:59:24.000Z</time>
      </trkpt>
      <trkpt lat="44.47832" lon="6.2456">
        <ele>1039.8000488281</ele>
        <time>2020-11-05T13:59:28.000Z</time>
      </trkpt>
      <trkpt lat="44.47842" lon="6.24548">
        <ele>1040</ele>
        <time>2020-11-05T13:59:34.000Z</time>
      </trkpt>
      <trkpt lat="44.47852" lon="6.24538">
        <ele>1040.1999511719</ele>
        <time>2020-11-05T13:59:40.000Z</time>
      </trkpt>
      <trkpt lat="44.47857" lon="6.24532">
        <ele>1040.4000244141</ele>
        <time>2020-11-05T13:59:43.000Z</time>
      </trkpt>
      <trkpt lat="44.47865" lon="6.24521">
        <ele>1041.1999511719</ele>
        <time>2020-11-05T13:59:49.000Z</time>
      </trkpt>
      <trkpt lat="44.47869" lon="6.24516">
        <ele>1042</ele>
        <time>2020-11-05T13:59:52.000Z</time>
      </trkpt>
      <trkpt lat="44.47872" lon="6.24513">
        <ele>1042.4000244141</ele>
        <time>2020-11-05T13:59:54.000Z</time>
      </trkpt>
      <trkpt lat="44.47879" lon="6.24506">
        <ele>1043.4000244141</ele>
        <time>2020-11-05T13:59:59.000Z</time>
      </trkpt>
      <trkpt lat="44.47882" lon="6.24503">
        <ele>1043.8000488281</ele>
        <time>2020-11-05T14:00:01.000Z</time>
      </trkpt>
      <trkpt lat="44.47888" lon="6.24497">
        <ele>1044.5999755859</ele>
        <time>2020-11-05T14:00:05.000Z</time>
      </trkpt>
      <trkpt lat="44.47894" lon="6.24491">
        <ele>1045.4000244141</ele>
        <time>2020-11-05T14:00:09.000Z</time>
      </trkpt>
      <trkpt lat="44.47895" lon="6.2449">
        <ele>1045.8000488281</ele>
        <time>2020-11-05T14:00:10.000Z</time>
      </trkpt>
      <trkpt lat="44.47901" lon="6.24484">
        <ele>1046.5999755859</ele>
        <time>2020-11-05T14:00:14.000Z</time>
      </trkpt>
      <trkpt lat="44.47908" lon="6.24478">
        <ele>1047.4000244141</ele>
        <time>2020-11-05T14:00:19.000Z</time>
      </trkpt>
      <trkpt lat="44.4791" lon="6.24476">
        <ele>1047.5999755859</ele>
        <time>2020-11-05T14:00:21.000Z</time>
      </trkpt>
      <trkpt lat="44.47918" lon="6.24468">
        <ele>1048.5999755859</ele>
        <time>2020-11-05T14:00:27.000Z</time>
      </trkpt>
      <trkpt lat="44.47923" lon="6.24461">
        <ele>1049.8000488281</ele>
        <time>2020-11-05T14:00:32.000Z</time>
      </trkpt>
      <trkpt lat="44.47926" lon="6.24459">
        <ele>1050.1999511719</ele>
        <time>2020-11-05T14:00:34.000Z</time>
      </trkpt>
      <trkpt lat="44.47928" lon="6.24458">
        <ele>1051</ele>
        <time>2020-11-05T14:00:36.000Z</time>
      </trkpt>
      <trkpt lat="44.47934" lon="6.24453">
        <ele>1052.1999511719</ele>
        <time>2020-11-05T14:00:41.000Z</time>
      </trkpt>
      <trkpt lat="44.47938" lon="6.24449">
        <ele>1053</ele>
        <time>2020-11-05T14:00:44.000Z</time>
      </trkpt>
      <trkpt lat="44.47939" lon="6.24448">
        <ele>1053.1999511719</ele>
        <time>2020-11-05T14:00:45.000Z</time>
      </trkpt>
      <trkpt lat="44.47944" lon="6.24443">
        <ele>1054.4000244141</ele>
        <time>2020-11-05T14:00:49.000Z</time>
      </trkpt>
      <trkpt lat="44.47949" lon="6.24438">
        <ele>1055.4000244141</ele>
        <time>2020-11-05T14:00:53.000Z</time>
      </trkpt>
      <trkpt lat="44.47954" lon="6.24434">
        <ele>1056.8000488281</ele>
        <time>2020-11-05T14:00:57.000Z</time>
      </trkpt>
      <trkpt lat="44.47958" lon="6.2443">
        <ele>1057.4000244141</ele>
        <time>2020-11-05T14:01:00.000Z</time>
      </trkpt>
      <trkpt lat="44.4796" lon="6.24429">
        <ele>1057.5999755859</ele>
        <time>2020-11-05T14:01:01.000Z</time>
      </trkpt>
      <trkpt lat="44.47966" lon="6.24424">
        <ele>1059.1999511719</ele>
        <time>2020-11-05T14:01:05.000Z</time>
      </trkpt>
      <trkpt lat="44.47971" lon="6.2442">
        <ele>1060.1999511719</ele>
        <time>2020-11-05T14:01:09.000Z</time>
      </trkpt>
      <trkpt lat="44.47976" lon="6.24416">
        <ele>1061.4000244141</ele>
        <time>2020-11-05T14:01:13.000Z</time>
      </trkpt>
      <trkpt lat="44.47981" lon="6.24412">
        <ele>1062.1999511719</ele>
        <time>2020-11-05T14:01:17.000Z</time>
      </trkpt>
      <trkpt lat="44.47983" lon="6.24411">
        <ele>1062.4000244141</ele>
        <time>2020-11-05T14:01:18.000Z</time>
      </trkpt>
      <trkpt lat="44.47993" lon="6.24407">
        <ele>1063.5999755859</ele>
        <time>2020-11-05T14:01:24.000Z</time>
      </trkpt>
      <trkpt lat="44.47997" lon="6.24407">
        <ele>1064</ele>
        <time>2020-11-05T14:01:26.000Z</time>
      </trkpt>
      <trkpt lat="44.48002" lon="6.24406">
        <ele>1064.8000488281</ele>
        <time>2020-11-05T14:01:29.000Z</time>
      </trkpt>
      <trkpt lat="44.48011" lon="6.24404">
        <ele>1065.5999755859</ele>
        <time>2020-11-05T14:01:34.000Z</time>
      </trkpt>
      <trkpt lat="44.48014" lon="6.24403">
        <ele>1065.8000488281</ele>
        <time>2020-11-05T14:01:36.000Z</time>
      </trkpt>
      <trkpt lat="44.48024" lon="6.24403">
        <ele>1066.5999755859</ele>
        <time>2020-11-05T14:01:42.000Z</time>
      </trkpt>
      <trkpt lat="44.48025" lon="6.24404">
        <ele>1066.8000488281</ele>
        <time>2020-11-05T14:01:43.000Z</time>
      </trkpt>
      <trkpt lat="44.48032" lon="6.24403">
        <ele>1067.8000488281</ele>
        <time>2020-11-05T14:01:47.000Z</time>
      </trkpt>
      <trkpt lat="44.48038" lon="6.24402">
        <ele>1068.4000244141</ele>
        <time>2020-11-05T14:01:51.000Z</time>
      </trkpt>
      <trkpt lat="44.48041" lon="6.24402">
        <ele>1068.8000488281</ele>
        <time>2020-11-05T14:01:53.000Z</time>
      </trkpt>
      <trkpt lat="44.48048" lon="6.24401">
        <ele>1070</ele>
        <time>2020-11-05T14:01:57.000Z</time>
      </trkpt>
      <trkpt lat="44.4805" lon="6.24401">
        <ele>1070.5999755859</ele>
        <time>2020-11-05T14:01:59.000Z</time>
      </trkpt>
      <trkpt lat="44.48055" lon="6.24401">
        <ele>1071.5999755859</ele>
        <time>2020-11-05T14:02:02.000Z</time>
      </trkpt>
      <trkpt lat="44.48064" lon="6.244">
        <ele>1072.5999755859</ele>
        <time>2020-11-05T14:02:07.000Z</time>
      </trkpt>
      <trkpt lat="44.48065" lon="6.244">
        <ele>1072.8000488281</ele>
        <time>2020-11-05T14:02:08.000Z</time>
      </trkpt>
      <trkpt lat="44.48071" lon="6.244">
        <ele>1073.5999755859</ele>
        <time>2020-11-05T14:02:11.000Z</time>
      </trkpt>
      <trkpt lat="44.48078" lon="6.24397">
        <ele>1074.5999755859</ele>
        <time>2020-11-05T14:02:15.000Z</time>
      </trkpt>
      <trkpt lat="44.4808" lon="6.24396">
        <ele>1075</ele>
        <time>2020-11-05T14:02:16.000Z</time>
      </trkpt>
      <trkpt lat="44.48086" lon="6.24389">
        <ele>1075.8000488281</ele>
        <time>2020-11-05T14:02:20.000Z</time>
      </trkpt>
      <trkpt lat="44.48091" lon="6.24381">
        <ele>1076.8000488281</ele>
        <time>2020-11-05T14:02:25.000Z</time>
      </trkpt>
      <trkpt lat="44.48095" lon="6.24368">
        <ele>1077.5999755859</ele>
        <time>2020-11-05T14:02:32.000Z</time>
      </trkpt>
      <trkpt lat="44.48098" lon="6.24365">
        <ele>1078</ele>
        <time>2020-11-05T14:02:34.000Z</time>
      </trkpt>
      <trkpt lat="44.48102" lon="6.24361">
        <ele>1079</ele>
        <time>2020-11-05T14:02:38.000Z</time>
      </trkpt>
      <trkpt lat="44.48106" lon="6.24355">
        <ele>1080.1999511719</ele>
        <time>2020-11-05T14:02:42.000Z</time>
      </trkpt>
      <trkpt lat="44.48113" lon="6.24348">
        <ele>1081.4000244141</ele>
        <time>2020-11-05T14:02:47.000Z</time>
      </trkpt>
      <trkpt lat="44.48118" lon="6.24344">
        <ele>1082.5999755859</ele>
        <time>2020-11-05T14:02:51.000Z</time>
      </trkpt>
      <trkpt lat="44.48122" lon="6.24342">
        <ele>1083.1999511719</ele>
        <time>2020-11-05T14:02:54.000Z</time>
      </trkpt>
      <trkpt lat="44.48123" lon="6.24343">
        <ele>1083.5999755859</ele>
        <time>2020-11-05T14:02:55.000Z</time>
      </trkpt>
      <trkpt lat="44.48127" lon="6.24348">
        <ele>1084.5999755859</ele>
        <time>2020-11-05T14:02:58.000Z</time>
      </trkpt>
      <trkpt lat="44.48128" lon="6.24349">
        <ele>1084.8000488281</ele>
        <time>2020-11-05T14:02:59.000Z</time>
      </trkpt>
      <trkpt lat="44.4813" lon="6.24352">
        <ele>1085.8000488281</ele>
        <time>2020-11-05T14:03:01.000Z</time>
      </trkpt>
      <trkpt lat="44.48133" lon="6.24354">
        <ele>1086</ele>
        <time>2020-11-05T14:03:03.000Z</time>
      </trkpt>
      <trkpt lat="44.48137" lon="6.24354">
        <ele>1086.1999511719</ele>
        <time>2020-11-05T14:03:06.000Z</time>
      </trkpt>
      <trkpt lat="44.4814" lon="6.24354">
        <ele>1086.5999755859</ele>
        <time>2020-11-05T14:03:08.000Z</time>
      </trkpt>
      <trkpt lat="44.48144" lon="6.24353">
        <ele>1087.8000488281</ele>
        <time>2020-11-05T14:03:11.000Z</time>
      </trkpt>
      <trkpt lat="44.48146" lon="6.24353">
        <ele>1088.1999511719</ele>
        <time>2020-11-05T14:03:12.000Z</time>
      </trkpt>
      <trkpt lat="44.48148" lon="6.24353">
        <ele>1089</ele>
        <time>2020-11-05T14:03:14.000Z</time>
      </trkpt>
      <trkpt lat="44.48154" lon="6.24353">
        <ele>1090.4000244141</ele>
        <time>2020-11-05T14:03:18.000Z</time>
      </trkpt>
      <trkpt lat="44.48157" lon="6.24354">
        <ele>1091.1999511719</ele>
        <time>2020-11-05T14:03:20.000Z</time>
      </trkpt>
      <trkpt lat="44.48158" lon="6.24355">
        <ele>1091.5999755859</ele>
        <time>2020-11-05T14:03:21.000Z</time>
      </trkpt>
      <trkpt lat="44.48162" lon="6.24357">
        <ele>1092.8000488281</ele>
        <time>2020-11-05T14:03:25.000Z</time>
      </trkpt>
      <trkpt lat="44.48166" lon="6.24358">
        <ele>1094</ele>
        <time>2020-11-05T14:03:28.000Z</time>
      </trkpt>
      <trkpt lat="44.48172" lon="6.24359">
        <ele>1095.1999511719</ele>
        <time>2020-11-05T14:03:32.000Z</time>
      </trkpt>
      <trkpt lat="44.48177" lon="6.24359">
        <ele>1096.1999511719</ele>
        <time>2020-11-05T14:03:35.000Z</time>
      </trkpt>
      <trkpt lat="44.48178" lon="6.24359">
        <ele>1096.5999755859</ele>
        <time>2020-11-05T14:03:36.000Z</time>
      </trkpt>
      <trkpt lat="44.48182" lon="6.24358">
        <ele>1097.4000244141</ele>
        <time>2020-11-05T14:03:39.000Z</time>
      </trkpt>
      <trkpt lat="44.48185" lon="6.24357">
        <ele>1098.1999511719</ele>
        <time>2020-11-05T14:03:42.000Z</time>
      </trkpt>
      <trkpt lat="44.48188" lon="6.24357">
        <ele>1098.5999755859</ele>
        <time>2020-11-05T14:03:44.000Z</time>
      </trkpt>
      <trkpt lat="44.4819" lon="6.24357">
        <ele>1099.1999511719</ele>
        <time>2020-11-05T14:03:46.000Z</time>
      </trkpt>
      <trkpt lat="44.48194" lon="6.24357">
        <ele>1100.1999511719</ele>
        <time>2020-11-05T14:03:49.000Z</time>
      </trkpt>
      <trkpt lat="44.48197" lon="6.24357">
        <ele>1101</ele>
        <time>2020-11-05T14:03:51.000Z</time>
      </trkpt>
      <trkpt lat="44.48198" lon="6.24356">
        <ele>1101.4000244141</ele>
        <time>2020-11-05T14:03:52.000Z</time>
      </trkpt>
      <trkpt lat="44.48204" lon="6.24356">
        <ele>1102.8000488281</ele>
        <time>2020-11-05T14:03:56.000Z</time>
      </trkpt>
      <trkpt lat="44.48207" lon="6.24355">
        <ele>1103.4000244141</ele>
        <time>2020-11-05T14:03:58.000Z</time>
      </trkpt>
      <trkpt lat="44.48211" lon="6.24354">
        <ele>1104</ele>
        <time>2020-11-05T14:04:00.000Z</time>
      </trkpt>
      <trkpt lat="44.48216" lon="6.24352">
        <ele>1105.1999511719</ele>
        <time>2020-11-05T14:04:04.000Z</time>
      </trkpt>
      <trkpt lat="44.4822" lon="6.24349">
        <ele>1106.4000244141</ele>
        <time>2020-11-05T14:04:07.000Z</time>
      </trkpt>
      <trkpt lat="44.48224" lon="6.24347">
        <ele>1107</ele>
        <time>2020-11-05T14:04:09.000Z</time>
      </trkpt>
      <trkpt lat="44.48225" lon="6.24345">
        <ele>1107.1999511719</ele>
        <time>2020-11-05T14:04:10.000Z</time>
      </trkpt>
      <trkpt lat="44.48226" lon="6.24343">
        <ele>1107.5999755859</ele>
        <time>2020-11-05T14:04:11.000Z</time>
      </trkpt>
      <trkpt lat="44.48229" lon="6.24336">
        <ele>1108.5999755859</ele>
        <time>2020-11-05T14:04:15.000Z</time>
      </trkpt>
      <trkpt lat="44.4823" lon="6.24332">
        <ele>1109.4000244141</ele>
        <time>2020-11-05T14:04:17.000Z</time>
      </trkpt>
      <trkpt lat="44.4823" lon="6.2433">
        <ele>1109.8000488281</ele>
        <time>2020-11-05T14:04:18.000Z</time>
      </trkpt>
      <trkpt lat="44.4823" lon="6.24325">
        <ele>1110.8000488281</ele>
        <time>2020-11-05T14:04:21.000Z</time>
      </trkpt>
      <trkpt lat="44.48229" lon="6.2432">
        <ele>1112</ele>
        <time>2020-11-05T14:04:24.000Z</time>
      </trkpt>
      <trkpt lat="44.48229" lon="6.24319">
        <ele>1112.4000244141</ele>
        <time>2020-11-05T14:04:25.000Z</time>
      </trkpt>
      <trkpt lat="44.48228" lon="6.24313">
        <ele>1113.1999511719</ele>
        <time>2020-11-05T14:04:28.000Z</time>
      </trkpt>
      <trkpt lat="44.48225" lon="6.24305">
        <ele>1114.4000244141</ele>
        <time>2020-11-05T14:04:32.000Z</time>
      </trkpt>
      <trkpt lat="44.48225" lon="6.24303">
        <ele>1114.5999755859</ele>
        <time>2020-11-05T14:04:33.000Z</time>
      </trkpt>
      <trkpt lat="44.48223" lon="6.24298">
        <ele>1115.5999755859</ele>
        <time>2020-11-05T14:04:36.000Z</time>
      </trkpt>
      <trkpt lat="44.4822" lon="6.24292">
        <ele>1116.5999755859</ele>
        <time>2020-11-05T14:04:40.000Z</time>
      </trkpt>
      <trkpt lat="44.48219" lon="6.24286">
        <ele>1117.5999755859</ele>
        <time>2020-11-05T14:04:43.000Z</time>
      </trkpt>
      <trkpt lat="44.48219" lon="6.2428">
        <ele>1118.4000244141</ele>
        <time>2020-11-05T14:04:46.000Z</time>
      </trkpt>
      <trkpt lat="44.48219" lon="6.24278">
        <ele>1118.5999755859</ele>
        <time>2020-11-05T14:04:47.000Z</time>
      </trkpt>
      <trkpt lat="44.48218" lon="6.2427">
        <ele>1119.8000488281</ele>
        <time>2020-11-05T14:04:51.000Z</time>
      </trkpt>
      <trkpt lat="44.48218" lon="6.24268">
        <ele>1120.1999511719</ele>
        <time>2020-11-05T14:04:52.000Z</time>
      </trkpt>
      <trkpt lat="44.48217" lon="6.24266">
        <ele>1121</ele>
        <time>2020-11-05T14:04:53.000Z</time>
      </trkpt>
      <trkpt lat="44.48216" lon="6.24261">
        <ele>1122.1999511719</ele>
        <time>2020-11-05T14:04:56.000Z</time>
      </trkpt>
      <trkpt lat="44.48216" lon="6.24254">
        <ele>1123.1999511719</ele>
        <time>2020-11-05T14:04:59.000Z</time>
      </trkpt>
      <trkpt lat="44.48216" lon="6.24252">
        <ele>1123.4000244141</ele>
        <time>2020-11-05T14:05:00.000Z</time>
      </trkpt>
      <trkpt lat="44.48215" lon="6.24241">
        <ele>1124.5999755859</ele>
        <time>2020-11-05T14:05:05.000Z</time>
      </trkpt>
      <trkpt lat="44.48214" lon="6.24237">
        <ele>1125</ele>
        <time>2020-11-05T14:05:07.000Z</time>
      </trkpt>
      <trkpt lat="44.48213" lon="6.24233">
        <ele>1125.5999755859</ele>
        <time>2020-11-05T14:05:09.000Z</time>
      </trkpt>
      <trkpt lat="44.48213" lon="6.24223">
        <ele>1126.8000488281</ele>
        <time>2020-11-05T14:05:13.000Z</time>
      </trkpt>
      <trkpt lat="44.48213" lon="6.24218">
        <ele>1127.4000244141</ele>
        <time>2020-11-05T14:05:15.000Z</time>
      </trkpt>
      <trkpt lat="44.48214" lon="6.24214">
        <ele>1128.1999511719</ele>
        <time>2020-11-05T14:05:17.000Z</time>
      </trkpt>
      <trkpt lat="44.48214" lon="6.24203">
        <ele>1129.5999755859</ele>
        <time>2020-11-05T14:05:21.000Z</time>
      </trkpt>
      <trkpt lat="44.48214" lon="6.24196">
        <ele>1130.5999755859</ele>
        <time>2020-11-05T14:05:24.000Z</time>
      </trkpt>
      <trkpt lat="44.48214" lon="6.24189">
        <ele>1131.8000488281</ele>
        <time>2020-11-05T14:05:27.000Z</time>
      </trkpt>
      <trkpt lat="44.48214" lon="6.24186">
        <ele>1132.1999511719</ele>
        <time>2020-11-05T14:05:28.000Z</time>
      </trkpt>
      <trkpt lat="44.48216" lon="6.24182">
        <ele>1133</ele>
        <time>2020-11-05T14:05:30.000Z</time>
      </trkpt>
      <trkpt lat="44.48218" lon="6.2418">
        <ele>1133.5999755859</ele>
        <time>2020-11-05T14:05:32.000Z</time>
      </trkpt>
      <trkpt lat="44.4822" lon="6.2418">
        <ele>1134.1999511719</ele>
        <time>2020-11-05T14:05:34.000Z</time>
      </trkpt>
      <trkpt lat="44.48224" lon="6.24182">
        <ele>1135.1999511719</ele>
        <time>2020-11-05T14:05:37.000Z</time>
      </trkpt>
      <trkpt lat="44.48229" lon="6.24188">
        <ele>1136.4000244141</ele>
        <time>2020-11-05T14:05:41.000Z</time>
      </trkpt>
      <trkpt lat="44.48229" lon="6.2419">
        <ele>1136.8000488281</ele>
        <time>2020-11-05T14:05:42.000Z</time>
      </trkpt>
      <trkpt lat="44.48231" lon="6.24193">
        <ele>1137.4000244141</ele>
        <time>2020-11-05T14:05:44.000Z</time>
      </trkpt>
      <trkpt lat="44.48234" lon="6.242">
        <ele>1138.8000488281</ele>
        <time>2020-11-05T14:05:48.000Z</time>
      </trkpt>
      <trkpt lat="44.48236" lon="6.24202">
        <ele>1140</ele>
        <time>2020-11-05T14:05:50.000Z</time>
      </trkpt>
      <trkpt lat="44.48242" lon="6.24208">
        <ele>1141.4000244141</ele>
        <time>2020-11-05T14:05:54.000Z</time>
      </trkpt>
      <trkpt lat="44.48246" lon="6.24211">
        <ele>1142.8000488281</ele>
        <time>2020-11-05T14:05:57.000Z</time>
      </trkpt>
      <trkpt lat="44.48247" lon="6.24213">
        <ele>1143.4000244141</ele>
        <time>2020-11-05T14:05:58.000Z</time>
      </trkpt>
      <trkpt lat="44.4825" lon="6.24215">
        <ele>1144</ele>
        <time>2020-11-05T14:06:00.000Z</time>
      </trkpt>
      <trkpt lat="44.48254" lon="6.24219">
        <ele>1145.1999511719</ele>
        <time>2020-11-05T14:06:03.000Z</time>
      </trkpt>
      <trkpt lat="44.48257" lon="6.24222">
        <ele>1146</ele>
        <time>2020-11-05T14:06:05.000Z</time>
      </trkpt>
      <trkpt lat="44.48259" lon="6.24224">
        <ele>1146.4000244141</ele>
        <time>2020-11-05T14:06:06.000Z</time>
      </trkpt>
      <trkpt lat="44.48264" lon="6.2423">
        <ele>1147.4000244141</ele>
        <time>2020-11-05T14:06:10.000Z</time>
      </trkpt>
      <trkpt lat="44.48269" lon="6.24236">
        <ele>1148.4000244141</ele>
        <time>2020-11-05T14:06:13.000Z</time>
      </trkpt>
      <trkpt lat="44.4827" lon="6.24238">
        <ele>1148.5999755859</ele>
        <time>2020-11-05T14:06:14.000Z</time>
      </trkpt>
      <trkpt lat="44.48271" lon="6.2424">
        <ele>1149.5999755859</ele>
        <time>2020-11-05T14:06:17.000Z</time>
      </trkpt>
      <trkpt lat="44.4827" lon="6.2424">
        <ele>1151</ele>
        <time>2020-11-05T14:06:22.000Z</time>
      </trkpt>
      <trkpt lat="44.4827" lon="6.2424">
        <ele>1151.8000488281</ele>
        <time>2020-11-05T14:06:38.000Z</time>
      </trkpt>
      <trkpt lat="44.4827" lon="6.2424">
        <ele>1151.4000244141</ele>
        <time>2020-11-05T14:06:59.000Z</time>
      </trkpt>
      <trkpt lat="44.4827" lon="6.2424">
        <ele>1151.8000488281</ele>
        <time>2020-11-05T14:07:37.000Z</time>
      </trkpt>
      <trkpt lat="44.4827" lon="6.2424">
        <ele>1151.8000488281</ele>
        <time>2020-11-05T14:07:39.000Z</time>
      </trkpt>
      <trkpt lat="44.4827" lon="6.2424">
        <ele>1151.8000488281</ele>
        <time>2020-11-05T14:07:53.000Z</time>
      </trkpt>
      <trkpt lat="44.4827" lon="6.2424">
        <ele>1151.8000488281</ele>
        <time>2020-11-05T14:08:11.000Z</time>
      </trkpt>
      <trkpt lat="44.48273" lon="6.24244">
        <ele>1151.8000488281</ele>
        <time>2020-11-05T14:08:16.000Z</time>
      </trkpt>
      <trkpt lat="44.48284" lon="6.24251">
        <ele>1151.8000488281</ele>
        <time>2020-11-05T14:08:23.000Z</time>
      </trkpt>
      <trkpt lat="44.483" lon="6.24256">
        <ele>1152.4000244141</ele>
        <time>2020-11-05T14:08:32.000Z</time>
      </trkpt>
      <trkpt lat="44.4831" lon="6.24259">
        <ele>1153.5999755859</ele>
        <time>2020-11-05T14:08:38.000Z</time>
      </trkpt>
      <trkpt lat="44.48315" lon="6.24262">
        <ele>1153.8000488281</ele>
        <time>2020-11-05T14:08:41.000Z</time>
      </trkpt>
      <trkpt lat="44.48323" lon="6.24268">
        <ele>1154.8000488281</ele>
        <time>2020-11-05T14:08:46.000Z</time>
      </trkpt>
      <trkpt lat="44.48327" lon="6.24274">
        <ele>1155.1999511719</ele>
        <time>2020-11-05T14:08:49.000Z</time>
      </trkpt>
      <trkpt lat="44.48331" lon="6.24279">
        <ele>1155.8000488281</ele>
        <time>2020-11-05T14:08:52.000Z</time>
      </trkpt>
      <trkpt lat="44.48336" lon="6.24289">
        <ele>1156.4000244141</ele>
        <time>2020-11-05T14:08:57.000Z</time>
      </trkpt>
      <trkpt lat="44.48338" lon="6.24294">
        <ele>1156.8000488281</ele>
        <time>2020-11-05T14:08:59.000Z</time>
      </trkpt>
      <trkpt lat="44.48343" lon="6.24308">
        <ele>1157.8000488281</ele>
        <time>2020-11-05T14:09:05.000Z</time>
      </trkpt>
      <trkpt lat="44.48352" lon="6.24314">
        <ele>1158.4000244141</ele>
        <time>2020-11-05T14:09:11.000Z</time>
      </trkpt>
      <trkpt lat="44.48353" lon="6.24313">
        <ele>1158.5999755859</ele>
        <time>2020-11-05T14:09:12.000Z</time>
      </trkpt>
      <trkpt lat="44.48353" lon="6.24306">
        <ele>1159</ele>
        <time>2020-11-05T14:09:15.000Z</time>
      </trkpt>
      <trkpt lat="44.48352" lon="6.24301">
        <ele>1159.4000244141</ele>
        <time>2020-11-05T14:09:17.000Z</time>
      </trkpt>
      <trkpt lat="44.48352" lon="6.24293">
        <ele>1160.1999511719</ele>
        <time>2020-11-05T14:09:20.000Z</time>
      </trkpt>
      <trkpt lat="44.4835" lon="6.24282">
        <ele>1161</ele>
        <time>2020-11-05T14:09:24.000Z</time>
      </trkpt>
      <trkpt lat="44.4835" lon="6.24274">
        <ele>1161.4000244141</ele>
        <time>2020-11-05T14:09:27.000Z</time>
      </trkpt>
      <trkpt lat="44.48349" lon="6.24259">
        <ele>1162</ele>
        <time>2020-11-05T14:09:33.000Z</time>
      </trkpt>
      <trkpt lat="44.4835" lon="6.24251">
        <ele>1162.5999755859</ele>
        <time>2020-11-05T14:09:36.000Z</time>
      </trkpt>
      <trkpt lat="44.48352" lon="6.24234">
        <ele>1163</ele>
        <time>2020-11-05T14:09:42.000Z</time>
      </trkpt>
      <trkpt lat="44.48359" lon="6.24224">
        <ele>1163.5999755859</ele>
        <time>2020-11-05T14:09:47.000Z</time>
      </trkpt>
      <trkpt lat="44.4836" lon="6.24223">
        <ele>1163.8000488281</ele>
        <time>2020-11-05T14:09:48.000Z</time>
      </trkpt>
      <trkpt lat="44.48374" lon="6.24222">
        <ele>1164.8000488281</ele>
        <time>2020-11-05T14:09:55.000Z</time>
      </trkpt>
      <trkpt lat="44.48385" lon="6.24229">
        <ele>1165.5999755859</ele>
        <time>2020-11-05T14:10:01.000Z</time>
      </trkpt>
      <trkpt lat="44.48387" lon="6.2423">
        <ele>1166</ele>
        <time>2020-11-05T14:10:02.000Z</time>
      </trkpt>
      <trkpt lat="44.484" lon="6.24235">
        <ele>1166.8000488281</ele>
        <time>2020-11-05T14:10:08.000Z</time>
      </trkpt>
      <trkpt lat="44.48404" lon="6.24237">
        <ele>1167.1999511719</ele>
        <time>2020-11-05T14:10:10.000Z</time>
      </trkpt>
      <trkpt lat="44.48411" lon="6.24243">
        <ele>1168</ele>
        <time>2020-11-05T14:10:14.000Z</time>
      </trkpt>
      <trkpt lat="44.48414" lon="6.24247">
        <ele>1168.1999511719</ele>
        <time>2020-11-05T14:10:16.000Z</time>
      </trkpt>
      <trkpt lat="44.48424" lon="6.24259">
        <ele>1169</ele>
        <time>2020-11-05T14:10:21.000Z</time>
      </trkpt>
      <trkpt lat="44.48426" lon="6.24262">
        <ele>1169.1999511719</ele>
        <time>2020-11-05T14:10:22.000Z</time>
      </trkpt>
      <trkpt lat="44.48439" lon="6.24273">
        <ele>1169.8000488281</ele>
        <time>2020-11-05T14:10:27.000Z</time>
      </trkpt>
      <trkpt lat="44.48452" lon="6.24288">
        <ele>1170.4000244141</ele>
        <time>2020-11-05T14:10:32.000Z</time>
      </trkpt>
      <trkpt lat="44.48453" lon="6.24293">
        <ele>1170.4000244141</ele>
        <time>2020-11-05T14:10:33.000Z</time>
      </trkpt>
      <trkpt lat="44.48453" lon="6.24297">
        <ele>1170.4000244141</ele>
        <time>2020-11-05T14:10:34.000Z</time>
      </trkpt>
      <trkpt lat="44.48453" lon="6.24306">
        <ele>1170.5999755859</ele>
        <time>2020-11-05T14:10:36.000Z</time>
      </trkpt>
      <trkpt lat="44.4845" lon="6.24334">
        <ele>1171.1999511719</ele>
        <time>2020-11-05T14:10:42.000Z</time>
      </trkpt>
      <trkpt lat="44.48454" lon="6.24349">
        <ele>1171.4000244141</ele>
        <time>2020-11-05T14:10:45.000Z</time>
      </trkpt>
      <trkpt lat="44.48459" lon="6.24358">
        <ele>1171.5999755859</ele>
        <time>2020-11-05T14:10:47.000Z</time>
      </trkpt>
      <trkpt lat="44.48474" lon="6.24368">
        <ele>1171.5999755859</ele>
        <time>2020-11-05T14:10:50.000Z</time>
      </trkpt>
      <trkpt lat="44.4848" lon="6.2437">
        <ele>1171.5999755859</ele>
        <time>2020-11-05T14:10:51.000Z</time>
      </trkpt>
      <trkpt lat="44.48502" lon="6.24374">
        <ele>1171.5999755859</ele>
        <time>2020-11-05T14:10:55.000Z</time>
      </trkpt>
      <trkpt lat="44.4852" lon="6.24373">
        <ele>1169.5999755859</ele>
        <time>2020-11-05T14:10:58.000Z</time>
      </trkpt>
      <trkpt lat="44.48525" lon="6.24371">
        <ele>1168.8000488281</ele>
        <time>2020-11-05T14:10:59.000Z</time>
      </trkpt>
      <trkpt lat="44.48529" lon="6.24369">
        <ele>1168.4000244141</ele>
        <time>2020-11-05T14:11:00.000Z</time>
      </trkpt>
      <trkpt lat="44.4854" lon="6.24356">
        <ele>1167.8000488281</ele>
        <time>2020-11-05T14:11:04.000Z</time>
      </trkpt>
      <trkpt lat="44.48556" lon="6.24338">
        <ele>1168</ele>
        <time>2020-11-05T14:11:11.000Z</time>
      </trkpt>
      <trkpt lat="44.48566" lon="6.24345">
        <ele>1168.8000488281</ele>
        <time>2020-11-05T14:11:15.000Z</time>
      </trkpt>
      <trkpt lat="44.48572" lon="6.24352">
        <ele>1169.1999511719</ele>
        <time>2020-11-05T14:11:18.000Z</time>
      </trkpt>
      <trkpt lat="44.4858" lon="6.24355">
        <ele>1170</ele>
        <time>2020-11-05T14:11:21.000Z</time>
      </trkpt>
      <trkpt lat="44.48586" lon="6.24352">
        <ele>1170.1999511719</ele>
        <time>2020-11-05T14:11:23.000Z</time>
      </trkpt>
      <trkpt lat="44.4859" lon="6.24347">
        <ele>1170.8000488281</ele>
        <time>2020-11-05T14:11:25.000Z</time>
      </trkpt>
      <trkpt lat="44.48594" lon="6.24341">
        <ele>1171.4000244141</ele>
        <time>2020-11-05T14:11:27.000Z</time>
      </trkpt>
      <trkpt lat="44.48607" lon="6.24324">
        <ele>1172.4000244141</ele>
        <time>2020-11-05T14:11:33.000Z</time>
      </trkpt>
      <trkpt lat="44.4861" lon="6.24322">
        <ele>1172.5999755859</ele>
        <time>2020-11-05T14:11:34.000Z</time>
      </trkpt>
      <trkpt lat="44.48626" lon="6.24312">
        <ele>1173</ele>
        <time>2020-11-05T14:11:41.000Z</time>
      </trkpt>
      <trkpt lat="44.48637" lon="6.24318">
        <ele>1173.8000488281</ele>
        <time>2020-11-05T14:11:45.000Z</time>
      </trkpt>
      <trkpt lat="44.48639" lon="6.2432">
        <ele>1174</ele>
        <time>2020-11-05T14:11:46.000Z</time>
      </trkpt>
      <trkpt lat="44.48644" lon="6.24323">
        <ele>1174.8000488281</ele>
        <time>2020-11-05T14:11:48.000Z</time>
      </trkpt>
      <trkpt lat="44.48655" lon="6.24334">
        <ele>1175.8000488281</ele>
        <time>2020-11-05T14:11:53.000Z</time>
      </trkpt>
      <trkpt lat="44.48657" lon="6.24337">
        <ele>1175.8000488281</ele>
        <time>2020-11-05T14:11:54.000Z</time>
      </trkpt>
      <trkpt lat="44.4867" lon="6.2435">
        <ele>1177</ele>
        <time>2020-11-05T14:12:00.000Z</time>
      </trkpt>
      <trkpt lat="44.48672" lon="6.24353">
        <ele>1177</ele>
        <time>2020-11-05T14:12:01.000Z</time>
      </trkpt>
      <trkpt lat="44.48687" lon="6.24367">
        <ele>1178</ele>
        <time>2020-11-05T14:12:08.000Z</time>
      </trkpt>
      <trkpt lat="44.48689" lon="6.24369">
        <ele>1178.1999511719</ele>
        <time>2020-11-05T14:12:09.000Z</time>
      </trkpt>
      <trkpt lat="44.48702" lon="6.24379">
        <ele>1179.1999511719</ele>
        <time>2020-11-05T14:12:15.000Z</time>
      </trkpt>
      <trkpt lat="44.48706" lon="6.24383">
        <ele>1179.5999755859</ele>
        <time>2020-11-05T14:12:17.000Z</time>
      </trkpt>
      <trkpt lat="44.48711" lon="6.24388">
        <ele>1180.1999511719</ele>
        <time>2020-11-05T14:12:20.000Z</time>
      </trkpt>
      <trkpt lat="44.48716" lon="6.24394">
        <ele>1181.1999511719</ele>
        <time>2020-11-05T14:12:23.000Z</time>
      </trkpt>
      <trkpt lat="44.48719" lon="6.24398">
        <ele>1182</ele>
        <time>2020-11-05T14:12:25.000Z</time>
      </trkpt>
      <trkpt lat="44.48721" lon="6.244">
        <ele>1182.4000244141</ele>
        <time>2020-11-05T14:12:26.000Z</time>
      </trkpt>
      <trkpt lat="44.48728" lon="6.24411">
        <ele>1183.5999755859</ele>
        <time>2020-11-05T14:12:31.000Z</time>
      </trkpt>
      <trkpt lat="44.48732" lon="6.24417">
        <ele>1184.4000244141</ele>
        <time>2020-11-05T14:12:34.000Z</time>
      </trkpt>
      <trkpt lat="44.48735" lon="6.24421">
        <ele>1185</ele>
        <time>2020-11-05T14:12:36.000Z</time>
      </trkpt>
      <trkpt lat="44.4874" lon="6.24429">
        <ele>1186</ele>
        <time>2020-11-05T14:12:40.000Z</time>
      </trkpt>
      <trkpt lat="44.48744" lon="6.24432">
        <ele>1186.5999755859</ele>
        <time>2020-11-05T14:12:42.000Z</time>
      </trkpt>
      <trkpt lat="44.48747" lon="6.24436">
        <ele>1187.1999511719</ele>
        <time>2020-11-05T14:12:44.000Z</time>
      </trkpt>
      <trkpt lat="44.48755" lon="6.24445">
        <ele>1188.4000244141</ele>
        <time>2020-11-05T14:12:49.000Z</time>
      </trkpt>
      <trkpt lat="44.48757" lon="6.24449">
        <ele>1189</ele>
        <time>2020-11-05T14:12:51.000Z</time>
      </trkpt>
      <trkpt lat="44.48761" lon="6.24456">
        <ele>1189.5999755859</ele>
        <time>2020-11-05T14:12:54.000Z</time>
      </trkpt>
      <trkpt lat="44.48766" lon="6.24469">
        <ele>1190.5999755859</ele>
        <time>2020-11-05T14:12:59.000Z</time>
      </trkpt>
      <trkpt lat="44.48768" lon="6.24471">
        <ele>1190.8000488281</ele>
        <time>2020-11-05T14:13:00.000Z</time>
      </trkpt>
      <trkpt lat="44.48773" lon="6.24478">
        <ele>1191.8000488281</ele>
        <time>2020-11-05T14:13:04.000Z</time>
      </trkpt>
      <trkpt lat="44.48779" lon="6.24483">
        <ele>1192.4000244141</ele>
        <time>2020-11-05T14:13:07.000Z</time>
      </trkpt>
      <trkpt lat="44.48783" lon="6.24486">
        <ele>1192.8000488281</ele>
        <time>2020-11-05T14:13:09.000Z</time>
      </trkpt>
      <trkpt lat="44.48793" lon="6.24494">
        <ele>1194</ele>
        <time>2020-11-05T14:13:14.000Z</time>
      </trkpt>
      <trkpt lat="44.48796" lon="6.24497">
        <ele>1194.1999511719</ele>
        <time>2020-11-05T14:13:16.000Z</time>
      </trkpt>
      <trkpt lat="44.48801" lon="6.24503">
        <ele>1195.1999511719</ele>
        <time>2020-11-05T14:13:19.000Z</time>
      </trkpt>
      <trkpt lat="44.4881" lon="6.24516">
        <ele>1196.1999511719</ele>
        <time>2020-11-05T14:13:25.000Z</time>
      </trkpt>
      <trkpt lat="44.48821" lon="6.24532">
        <ele>1197.1999511719</ele>
        <time>2020-11-05T14:13:32.000Z</time>
      </trkpt>
      <trkpt lat="44.48823" lon="6.24537">
        <ele>1197.5999755859</ele>
        <time>2020-11-05T14:13:34.000Z</time>
      </trkpt>
      <trkpt lat="44.48826" lon="6.24544">
        <ele>1198.1999511719</ele>
        <time>2020-11-05T14:13:37.000Z</time>
      </trkpt>
      <trkpt lat="44.48831" lon="6.24552">
        <ele>1198.5999755859</ele>
        <time>2020-11-05T14:13:40.000Z</time>
      </trkpt>
      <trkpt lat="44.48844" lon="6.24569">
        <ele>1198.5999755859</ele>
        <time>2020-11-05T14:13:46.000Z</time>
      </trkpt>
      <trkpt lat="44.48856" lon="6.24579">
        <ele>1198.4000244141</ele>
        <time>2020-11-05T14:13:51.000Z</time>
      </trkpt>
      <trkpt lat="44.48871" lon="6.24598">
        <ele>1198.4000244141</ele>
        <time>2020-11-05T14:14:00.000Z</time>
      </trkpt>
      <trkpt lat="44.48874" lon="6.24602">
        <ele>1198.5999755859</ele>
        <time>2020-11-05T14:14:02.000Z</time>
      </trkpt>
      <trkpt lat="44.4888" lon="6.24607">
        <ele>1198.8000488281</ele>
        <time>2020-11-05T14:14:05.000Z</time>
      </trkpt>
      <trkpt lat="44.4889" lon="6.24619">
        <ele>1199.4000244141</ele>
        <time>2020-11-05T14:14:11.000Z</time>
      </trkpt>
      <trkpt lat="44.48894" lon="6.24623">
        <ele>1200</ele>
        <time>2020-11-05T14:14:13.000Z</time>
      </trkpt>
      <trkpt lat="44.48897" lon="6.24627">
        <ele>1200.4000244141</ele>
        <time>2020-11-05T14:14:15.000Z</time>
      </trkpt>
      <trkpt lat="44.48908" lon="6.24635">
        <ele>1201.4000244141</ele>
        <time>2020-11-05T14:14:21.000Z</time>
      </trkpt>
      <trkpt lat="44.48917" lon="6.24642">
        <ele>1202.8000488281</ele>
        <time>2020-11-05T14:14:26.000Z</time>
      </trkpt>
      <trkpt lat="44.4892" lon="6.24646">
        <ele>1203.1999511719</ele>
        <time>2020-11-05T14:14:28.000Z</time>
      </trkpt>
      <trkpt lat="44.48923" lon="6.24653">
        <ele>1204</ele>
        <time>2020-11-05T14:14:31.000Z</time>
      </trkpt>
      <trkpt lat="44.48929" lon="6.24662">
        <ele>1205</ele>
        <time>2020-11-05T14:14:35.000Z</time>
      </trkpt>
      <trkpt lat="44.48931" lon="6.24664">
        <ele>1205</ele>
        <time>2020-11-05T14:14:36.000Z</time>
      </trkpt>
      <trkpt lat="44.48941" lon="6.24674">
        <ele>1206.1999511719</ele>
        <time>2020-11-05T14:14:42.000Z</time>
      </trkpt>
      <trkpt lat="44.48945" lon="6.24677">
        <ele>1206.8000488281</ele>
        <time>2020-11-05T14:14:44.000Z</time>
      </trkpt>
      <trkpt lat="44.48951" lon="6.24683">
        <ele>1207.1999511719</ele>
        <time>2020-11-05T14:14:47.000Z</time>
      </trkpt>
      <trkpt lat="44.4896" lon="6.24687">
        <ele>1208</ele>
        <time>2020-11-05T14:14:51.000Z</time>
      </trkpt>
      <trkpt lat="44.48973" lon="6.24693">
        <ele>1208.1999511719</ele>
        <time>2020-11-05T14:14:58.000Z</time>
      </trkpt>
      <trkpt lat="44.48975" lon="6.24694">
        <ele>1208.4000244141</ele>
        <time>2020-11-05T14:14:59.000Z</time>
      </trkpt>
      <trkpt lat="44.48989" lon="6.24709">
        <ele>1209.1999511719</ele>
        <time>2020-11-05T14:15:07.000Z</time>
      </trkpt>
      <trkpt lat="44.4899" lon="6.2471">
        <ele>1209.5999755859</ele>
        <time>2020-11-05T14:15:08.000Z</time>
      </trkpt>
      <trkpt lat="44.49" lon="6.24721">
        <ele>1210.5999755859</ele>
        <time>2020-11-05T14:15:14.000Z</time>
      </trkpt>
      <trkpt lat="44.49009" lon="6.2473">
        <ele>1211.8000488281</ele>
        <time>2020-11-05T14:15:19.000Z</time>
      </trkpt>
      <trkpt lat="44.49019" lon="6.24744">
        <ele>1213</ele>
        <time>2020-11-05T14:15:26.000Z</time>
      </trkpt>
      <trkpt lat="44.49021" lon="6.24746">
        <ele>1213.1999511719</ele>
        <time>2020-11-05T14:15:27.000Z</time>
      </trkpt>
      <trkpt lat="44.49034" lon="6.2475">
        <ele>1214</ele>
        <time>2020-11-05T14:15:33.000Z</time>
      </trkpt>
      <trkpt lat="44.49036" lon="6.2475">
        <ele>1214</ele>
        <time>2020-11-05T14:15:34.000Z</time>
      </trkpt>
      <trkpt lat="44.49039" lon="6.24753">
        <ele>1214.8000488281</ele>
        <time>2020-11-05T14:15:38.000Z</time>
      </trkpt>
      <trkpt lat="44.49038" lon="6.24753">
        <ele>1215</ele>
        <time>2020-11-05T14:15:42.000Z</time>
      </trkpt>
      <trkpt lat="44.49038" lon="6.24753">
        <ele>1215.1999511719</ele>
        <time>2020-11-05T14:15:56.000Z</time>
      </trkpt>
      <trkpt lat="44.4904" lon="6.24754">
        <ele>1215.1999511719</ele>
        <time>2020-11-05T14:16:06.000Z</time>
      </trkpt>
      <trkpt lat="44.49043" lon="6.24755">
        <ele>1215.5999755859</ele>
        <time>2020-11-05T14:16:14.000Z</time>
      </trkpt>
      <trkpt lat="44.49043" lon="6.24756">
        <ele>1215.5999755859</ele>
        <time>2020-11-05T14:16:18.000Z</time>
      </trkpt>
      <trkpt lat="44.49043" lon="6.24756">
        <ele>1215</ele>
        <time>2020-11-05T14:17:00.000Z</time>
      </trkpt>
      <trkpt lat="44.49046" lon="6.24755">
        <ele>1215</ele>
        <time>2020-11-05T14:17:05.000Z</time>
      </trkpt>
      <trkpt lat="44.49049" lon="6.24756">
        <ele>1215</ele>
        <time>2020-11-05T14:17:07.000Z</time>
      </trkpt>
      <trkpt lat="44.49059" lon="6.24761">
        <ele>1215</ele>
        <time>2020-11-05T14:17:14.000Z</time>
      </trkpt>
      <trkpt lat="44.49063" lon="6.24765">
        <ele>1215</ele>
        <time>2020-11-05T14:17:18.000Z</time>
      </trkpt>
      <trkpt lat="44.49063" lon="6.24766">
        <ele>1214.8000488281</ele>
        <time>2020-11-05T14:17:19.000Z</time>
      </trkpt>
      <trkpt lat="44.49063" lon="6.24768">
        <ele>1214.8000488281</ele>
        <time>2020-11-05T14:17:21.000Z</time>
      </trkpt>
      <trkpt lat="44.49061" lon="6.24767">
        <ele>1214.5999755859</ele>
        <time>2020-11-05T14:17:24.000Z</time>
      </trkpt>
      <trkpt lat="44.4906" lon="6.24765">
        <ele>1214.1999511719</ele>
        <time>2020-11-05T14:17:26.000Z</time>
      </trkpt>
      <trkpt lat="44.49054" lon="6.24763">
        <ele>1214.1999511719</ele>
        <time>2020-11-05T14:17:30.000Z</time>
      </trkpt>
      <trkpt lat="44.49052" lon="6.24764">
        <ele>1214.1999511719</ele>
        <time>2020-11-05T14:17:31.000Z</time>
      </trkpt>
      <trkpt lat="44.49046" lon="6.24766">
        <ele>1214.4000244141</ele>
        <time>2020-11-05T14:17:36.000Z</time>
      </trkpt>
      <trkpt lat="44.49045" lon="6.24766">
        <ele>1216.4000244141</ele>
        <time>2020-11-05T14:17:42.000Z</time>
      </trkpt>
      <trkpt lat="44.49046" lon="6.24766">
        <ele>1218</ele>
        <time>2020-11-05T14:17:45.000Z</time>
      </trkpt>
      <trkpt lat="44.49047" lon="6.24766">
        <ele>1219</ele>
        <time>2020-11-05T14:17:48.000Z</time>
      </trkpt>
      <trkpt lat="44.49042" lon="6.24767">
        <ele>1219.5999755859</ele>
        <time>2020-11-05T14:17:53.000Z</time>
      </trkpt>
      <trkpt lat="44.49038" lon="6.24768">
        <ele>1220</ele>
        <time>2020-11-05T14:17:59.000Z</time>
      </trkpt>
      <trkpt lat="44.49037" lon="6.24767">
        <ele>1221</ele>
        <time>2020-11-05T14:18:02.000Z</time>
      </trkpt>
      <trkpt lat="44.49037" lon="6.24767">
        <ele>1221.4000244141</ele>
        <time>2020-11-05T14:18:03.000Z</time>
      </trkpt>
      <trkpt lat="44.49036" lon="6.24767">
        <ele>1222.4000244141</ele>
        <time>2020-11-05T14:18:05.000Z</time>
      </trkpt>
      <trkpt lat="44.49031" lon="6.24769">
        <ele>1223.1999511719</ele>
        <time>2020-11-05T14:18:16.000Z</time>
      </trkpt>
      <trkpt lat="44.4903" lon="6.24769">
        <ele>1223.5999755859</ele>
        <time>2020-11-05T14:18:18.000Z</time>
      </trkpt>
      <trkpt lat="44.49028" lon="6.24769">
        <ele>1224.5999755859</ele>
        <time>2020-11-05T14:18:24.000Z</time>
      </trkpt>
      <trkpt lat="44.49027" lon="6.24769">
        <ele>1225.4000244141</ele>
        <time>2020-11-05T14:18:30.000Z</time>
      </trkpt>
      <trkpt lat="44.49027" lon="6.24768">
        <ele>1225.5999755859</ele>
        <time>2020-11-05T14:18:32.000Z</time>
      </trkpt>
      <trkpt lat="44.49025" lon="6.24769">
        <ele>1226</ele>
        <time>2020-11-05T14:18:41.000Z</time>
      </trkpt>
      <trkpt lat="44.49024" lon="6.2477">
        <ele>1226.1999511719</ele>
        <time>2020-11-05T14:18:52.000Z</time>
      </trkpt>
      <trkpt lat="44.49019" lon="6.24776">
        <ele>1226.1999511719</ele>
        <time>2020-11-05T14:18:58.000Z</time>
      </trkpt>
      <trkpt lat="44.49019" lon="6.24776">
        <ele>1227</ele>
        <time>2020-11-05T14:19:04.000Z</time>
      </trkpt>
      <trkpt lat="44.49021" lon="6.24774">
        <ele>1227.8000488281</ele>
        <time>2020-11-05T14:19:07.000Z</time>
      </trkpt>
      <trkpt lat="44.49023" lon="6.24771">
        <ele>1228</ele>
        <time>2020-11-05T14:19:09.000Z</time>
      </trkpt>
      <trkpt lat="44.49024" lon="6.24769">
        <ele>1228</ele>
        <time>2020-11-05T14:19:10.000Z</time>
      </trkpt>
      <trkpt lat="44.49033" lon="6.24765">
        <ele>1228</ele>
        <time>2020-11-05T14:19:15.000Z</time>
      </trkpt>
      <trkpt lat="44.49041" lon="6.24762">
        <ele>1226.8000488281</ele>
        <time>2020-11-05T14:19:18.000Z</time>
      </trkpt>
      <trkpt lat="44.49048" lon="6.24761">
        <ele>1225.5999755859</ele>
        <time>2020-11-05T14:19:20.000Z</time>
      </trkpt>
      <trkpt lat="44.49052" lon="6.24761">
        <ele>1225.1999511719</ele>
        <time>2020-11-05T14:19:21.000Z</time>
      </trkpt>
      <trkpt lat="44.49058" lon="6.24762">
        <ele>1224.5999755859</ele>
        <time>2020-11-05T14:19:22.000Z</time>
      </trkpt>
      <trkpt lat="44.49064" lon="6.24766">
        <ele>1223.5999755859</ele>
        <time>2020-11-05T14:19:23.000Z</time>
      </trkpt>
      <trkpt lat="44.4907" lon="6.24771">
        <ele>1222.5999755859</ele>
        <time>2020-11-05T14:19:24.000Z</time>
      </trkpt>
      <trkpt lat="44.49076" lon="6.24778">
        <ele>1221.5999755859</ele>
        <time>2020-11-05T14:19:25.000Z</time>
      </trkpt>
      <trkpt lat="44.49081" lon="6.24786">
        <ele>1220.5999755859</ele>
        <time>2020-11-05T14:19:26.000Z</time>
      </trkpt>
      <trkpt lat="44.49086" lon="6.24794">
        <ele>1219.5999755859</ele>
        <time>2020-11-05T14:19:27.000Z</time>
      </trkpt>
      <trkpt lat="44.4909" lon="6.24802">
        <ele>1218.1999511719</ele>
        <time>2020-11-05T14:19:28.000Z</time>
      </trkpt>
      <trkpt lat="44.49093" lon="6.2481">
        <ele>1216.8000488281</ele>
        <time>2020-11-05T14:19:29.000Z</time>
      </trkpt>
      <trkpt lat="44.49096" lon="6.24818">
        <ele>1215.1999511719</ele>
        <time>2020-11-05T14:19:30.000Z</time>
      </trkpt>
      <trkpt lat="44.49098" lon="6.24825">
        <ele>1213.8000488281</ele>
        <time>2020-11-05T14:19:31.000Z</time>
      </trkpt>
      <trkpt lat="44.491" lon="6.24832">
        <ele>1212.5999755859</ele>
        <time>2020-11-05T14:19:32.000Z</time>
      </trkpt>
      <trkpt lat="44.49103" lon="6.24848">
        <ele>1211.4000244141</ele>
        <time>2020-11-05T14:19:35.000Z</time>
      </trkpt>
      <trkpt lat="44.49106" lon="6.2487">
        <ele>1211.4000244141</ele>
        <time>2020-11-05T14:19:41.000Z</time>
      </trkpt>
      <trkpt lat="44.49111" lon="6.24896">
        <ele>1211.5999755859</ele>
        <time>2020-11-05T14:19:45.000Z</time>
      </trkpt>
      <trkpt lat="44.49113" lon="6.24927">
        <ele>1211.8000488281</ele>
        <time>2020-11-05T14:19:49.000Z</time>
      </trkpt>
      <trkpt lat="44.49114" lon="6.24944">
        <ele>1211.8000488281</ele>
        <time>2020-11-05T14:19:51.000Z</time>
      </trkpt>
      <trkpt lat="44.49118" lon="6.24966">
        <ele>1211.4000244141</ele>
        <time>2020-11-05T14:19:54.000Z</time>
      </trkpt>
      <trkpt lat="44.49123" lon="6.24984">
        <ele>1210</ele>
        <time>2020-11-05T14:19:57.000Z</time>
      </trkpt>
      <trkpt lat="44.49125" lon="6.25001">
        <ele>1209.4000244141</ele>
        <time>2020-11-05T14:20:00.000Z</time>
      </trkpt>
      <trkpt lat="44.4913" lon="6.25028">
        <ele>1209.1999511719</ele>
        <time>2020-11-05T14:20:06.000Z</time>
      </trkpt>
      <trkpt lat="44.49129" lon="6.25054">
        <ele>1209.4000244141</ele>
        <time>2020-11-05T14:20:11.000Z</time>
      </trkpt>
      <trkpt lat="44.49127" lon="6.2506">
        <ele>1209.4000244141</ele>
        <time>2020-11-05T14:20:12.000Z</time>
      </trkpt>
      <trkpt lat="44.49115" lon="6.25092">
        <ele>1209.5999755859</ele>
        <time>2020-11-05T14:20:19.000Z</time>
      </trkpt>
      <trkpt lat="44.491" lon="6.25138">
        <ele>1209.5999755859</ele>
        <time>2020-11-05T14:20:29.000Z</time>
      </trkpt>
      <trkpt lat="44.4909" lon="6.25167">
        <ele>1210.1999511719</ele>
        <time>2020-11-05T14:20:36.000Z</time>
      </trkpt>
      <trkpt lat="44.49079" lon="6.2519">
        <ele>1210.8000488281</ele>
        <time>2020-11-05T14:20:42.000Z</time>
      </trkpt>
      <trkpt lat="44.49074" lon="6.25201">
        <ele>1211.5999755859</ele>
        <time>2020-11-05T14:20:45.000Z</time>
      </trkpt>
      <trkpt lat="44.4907" lon="6.25209">
        <ele>1211.8000488281</ele>
        <time>2020-11-05T14:20:47.000Z</time>
      </trkpt>
      <trkpt lat="44.4906" lon="6.25229">
        <ele>1212.5999755859</ele>
        <time>2020-11-05T14:20:53.000Z</time>
      </trkpt>
      <trkpt lat="44.49059" lon="6.25237">
        <ele>1213</ele>
        <time>2020-11-05T14:20:55.000Z</time>
      </trkpt>
      <trkpt lat="44.4906" lon="6.25254">
        <ele>1213.8000488281</ele>
        <time>2020-11-05T14:20:59.000Z</time>
      </trkpt>
      <trkpt lat="44.4906" lon="6.25259">
        <ele>1214</ele>
        <time>2020-11-05T14:21:00.000Z</time>
      </trkpt>
      <trkpt lat="44.49065" lon="6.25281">
        <ele>1215</ele>
        <time>2020-11-05T14:21:05.000Z</time>
      </trkpt>
      <trkpt lat="44.49068" lon="6.2529">
        <ele>1215.1999511719</ele>
        <time>2020-11-05T14:21:07.000Z</time>
      </trkpt>
      <trkpt lat="44.49076" lon="6.25306">
        <ele>1216</ele>
        <time>2020-11-05T14:21:11.000Z</time>
      </trkpt>
      <trkpt lat="44.49081" lon="6.25316">
        <ele>1216.1999511719</ele>
        <time>2020-11-05T14:21:14.000Z</time>
      </trkpt>
      <trkpt lat="44.49087" lon="6.25344">
        <ele>1216.8000488281</ele>
        <time>2020-11-05T14:21:21.000Z</time>
      </trkpt>
      <trkpt lat="44.49088" lon="6.25352">
        <ele>1217.1999511719</ele>
        <time>2020-11-05T14:21:23.000Z</time>
      </trkpt>
      <trkpt lat="44.49093" lon="6.25376">
        <ele>1218.1999511719</ele>
        <time>2020-11-05T14:21:29.000Z</time>
      </trkpt>
      <trkpt lat="44.49097" lon="6.25384">
        <ele>1219.1999511719</ele>
        <time>2020-11-05T14:21:33.000Z</time>
      </trkpt>
      <trkpt lat="44.49098" lon="6.25386">
        <ele>1219.5999755859</ele>
        <time>2020-11-05T14:21:34.000Z</time>
      </trkpt>
      <trkpt lat="44.49097" lon="6.25391">
        <ele>1220.4000244141</ele>
        <time>2020-11-05T14:21:37.000Z</time>
      </trkpt>
      <trkpt lat="44.49096" lon="6.25391">
        <ele>1220.8000488281</ele>
        <time>2020-11-05T14:21:38.000Z</time>
      </trkpt>
      <trkpt lat="44.49094" lon="6.25392">
        <ele>1221.4000244141</ele>
        <time>2020-11-05T14:21:40.000Z</time>
      </trkpt>
      <trkpt lat="44.49092" lon="6.25394">
        <ele>1221.8000488281</ele>
        <time>2020-11-05T14:21:42.000Z</time>
      </trkpt>
      <trkpt lat="44.49091" lon="6.25399">
        <ele>1222</ele>
        <time>2020-11-05T14:21:44.000Z</time>
      </trkpt>
      <trkpt lat="44.49091" lon="6.25402">
        <ele>1222.5999755859</ele>
        <time>2020-11-05T14:21:47.000Z</time>
      </trkpt>
      <trkpt lat="44.49091" lon="6.25402">
        <ele>1222.8000488281</ele>
        <time>2020-11-05T14:21:48.000Z</time>
      </trkpt>
      <trkpt lat="44.49091" lon="6.25403">
        <ele>1223.1999511719</ele>
        <time>2020-11-05T14:21:50.000Z</time>
      </trkpt>
      <trkpt lat="44.4909" lon="6.25408">
        <ele>1223.8000488281</ele>
        <time>2020-11-05T14:21:53.000Z</time>
      </trkpt>
      <trkpt lat="44.4909" lon="6.2541">
        <ele>1224.4000244141</ele>
        <time>2020-11-05T14:21:54.000Z</time>
      </trkpt>
      <trkpt lat="44.49089" lon="6.25412">
        <ele>1224.8000488281</ele>
        <time>2020-11-05T14:21:55.000Z</time>
      </trkpt>
      <trkpt lat="44.49083" lon="6.25424">
        <ele>1226</ele>
        <time>2020-11-05T14:22:02.000Z</time>
      </trkpt>
      <trkpt lat="44.49081" lon="6.25429">
        <ele>1226.8000488281</ele>
        <time>2020-11-05T14:22:05.000Z</time>
      </trkpt>
      <trkpt lat="44.4908" lon="6.25432">
        <ele>1228</ele>
        <time>2020-11-05T14:22:07.000Z</time>
      </trkpt>
      <trkpt lat="44.49078" lon="6.25435">
        <ele>1229.1999511719</ele>
        <time>2020-11-05T14:22:10.000Z</time>
      </trkpt>
      <trkpt lat="44.49074" lon="6.2544">
        <ele>1230.5999755859</ele>
        <time>2020-11-05T14:22:13.000Z</time>
      </trkpt>
      <trkpt lat="44.49073" lon="6.25444">
        <ele>1232</ele>
        <time>2020-11-05T14:22:15.000Z</time>
      </trkpt>
      <trkpt lat="44.49073" lon="6.25447">
        <ele>1233</ele>
        <time>2020-11-05T14:22:17.000Z</time>
      </trkpt>
      <trkpt lat="44.49071" lon="6.25451">
        <ele>1234</ele>
        <time>2020-11-05T14:22:19.000Z</time>
      </trkpt>
      <trkpt lat="44.49071" lon="6.25457">
        <ele>1235.4000244141</ele>
        <time>2020-11-05T14:22:22.000Z</time>
      </trkpt>
      <trkpt lat="44.49068" lon="6.25461">
        <ele>1236.5999755859</ele>
        <time>2020-11-05T14:22:25.000Z</time>
      </trkpt>
      <trkpt lat="44.49066" lon="6.25465">
        <ele>1237.8000488281</ele>
        <time>2020-11-05T14:22:28.000Z</time>
      </trkpt>
      <trkpt lat="44.49065" lon="6.25466">
        <ele>1239</ele>
        <time>2020-11-05T14:22:30.000Z</time>
      </trkpt>
      <trkpt lat="44.49065" lon="6.25466">
        <ele>1240</ele>
        <time>2020-11-05T14:22:32.000Z</time>
      </trkpt>
      <trkpt lat="44.49063" lon="6.25466">
        <ele>1241.8000488281</ele>
        <time>2020-11-05T14:22:35.000Z</time>
      </trkpt>
      <trkpt lat="44.49063" lon="6.25466">
        <ele>1243.1999511719</ele>
        <time>2020-11-05T14:22:37.000Z</time>
      </trkpt>
      <trkpt lat="44.49062" lon="6.25466">
        <ele>1244.1999511719</ele>
        <time>2020-11-05T14:22:39.000Z</time>
      </trkpt>
      <trkpt lat="44.49062" lon="6.25466">
        <ele>1244.5999755859</ele>
        <time>2020-11-05T14:22:40.000Z</time>
      </trkpt>
      <trkpt lat="44.49061" lon="6.25467">
        <ele>1245.1999511719</ele>
        <time>2020-11-05T14:22:45.000Z</time>
      </trkpt>
      <trkpt lat="44.49059" lon="6.25467">
        <ele>1246.1999511719</ele>
        <time>2020-11-05T14:22:51.000Z</time>
      </trkpt>
      <trkpt lat="44.49058" lon="6.25467">
        <ele>1246.1999511719</ele>
        <time>2020-11-05T14:22:52.000Z</time>
      </trkpt>
      <trkpt lat="44.49056" lon="6.25469">
        <ele>1247</ele>
        <time>2020-11-05T14:23:05.000Z</time>
      </trkpt>
      <trkpt lat="44.49056" lon="6.25469">
        <ele>1247</ele>
        <time>2020-11-05T14:23:06.000Z</time>
      </trkpt>
      <trkpt lat="44.49054" lon="6.2547">
        <ele>1247.8000488281</ele>
        <time>2020-11-05T14:23:19.000Z</time>
      </trkpt>
      <trkpt lat="44.49053" lon="6.2547">
        <ele>1248</ele>
        <time>2020-11-05T14:23:25.000Z</time>
      </trkpt>
      <trkpt lat="44.4905" lon="6.25471">
        <ele>1249.1999511719</ele>
        <time>2020-11-05T14:23:31.000Z</time>
      </trkpt>
      <trkpt lat="44.49049" lon="6.25471">
        <ele>1249.5999755859</ele>
        <time>2020-11-05T14:23:33.000Z</time>
      </trkpt>
      <trkpt lat="44.49047" lon="6.25471">
        <ele>1250.1999511719</ele>
        <time>2020-11-05T14:23:36.000Z</time>
      </trkpt>
      <trkpt lat="44.49044" lon="6.2547">
        <ele>1251.5999755859</ele>
        <time>2020-11-05T14:23:42.000Z</time>
      </trkpt>
      <trkpt lat="44.49041" lon="6.2547">
        <ele>1252.5999755859</ele>
        <time>2020-11-05T14:23:46.000Z</time>
      </trkpt>
      <trkpt lat="44.49041" lon="6.25471">
        <ele>1253.8000488281</ele>
        <time>2020-11-05T14:23:51.000Z</time>
      </trkpt>
      <trkpt lat="44.49041" lon="6.2547">
        <ele>1254.4000244141</ele>
        <time>2020-11-05T14:23:55.000Z</time>
      </trkpt>
      <trkpt lat="44.49041" lon="6.2547">
        <ele>1254.5999755859</ele>
        <time>2020-11-05T14:23:58.000Z</time>
      </trkpt>
      <trkpt lat="44.49041" lon="6.2547">
        <ele>1254.5999755859</ele>
        <time>2020-11-05T14:24:08.000Z</time>
      </trkpt>
      <trkpt lat="44.4904" lon="6.2547">
        <ele>1254.5999755859</ele>
        <time>2020-11-05T14:24:15.000Z</time>
      </trkpt>
      <trkpt lat="44.49037" lon="6.25472">
        <ele>1254.5999755859</ele>
        <time>2020-11-05T14:24:18.000Z</time>
      </trkpt>
      <trkpt lat="44.49033" lon="6.25473">
        <ele>1254.5999755859</ele>
        <time>2020-11-05T14:24:21.000Z</time>
      </trkpt>
      <trkpt lat="44.49026" lon="6.25471">
        <ele>1255.5999755859</ele>
        <time>2020-11-05T14:24:27.000Z</time>
      </trkpt>
      <trkpt lat="44.49022" lon="6.25471">
        <ele>1257</ele>
        <time>2020-11-05T14:24:30.000Z</time>
      </trkpt>
      <trkpt lat="44.49018" lon="6.2547">
        <ele>1258.4000244141</ele>
        <time>2020-11-05T14:24:33.000Z</time>
      </trkpt>
      <trkpt lat="44.49016" lon="6.25469">
        <ele>1259.4000244141</ele>
        <time>2020-11-05T14:24:35.000Z</time>
      </trkpt>
      <trkpt lat="44.49013" lon="6.25468">
        <ele>1260.5999755859</ele>
        <time>2020-11-05T14:24:37.000Z</time>
      </trkpt>
      <trkpt lat="44.49012" lon="6.25468">
        <ele>1261.1999511719</ele>
        <time>2020-11-05T14:24:38.000Z</time>
      </trkpt>
      <trkpt lat="44.49011" lon="6.25467">
        <ele>1261.8000488281</ele>
        <time>2020-11-05T14:24:39.000Z</time>
      </trkpt>
      <trkpt lat="44.49008" lon="6.25466">
        <ele>1262.8000488281</ele>
        <time>2020-11-05T14:24:41.000Z</time>
      </trkpt>
      <trkpt lat="44.49004" lon="6.25465">
        <ele>1264.1999511719</ele>
        <time>2020-11-05T14:24:44.000Z</time>
      </trkpt>
      <trkpt lat="44.49" lon="6.25464">
        <ele>1265.5999755859</ele>
        <time>2020-11-05T14:24:47.000Z</time>
      </trkpt>
      <trkpt lat="44.48998" lon="6.25463">
        <ele>1266.8000488281</ele>
        <time>2020-11-05T14:24:50.000Z</time>
      </trkpt>
      <trkpt lat="44.48996" lon="6.25462">
        <ele>1268.1999511719</ele>
        <time>2020-11-05T14:24:53.000Z</time>
      </trkpt>
      <trkpt lat="44.48993" lon="6.2546">
        <ele>1269.5999755859</ele>
        <time>2020-11-05T14:24:56.000Z</time>
      </trkpt>
      <trkpt lat="44.48991" lon="6.2546">
        <ele>1270.5999755859</ele>
        <time>2020-11-05T14:24:58.000Z</time>
      </trkpt>
      <trkpt lat="44.4899" lon="6.25459">
        <ele>1271.5999755859</ele>
        <time>2020-11-05T14:25:00.000Z</time>
      </trkpt>
      <trkpt lat="44.48989" lon="6.25458">
        <ele>1272.8000488281</ele>
        <time>2020-11-05T14:25:02.000Z</time>
      </trkpt>
      <trkpt lat="44.48988" lon="6.25457">
        <ele>1273.8000488281</ele>
        <time>2020-11-05T14:25:04.000Z</time>
      </trkpt>
      <trkpt lat="44.48986" lon="6.25457">
        <ele>1275.1999511719</ele>
        <time>2020-11-05T14:25:07.000Z</time>
      </trkpt>
      <trkpt lat="44.48985" lon="6.25457">
        <ele>1276.4000244141</ele>
        <time>2020-11-05T14:25:09.000Z</time>
      </trkpt>
      <trkpt lat="44.48983" lon="6.25457">
        <ele>1277.5999755859</ele>
        <time>2020-11-05T14:25:12.000Z</time>
      </trkpt>
      <trkpt lat="44.48983" lon="6.25456">
        <ele>1277.8000488281</ele>
        <time>2020-11-05T14:25:16.000Z</time>
      </trkpt>
      <trkpt lat="44.48979" lon="6.25455">
        <ele>1278.1999511719</ele>
        <time>2020-11-05T14:25:29.000Z</time>
      </trkpt>
      <trkpt lat="44.48979" lon="6.25454">
        <ele>1278.4000244141</ele>
        <time>2020-11-05T14:25:30.000Z</time>
      </trkpt>
      <trkpt lat="44.48977" lon="6.25452">
        <ele>1279.4000244141</ele>
        <time>2020-11-05T14:25:36.000Z</time>
      </trkpt>
      <trkpt lat="44.48977" lon="6.25452">
        <ele>1279.5999755859</ele>
        <time>2020-11-05T14:25:37.000Z</time>
      </trkpt>
      <trkpt lat="44.48974" lon="6.25451">
        <ele>1280.5999755859</ele>
        <time>2020-11-05T14:25:45.000Z</time>
      </trkpt>
      <trkpt lat="44.48973" lon="6.25449">
        <ele>1281.1999511719</ele>
        <time>2020-11-05T14:25:49.000Z</time>
      </trkpt>
      <trkpt lat="44.48972" lon="6.25448">
        <ele>1281.5999755859</ele>
        <time>2020-11-05T14:25:51.000Z</time>
      </trkpt>
      <trkpt lat="44.4897" lon="6.25445">
        <ele>1282.5999755859</ele>
        <time>2020-11-05T14:25:55.000Z</time>
      </trkpt>
      <trkpt lat="44.48966" lon="6.25442">
        <ele>1283.8000488281</ele>
        <time>2020-11-05T14:26:02.000Z</time>
      </trkpt>
      <trkpt lat="44.48965" lon="6.25442">
        <ele>1284</ele>
        <time>2020-11-05T14:26:03.000Z</time>
      </trkpt>
      <trkpt lat="44.48962" lon="6.25441">
        <ele>1285</ele>
        <time>2020-11-05T14:26:07.000Z</time>
      </trkpt>
      <trkpt lat="44.48959" lon="6.2544">
        <ele>1286</ele>
        <time>2020-11-05T14:26:12.000Z</time>
      </trkpt>
      <trkpt lat="44.48957" lon="6.2544">
        <ele>1287</ele>
        <time>2020-11-05T14:26:18.000Z</time>
      </trkpt>
      <trkpt lat="44.48956" lon="6.2544">
        <ele>1287.1999511719</ele>
        <time>2020-11-05T14:26:19.000Z</time>
      </trkpt>
      <trkpt lat="44.48953" lon="6.2544">
        <ele>1288.4000244141</ele>
        <time>2020-11-05T14:26:25.000Z</time>
      </trkpt>
      <trkpt lat="44.48953" lon="6.2544">
        <ele>1289.4000244141</ele>
        <time>2020-11-05T14:26:30.000Z</time>
      </trkpt>
      <trkpt lat="44.48953" lon="6.2544">
        <ele>1289.4000244141</ele>
        <time>2020-11-05T14:26:31.000Z</time>
      </trkpt>
      <trkpt lat="44.48954" lon="6.25439">
        <ele>1290.4000244141</ele>
        <time>2020-11-05T14:26:36.000Z</time>
      </trkpt>
      <trkpt lat="44.48954" lon="6.25439">
        <ele>1290.5999755859</ele>
        <time>2020-11-05T14:26:49.000Z</time>
      </trkpt>
      <trkpt lat="44.4895" lon="6.25438">
        <ele>1291</ele>
        <time>2020-11-05T14:27:06.000Z</time>
      </trkpt>
      <trkpt lat="44.48948" lon="6.25437">
        <ele>1291.4000244141</ele>
        <time>2020-11-05T14:27:15.000Z</time>
      </trkpt>
      <trkpt lat="44.48944" lon="6.25436">
        <ele>1292.4000244141</ele>
        <time>2020-11-05T14:27:19.000Z</time>
      </trkpt>
      <trkpt lat="44.48943" lon="6.25436">
        <ele>1292.5999755859</ele>
        <time>2020-11-05T14:27:22.000Z</time>
      </trkpt>
      <trkpt lat="44.4894" lon="6.25436">
        <ele>1293.5999755859</ele>
        <time>2020-11-05T14:27:27.000Z</time>
      </trkpt>
      <trkpt lat="44.48937" lon="6.25435">
        <ele>1294.5999755859</ele>
        <time>2020-11-05T14:27:32.000Z</time>
      </trkpt>
      <trkpt lat="44.48933" lon="6.25434">
        <ele>1295.8000488281</ele>
        <time>2020-11-05T14:27:38.000Z</time>
      </trkpt>
      <trkpt lat="44.48931" lon="6.25433">
        <ele>1297</ele>
        <time>2020-11-05T14:27:43.000Z</time>
      </trkpt>
      <trkpt lat="44.48929" lon="6.25432">
        <ele>1298</ele>
        <time>2020-11-05T14:27:47.000Z</time>
      </trkpt>
      <trkpt lat="44.48929" lon="6.25432">
        <ele>1298.1999511719</ele>
        <time>2020-11-05T14:27:48.000Z</time>
      </trkpt>
      <trkpt lat="44.48929" lon="6.25431">
        <ele>1299.1999511719</ele>
        <time>2020-11-05T14:27:53.000Z</time>
      </trkpt>
      <trkpt lat="44.48931" lon="6.25429">
        <ele>1299.4000244141</ele>
        <time>2020-11-05T14:28:01.000Z</time>
      </trkpt>
      <trkpt lat="44.48932" lon="6.25425">
        <ele>1299.4000244141</ele>
        <time>2020-11-05T14:28:06.000Z</time>
      </trkpt>
      <trkpt lat="44.48932" lon="6.2542">
        <ele>1299.1999511719</ele>
        <time>2020-11-05T14:28:08.000Z</time>
      </trkpt>
      <trkpt lat="44.48928" lon="6.25406">
        <ele>1298.8000488281</ele>
        <time>2020-11-05T14:28:13.000Z</time>
      </trkpt>
      <trkpt lat="44.48926" lon="6.25396">
        <ele>1298.1999511719</ele>
        <time>2020-11-05T14:28:17.000Z</time>
      </trkpt>
      <trkpt lat="44.48925" lon="6.25389">
        <ele>1297.8000488281</ele>
        <time>2020-11-05T14:28:19.000Z</time>
      </trkpt>
      <trkpt lat="44.48924" lon="6.2537">
        <ele>1297.4000244141</ele>
        <time>2020-11-05T14:28:23.000Z</time>
      </trkpt>
      <trkpt lat="44.48925" lon="6.25345">
        <ele>1297.1999511719</ele>
        <time>2020-11-05T14:28:27.000Z</time>
      </trkpt>
      <trkpt lat="44.48925" lon="6.25339">
        <ele>1297</ele>
        <time>2020-11-05T14:28:28.000Z</time>
      </trkpt>
      <trkpt lat="44.48926" lon="6.25332">
        <ele>1296.5999755859</ele>
        <time>2020-11-05T14:28:29.000Z</time>
      </trkpt>
      <trkpt lat="44.48926" lon="6.25319">
        <ele>1296</ele>
        <time>2020-11-05T14:28:31.000Z</time>
      </trkpt>
      <trkpt lat="44.48926" lon="6.25306">
        <ele>1294.4000244141</ele>
        <time>2020-11-05T14:28:33.000Z</time>
      </trkpt>
      <trkpt lat="44.48924" lon="6.2529">
        <ele>1293.1999511719</ele>
        <time>2020-11-05T14:28:36.000Z</time>
      </trkpt>
      <trkpt lat="44.48923" lon="6.25282">
        <ele>1291.5999755859</ele>
        <time>2020-11-05T14:28:38.000Z</time>
      </trkpt>
      <trkpt lat="44.48924" lon="6.25272">
        <ele>1290.5999755859</ele>
        <time>2020-11-05T14:28:41.000Z</time>
      </trkpt>
      <trkpt lat="44.48925" lon="6.25263">
        <ele>1289.8000488281</ele>
        <time>2020-11-05T14:28:44.000Z</time>
      </trkpt>
      <trkpt lat="44.48925" lon="6.25249">
        <ele>1289.5999755859</ele>
        <time>2020-11-05T14:28:49.000Z</time>
      </trkpt>
      <trkpt lat="44.4893" lon="6.25226">
        <ele>1289.5999755859</ele>
        <time>2020-11-05T14:28:54.000Z</time>
      </trkpt>
      <trkpt lat="44.48933" lon="6.25216">
        <ele>1289.5999755859</ele>
        <time>2020-11-05T14:28:57.000Z</time>
      </trkpt>
      <trkpt lat="44.48934" lon="6.25216">
        <ele>1289.1999511719</ele>
        <time>2020-11-05T14:28:58.000Z</time>
      </trkpt>
      <trkpt lat="44.48933" lon="6.25216">
        <ele>1287.8000488281</ele>
        <time>2020-11-05T14:29:02.000Z</time>
      </trkpt>
      <trkpt lat="44.48932" lon="6.25217">
        <ele>1287</ele>
        <time>2020-11-05T14:29:11.000Z</time>
      </trkpt>
      <trkpt lat="44.48931" lon="6.2522">
        <ele>1287</ele>
        <time>2020-11-05T14:29:13.000Z</time>
      </trkpt>
      <trkpt lat="44.48929" lon="6.25227">
        <ele>1287</ele>
        <time>2020-11-05T14:29:17.000Z</time>
      </trkpt>
      <trkpt lat="44.48924" lon="6.2524">
        <ele>1287.1999511719</ele>
        <time>2020-11-05T14:29:23.000Z</time>
      </trkpt>
      <trkpt lat="44.48921" lon="6.25252">
        <ele>1288</ele>
        <time>2020-11-05T14:29:28.000Z</time>
      </trkpt>
      <trkpt lat="44.48918" lon="6.2526">
        <ele>1288.4000244141</ele>
        <time>2020-11-05T14:29:32.000Z</time>
      </trkpt>
      <trkpt lat="44.48917" lon="6.25263">
        <ele>1288.5999755859</ele>
        <time>2020-11-05T14:29:33.000Z</time>
      </trkpt>
      <trkpt lat="44.48917" lon="6.25266">
        <ele>1288.8000488281</ele>
        <time>2020-11-05T14:29:34.000Z</time>
      </trkpt>
      <trkpt lat="44.48918" lon="6.25277">
        <ele>1289</ele>
        <time>2020-11-05T14:29:38.000Z</time>
      </trkpt>
      <trkpt lat="44.48918" lon="6.25283">
        <ele>1289</ele>
        <time>2020-11-05T14:29:40.000Z</time>
      </trkpt>
      <trkpt lat="44.48917" lon="6.25293">
        <ele>1289.4000244141</ele>
        <time>2020-11-05T14:29:44.000Z</time>
      </trkpt>
      <trkpt lat="44.48916" lon="6.25295">
        <ele>1289.4000244141</ele>
        <time>2020-11-05T14:29:45.000Z</time>
      </trkpt>
      <trkpt lat="44.48917" lon="6.25302">
        <ele>1289.5999755859</ele>
        <time>2020-11-05T14:29:48.000Z</time>
      </trkpt>
      <trkpt lat="44.48917" lon="6.25309">
        <ele>1289.8000488281</ele>
        <time>2020-11-05T14:29:51.000Z</time>
      </trkpt>
      <trkpt lat="44.48917" lon="6.25311">
        <ele>1289.8000488281</ele>
        <time>2020-11-05T14:29:52.000Z</time>
      </trkpt>
      <trkpt lat="44.48918" lon="6.25317">
        <ele>1289.8000488281</ele>
        <time>2020-11-05T14:29:54.000Z</time>
      </trkpt>
      <trkpt lat="44.48917" lon="6.25325">
        <ele>1290.4000244141</ele>
        <time>2020-11-05T14:29:57.000Z</time>
      </trkpt>
      <trkpt lat="44.48918" lon="6.25338">
        <ele>1291</ele>
        <time>2020-11-05T14:30:02.000Z</time>
      </trkpt>
      <trkpt lat="44.48916" lon="6.25344">
        <ele>1291.1999511719</ele>
        <time>2020-11-05T14:30:05.000Z</time>
      </trkpt>
      <trkpt lat="44.48916" lon="6.25352">
        <ele>1292.1999511719</ele>
        <time>2020-11-05T14:30:08.000Z</time>
      </trkpt>
      <trkpt lat="44.48915" lon="6.2536">
        <ele>1293.1999511719</ele>
        <time>2020-11-05T14:30:11.000Z</time>
      </trkpt>
      <trkpt lat="44.48916" lon="6.25365">
        <ele>1293.8000488281</ele>
        <time>2020-11-05T14:30:13.000Z</time>
      </trkpt>
      <trkpt lat="44.48916" lon="6.25367">
        <ele>1294</ele>
        <time>2020-11-05T14:30:14.000Z</time>
      </trkpt>
      <trkpt lat="44.48915" lon="6.25369">
        <ele>1294.1999511719</ele>
        <time>2020-11-05T14:30:15.000Z</time>
      </trkpt>
      <trkpt lat="44.48916" lon="6.25371">
        <ele>1294.1999511719</ele>
        <time>2020-11-05T14:30:16.000Z</time>
      </trkpt>
      <trkpt lat="44.48916" lon="6.25374">
        <ele>1294.4000244141</ele>
        <time>2020-11-05T14:30:17.000Z</time>
      </trkpt>
      <trkpt lat="44.48918" lon="6.25384">
        <ele>1295.1999511719</ele>
        <time>2020-11-05T14:30:21.000Z</time>
      </trkpt>
      <trkpt lat="44.48918" lon="6.25386">
        <ele>1295.5999755859</ele>
        <time>2020-11-05T14:30:22.000Z</time>
      </trkpt>
      <trkpt lat="44.48919" lon="6.25394">
        <ele>1296.5999755859</ele>
        <time>2020-11-05T14:30:26.000Z</time>
      </trkpt>
      <trkpt lat="44.4892" lon="6.25397">
        <ele>1296.8000488281</ele>
        <time>2020-11-05T14:30:27.000Z</time>
      </trkpt>
      <trkpt lat="44.48926" lon="6.25411">
        <ele>1297.5999755859</ele>
        <time>2020-11-05T14:30:33.000Z</time>
      </trkpt>
      <trkpt lat="44.48927" lon="6.25414">
        <ele>1297.5999755859</ele>
        <time>2020-11-05T14:30:35.000Z</time>
      </trkpt>
      <trkpt lat="44.48928" lon="6.25418">
        <ele>1297.8000488281</ele>
        <time>2020-11-05T14:30:37.000Z</time>
      </trkpt>
      <trkpt lat="44.48927" lon="6.25424">
        <ele>1297.8000488281</ele>
        <time>2020-11-05T14:30:40.000Z</time>
      </trkpt>
      <trkpt lat="44.48926" lon="6.25427">
        <ele>1298</ele>
        <time>2020-11-05T14:30:47.000Z</time>
      </trkpt>
      <trkpt lat="44.48926" lon="6.25428">
        <ele>1298.8000488281</ele>
        <time>2020-11-05T14:30:51.000Z</time>
      </trkpt>
      <trkpt lat="44.48923" lon="6.25427">
        <ele>1299.8000488281</ele>
        <time>2020-11-05T14:30:58.000Z</time>
      </trkpt>
      <trkpt lat="44.48918" lon="6.25425">
        <ele>1300.8000488281</ele>
        <time>2020-11-05T14:31:08.000Z</time>
      </trkpt>
      <trkpt lat="44.48918" lon="6.25425">
        <ele>1301.4000244141</ele>
        <time>2020-11-05T14:31:10.000Z</time>
      </trkpt>
      <trkpt lat="44.48918" lon="6.25425">
        <ele>1302</ele>
        <time>2020-11-05T14:31:14.000Z</time>
      </trkpt>
      <trkpt lat="44.48917" lon="6.25425">
        <ele>1303</ele>
        <time>2020-11-05T14:31:21.000Z</time>
      </trkpt>
      <trkpt lat="44.48914" lon="6.25422">
        <ele>1303</ele>
        <time>2020-11-05T14:31:26.000Z</time>
      </trkpt>
      <trkpt lat="44.48913" lon="6.25422">
        <ele>1303</ele>
        <time>2020-11-05T14:31:27.000Z</time>
      </trkpt>
      <trkpt lat="44.48912" lon="6.25421">
        <ele>1303</ele>
        <time>2020-11-05T14:31:28.000Z</time>
      </trkpt>
      <trkpt lat="44.48906" lon="6.25416">
        <ele>1304.1999511719</ele>
        <time>2020-11-05T14:31:35.000Z</time>
      </trkpt>
      <trkpt lat="44.48903" lon="6.25414">
        <ele>1305</ele>
        <time>2020-11-05T14:31:37.000Z</time>
      </trkpt>
      <trkpt lat="44.48902" lon="6.25414">
        <ele>1305.4000244141</ele>
        <time>2020-11-05T14:31:38.000Z</time>
      </trkpt>
      <trkpt lat="44.489" lon="6.25411">
        <ele>1306.5999755859</ele>
        <time>2020-11-05T14:31:41.000Z</time>
      </trkpt>
      <trkpt lat="44.48895" lon="6.25407">
        <ele>1307.8000488281</ele>
        <time>2020-11-05T14:31:44.000Z</time>
      </trkpt>
      <trkpt lat="44.48891" lon="6.25403">
        <ele>1308.8000488281</ele>
        <time>2020-11-05T14:31:47.000Z</time>
      </trkpt>
      <trkpt lat="44.48889" lon="6.25402">
        <ele>1310</ele>
        <time>2020-11-05T14:31:50.000Z</time>
      </trkpt>
      <trkpt lat="44.48888" lon="6.25402">
        <ele>1311</ele>
        <time>2020-11-05T14:31:53.000Z</time>
      </trkpt>
      <trkpt lat="44.48888" lon="6.25402">
        <ele>1311.4000244141</ele>
        <time>2020-11-05T14:31:54.000Z</time>
      </trkpt>
      <trkpt lat="44.48888" lon="6.25402">
        <ele>1312.4000244141</ele>
        <time>2020-11-05T14:31:56.000Z</time>
      </trkpt>
      <trkpt lat="44.48888" lon="6.25402">
        <ele>1313.4000244141</ele>
        <time>2020-11-05T14:31:58.000Z</time>
      </trkpt>
      <trkpt lat="44.48888" lon="6.25402">
        <ele>1313.8000488281</ele>
        <time>2020-11-05T14:32:13.000Z</time>
      </trkpt>
      <trkpt lat="44.48884" lon="6.25401">
        <ele>1313.8000488281</ele>
        <time>2020-11-05T14:32:20.000Z</time>
      </trkpt>
      <trkpt lat="44.48882" lon="6.25401">
        <ele>1313.8000488281</ele>
        <time>2020-11-05T14:32:22.000Z</time>
      </trkpt>
      <trkpt lat="44.48875" lon="6.25402">
        <ele>1314.8000488281</ele>
        <time>2020-11-05T14:32:27.000Z</time>
      </trkpt>
      <trkpt lat="44.48872" lon="6.25402">
        <ele>1316</ele>
        <time>2020-11-05T14:32:30.000Z</time>
      </trkpt>
      <trkpt lat="44.48869" lon="6.25402">
        <ele>1317.8000488281</ele>
        <time>2020-11-05T14:32:33.000Z</time>
      </trkpt>
      <trkpt lat="44.48867" lon="6.25403">
        <ele>1319</ele>
        <time>2020-11-05T14:32:35.000Z</time>
      </trkpt>
      <trkpt lat="44.48866" lon="6.25403">
        <ele>1320.4000244141</ele>
        <time>2020-11-05T14:32:37.000Z</time>
      </trkpt>
      <trkpt lat="44.48864" lon="6.25405">
        <ele>1321</ele>
        <time>2020-11-05T14:32:39.000Z</time>
      </trkpt>
      <trkpt lat="44.48864" lon="6.25405">
        <ele>1321.4000244141</ele>
        <time>2020-11-05T14:32:41.000Z</time>
      </trkpt>
      <trkpt lat="44.48863" lon="6.25405">
        <ele>1322.4000244141</ele>
        <time>2020-11-05T14:32:46.000Z</time>
      </trkpt>
      <trkpt lat="44.48863" lon="6.25405">
        <ele>1322.5999755859</ele>
        <time>2020-11-05T14:32:47.000Z</time>
      </trkpt>
      <trkpt lat="44.48863" lon="6.25405">
        <ele>1323.4000244141</ele>
        <time>2020-11-05T14:32:53.000Z</time>
      </trkpt>
      <trkpt lat="44.48863" lon="6.25405">
        <ele>1323.4000244141</ele>
        <time>2020-11-05T14:32:54.000Z</time>
      </trkpt>
      <trkpt lat="44.48861" lon="6.25408">
        <ele>1323.4000244141</ele>
        <time>2020-11-05T14:32:58.000Z</time>
      </trkpt>
      <trkpt lat="44.48857" lon="6.25411">
        <ele>1323.4000244141</ele>
        <time>2020-11-05T14:33:05.000Z</time>
      </trkpt>
      <trkpt lat="44.48855" lon="6.25413">
        <ele>1324.4000244141</ele>
        <time>2020-11-05T14:33:09.000Z</time>
      </trkpt>
      <trkpt lat="44.48853" lon="6.25414">
        <ele>1325.5999755859</ele>
        <time>2020-11-05T14:33:11.000Z</time>
      </trkpt>
      <trkpt lat="44.48852" lon="6.25415">
        <ele>1326.4000244141</ele>
        <time>2020-11-05T14:33:13.000Z</time>
      </trkpt>
      <trkpt lat="44.4885" lon="6.25416">
        <ele>1326.8000488281</ele>
        <time>2020-11-05T14:33:14.000Z</time>
      </trkpt>
      <trkpt lat="44.48841" lon="6.25414">
        <ele>1327.4000244141</ele>
        <time>2020-11-05T14:33:20.000Z</time>
      </trkpt>
      <trkpt lat="44.48839" lon="6.25413">
        <ele>1328</ele>
        <time>2020-11-05T14:33:21.000Z</time>
      </trkpt>
      <trkpt lat="44.48836" lon="6.25411">
        <ele>1329</ele>
        <time>2020-11-05T14:33:23.000Z</time>
      </trkpt>
      <trkpt lat="44.48831" lon="6.25404">
        <ele>1330.1999511719</ele>
        <time>2020-11-05T14:33:26.000Z</time>
      </trkpt>
      <trkpt lat="44.4883" lon="6.25402">
        <ele>1330.8000488281</ele>
        <time>2020-11-05T14:33:27.000Z</time>
      </trkpt>
      <trkpt lat="44.48828" lon="6.25398">
        <ele>1331.5999755859</ele>
        <time>2020-11-05T14:33:29.000Z</time>
      </trkpt>
      <trkpt lat="44.48824" lon="6.25392">
        <ele>1332.8000488281</ele>
        <time>2020-11-05T14:33:32.000Z</time>
      </trkpt>
      <trkpt lat="44.4882" lon="6.25387">
        <ele>1334</ele>
        <time>2020-11-05T14:33:35.000Z</time>
      </trkpt>
      <trkpt lat="44.48816" lon="6.25382">
        <ele>1335</ele>
        <time>2020-11-05T14:33:38.000Z</time>
      </trkpt>
      <trkpt lat="44.48813" lon="6.25373">
        <ele>1336.4000244141</ele>
        <time>2020-11-05T14:33:42.000Z</time>
      </trkpt>
      <trkpt lat="44.48813" lon="6.25372">
        <ele>1336.8000488281</ele>
        <time>2020-11-05T14:33:43.000Z</time>
      </trkpt>
      <trkpt lat="44.48812" lon="6.25368">
        <ele>1337.5999755859</ele>
        <time>2020-11-05T14:33:45.000Z</time>
      </trkpt>
      <trkpt lat="44.48812" lon="6.25367">
        <ele>1338</ele>
        <time>2020-11-05T14:33:46.000Z</time>
      </trkpt>
      <trkpt lat="44.48812" lon="6.25364">
        <ele>1338.8000488281</ele>
        <time>2020-11-05T14:33:48.000Z</time>
      </trkpt>
      <trkpt lat="44.48812" lon="6.25362">
        <ele>1338.8000488281</ele>
        <time>2020-11-05T14:33:49.000Z</time>
      </trkpt>
      <trkpt lat="44.48811" lon="6.2535">
        <ele>1340</ele>
        <time>2020-11-05T14:33:55.000Z</time>
      </trkpt>
      <trkpt lat="44.48811" lon="6.25348">
        <ele>1340</ele>
        <time>2020-11-05T14:33:56.000Z</time>
      </trkpt>
      <trkpt lat="44.48809" lon="6.25334">
        <ele>1341.1999511719</ele>
        <time>2020-11-05T14:34:02.000Z</time>
      </trkpt>
      <trkpt lat="44.48809" lon="6.25328">
        <ele>1341.5999755859</ele>
        <time>2020-11-05T14:34:04.000Z</time>
      </trkpt>
      <trkpt lat="44.48809" lon="6.25323">
        <ele>1342.1999511719</ele>
        <time>2020-11-05T14:34:06.000Z</time>
      </trkpt>
      <trkpt lat="44.48811" lon="6.25314">
        <ele>1343.5999755859</ele>
        <time>2020-11-05T14:34:10.000Z</time>
      </trkpt>
      <trkpt lat="44.48811" lon="6.25308">
        <ele>1344.8000488281</ele>
        <time>2020-11-05T14:34:13.000Z</time>
      </trkpt>
      <trkpt lat="44.48812" lon="6.25301">
        <ele>1346</ele>
        <time>2020-11-05T14:34:16.000Z</time>
      </trkpt>
      <trkpt lat="44.48812" lon="6.25296">
        <ele>1347.1999511719</ele>
        <time>2020-11-05T14:34:18.000Z</time>
      </trkpt>
      <trkpt lat="44.48812" lon="6.25292">
        <ele>1348.1999511719</ele>
        <time>2020-11-05T14:34:20.000Z</time>
      </trkpt>
      <trkpt lat="44.48812" lon="6.2529">
        <ele>1348.8000488281</ele>
        <time>2020-11-05T14:34:21.000Z</time>
      </trkpt>
      <trkpt lat="44.48811" lon="6.25283">
        <ele>1350</ele>
        <time>2020-11-05T14:34:24.000Z</time>
      </trkpt>
      <trkpt lat="44.48811" lon="6.25276">
        <ele>1351.4000244141</ele>
        <time>2020-11-05T14:34:27.000Z</time>
      </trkpt>
      <trkpt lat="44.48813" lon="6.25269">
        <ele>1352.5999755859</ele>
        <time>2020-11-05T14:34:30.000Z</time>
      </trkpt>
      <trkpt lat="44.48813" lon="6.25265">
        <ele>1353.8000488281</ele>
        <time>2020-11-05T14:34:32.000Z</time>
      </trkpt>
      <trkpt lat="44.48812" lon="6.25262">
        <ele>1354.1999511719</ele>
        <time>2020-11-05T14:34:33.000Z</time>
      </trkpt>
      <trkpt lat="44.48811" lon="6.25256">
        <ele>1355.5999755859</ele>
        <time>2020-11-05T14:34:36.000Z</time>
      </trkpt>
      <trkpt lat="44.48811" lon="6.25251">
        <ele>1356.8000488281</ele>
        <time>2020-11-05T14:34:39.000Z</time>
      </trkpt>
      <trkpt lat="44.48811" lon="6.2525">
        <ele>1357.4000244141</ele>
        <time>2020-11-05T14:34:40.000Z</time>
      </trkpt>
      <trkpt lat="44.4881" lon="6.25245">
        <ele>1358.1999511719</ele>
        <time>2020-11-05T14:34:42.000Z</time>
      </trkpt>
      <trkpt lat="44.4881" lon="6.25241">
        <ele>1359.1999511719</ele>
        <time>2020-11-05T14:34:44.000Z</time>
      </trkpt>
      <trkpt lat="44.48811" lon="6.25239">
        <ele>1360.4000244141</ele>
        <time>2020-11-05T14:34:45.000Z</time>
      </trkpt>
      <trkpt lat="44.48811" lon="6.25237">
        <ele>1360.8000488281</ele>
        <time>2020-11-05T14:34:46.000Z</time>
      </trkpt>
      <trkpt lat="44.4881" lon="6.25232">
        <ele>1361.8000488281</ele>
        <time>2020-11-05T14:34:48.000Z</time>
      </trkpt>
      <trkpt lat="44.4881" lon="6.25225">
        <ele>1363</ele>
        <time>2020-11-05T14:34:51.000Z</time>
      </trkpt>
      <trkpt lat="44.48809" lon="6.25221">
        <ele>1363.8000488281</ele>
        <time>2020-11-05T14:34:53.000Z</time>
      </trkpt>
      <trkpt lat="44.48809" lon="6.2522">
        <ele>1364.1999511719</ele>
        <time>2020-11-05T14:34:54.000Z</time>
      </trkpt>
      <trkpt lat="44.48807" lon="6.25215">
        <ele>1365.4000244141</ele>
        <time>2020-11-05T14:34:57.000Z</time>
      </trkpt>
      <trkpt lat="44.48807" lon="6.25213">
        <ele>1365.8000488281</ele>
        <time>2020-11-05T14:34:58.000Z</time>
      </trkpt>
      <trkpt lat="44.48806" lon="6.25209">
        <ele>1366.5999755859</ele>
        <time>2020-11-05T14:35:00.000Z</time>
      </trkpt>
      <trkpt lat="44.48805" lon="6.25202">
        <ele>1367.8000488281</ele>
        <time>2020-11-05T14:35:04.000Z</time>
      </trkpt>
      <trkpt lat="44.48805" lon="6.252">
        <ele>1368</ele>
        <time>2020-11-05T14:35:05.000Z</time>
      </trkpt>
      <trkpt lat="44.48804" lon="6.25197">
        <ele>1368.8000488281</ele>
        <time>2020-11-05T14:35:07.000Z</time>
      </trkpt>
      <trkpt lat="44.48804" lon="6.25193">
        <ele>1370</ele>
        <time>2020-11-05T14:35:10.000Z</time>
      </trkpt>
      <trkpt lat="44.48804" lon="6.25191">
        <ele>1370.4000244141</ele>
        <time>2020-11-05T14:35:11.000Z</time>
      </trkpt>
      <trkpt lat="44.48804" lon="6.25187">
        <ele>1372</ele>
        <time>2020-11-05T14:35:13.000Z</time>
      </trkpt>
      <trkpt lat="44.48804" lon="6.25179">
        <ele>1373.1999511719</ele>
        <time>2020-11-05T14:35:16.000Z</time>
      </trkpt>
      <trkpt lat="44.48803" lon="6.25172">
        <ele>1374.4000244141</ele>
        <time>2020-11-05T14:35:19.000Z</time>
      </trkpt>
      <trkpt lat="44.48802" lon="6.25165">
        <ele>1375.4000244141</ele>
        <time>2020-11-05T14:35:22.000Z</time>
      </trkpt>
      <trkpt lat="44.48801" lon="6.25158">
        <ele>1376.8000488281</ele>
        <time>2020-11-05T14:35:25.000Z</time>
      </trkpt>
      <trkpt lat="44.48801" lon="6.25155">
        <ele>1377.4000244141</ele>
        <time>2020-11-05T14:35:26.000Z</time>
      </trkpt>
      <trkpt lat="44.488" lon="6.2515">
        <ele>1378.1999511719</ele>
        <time>2020-11-05T14:35:28.000Z</time>
      </trkpt>
      <trkpt lat="44.48799" lon="6.25142">
        <ele>1379.1999511719</ele>
        <time>2020-11-05T14:35:31.000Z</time>
      </trkpt>
      <trkpt lat="44.48799" lon="6.2514">
        <ele>1379.5999755859</ele>
        <time>2020-11-05T14:35:32.000Z</time>
      </trkpt>
      <trkpt lat="44.48798" lon="6.25135">
        <ele>1380.4000244141</ele>
        <time>2020-11-05T14:35:34.000Z</time>
      </trkpt>
      <trkpt lat="44.48797" lon="6.25128">
        <ele>1381.5999755859</ele>
        <time>2020-11-05T14:35:37.000Z</time>
      </trkpt>
      <trkpt lat="44.48795" lon="6.25121">
        <ele>1382.8000488281</ele>
        <time>2020-11-05T14:35:40.000Z</time>
      </trkpt>
      <trkpt lat="44.48794" lon="6.25116">
        <ele>1384</ele>
        <time>2020-11-05T14:35:42.000Z</time>
      </trkpt>
      <trkpt lat="44.48791" lon="6.2511">
        <ele>1385.4000244141</ele>
        <time>2020-11-05T14:35:45.000Z</time>
      </trkpt>
      <trkpt lat="44.48788" lon="6.25103">
        <ele>1386.5999755859</ele>
        <time>2020-11-05T14:35:48.000Z</time>
      </trkpt>
      <trkpt lat="44.48784" lon="6.25094">
        <ele>1387.8000488281</ele>
        <time>2020-11-05T14:35:52.000Z</time>
      </trkpt>
      <trkpt lat="44.48781" lon="6.25088">
        <ele>1389.1999511719</ele>
        <time>2020-11-05T14:35:55.000Z</time>
      </trkpt>
      <trkpt lat="44.48778" lon="6.2508">
        <ele>1390.4000244141</ele>
        <time>2020-11-05T14:35:59.000Z</time>
      </trkpt>
      <trkpt lat="44.48774" lon="6.25075">
        <ele>1391.5999755859</ele>
        <time>2020-11-05T14:36:02.000Z</time>
      </trkpt>
      <trkpt lat="44.4877" lon="6.25068">
        <ele>1392.5999755859</ele>
        <time>2020-11-05T14:36:06.000Z</time>
      </trkpt>
      <trkpt lat="44.48768" lon="6.25061">
        <ele>1393.8000488281</ele>
        <time>2020-11-05T14:36:09.000Z</time>
      </trkpt>
      <trkpt lat="44.48768" lon="6.25059">
        <ele>1394.1999511719</ele>
        <time>2020-11-05T14:36:10.000Z</time>
      </trkpt>
      <trkpt lat="44.48767" lon="6.25055">
        <ele>1395.1999511719</ele>
        <time>2020-11-05T14:36:12.000Z</time>
      </trkpt>
      <trkpt lat="44.48766" lon="6.25049">
        <ele>1396.4000244141</ele>
        <time>2020-11-05T14:36:15.000Z</time>
      </trkpt>
      <trkpt lat="44.48765" lon="6.25049">
        <ele>1397.1999511719</ele>
        <time>2020-11-05T14:36:16.000Z</time>
      </trkpt>
      <trkpt lat="44.48765" lon="6.25048">
        <ele>1398</ele>
        <time>2020-11-05T14:36:18.000Z</time>
      </trkpt>
      <trkpt lat="44.48765" lon="6.25047">
        <ele>1399</ele>
        <time>2020-11-05T14:36:22.000Z</time>
      </trkpt>
      <trkpt lat="44.48765" lon="6.25046">
        <ele>1399.4000244141</ele>
        <time>2020-11-05T14:36:26.000Z</time>
      </trkpt>
      <trkpt lat="44.48763" lon="6.25045">
        <ele>1399.5999755859</ele>
        <time>2020-11-05T14:36:35.000Z</time>
      </trkpt>
      <trkpt lat="44.48763" lon="6.25043">
        <ele>1399.8000488281</ele>
        <time>2020-11-05T14:36:47.000Z</time>
      </trkpt>
      <trkpt lat="44.48762" lon="6.25035">
        <ele>1400</ele>
        <time>2020-11-05T14:36:54.000Z</time>
      </trkpt>
      <trkpt lat="44.48755" lon="6.25022">
        <ele>1400.4000244141</ele>
        <time>2020-11-05T14:37:04.000Z</time>
      </trkpt>
      <trkpt lat="44.48754" lon="6.2502">
        <ele>1401</ele>
        <time>2020-11-05T14:37:05.000Z</time>
      </trkpt>
      <trkpt lat="44.48753" lon="6.2502">
        <ele>1401.1999511719</ele>
        <time>2020-11-05T14:37:06.000Z</time>
      </trkpt>
      <trkpt lat="44.4875" lon="6.25019">
        <ele>1401.5999755859</ele>
        <time>2020-11-05T14:37:08.000Z</time>
      </trkpt>
      <trkpt lat="44.48747" lon="6.25018">
        <ele>1402.4000244141</ele>
        <time>2020-11-05T14:37:10.000Z</time>
      </trkpt>
      <trkpt lat="44.48746" lon="6.25018">
        <ele>1402.8000488281</ele>
        <time>2020-11-05T14:37:11.000Z</time>
      </trkpt>
      <trkpt lat="44.48745" lon="6.25018">
        <ele>1403.4000244141</ele>
        <time>2020-11-05T14:37:12.000Z</time>
      </trkpt>
      <trkpt lat="44.48743" lon="6.25019">
        <ele>1404.1999511719</ele>
        <time>2020-11-05T14:37:14.000Z</time>
      </trkpt>
      <trkpt lat="44.48739" lon="6.25018">
        <ele>1405.8000488281</ele>
        <time>2020-11-05T14:37:17.000Z</time>
      </trkpt>
      <trkpt lat="44.48736" lon="6.25018">
        <ele>1407.1999511719</ele>
        <time>2020-11-05T14:37:20.000Z</time>
      </trkpt>
      <trkpt lat="44.48733" lon="6.25019">
        <ele>1408.1999511719</ele>
        <time>2020-11-05T14:37:22.000Z</time>
      </trkpt>
      <trkpt lat="44.4873" lon="6.2502">
        <ele>1409.1999511719</ele>
        <time>2020-11-05T14:37:24.000Z</time>
      </trkpt>
      <trkpt lat="44.48729" lon="6.25021">
        <ele>1410.4000244141</ele>
        <time>2020-11-05T14:37:26.000Z</time>
      </trkpt>
      <trkpt lat="44.48727" lon="6.25022">
        <ele>1411.8000488281</ele>
        <time>2020-11-05T14:37:29.000Z</time>
      </trkpt>
      <trkpt lat="44.48725" lon="6.25024">
        <ele>1413.1999511719</ele>
        <time>2020-11-05T14:37:32.000Z</time>
      </trkpt>
      <trkpt lat="44.48724" lon="6.25024">
        <ele>1413.8000488281</ele>
        <time>2020-11-05T14:37:33.000Z</time>
      </trkpt>
      <trkpt lat="44.48723" lon="6.25025">
        <ele>1414.1999511719</ele>
        <time>2020-11-05T14:37:38.000Z</time>
      </trkpt>
      <trkpt lat="44.48722" lon="6.25025">
        <ele>1415.5999755859</ele>
        <time>2020-11-05T14:37:42.000Z</time>
      </trkpt>
      <trkpt lat="44.48722" lon="6.25025">
        <ele>1415.5999755859</ele>
        <time>2020-11-05T14:37:43.000Z</time>
      </trkpt>
      <trkpt lat="44.48716" lon="6.25024">
        <ele>1415.8000488281</ele>
        <time>2020-11-05T14:37:52.000Z</time>
      </trkpt>
      <trkpt lat="44.48713" lon="6.25023">
        <ele>1416.5999755859</ele>
        <time>2020-11-05T14:37:57.000Z</time>
      </trkpt>
      <trkpt lat="44.48711" lon="6.25022">
        <ele>1418</ele>
        <time>2020-11-05T14:37:59.000Z</time>
      </trkpt>
      <trkpt lat="44.48709" lon="6.25021">
        <ele>1419.1999511719</ele>
        <time>2020-11-05T14:38:01.000Z</time>
      </trkpt>
      <trkpt lat="44.48707" lon="6.2502">
        <ele>1419.8000488281</ele>
        <time>2020-11-05T14:38:12.000Z</time>
      </trkpt>
      <trkpt lat="44.48704" lon="6.25015">
        <ele>1419.8000488281</ele>
        <time>2020-11-05T14:38:18.000Z</time>
      </trkpt>
      <trkpt lat="44.48701" lon="6.25013">
        <ele>1420</ele>
        <time>2020-11-05T14:38:26.000Z</time>
      </trkpt>
      <trkpt lat="44.48697" lon="6.25017">
        <ele>1420.8000488281</ele>
        <time>2020-11-05T14:38:37.000Z</time>
      </trkpt>
      <trkpt lat="44.48697" lon="6.25018">
        <ele>1422</ele>
        <time>2020-11-05T14:38:47.000Z</time>
      </trkpt>
      <trkpt lat="44.48697" lon="6.25018">
        <ele>1422.1999511719</ele>
        <time>2020-11-05T14:38:48.000Z</time>
      </trkpt>
      <trkpt lat="44.48697" lon="6.25018">
        <ele>1422.5999755859</ele>
        <time>2020-11-05T14:39:15.000Z</time>
      </trkpt>
      <trkpt lat="44.48697" lon="6.25017">
        <ele>1422.5999755859</ele>
        <time>2020-11-05T14:40:04.000Z</time>
      </trkpt>
      <trkpt lat="44.48696" lon="6.25015">
        <ele>1422.5999755859</ele>
        <time>2020-11-05T14:40:11.000Z</time>
      </trkpt>
      <trkpt lat="44.48696" lon="6.25009">
        <ele>1422.5999755859</ele>
        <time>2020-11-05T14:40:21.000Z</time>
      </trkpt>
      <trkpt lat="44.48696" lon="6.25008">
        <ele>1421.8000488281</ele>
        <time>2020-11-05T14:40:23.000Z</time>
      </trkpt>
      <trkpt lat="44.48696" lon="6.25002">
        <ele>1421</ele>
        <time>2020-11-05T14:40:29.000Z</time>
      </trkpt>
      <trkpt lat="44.48696" lon="6.25001">
        <ele>1421</ele>
        <time>2020-11-05T14:40:30.000Z</time>
      </trkpt>
      <trkpt lat="44.48694" lon="6.25">
        <ele>1421</ele>
        <time>2020-11-05T14:40:31.000Z</time>
      </trkpt>
      <trkpt lat="44.48691" lon="6.24999">
        <ele>1420.8000488281</ele>
        <time>2020-11-05T14:40:35.000Z</time>
      </trkpt>
      <trkpt lat="44.4869" lon="6.24998">
        <ele>1420.8000488281</ele>
        <time>2020-11-05T14:40:36.000Z</time>
      </trkpt>
      <trkpt lat="44.48689" lon="6.24997">
        <ele>1420.8000488281</ele>
        <time>2020-11-05T14:40:41.000Z</time>
      </trkpt>
      <trkpt lat="44.48689" lon="6.24998">
        <ele>1422</ele>
        <time>2020-11-05T14:40:47.000Z</time>
      </trkpt>
      <trkpt lat="44.48689" lon="6.24998">
        <ele>1422</ele>
        <time>2020-11-05T14:40:54.000Z</time>
      </trkpt>
      <trkpt lat="44.48689" lon="6.24998">
        <ele>1422</ele>
        <time>2020-11-05T14:41:02.000Z</time>
      </trkpt>
      <trkpt lat="44.48689" lon="6.24998">
        <ele>1422</ele>
        <time>2020-11-05T14:41:10.000Z</time>
      </trkpt>
      <trkpt lat="44.48689" lon="6.24998">
        <ele>1422.4000244141</ele>
        <time>2020-11-05T14:41:51.000Z</time>
      </trkpt>
      <trkpt lat="44.48689" lon="6.24998">
        <ele>1422.4000244141</ele>
        <time>2020-11-05T14:42:48.000Z</time>
      </trkpt>
      <trkpt lat="44.4869" lon="6.24997">
        <ele>1422.5999755859</ele>
        <time>2020-11-05T14:43:21.000Z</time>
      </trkpt>
      <trkpt lat="44.48692" lon="6.24998">
        <ele>1422.5999755859</ele>
        <time>2020-11-05T14:43:27.000Z</time>
      </trkpt>
      <trkpt lat="44.48692" lon="6.24999">
        <ele>1422.1999511719</ele>
        <time>2020-11-05T14:43:36.000Z</time>
      </trkpt>
      <trkpt lat="44.48692" lon="6.24999">
        <ele>1422</ele>
        <time>2020-11-05T14:43:38.000Z</time>
      </trkpt>
      <trkpt lat="44.48694" lon="6.25">
        <ele>1422.1999511719</ele>
        <time>2020-11-05T14:43:44.000Z</time>
      </trkpt>
      <trkpt lat="44.48693" lon="6.25002">
        <ele>1421.1999511719</ele>
        <time>2020-11-05T14:43:49.000Z</time>
      </trkpt>
      <trkpt lat="44.48694" lon="6.25006">
        <ele>1421</ele>
        <time>2020-11-05T14:43:55.000Z</time>
      </trkpt>
      <trkpt lat="44.48696" lon="6.25008">
        <ele>1421</ele>
        <time>2020-11-05T14:43:58.000Z</time>
      </trkpt>
      <trkpt lat="44.48699" lon="6.25013">
        <ele>1421.1999511719</ele>
        <time>2020-11-05T14:44:01.000Z</time>
      </trkpt>
      <trkpt lat="44.48699" lon="6.25012">
        <ele>1421.1999511719</ele>
        <time>2020-11-05T14:44:12.000Z</time>
      </trkpt>
      <trkpt lat="44.48697" lon="6.25009">
        <ele>1421</ele>
        <time>2020-11-05T14:44:20.000Z</time>
      </trkpt>
      <trkpt lat="44.48697" lon="6.25009">
        <ele>1420.8000488281</ele>
        <time>2020-11-05T14:44:27.000Z</time>
      </trkpt>
      <trkpt lat="44.48697" lon="6.25009">
        <ele>1420.5999755859</ele>
        <time>2020-11-05T14:44:58.000Z</time>
      </trkpt>
      <trkpt lat="44.48698" lon="6.25009">
        <ele>1420.5999755859</ele>
        <time>2020-11-05T14:45:26.000Z</time>
      </trkpt>
      <trkpt lat="44.48698" lon="6.25009">
        <ele>1420.5999755859</ele>
        <time>2020-11-05T14:45:35.000Z</time>
      </trkpt>
      <trkpt lat="44.48698" lon="6.25011">
        <ele>1420.5999755859</ele>
        <time>2020-11-05T14:46:19.000Z</time>
      </trkpt>
      <trkpt lat="44.48699" lon="6.25015">
        <ele>1420.8000488281</ele>
        <time>2020-11-05T14:46:41.000Z</time>
      </trkpt>
      <trkpt lat="44.48701" lon="6.25017">
        <ele>1420.8000488281</ele>
        <time>2020-11-05T14:46:48.000Z</time>
      </trkpt>
      <trkpt lat="44.48704" lon="6.25019">
        <ele>1420.4000244141</ele>
        <time>2020-11-05T14:46:54.000Z</time>
      </trkpt>
      <trkpt lat="44.48706" lon="6.25019">
        <ele>1420.4000244141</ele>
        <time>2020-11-05T14:46:56.000Z</time>
      </trkpt>
      <trkpt lat="44.48711" lon="6.25019">
        <ele>1420.1999511719</ele>
        <time>2020-11-05T14:46:59.000Z</time>
      </trkpt>
      <trkpt lat="44.48715" lon="6.25021">
        <ele>1419.8000488281</ele>
        <time>2020-11-05T14:47:01.000Z</time>
      </trkpt>
      <trkpt lat="44.48716" lon="6.2502">
        <ele>1419.8000488281</ele>
        <time>2020-11-05T14:47:02.000Z</time>
      </trkpt>
      <trkpt lat="44.48716" lon="6.2502">
        <ele>1419.5999755859</ele>
        <time>2020-11-05T14:47:03.000Z</time>
      </trkpt>
      <trkpt lat="44.48719" lon="6.25016">
        <ele>1418.5999755859</ele>
        <time>2020-11-05T14:47:06.000Z</time>
      </trkpt>
      <trkpt lat="44.48722" lon="6.25015">
        <ele>1418</ele>
        <time>2020-11-05T14:47:07.000Z</time>
      </trkpt>
      <trkpt lat="44.48723" lon="6.25015">
        <ele>1417.4000244141</ele>
        <time>2020-11-05T14:47:08.000Z</time>
      </trkpt>
      <trkpt lat="44.48723" lon="6.25015">
        <ele>1417</ele>
        <time>2020-11-05T14:47:09.000Z</time>
      </trkpt>
      <trkpt lat="44.48729" lon="6.25015">
        <ele>1416.4000244141</ele>
        <time>2020-11-05T14:47:11.000Z</time>
      </trkpt>
      <trkpt lat="44.48735" lon="6.25014">
        <ele>1414.8000488281</ele>
        <time>2020-11-05T14:47:14.000Z</time>
      </trkpt>
      <trkpt lat="44.48738" lon="6.25015">
        <ele>1413.8000488281</ele>
        <time>2020-11-05T14:47:16.000Z</time>
      </trkpt>
      <trkpt lat="44.4874" lon="6.25015">
        <ele>1412.4000244141</ele>
        <time>2020-11-05T14:47:18.000Z</time>
      </trkpt>
      <trkpt lat="44.48744" lon="6.25019">
        <ele>1410.4000244141</ele>
        <time>2020-11-05T14:47:20.000Z</time>
      </trkpt>
      <trkpt lat="44.48751" lon="6.25033">
        <ele>1408.5999755859</ele>
        <time>2020-11-05T14:47:22.000Z</time>
      </trkpt>
      <trkpt lat="44.48751" lon="6.25033">
        <ele>1407.8000488281</ele>
        <time>2020-11-05T14:47:23.000Z</time>
      </trkpt>
      <trkpt lat="44.48754" lon="6.2504">
        <ele>1407</ele>
        <time>2020-11-05T14:47:24.000Z</time>
      </trkpt>
      <trkpt lat="44.48755" lon="6.25041">
        <ele>1405.5999755859</ele>
        <time>2020-11-05T14:47:26.000Z</time>
      </trkpt>
      <trkpt lat="44.48756" lon="6.2504">
        <ele>1404.1999511719</ele>
        <time>2020-11-05T14:47:28.000Z</time>
      </trkpt>
      <trkpt lat="44.48757" lon="6.25041">
        <ele>1403</ele>
        <time>2020-11-05T14:47:29.000Z</time>
      </trkpt>
      <trkpt lat="44.48757" lon="6.25041">
        <ele>1401.1999511719</ele>
        <time>2020-11-05T14:47:30.000Z</time>
      </trkpt>
      <trkpt lat="44.48758" lon="6.25041">
        <ele>1400.8000488281</ele>
        <time>2020-11-05T14:47:32.000Z</time>
      </trkpt>
      <trkpt lat="44.4876" lon="6.25042">
        <ele>1400.1999511719</ele>
        <time>2020-11-05T14:47:38.000Z</time>
      </trkpt>
      <trkpt lat="44.4876" lon="6.25042">
        <ele>1400.1999511719</ele>
        <time>2020-11-05T14:47:41.000Z</time>
      </trkpt>
      <trkpt lat="44.48761" lon="6.25044">
        <ele>1400</ele>
        <time>2020-11-05T14:47:47.000Z</time>
      </trkpt>
      <trkpt lat="44.48763" lon="6.25046">
        <ele>1399.5999755859</ele>
        <time>2020-11-05T14:47:57.000Z</time>
      </trkpt>
      <trkpt lat="44.48765" lon="6.25052">
        <ele>1399.1999511719</ele>
        <time>2020-11-05T14:48:03.000Z</time>
      </trkpt>
      <trkpt lat="44.48765" lon="6.25052">
        <ele>1399.1999511719</ele>
        <time>2020-11-05T14:48:04.000Z</time>
      </trkpt>
      <trkpt lat="44.48766" lon="6.25053">
        <ele>1399</ele>
        <time>2020-11-05T14:48:28.000Z</time>
      </trkpt>
      <trkpt lat="44.4877" lon="6.25058">
        <ele>1399.1999511719</ele>
        <time>2020-11-05T14:48:44.000Z</time>
      </trkpt>
      <trkpt lat="44.48777" lon="6.25071">
        <ele>1399.1999511719</ele>
        <time>2020-11-05T14:48:47.000Z</time>
      </trkpt>
      <trkpt lat="44.48781" lon="6.25081">
        <ele>1399.1999511719</ele>
        <time>2020-11-05T14:48:49.000Z</time>
      </trkpt>
      <trkpt lat="44.48789" lon="6.251">
        <ele>1398.1999511719</ele>
        <time>2020-11-05T14:48:53.000Z</time>
      </trkpt>
      <trkpt lat="44.48792" lon="6.25106">
        <ele>1397.4000244141</ele>
        <time>2020-11-05T14:48:54.000Z</time>
      </trkpt>
      <trkpt lat="44.48794" lon="6.25112">
        <ele>1395</ele>
        <time>2020-11-05T14:48:55.000Z</time>
      </trkpt>
      <trkpt lat="44.48796" lon="6.25118">
        <ele>1393.8000488281</ele>
        <time>2020-11-05T14:48:56.000Z</time>
      </trkpt>
      <trkpt lat="44.48799" lon="6.25131">
        <ele>1392.1999511719</ele>
        <time>2020-11-05T14:48:58.000Z</time>
      </trkpt>
      <trkpt lat="44.48801" lon="6.25137">
        <ele>1391.5999755859</ele>
        <time>2020-11-05T14:48:59.000Z</time>
      </trkpt>
      <trkpt lat="44.48802" lon="6.25143">
        <ele>1391</ele>
        <time>2020-11-05T14:49:00.000Z</time>
      </trkpt>
      <trkpt lat="44.48802" lon="6.25149">
        <ele>1390.4000244141</ele>
        <time>2020-11-05T14:49:01.000Z</time>
      </trkpt>
      <trkpt lat="44.48802" lon="6.25155">
        <ele>1389.5999755859</ele>
        <time>2020-11-05T14:49:02.000Z</time>
      </trkpt>
      <trkpt lat="44.48803" lon="6.25161">
        <ele>1388.4000244141</ele>
        <time>2020-11-05T14:49:03.000Z</time>
      </trkpt>
      <trkpt lat="44.48804" lon="6.25172">
        <ele>1386.8000488281</ele>
        <time>2020-11-05T14:49:05.000Z</time>
      </trkpt>
      <trkpt lat="44.48804" lon="6.25179">
        <ele>1386</ele>
        <time>2020-11-05T14:49:06.000Z</time>
      </trkpt>
      <trkpt lat="44.48805" lon="6.25187">
        <ele>1385</ele>
        <time>2020-11-05T14:49:07.000Z</time>
      </trkpt>
      <trkpt lat="44.48808" lon="6.25202">
        <ele>1383</ele>
        <time>2020-11-05T14:49:09.000Z</time>
      </trkpt>
      <trkpt lat="44.4881" lon="6.25208">
        <ele>1382</ele>
        <time>2020-11-05T14:49:10.000Z</time>
      </trkpt>
      <trkpt lat="44.48811" lon="6.25213">
        <ele>1380.5999755859</ele>
        <time>2020-11-05T14:49:11.000Z</time>
      </trkpt>
      <trkpt lat="44.48812" lon="6.25219">
        <ele>1379.1999511719</ele>
        <time>2020-11-05T14:49:12.000Z</time>
      </trkpt>
      <trkpt lat="44.48813" lon="6.25226">
        <ele>1378</ele>
        <time>2020-11-05T14:49:13.000Z</time>
      </trkpt>
      <trkpt lat="44.48813" lon="6.25233">
        <ele>1376.8000488281</ele>
        <time>2020-11-05T14:49:14.000Z</time>
      </trkpt>
      <trkpt lat="44.48813" lon="6.2524">
        <ele>1375.5999755859</ele>
        <time>2020-11-05T14:49:15.000Z</time>
      </trkpt>
      <trkpt lat="44.48813" lon="6.25245">
        <ele>1374</ele>
        <time>2020-11-05T14:49:16.000Z</time>
      </trkpt>
      <trkpt lat="44.48813" lon="6.25251">
        <ele>1372.8000488281</ele>
        <time>2020-11-05T14:49:17.000Z</time>
      </trkpt>
      <trkpt lat="44.48814" lon="6.25256">
        <ele>1371.5999755859</ele>
        <time>2020-11-05T14:49:18.000Z</time>
      </trkpt>
      <trkpt lat="44.48814" lon="6.25261">
        <ele>1370.4000244141</ele>
        <time>2020-11-05T14:49:19.000Z</time>
      </trkpt>
      <trkpt lat="44.48813" lon="6.25267">
        <ele>1369.1999511719</ele>
        <time>2020-11-05T14:49:20.000Z</time>
      </trkpt>
      <trkpt lat="44.48812" lon="6.25279">
        <ele>1367.1999511719</ele>
        <time>2020-11-05T14:49:22.000Z</time>
      </trkpt>
      <trkpt lat="44.48812" lon="6.25286">
        <ele>1364.8000488281</ele>
        <time>2020-11-05T14:49:23.000Z</time>
      </trkpt>
      <trkpt lat="44.48812" lon="6.25293">
        <ele>1363.8000488281</ele>
        <time>2020-11-05T14:49:24.000Z</time>
      </trkpt>
      <trkpt lat="44.48811" lon="6.253">
        <ele>1362.8000488281</ele>
        <time>2020-11-05T14:49:25.000Z</time>
      </trkpt>
      <trkpt lat="44.4881" lon="6.25309">
        <ele>1362</ele>
        <time>2020-11-05T14:49:26.000Z</time>
      </trkpt>
      <trkpt lat="44.48809" lon="6.25316">
        <ele>1360.8000488281</ele>
        <time>2020-11-05T14:49:27.000Z</time>
      </trkpt>
      <trkpt lat="44.48809" lon="6.25324">
        <ele>1359.8000488281</ele>
        <time>2020-11-05T14:49:28.000Z</time>
      </trkpt>
      <trkpt lat="44.48809" lon="6.25332">
        <ele>1358.5999755859</ele>
        <time>2020-11-05T14:49:29.000Z</time>
      </trkpt>
      <trkpt lat="44.4881" lon="6.25339">
        <ele>1357.4000244141</ele>
        <time>2020-11-05T14:49:30.000Z</time>
      </trkpt>
      <trkpt lat="44.48811" lon="6.25346">
        <ele>1356.1999511719</ele>
        <time>2020-11-05T14:49:31.000Z</time>
      </trkpt>
      <trkpt lat="44.4881" lon="6.25354">
        <ele>1354.5999755859</ele>
        <time>2020-11-05T14:49:32.000Z</time>
      </trkpt>
      <trkpt lat="44.4881" lon="6.25362">
        <ele>1353.1999511719</ele>
        <time>2020-11-05T14:49:33.000Z</time>
      </trkpt>
      <trkpt lat="44.48811" lon="6.25369">
        <ele>1351.8000488281</ele>
        <time>2020-11-05T14:49:34.000Z</time>
      </trkpt>
      <trkpt lat="44.48812" lon="6.25376">
        <ele>1350.4000244141</ele>
        <time>2020-11-05T14:49:35.000Z</time>
      </trkpt>
      <trkpt lat="44.48813" lon="6.25381">
        <ele>1348.8000488281</ele>
        <time>2020-11-05T14:49:36.000Z</time>
      </trkpt>
      <trkpt lat="44.48814" lon="6.25385">
        <ele>1347.5999755859</ele>
        <time>2020-11-05T14:49:37.000Z</time>
      </trkpt>
      <trkpt lat="44.48814" lon="6.2539">
        <ele>1346</ele>
        <time>2020-11-05T14:49:38.000Z</time>
      </trkpt>
      <trkpt lat="44.48815" lon="6.25393">
        <ele>1344.5999755859</ele>
        <time>2020-11-05T14:49:39.000Z</time>
      </trkpt>
      <trkpt lat="44.48814" lon="6.25395">
        <ele>1343.1999511719</ele>
        <time>2020-11-05T14:49:40.000Z</time>
      </trkpt>
      <trkpt lat="44.48815" lon="6.25396">
        <ele>1341.8000488281</ele>
        <time>2020-11-05T14:49:41.000Z</time>
      </trkpt>
      <trkpt lat="44.48815" lon="6.25396">
        <ele>1340.8000488281</ele>
        <time>2020-11-05T14:49:42.000Z</time>
      </trkpt>
      <trkpt lat="44.48814" lon="6.25397">
        <ele>1339.8000488281</ele>
        <time>2020-11-05T14:49:45.000Z</time>
      </trkpt>
      <trkpt lat="44.48814" lon="6.25397">
        <ele>1338.5999755859</ele>
        <time>2020-11-05T14:49:49.000Z</time>
      </trkpt>
      <trkpt lat="44.48814" lon="6.25397">
        <ele>1338</ele>
        <time>2020-11-05T14:49:53.000Z</time>
      </trkpt>
      <trkpt lat="44.48816" lon="6.25409">
        <ele>1338</ele>
        <time>2020-11-05T14:49:58.000Z</time>
      </trkpt>
      <trkpt lat="44.48821" lon="6.25417">
        <ele>1337.8000488281</ele>
        <time>2020-11-05T14:50:03.000Z</time>
      </trkpt>
      <trkpt lat="44.48821" lon="6.2542">
        <ele>1337.4000244141</ele>
        <time>2020-11-05T14:50:04.000Z</time>
      </trkpt>
      <trkpt lat="44.48822" lon="6.25427">
        <ele>1336.1999511719</ele>
        <time>2020-11-05T14:50:07.000Z</time>
      </trkpt>
      <trkpt lat="44.48826" lon="6.25437">
        <ele>1335</ele>
        <time>2020-11-05T14:50:11.000Z</time>
      </trkpt>
      <trkpt lat="44.48834" lon="6.25456">
        <ele>1334</ele>
        <time>2020-11-05T14:50:18.000Z</time>
      </trkpt>
      <trkpt lat="44.48839" lon="6.25469">
        <ele>1334</ele>
        <time>2020-11-05T14:50:23.000Z</time>
      </trkpt>
      <trkpt lat="44.48841" lon="6.25472">
        <ele>1334</ele>
        <time>2020-11-05T14:50:26.000Z</time>
      </trkpt>
      <trkpt lat="44.48841" lon="6.25473">
        <ele>1334</ele>
        <time>2020-11-05T14:50:28.000Z</time>
      </trkpt>
      <trkpt lat="44.48842" lon="6.25476">
        <ele>1333.5999755859</ele>
        <time>2020-11-05T14:50:36.000Z</time>
      </trkpt>
      <trkpt lat="44.48845" lon="6.25482">
        <ele>1333.5999755859</ele>
        <time>2020-11-05T14:50:43.000Z</time>
      </trkpt>
      <trkpt lat="44.48852" lon="6.25499">
        <ele>1333.1999511719</ele>
        <time>2020-11-05T14:50:48.000Z</time>
      </trkpt>
      <trkpt lat="44.48855" lon="6.25506">
        <ele>1333.1999511719</ele>
        <time>2020-11-05T14:50:50.000Z</time>
      </trkpt>
      <trkpt lat="44.48859" lon="6.25512">
        <ele>1332.4000244141</ele>
        <time>2020-11-05T14:50:53.000Z</time>
      </trkpt>
      <trkpt lat="44.48861" lon="6.25514">
        <ele>1332</ele>
        <time>2020-11-05T14:50:54.000Z</time>
      </trkpt>
      <trkpt lat="44.48866" lon="6.2552">
        <ele>1331.8000488281</ele>
        <time>2020-11-05T14:50:58.000Z</time>
      </trkpt>
      <trkpt lat="44.48877" lon="6.25529">
        <ele>1331.5999755859</ele>
        <time>2020-11-05T14:51:04.000Z</time>
      </trkpt>
      <trkpt lat="44.48891" lon="6.2554">
        <ele>1331.4000244141</ele>
        <time>2020-11-05T14:51:11.000Z</time>
      </trkpt>
      <trkpt lat="44.48898" lon="6.25548">
        <ele>1331</ele>
        <time>2020-11-05T14:51:13.000Z</time>
      </trkpt>
      <trkpt lat="44.48903" lon="6.25559">
        <ele>1330.4000244141</ele>
        <time>2020-11-05T14:51:15.000Z</time>
      </trkpt>
      <trkpt lat="44.48905" lon="6.25565">
        <ele>1329.8000488281</ele>
        <time>2020-11-05T14:51:16.000Z</time>
      </trkpt>
      <trkpt lat="44.4891" lon="6.25573">
        <ele>1328.8000488281</ele>
        <time>2020-11-05T14:51:18.000Z</time>
      </trkpt>
      <trkpt lat="44.48912" lon="6.25576">
        <ele>1328.1999511719</ele>
        <time>2020-11-05T14:51:19.000Z</time>
      </trkpt>
      <trkpt lat="44.48915" lon="6.25579">
        <ele>1326.5999755859</ele>
        <time>2020-11-05T14:51:21.000Z</time>
      </trkpt>
      <trkpt lat="44.48918" lon="6.25586">
        <ele>1325.5999755859</ele>
        <time>2020-11-05T14:51:24.000Z</time>
      </trkpt>
      <trkpt lat="44.48919" lon="6.25588">
        <ele>1325.4000244141</ele>
        <time>2020-11-05T14:51:25.000Z</time>
      </trkpt>
      <trkpt lat="44.4892" lon="6.25589">
        <ele>1325.4000244141</ele>
        <time>2020-11-05T14:51:28.000Z</time>
      </trkpt>
      <trkpt lat="44.48921" lon="6.2559">
        <ele>1325.4000244141</ele>
        <time>2020-11-05T14:51:30.000Z</time>
      </trkpt>
      <trkpt lat="44.48923" lon="6.25592">
        <ele>1325.4000244141</ele>
        <time>2020-11-05T14:51:32.000Z</time>
      </trkpt>
      <trkpt lat="44.48929" lon="6.25596">
        <ele>1325.8000488281</ele>
        <time>2020-11-05T14:51:37.000Z</time>
      </trkpt>
      <trkpt lat="44.48931" lon="6.25596">
        <ele>1325.8000488281</ele>
        <time>2020-11-05T14:51:38.000Z</time>
      </trkpt>
      <trkpt lat="44.48939" lon="6.25598">
        <ele>1325.8000488281</ele>
        <time>2020-11-05T14:51:42.000Z</time>
      </trkpt>
      <trkpt lat="44.48945" lon="6.256">
        <ele>1324.5999755859</ele>
        <time>2020-11-05T14:51:45.000Z</time>
      </trkpt>
      <trkpt lat="44.4895" lon="6.25603">
        <ele>1323.4000244141</ele>
        <time>2020-11-05T14:51:48.000Z</time>
      </trkpt>
      <trkpt lat="44.48957" lon="6.25607">
        <ele>1322.1999511719</ele>
        <time>2020-11-05T14:51:51.000Z</time>
      </trkpt>
      <trkpt lat="44.4896" lon="6.25612">
        <ele>1321.1999511719</ele>
        <time>2020-11-05T14:51:53.000Z</time>
      </trkpt>
      <trkpt lat="44.48961" lon="6.25614">
        <ele>1320.8000488281</ele>
        <time>2020-11-05T14:51:54.000Z</time>
      </trkpt>
      <trkpt lat="44.48966" lon="6.2562">
        <ele>1319.5999755859</ele>
        <time>2020-11-05T14:51:57.000Z</time>
      </trkpt>
      <trkpt lat="44.4897" lon="6.25622">
        <ele>1318.8000488281</ele>
        <time>2020-11-05T14:51:59.000Z</time>
      </trkpt>
      <trkpt lat="44.48972" lon="6.25623">
        <ele>1318.5999755859</ele>
        <time>2020-11-05T14:52:00.000Z</time>
      </trkpt>
      <trkpt lat="44.4898" lon="6.25627">
        <ele>1317.5999755859</ele>
        <time>2020-11-05T14:52:04.000Z</time>
      </trkpt>
      <trkpt lat="44.48982" lon="6.25629">
        <ele>1317.1999511719</ele>
        <time>2020-11-05T14:52:05.000Z</time>
      </trkpt>
      <trkpt lat="44.48983" lon="6.25633">
        <ele>1316.4000244141</ele>
        <time>2020-11-05T14:52:08.000Z</time>
      </trkpt>
      <trkpt lat="44.48984" lon="6.25634">
        <ele>1316</ele>
        <time>2020-11-05T14:52:09.000Z</time>
      </trkpt>
      <trkpt lat="44.48985" lon="6.25635">
        <ele>1315.5999755859</ele>
        <time>2020-11-05T14:52:10.000Z</time>
      </trkpt>
      <trkpt lat="44.48986" lon="6.25637">
        <ele>1315.4000244141</ele>
        <time>2020-11-05T14:52:11.000Z</time>
      </trkpt>
      <trkpt lat="44.48989" lon="6.25639">
        <ele>1314.1999511719</ele>
        <time>2020-11-05T14:52:13.000Z</time>
      </trkpt>
      <trkpt lat="44.48997" lon="6.25639">
        <ele>1313.4000244141</ele>
        <time>2020-11-05T14:52:16.000Z</time>
      </trkpt>
      <trkpt lat="44.49001" lon="6.25642">
        <ele>1313</ele>
        <time>2020-11-05T14:52:17.000Z</time>
      </trkpt>
      <trkpt lat="44.49008" lon="6.25646">
        <ele>1312.1999511719</ele>
        <time>2020-11-05T14:52:20.000Z</time>
      </trkpt>
      <trkpt lat="44.49011" lon="6.25647">
        <ele>1311.8000488281</ele>
        <time>2020-11-05T14:52:21.000Z</time>
      </trkpt>
      <trkpt lat="44.49021" lon="6.2565">
        <ele>1310.1999511719</ele>
        <time>2020-11-05T14:52:24.000Z</time>
      </trkpt>
      <trkpt lat="44.49027" lon="6.25653">
        <ele>1309</ele>
        <time>2020-11-05T14:52:27.000Z</time>
      </trkpt>
      <trkpt lat="44.49028" lon="6.25653">
        <ele>1308.5999755859</ele>
        <time>2020-11-05T14:52:28.000Z</time>
      </trkpt>
      <trkpt lat="44.49032" lon="6.25654">
        <ele>1307.5999755859</ele>
        <time>2020-11-05T14:52:30.000Z</time>
      </trkpt>
      <trkpt lat="44.49037" lon="6.25656">
        <ele>1306.8000488281</ele>
        <time>2020-11-05T14:52:32.000Z</time>
      </trkpt>
      <trkpt lat="44.49039" lon="6.25658">
        <ele>1306.4000244141</ele>
        <time>2020-11-05T14:52:33.000Z</time>
      </trkpt>
      <trkpt lat="44.49046" lon="6.25663">
        <ele>1305.8000488281</ele>
        <time>2020-11-05T14:52:38.000Z</time>
      </trkpt>
      <trkpt lat="44.49047" lon="6.25663">
        <ele>1305.1999511719</ele>
        <time>2020-11-05T14:52:40.000Z</time>
      </trkpt>
      <trkpt lat="44.49048" lon="6.25664">
        <ele>1304.1999511719</ele>
        <time>2020-11-05T14:52:43.000Z</time>
      </trkpt>
      <trkpt lat="44.49053" lon="6.25667">
        <ele>1303.8000488281</ele>
        <time>2020-11-05T14:52:46.000Z</time>
      </trkpt>
      <trkpt lat="44.4906" lon="6.2567">
        <ele>1303.5999755859</ele>
        <time>2020-11-05T14:52:52.000Z</time>
      </trkpt>
      <trkpt lat="44.49059" lon="6.25671">
        <ele>1303.8000488281</ele>
        <time>2020-11-05T14:53:00.000Z</time>
      </trkpt>
      <trkpt lat="44.49062" lon="6.25675">
        <ele>1304</ele>
        <time>2020-11-05T14:53:11.000Z</time>
      </trkpt>
      <trkpt lat="44.49065" lon="6.25678">
        <ele>1305.1999511719</ele>
        <time>2020-11-05T14:53:20.000Z</time>
      </trkpt>
      <trkpt lat="44.49065" lon="6.25678">
        <ele>1305.1999511719</ele>
        <time>2020-11-05T14:53:21.000Z</time>
      </trkpt>
      <trkpt lat="44.49065" lon="6.25678">
        <ele>1305.4000244141</ele>
        <time>2020-11-05T14:53:34.000Z</time>
      </trkpt>
      <trkpt lat="44.49064" lon="6.25678">
        <ele>1305</ele>
        <time>2020-11-05T14:53:48.000Z</time>
      </trkpt>
      <trkpt lat="44.49064" lon="6.25673">
        <ele>1305</ele>
        <time>2020-11-05T14:54:04.000Z</time>
      </trkpt>
      <trkpt lat="44.49067" lon="6.25674">
        <ele>1304.4000244141</ele>
        <time>2020-11-05T14:54:18.000Z</time>
      </trkpt>
      <trkpt lat="44.49066" lon="6.25679">
        <ele>1305.8000488281</ele>
        <time>2020-11-05T14:54:35.000Z</time>
      </trkpt>
      <trkpt lat="44.49066" lon="6.2568">
        <ele>1306</ele>
        <time>2020-11-05T14:54:42.000Z</time>
      </trkpt>
      <trkpt lat="44.49066" lon="6.2568">
        <ele>1306</ele>
        <time>2020-11-05T14:54:51.000Z</time>
      </trkpt>
      <trkpt lat="44.49066" lon="6.25681">
        <ele>1305.8000488281</ele>
        <time>2020-11-05T14:55:35.000Z</time>
      </trkpt>
      <trkpt lat="44.49069" lon="6.25685">
        <ele>1306.8000488281</ele>
        <time>2020-11-05T14:55:47.000Z</time>
      </trkpt>
      <trkpt lat="44.49072" lon="6.25686">
        <ele>1307</ele>
        <time>2020-11-05T14:55:51.000Z</time>
      </trkpt>
      <trkpt lat="44.49074" lon="6.25688">
        <ele>1307.8000488281</ele>
        <time>2020-11-05T14:55:56.000Z</time>
      </trkpt>
      <trkpt lat="44.49075" lon="6.25689">
        <ele>1308.5999755859</ele>
        <time>2020-11-05T14:56:00.000Z</time>
      </trkpt>
      <trkpt lat="44.49075" lon="6.25689">
        <ele>1308.8000488281</ele>
        <time>2020-11-05T14:56:01.000Z</time>
      </trkpt>
      <trkpt lat="44.49075" lon="6.25689">
        <ele>1310</ele>
        <time>2020-11-05T14:56:07.000Z</time>
      </trkpt>
      <trkpt lat="44.49076" lon="6.2569">
        <ele>1310.4000244141</ele>
        <time>2020-11-05T14:56:16.000Z</time>
      </trkpt>
      <trkpt lat="44.49077" lon="6.2569">
        <ele>1311</ele>
        <time>2020-11-05T14:56:27.000Z</time>
      </trkpt>
      <trkpt lat="44.49079" lon="6.2569">
        <ele>1311.1999511719</ele>
        <time>2020-11-05T14:56:30.000Z</time>
      </trkpt>
      <trkpt lat="44.49082" lon="6.25693">
        <ele>1311.5999755859</ele>
        <time>2020-11-05T14:56:36.000Z</time>
      </trkpt>
      <trkpt lat="44.49085" lon="6.25695">
        <ele>1312.1999511719</ele>
        <time>2020-11-05T14:56:40.000Z</time>
      </trkpt>
      <trkpt lat="44.49087" lon="6.25696">
        <ele>1312.8000488281</ele>
        <time>2020-11-05T14:56:43.000Z</time>
      </trkpt>
      <trkpt lat="44.49088" lon="6.25697">
        <ele>1313.1999511719</ele>
        <time>2020-11-05T14:56:45.000Z</time>
      </trkpt>
      <trkpt lat="44.49088" lon="6.25699">
        <ele>1313.5999755859</ele>
        <time>2020-11-05T14:56:46.000Z</time>
      </trkpt>
      <trkpt lat="44.49089" lon="6.25702">
        <ele>1314</ele>
        <time>2020-11-05T14:56:49.000Z</time>
      </trkpt>
      <trkpt lat="44.4909" lon="6.25703">
        <ele>1314.5999755859</ele>
        <time>2020-11-05T14:56:52.000Z</time>
      </trkpt>
      <trkpt lat="44.4909" lon="6.25703">
        <ele>1314.8000488281</ele>
        <time>2020-11-05T14:56:54.000Z</time>
      </trkpt>
      <trkpt lat="44.4909" lon="6.25703">
        <ele>1315.4000244141</ele>
        <time>2020-11-05T14:57:02.000Z</time>
      </trkpt>
      <trkpt lat="44.49092" lon="6.25705">
        <ele>1315.1999511719</ele>
        <time>2020-11-05T14:57:11.000Z</time>
      </trkpt>
      <trkpt lat="44.49101" lon="6.25707">
        <ele>1315.1999511719</ele>
        <time>2020-11-05T14:57:16.000Z</time>
      </trkpt>
      <trkpt lat="44.49107" lon="6.2571">
        <ele>1315.1999511719</ele>
        <time>2020-11-05T14:57:21.000Z</time>
      </trkpt>
      <trkpt lat="44.4911" lon="6.25712">
        <ele>1314.8000488281</ele>
        <time>2020-11-05T14:57:28.000Z</time>
      </trkpt>
      <trkpt lat="44.49122" lon="6.2572">
        <ele>1314.4000244141</ele>
        <time>2020-11-05T14:57:32.000Z</time>
      </trkpt>
      <trkpt lat="44.49129" lon="6.25726">
        <ele>1313.4000244141</ele>
        <time>2020-11-05T14:57:36.000Z</time>
      </trkpt>
      <trkpt lat="44.4913" lon="6.25727">
        <ele>1312.8000488281</ele>
        <time>2020-11-05T14:57:37.000Z</time>
      </trkpt>
      <trkpt lat="44.49131" lon="6.25727">
        <ele>1312.1999511719</ele>
        <time>2020-11-05T14:57:38.000Z</time>
      </trkpt>
      <trkpt lat="44.49132" lon="6.25728">
        <ele>1310.5999755859</ele>
        <time>2020-11-05T14:57:40.000Z</time>
      </trkpt>
      <trkpt lat="44.49134" lon="6.25729">
        <ele>1309.1999511719</ele>
        <time>2020-11-05T14:57:42.000Z</time>
      </trkpt>
      <trkpt lat="44.49137" lon="6.2573">
        <ele>1308.4000244141</ele>
        <time>2020-11-05T14:57:45.000Z</time>
      </trkpt>
      <trkpt lat="44.49141" lon="6.25732">
        <ele>1308.1999511719</ele>
        <time>2020-11-05T14:57:47.000Z</time>
      </trkpt>
      <trkpt lat="44.49152" lon="6.25735">
        <ele>1307.8000488281</ele>
        <time>2020-11-05T14:57:51.000Z</time>
      </trkpt>
      <trkpt lat="44.49163" lon="6.25737">
        <ele>1307.8000488281</ele>
        <time>2020-11-05T14:57:58.000Z</time>
      </trkpt>
      <trkpt lat="44.49167" lon="6.25738">
        <ele>1307.8000488281</ele>
        <time>2020-11-05T14:57:59.000Z</time>
      </trkpt>
      <trkpt lat="44.49174" lon="6.25737">
        <ele>1308.1999511719</ele>
        <time>2020-11-05T14:58:02.000Z</time>
      </trkpt>
      <trkpt lat="44.49179" lon="6.25737">
        <ele>1309.5999755859</ele>
        <time>2020-11-05T14:58:06.000Z</time>
      </trkpt>
      <trkpt lat="44.49185" lon="6.25737">
        <ele>1310.1999511719</ele>
        <time>2020-11-05T14:58:08.000Z</time>
      </trkpt>
      <trkpt lat="44.49186" lon="6.25738">
        <ele>1310.5999755859</ele>
        <time>2020-11-05T14:58:10.000Z</time>
      </trkpt>
      <trkpt lat="44.4919" lon="6.25739">
        <ele>1311.1999511719</ele>
        <time>2020-11-05T14:58:12.000Z</time>
      </trkpt>
      <trkpt lat="44.49194" lon="6.25738">
        <ele>1311.8000488281</ele>
        <time>2020-11-05T14:58:14.000Z</time>
      </trkpt>
      <trkpt lat="44.49196" lon="6.25738">
        <ele>1312.4000244141</ele>
        <time>2020-11-05T14:58:16.000Z</time>
      </trkpt>
      <trkpt lat="44.49202" lon="6.25738">
        <ele>1312.8000488281</ele>
        <time>2020-11-05T14:58:18.000Z</time>
      </trkpt>
      <trkpt lat="44.49209" lon="6.25739">
        <ele>1314</ele>
        <time>2020-11-05T14:58:21.000Z</time>
      </trkpt>
      <trkpt lat="44.49209" lon="6.25739">
        <ele>1314</ele>
        <time>2020-11-05T14:58:22.000Z</time>
      </trkpt>
      <trkpt lat="44.49213" lon="6.25741">
        <ele>1314.1999511719</ele>
        <time>2020-11-05T14:58:23.000Z</time>
      </trkpt>
      <trkpt lat="44.49218" lon="6.25743">
        <ele>1314.8000488281</ele>
        <time>2020-11-05T14:58:26.000Z</time>
      </trkpt>
      <trkpt lat="44.49222" lon="6.25744">
        <ele>1315</ele>
        <time>2020-11-05T14:58:27.000Z</time>
      </trkpt>
      <trkpt lat="44.49224" lon="6.25745">
        <ele>1315.8000488281</ele>
        <time>2020-11-05T14:58:29.000Z</time>
      </trkpt>
      <trkpt lat="44.49228" lon="6.25747">
        <ele>1316</ele>
        <time>2020-11-05T14:58:30.000Z</time>
      </trkpt>
      <trkpt lat="44.49233" lon="6.25749">
        <ele>1316.8000488281</ele>
        <time>2020-11-05T14:58:33.000Z</time>
      </trkpt>
      <trkpt lat="44.49233" lon="6.25749">
        <ele>1316.8000488281</ele>
        <time>2020-11-05T14:58:34.000Z</time>
      </trkpt>
      <trkpt lat="44.49236" lon="6.2575">
        <ele>1317.1999511719</ele>
        <time>2020-11-05T14:58:35.000Z</time>
      </trkpt>
      <trkpt lat="44.49238" lon="6.25751">
        <ele>1318.1999511719</ele>
        <time>2020-11-05T14:58:38.000Z</time>
      </trkpt>
      <trkpt lat="44.49238" lon="6.25751">
        <ele>1318.5999755859</ele>
        <time>2020-11-05T14:58:39.000Z</time>
      </trkpt>
      <trkpt lat="44.49239" lon="6.25752">
        <ele>1319.4000244141</ele>
        <time>2020-11-05T14:58:41.000Z</time>
      </trkpt>
      <trkpt lat="44.49242" lon="6.25752">
        <ele>1320.4000244141</ele>
        <time>2020-11-05T14:58:44.000Z</time>
      </trkpt>
      <trkpt lat="44.49246" lon="6.25754">
        <ele>1321.1999511719</ele>
        <time>2020-11-05T14:58:50.000Z</time>
      </trkpt>
      <trkpt lat="44.49249" lon="6.25756">
        <ele>1321.5999755859</ele>
        <time>2020-11-05T14:58:53.000Z</time>
      </trkpt>
      <trkpt lat="44.4925" lon="6.25756">
        <ele>1322.4000244141</ele>
        <time>2020-11-05T14:58:57.000Z</time>
      </trkpt>
      <trkpt lat="44.49252" lon="6.25757">
        <ele>1322.5999755859</ele>
        <time>2020-11-05T14:58:59.000Z</time>
      </trkpt>
      <trkpt lat="44.49254" lon="6.25757">
        <ele>1323.1999511719</ele>
        <time>2020-11-05T14:59:06.000Z</time>
      </trkpt>
      <trkpt lat="44.49255" lon="6.25758">
        <ele>1323.1999511719</ele>
        <time>2020-11-05T14:59:16.000Z</time>
      </trkpt>
      <trkpt lat="44.4926" lon="6.2576">
        <ele>1323.1999511719</ele>
        <time>2020-11-05T14:59:25.000Z</time>
      </trkpt>
      <trkpt lat="44.49268" lon="6.25755">
        <ele>1323.8000488281</ele>
        <time>2020-11-05T14:59:33.000Z</time>
      </trkpt>
      <trkpt lat="44.49271" lon="6.25754">
        <ele>1324.4000244141</ele>
        <time>2020-11-05T14:59:35.000Z</time>
      </trkpt>
      <trkpt lat="44.49274" lon="6.25752">
        <ele>1325</ele>
        <time>2020-11-05T14:59:37.000Z</time>
      </trkpt>
      <trkpt lat="44.49274" lon="6.2575">
        <ele>1325.4000244141</ele>
        <time>2020-11-05T14:59:38.000Z</time>
      </trkpt>
      <trkpt lat="44.49277" lon="6.25747">
        <ele>1326.1999511719</ele>
        <time>2020-11-05T14:59:40.000Z</time>
      </trkpt>
      <trkpt lat="44.49279" lon="6.25746">
        <ele>1326.5999755859</ele>
        <time>2020-11-05T14:59:41.000Z</time>
      </trkpt>
      <trkpt lat="44.49285" lon="6.25744">
        <ele>1327.5999755859</ele>
        <time>2020-11-05T14:59:44.000Z</time>
      </trkpt>
      <trkpt lat="44.49287" lon="6.25743">
        <ele>1328.1999511719</ele>
        <time>2020-11-05T14:59:45.000Z</time>
      </trkpt>
      <trkpt lat="44.49289" lon="6.25742">
        <ele>1328.5999755859</ele>
        <time>2020-11-05T14:59:46.000Z</time>
      </trkpt>
      <trkpt lat="44.49292" lon="6.25739">
        <ele>1329.1999511719</ele>
        <time>2020-11-05T14:59:48.000Z</time>
      </trkpt>
      <trkpt lat="44.49294" lon="6.25738">
        <ele>1329.5999755859</ele>
        <time>2020-11-05T14:59:49.000Z</time>
      </trkpt>
      <trkpt lat="44.49297" lon="6.25737">
        <ele>1330.1999511719</ele>
        <time>2020-11-05T14:59:51.000Z</time>
      </trkpt>
      <trkpt lat="44.49302" lon="6.25738">
        <ele>1330.5999755859</ele>
        <time>2020-11-05T14:59:53.000Z</time>
      </trkpt>
      <trkpt lat="44.49304" lon="6.25739">
        <ele>1330.8000488281</ele>
        <time>2020-11-05T14:59:54.000Z</time>
      </trkpt>
      <trkpt lat="44.49313" lon="6.25745">
        <ele>1331</ele>
        <time>2020-11-05T14:59:58.000Z</time>
      </trkpt>
      <trkpt lat="44.49319" lon="6.25743">
        <ele>1331</ele>
        <time>2020-11-05T15:00:01.000Z</time>
      </trkpt>
      <trkpt lat="44.4932" lon="6.25741">
        <ele>1331</ele>
        <time>2020-11-05T15:00:02.000Z</time>
      </trkpt>
      <trkpt lat="44.49329" lon="6.25737">
        <ele>1331.1999511719</ele>
        <time>2020-11-05T15:00:07.000Z</time>
      </trkpt>
      <trkpt lat="44.49332" lon="6.25736">
        <ele>1331.1999511719</ele>
        <time>2020-11-05T15:00:08.000Z</time>
      </trkpt>
      <trkpt lat="44.49341" lon="6.25734">
        <ele>1331</ele>
        <time>2020-11-05T15:00:11.000Z</time>
      </trkpt>
      <trkpt lat="44.49352" lon="6.25734">
        <ele>1331</ele>
        <time>2020-11-05T15:00:16.000Z</time>
      </trkpt>
      <trkpt lat="44.49359" lon="6.25733">
        <ele>1330.8000488281</ele>
        <time>2020-11-05T15:00:21.000Z</time>
      </trkpt>
      <trkpt lat="44.49361" lon="6.25732">
        <ele>1331</ele>
        <time>2020-11-05T15:00:28.000Z</time>
      </trkpt>
      <trkpt lat="44.49361" lon="6.25732">
        <ele>1331.5999755859</ele>
        <time>2020-11-05T15:00:33.000Z</time>
      </trkpt>
      <trkpt lat="44.49361" lon="6.25732">
        <ele>1331.8000488281</ele>
        <time>2020-11-05T15:00:49.000Z</time>
      </trkpt>
      <trkpt lat="44.49361" lon="6.25732">
        <ele>1331.5999755859</ele>
        <time>2020-11-05T15:01:05.000Z</time>
      </trkpt>
      <trkpt lat="44.49361" lon="6.25732">
        <ele>1331.8000488281</ele>
        <time>2020-11-05T15:01:44.000Z</time>
      </trkpt>
      <trkpt lat="44.49362" lon="6.25732">
        <ele>1331.8000488281</ele>
        <time>2020-11-05T15:01:57.000Z</time>
      </trkpt>
      <trkpt lat="44.49363" lon="6.25733">
        <ele>1331.4000244141</ele>
        <time>2020-11-05T15:02:15.000Z</time>
      </trkpt>
      <trkpt lat="44.49363" lon="6.25734">
        <ele>1331.1999511719</ele>
        <time>2020-11-05T15:02:48.000Z</time>
      </trkpt>
      <trkpt lat="44.49364" lon="6.25733">
        <ele>1331.1999511719</ele>
        <time>2020-11-05T15:03:09.000Z</time>
      </trkpt>
      <trkpt lat="44.49365" lon="6.25734">
        <ele>1331.8000488281</ele>
        <time>2020-11-05T15:03:15.000Z</time>
      </trkpt>
      <trkpt lat="44.49369" lon="6.25735">
        <ele>1332.1999511719</ele>
        <time>2020-11-05T15:03:23.000Z</time>
      </trkpt>
      <trkpt lat="44.49374" lon="6.25737">
        <ele>1332.4000244141</ele>
        <time>2020-11-05T15:03:28.000Z</time>
      </trkpt>
      <trkpt lat="44.49378" lon="6.25742">
        <ele>1332.5999755859</ele>
        <time>2020-11-05T15:03:31.000Z</time>
      </trkpt>
      <trkpt lat="44.49381" lon="6.25744">
        <ele>1333.8000488281</ele>
        <time>2020-11-05T15:03:33.000Z</time>
      </trkpt>
      <trkpt lat="44.49382" lon="6.25745">
        <ele>1334.1999511719</ele>
        <time>2020-11-05T15:03:34.000Z</time>
      </trkpt>
      <trkpt lat="44.49383" lon="6.25748">
        <ele>1334.8000488281</ele>
        <time>2020-11-05T15:03:36.000Z</time>
      </trkpt>
      <trkpt lat="44.49383" lon="6.25749">
        <ele>1335.1999511719</ele>
        <time>2020-11-05T15:03:37.000Z</time>
      </trkpt>
      <trkpt lat="44.49383" lon="6.2575">
        <ele>1335.8000488281</ele>
        <time>2020-11-05T15:03:38.000Z</time>
      </trkpt>
      <trkpt lat="44.49384" lon="6.2575">
        <ele>1337</ele>
        <time>2020-11-05T15:03:40.000Z</time>
      </trkpt>
      <trkpt lat="44.49385" lon="6.25752">
        <ele>1338.1999511719</ele>
        <time>2020-11-05T15:03:42.000Z</time>
      </trkpt>
      <trkpt lat="44.49385" lon="6.25752">
        <ele>1339.4000244141</ele>
        <time>2020-11-05T15:03:44.000Z</time>
      </trkpt>
      <trkpt lat="44.49385" lon="6.25752">
        <ele>1340.4000244141</ele>
        <time>2020-11-05T15:03:50.000Z</time>
      </trkpt>
      <trkpt lat="44.49384" lon="6.25751">
        <ele>1340.4000244141</ele>
        <time>2020-11-05T15:04:26.000Z</time>
      </trkpt>
      <trkpt lat="44.4938" lon="6.25749">
        <ele>1340.1999511719</ele>
        <time>2020-11-05T15:04:34.000Z</time>
      </trkpt>
      <trkpt lat="44.49381" lon="6.25743">
        <ele>1339.4000244141</ele>
        <time>2020-11-05T15:04:39.000Z</time>
      </trkpt>
      <trkpt lat="44.49381" lon="6.25742">
        <ele>1339.1999511719</ele>
        <time>2020-11-05T15:04:40.000Z</time>
      </trkpt>
      <trkpt lat="44.49379" lon="6.25738">
        <ele>1338.1999511719</ele>
        <time>2020-11-05T15:04:45.000Z</time>
      </trkpt>
      <trkpt lat="44.49379" lon="6.25737">
        <ele>1338.1999511719</ele>
        <time>2020-11-05T15:04:46.000Z</time>
      </trkpt>
      <trkpt lat="44.49376" lon="6.25736">
        <ele>1337.1999511719</ele>
        <time>2020-11-05T15:04:51.000Z</time>
      </trkpt>
      <trkpt lat="44.49373" lon="6.25735">
        <ele>1335.5999755859</ele>
        <time>2020-11-05T15:04:55.000Z</time>
      </trkpt>
      <trkpt lat="44.4937" lon="6.25733">
        <ele>1334.4000244141</ele>
        <time>2020-11-05T15:05:00.000Z</time>
      </trkpt>
      <trkpt lat="44.49368" lon="6.25733">
        <ele>1333.1999511719</ele>
        <time>2020-11-05T15:05:05.000Z</time>
      </trkpt>
      <trkpt lat="44.49368" lon="6.25735">
        <ele>1332</ele>
        <time>2020-11-05T15:05:15.000Z</time>
      </trkpt>
      <trkpt lat="44.49368" lon="6.25735">
        <ele>1332</ele>
        <time>2020-11-05T15:05:20.000Z</time>
      </trkpt>
      <trkpt lat="44.49367" lon="6.25735">
        <ele>1332</ele>
        <time>2020-11-05T15:05:34.000Z</time>
      </trkpt>
      <trkpt lat="44.49366" lon="6.25734">
        <ele>1331.8000488281</ele>
        <time>2020-11-05T15:05:52.000Z</time>
      </trkpt>
      <trkpt lat="44.49364" lon="6.25728">
        <ele>1331.8000488281</ele>
        <time>2020-11-05T15:06:00.000Z</time>
      </trkpt>
      <trkpt lat="44.49358" lon="6.25721">
        <ele>1331.8000488281</ele>
        <time>2020-11-05T15:06:05.000Z</time>
      </trkpt>
      <trkpt lat="44.49359" lon="6.25715">
        <ele>1331</ele>
        <time>2020-11-05T15:06:10.000Z</time>
      </trkpt>
      <trkpt lat="44.49359" lon="6.25712">
        <ele>1330.5999755859</ele>
        <time>2020-11-05T15:06:11.000Z</time>
      </trkpt>
      <trkpt lat="44.49361" lon="6.25699">
        <ele>1329.8000488281</ele>
        <time>2020-11-05T15:06:14.000Z</time>
      </trkpt>
      <trkpt lat="44.49361" lon="6.25695">
        <ele>1329.4000244141</ele>
        <time>2020-11-05T15:06:15.000Z</time>
      </trkpt>
      <trkpt lat="44.49362" lon="6.25682">
        <ele>1328.1999511719</ele>
        <time>2020-11-05T15:06:19.000Z</time>
      </trkpt>
      <trkpt lat="44.49363" lon="6.25677">
        <ele>1326.8000488281</ele>
        <time>2020-11-05T15:06:21.000Z</time>
      </trkpt>
      <trkpt lat="44.49364" lon="6.25668">
        <ele>1326</ele>
        <time>2020-11-05T15:06:23.000Z</time>
      </trkpt>
      <trkpt lat="44.49364" lon="6.25665">
        <ele>1325.4000244141</ele>
        <time>2020-11-05T15:06:24.000Z</time>
      </trkpt>
      <trkpt lat="44.49364" lon="6.25654">
        <ele>1324.4000244141</ele>
        <time>2020-11-05T15:06:27.000Z</time>
      </trkpt>
      <trkpt lat="44.49364" lon="6.25652">
        <ele>1324</ele>
        <time>2020-11-05T15:06:28.000Z</time>
      </trkpt>
      <trkpt lat="44.49365" lon="6.2565">
        <ele>1322.8000488281</ele>
        <time>2020-11-05T15:06:30.000Z</time>
      </trkpt>
      <trkpt lat="44.49365" lon="6.25649">
        <ele>1321.5999755859</ele>
        <time>2020-11-05T15:06:32.000Z</time>
      </trkpt>
      <trkpt lat="44.49367" lon="6.25646">
        <ele>1320</ele>
        <time>2020-11-05T15:06:34.000Z</time>
      </trkpt>
      <trkpt lat="44.49367" lon="6.25644">
        <ele>1319.4000244141</ele>
        <time>2020-11-05T15:06:35.000Z</time>
      </trkpt>
      <trkpt lat="44.49367" lon="6.25644">
        <ele>1318.8000488281</ele>
        <time>2020-11-05T15:06:36.000Z</time>
      </trkpt>
      <trkpt lat="44.49368" lon="6.25641">
        <ele>1317.5999755859</ele>
        <time>2020-11-05T15:06:40.000Z</time>
      </trkpt>
      <trkpt lat="44.49368" lon="6.25639">
        <ele>1317.5999755859</ele>
        <time>2020-11-05T15:06:41.000Z</time>
      </trkpt>
      <trkpt lat="44.49368" lon="6.25637">
        <ele>1317.4000244141</ele>
        <time>2020-11-05T15:06:46.000Z</time>
      </trkpt>
      <trkpt lat="44.49368" lon="6.25636">
        <ele>1317.4000244141</ele>
        <time>2020-11-05T15:06:48.000Z</time>
      </trkpt>
      <trkpt lat="44.49368" lon="6.25634">
        <ele>1316.5999755859</ele>
        <time>2020-11-05T15:06:51.000Z</time>
      </trkpt>
      <trkpt lat="44.49368" lon="6.25632">
        <ele>1316.4000244141</ele>
        <time>2020-11-05T15:06:54.000Z</time>
      </trkpt>
      <trkpt lat="44.49367" lon="6.25629">
        <ele>1316.1999511719</ele>
        <time>2020-11-05T15:07:01.000Z</time>
      </trkpt>
      <trkpt lat="44.49367" lon="6.25627">
        <ele>1316.1999511719</ele>
        <time>2020-11-05T15:07:03.000Z</time>
      </trkpt>
      <trkpt lat="44.49366" lon="6.25622">
        <ele>1315.5999755859</ele>
        <time>2020-11-05T15:07:08.000Z</time>
      </trkpt>
      <trkpt lat="44.49366" lon="6.25619">
        <ele>1314.1999511719</ele>
        <time>2020-11-05T15:07:12.000Z</time>
      </trkpt>
      <trkpt lat="44.49365" lon="6.25616">
        <ele>1313.1999511719</ele>
        <time>2020-11-05T15:07:16.000Z</time>
      </trkpt>
      <trkpt lat="44.49365" lon="6.25616">
        <ele>1312.8000488281</ele>
        <time>2020-11-05T15:07:18.000Z</time>
      </trkpt>
      <trkpt lat="44.49365" lon="6.25609">
        <ele>1312</ele>
        <time>2020-11-05T15:07:26.000Z</time>
      </trkpt>
      <trkpt lat="44.49365" lon="6.25604">
        <ele>1311.1999511719</ele>
        <time>2020-11-05T15:07:31.000Z</time>
      </trkpt>
      <trkpt lat="44.49366" lon="6.25603">
        <ele>1311</ele>
        <time>2020-11-05T15:07:32.000Z</time>
      </trkpt>
      <trkpt lat="44.49366" lon="6.25602">
        <ele>1310.8000488281</ele>
        <time>2020-11-05T15:07:33.000Z</time>
      </trkpt>
      <trkpt lat="44.49365" lon="6.25597">
        <ele>1309.8000488281</ele>
        <time>2020-11-05T15:07:38.000Z</time>
      </trkpt>
      <trkpt lat="44.49364" lon="6.25594">
        <ele>1309.5999755859</ele>
        <time>2020-11-05T15:07:41.000Z</time>
      </trkpt>
      <trkpt lat="44.49364" lon="6.25589">
        <ele>1308.4000244141</ele>
        <time>2020-11-05T15:07:45.000Z</time>
      </trkpt>
      <trkpt lat="44.49365" lon="6.25587">
        <ele>1308.1999511719</ele>
        <time>2020-11-05T15:07:47.000Z</time>
      </trkpt>
      <trkpt lat="44.49366" lon="6.25586">
        <ele>1307.4000244141</ele>
        <time>2020-11-05T15:07:49.000Z</time>
      </trkpt>
      <trkpt lat="44.49366" lon="6.25585">
        <ele>1306.1999511719</ele>
        <time>2020-11-05T15:07:53.000Z</time>
      </trkpt>
      <trkpt lat="44.49365" lon="6.25583">
        <ele>1305.8000488281</ele>
        <time>2020-11-05T15:07:55.000Z</time>
      </trkpt>
      <trkpt lat="44.49365" lon="6.25581">
        <ele>1305.8000488281</ele>
        <time>2020-11-05T15:07:56.000Z</time>
      </trkpt>
      <trkpt lat="44.49366" lon="6.25574">
        <ele>1305.5999755859</ele>
        <time>2020-11-05T15:08:00.000Z</time>
      </trkpt>
      <trkpt lat="44.49366" lon="6.25567">
        <ele>1304.8000488281</ele>
        <time>2020-11-05T15:08:06.000Z</time>
      </trkpt>
      <trkpt lat="44.49366" lon="6.25567">
        <ele>1303.5999755859</ele>
        <time>2020-11-05T15:08:09.000Z</time>
      </trkpt>
      <trkpt lat="44.49366" lon="6.25565">
        <ele>1301.5999755859</ele>
        <time>2020-11-05T15:08:13.000Z</time>
      </trkpt>
      <trkpt lat="44.49366" lon="6.25565">
        <ele>1301.1999511719</ele>
        <time>2020-11-05T15:08:14.000Z</time>
      </trkpt>
      <trkpt lat="44.49366" lon="6.25565">
        <ele>1300.5999755859</ele>
        <time>2020-11-05T15:08:18.000Z</time>
      </trkpt>
      <trkpt lat="44.49366" lon="6.25565">
        <ele>1300.4000244141</ele>
        <time>2020-11-05T15:08:32.000Z</time>
      </trkpt>
      <trkpt lat="44.49365" lon="6.25563">
        <ele>1300.4000244141</ele>
        <time>2020-11-05T15:08:37.000Z</time>
      </trkpt>
      <trkpt lat="44.49366" lon="6.25563">
        <ele>1300.1999511719</ele>
        <time>2020-11-05T15:08:38.000Z</time>
      </trkpt>
      <trkpt lat="44.49366" lon="6.25561">
        <ele>1300.1999511719</ele>
        <time>2020-11-05T15:08:44.000Z</time>
      </trkpt>
      <trkpt lat="44.49366" lon="6.25561">
        <ele>1300.1999511719</ele>
        <time>2020-11-05T15:08:52.000Z</time>
      </trkpt>
      <trkpt lat="44.49365" lon="6.25561">
        <ele>1300.1999511719</ele>
        <time>2020-11-05T15:09:01.000Z</time>
      </trkpt>
      <trkpt lat="44.49365" lon="6.25561">
        <ele>1300.1999511719</ele>
        <time>2020-11-05T15:09:11.000Z</time>
      </trkpt>
      <trkpt lat="44.49367" lon="6.25557">
        <ele>1300.1999511719</ele>
        <time>2020-11-05T15:09:16.000Z</time>
      </trkpt>
      <trkpt lat="44.49368" lon="6.25555">
        <ele>1300.1999511719</ele>
        <time>2020-11-05T15:09:18.000Z</time>
      </trkpt>
      <trkpt lat="44.49372" lon="6.25542">
        <ele>1299.8000488281</ele>
        <time>2020-11-05T15:09:23.000Z</time>
      </trkpt>
      <trkpt lat="44.49373" lon="6.25537">
        <ele>1299.4000244141</ele>
        <time>2020-11-05T15:09:25.000Z</time>
      </trkpt>
      <trkpt lat="44.49375" lon="6.25536">
        <ele>1299</ele>
        <time>2020-11-05T15:09:26.000Z</time>
      </trkpt>
      <trkpt lat="44.49378" lon="6.25531">
        <ele>1298.1999511719</ele>
        <time>2020-11-05T15:09:28.000Z</time>
      </trkpt>
      <trkpt lat="44.49379" lon="6.25529">
        <ele>1297.8000488281</ele>
        <time>2020-11-05T15:09:29.000Z</time>
      </trkpt>
      <trkpt lat="44.4938" lon="6.25526">
        <ele>1297.1999511719</ele>
        <time>2020-11-05T15:09:30.000Z</time>
      </trkpt>
      <trkpt lat="44.49382" lon="6.25523">
        <ele>1296.1999511719</ele>
        <time>2020-11-05T15:09:32.000Z</time>
      </trkpt>
      <trkpt lat="44.49385" lon="6.25522">
        <ele>1295.1999511719</ele>
        <time>2020-11-05T15:09:34.000Z</time>
      </trkpt>
      <trkpt lat="44.49386" lon="6.25521">
        <ele>1294.8000488281</ele>
        <time>2020-11-05T15:09:35.000Z</time>
      </trkpt>
      <trkpt lat="44.49388" lon="6.25519">
        <ele>1294.4000244141</ele>
        <time>2020-11-05T15:09:36.000Z</time>
      </trkpt>
      <trkpt lat="44.4939" lon="6.25516">
        <ele>1293.5999755859</ele>
        <time>2020-11-05T15:09:37.000Z</time>
      </trkpt>
      <trkpt lat="44.49392" lon="6.25514">
        <ele>1293.1999511719</ele>
        <time>2020-11-05T15:09:38.000Z</time>
      </trkpt>
      <trkpt lat="44.49397" lon="6.25508">
        <ele>1292.5999755859</ele>
        <time>2020-11-05T15:09:41.000Z</time>
      </trkpt>
      <trkpt lat="44.49399" lon="6.25507">
        <ele>1292.4000244141</ele>
        <time>2020-11-05T15:09:42.000Z</time>
      </trkpt>
      <trkpt lat="44.49407" lon="6.2551">
        <ele>1291.5999755859</ele>
        <time>2020-11-05T15:09:46.000Z</time>
      </trkpt>
      <trkpt lat="44.49408" lon="6.25512">
        <ele>1291.1999511719</ele>
        <time>2020-11-05T15:09:47.000Z</time>
      </trkpt>
      <trkpt lat="44.49417" lon="6.25523">
        <ele>1290.8000488281</ele>
        <time>2020-11-05T15:09:53.000Z</time>
      </trkpt>
      <trkpt lat="44.49431" lon="6.25541">
        <ele>1292.1999511719</ele>
        <time>2020-11-05T15:10:02.000Z</time>
      </trkpt>
      <trkpt lat="44.49433" lon="6.25543">
        <ele>1292.4000244141</ele>
        <time>2020-11-05T15:10:03.000Z</time>
      </trkpt>
      <trkpt lat="44.49436" lon="6.25547">
        <ele>1293.5999755859</ele>
        <time>2020-11-05T15:10:05.000Z</time>
      </trkpt>
      <trkpt lat="44.49441" lon="6.25553">
        <ele>1294.5999755859</ele>
        <time>2020-11-05T15:10:08.000Z</time>
      </trkpt>
      <trkpt lat="44.49444" lon="6.25557">
        <ele>1295.4000244141</ele>
        <time>2020-11-05T15:10:10.000Z</time>
      </trkpt>
      <trkpt lat="44.49446" lon="6.25559">
        <ele>1295.5999755859</ele>
        <time>2020-11-05T15:10:11.000Z</time>
      </trkpt>
      <trkpt lat="44.4945" lon="6.25565">
        <ele>1296.8000488281</ele>
        <time>2020-11-05T15:10:14.000Z</time>
      </trkpt>
      <trkpt lat="44.49453" lon="6.25568">
        <ele>1297.4000244141</ele>
        <time>2020-11-05T15:10:16.000Z</time>
      </trkpt>
      <trkpt lat="44.49457" lon="6.25572">
        <ele>1298</ele>
        <time>2020-11-05T15:10:18.000Z</time>
      </trkpt>
      <trkpt lat="44.49463" lon="6.25581">
        <ele>1299</ele>
        <time>2020-11-05T15:10:22.000Z</time>
      </trkpt>
      <trkpt lat="44.49465" lon="6.25586">
        <ele>1299.5999755859</ele>
        <time>2020-11-05T15:10:24.000Z</time>
      </trkpt>
      <trkpt lat="44.49467" lon="6.25589">
        <ele>1300</ele>
        <time>2020-11-05T15:10:25.000Z</time>
      </trkpt>
      <trkpt lat="44.4947" lon="6.256">
        <ele>1301</ele>
        <time>2020-11-05T15:10:28.000Z</time>
      </trkpt>
      <trkpt lat="44.49473" lon="6.25607">
        <ele>1301.5999755859</ele>
        <time>2020-11-05T15:10:30.000Z</time>
      </trkpt>
      <trkpt lat="44.49474" lon="6.2561">
        <ele>1302</ele>
        <time>2020-11-05T15:10:31.000Z</time>
      </trkpt>
      <trkpt lat="44.49483" lon="6.25621">
        <ele>1302.5999755859</ele>
        <time>2020-11-05T15:10:36.000Z</time>
      </trkpt>
      <trkpt lat="44.49488" lon="6.25625">
        <ele>1303</ele>
        <time>2020-11-05T15:10:38.000Z</time>
      </trkpt>
      <trkpt lat="44.49501" lon="6.25635">
        <ele>1304</ele>
        <time>2020-11-05T15:10:43.000Z</time>
      </trkpt>
      <trkpt lat="44.49503" lon="6.25638">
        <ele>1304.4000244141</ele>
        <time>2020-11-05T15:10:44.000Z</time>
      </trkpt>
      <trkpt lat="44.4951" lon="6.25646">
        <ele>1305.1999511719</ele>
        <time>2020-11-05T15:10:47.000Z</time>
      </trkpt>
      <trkpt lat="44.49518" lon="6.25654">
        <ele>1306</ele>
        <time>2020-11-05T15:10:50.000Z</time>
      </trkpt>
      <trkpt lat="44.49523" lon="6.25659">
        <ele>1306.4000244141</ele>
        <time>2020-11-05T15:10:52.000Z</time>
      </trkpt>
      <trkpt lat="44.49536" lon="6.25673">
        <ele>1307.4000244141</ele>
        <time>2020-11-05T15:10:57.000Z</time>
      </trkpt>
      <trkpt lat="44.49542" lon="6.25679">
        <ele>1308</ele>
        <time>2020-11-05T15:10:59.000Z</time>
      </trkpt>
      <trkpt lat="44.49558" lon="6.25697">
        <ele>1308.4000244141</ele>
        <time>2020-11-05T15:11:05.000Z</time>
      </trkpt>
      <trkpt lat="44.49567" lon="6.25708">
        <ele>1308.5999755859</ele>
        <time>2020-11-05T15:11:08.000Z</time>
      </trkpt>
      <trkpt lat="44.4959" lon="6.25734">
        <ele>1309.1999511719</ele>
        <time>2020-11-05T15:11:16.000Z</time>
      </trkpt>
      <trkpt lat="44.49596" lon="6.25741">
        <ele>1309.5999755859</ele>
        <time>2020-11-05T15:11:18.000Z</time>
      </trkpt>
      <trkpt lat="44.49607" lon="6.25754">
        <ele>1310.8000488281</ele>
        <time>2020-11-05T15:11:22.000Z</time>
      </trkpt>
      <trkpt lat="44.4961" lon="6.25757">
        <ele>1311.4000244141</ele>
        <time>2020-11-05T15:11:23.000Z</time>
      </trkpt>
      <trkpt lat="44.4962" lon="6.25768">
        <ele>1312.1999511719</ele>
        <time>2020-11-05T15:11:26.000Z</time>
      </trkpt>
      <trkpt lat="44.49628" lon="6.25775">
        <ele>1313.4000244141</ele>
        <time>2020-11-05T15:11:28.000Z</time>
      </trkpt>
      <trkpt lat="44.49655" lon="6.25796">
        <ele>1313.5999755859</ele>
        <time>2020-11-05T15:11:33.000Z</time>
      </trkpt>
      <trkpt lat="44.49661" lon="6.25803">
        <ele>1313.5999755859</ele>
        <time>2020-11-05T15:11:34.000Z</time>
      </trkpt>
      <trkpt lat="44.49684" lon="6.25831">
        <ele>1313.5999755859</ele>
        <time>2020-11-05T15:11:38.000Z</time>
      </trkpt>
      <trkpt lat="44.49702" lon="6.25851">
        <ele>1311.5999755859</ele>
        <time>2020-11-05T15:11:41.000Z</time>
      </trkpt>
      <trkpt lat="44.4971" lon="6.25856">
        <ele>1310.8000488281</ele>
        <time>2020-11-05T15:11:42.000Z</time>
      </trkpt>
      <trkpt lat="44.49717" lon="6.25861">
        <ele>1310.1999511719</ele>
        <time>2020-11-05T15:11:43.000Z</time>
      </trkpt>
      <trkpt lat="44.4973" lon="6.25874">
        <ele>1308.4000244141</ele>
        <time>2020-11-05T15:11:45.000Z</time>
      </trkpt>
      <trkpt lat="44.49736" lon="6.25881">
        <ele>1308</ele>
        <time>2020-11-05T15:11:46.000Z</time>
      </trkpt>
      <trkpt lat="44.49747" lon="6.25896">
        <ele>1307.4000244141</ele>
        <time>2020-11-05T15:11:48.000Z</time>
      </trkpt>
      <trkpt lat="44.49757" lon="6.2591">
        <ele>1305.8000488281</ele>
        <time>2020-11-05T15:11:50.000Z</time>
      </trkpt>
      <trkpt lat="44.49766" lon="6.25923">
        <ele>1304.4000244141</ele>
        <time>2020-11-05T15:11:52.000Z</time>
      </trkpt>
      <trkpt lat="44.4977" lon="6.25929">
        <ele>1304.1999511719</ele>
        <time>2020-11-05T15:11:53.000Z</time>
      </trkpt>
      <trkpt lat="44.49802" lon="6.2598">
        <ele>1303.5999755859</ele>
        <time>2020-11-05T15:12:01.000Z</time>
      </trkpt>
      <trkpt lat="44.49826" lon="6.26018">
        <ele>1303.5999755859</ele>
        <time>2020-11-05T15:12:07.000Z</time>
      </trkpt>
      <trkpt lat="44.49833" lon="6.26029">
        <ele>1303.1999511719</ele>
        <time>2020-11-05T15:12:09.000Z</time>
      </trkpt>
      <trkpt lat="44.49837" lon="6.26036">
        <ele>1302.5999755859</ele>
        <time>2020-11-05T15:12:10.000Z</time>
      </trkpt>
      <trkpt lat="44.49843" lon="6.26051">
        <ele>1302.4000244141</ele>
        <time>2020-11-05T15:12:12.000Z</time>
      </trkpt>
      <trkpt lat="44.49852" lon="6.26076">
        <ele>1302</ele>
        <time>2020-11-05T15:12:15.000Z</time>
      </trkpt>
      <trkpt lat="44.49863" lon="6.26101">
        <ele>1301.5999755859</ele>
        <time>2020-11-05T15:12:18.000Z</time>
      </trkpt>
      <trkpt lat="44.49871" lon="6.26123">
        <ele>1300.8000488281</ele>
        <time>2020-11-05T15:12:21.000Z</time>
      </trkpt>
      <trkpt lat="44.49875" lon="6.26135">
        <ele>1299.5999755859</ele>
        <time>2020-11-05T15:12:23.000Z</time>
      </trkpt>
      <trkpt lat="44.49879" lon="6.26149">
        <ele>1299</ele>
        <time>2020-11-05T15:12:27.000Z</time>
      </trkpt>
      <trkpt lat="44.49879" lon="6.26166">
        <ele>1298.5999755859</ele>
        <time>2020-11-05T15:12:34.000Z</time>
      </trkpt>
      <trkpt lat="44.49881" lon="6.26183">
        <ele>1298.5999755859</ele>
        <time>2020-11-05T15:12:37.000Z</time>
      </trkpt>
      <trkpt lat="44.49883" lon="6.26191">
        <ele>1298.4000244141</ele>
        <time>2020-11-05T15:12:38.000Z</time>
      </trkpt>
      <trkpt lat="44.49887" lon="6.26218">
        <ele>1297.5999755859</ele>
        <time>2020-11-05T15:12:41.000Z</time>
      </trkpt>
      <trkpt lat="44.49893" lon="6.26235">
        <ele>1297.1999511719</ele>
        <time>2020-11-05T15:12:43.000Z</time>
      </trkpt>
      <trkpt lat="44.49897" lon="6.26246">
        <ele>1296</ele>
        <time>2020-11-05T15:12:45.000Z</time>
      </trkpt>
      <trkpt lat="44.49897" lon="6.26251">
        <ele>1294.5999755859</ele>
        <time>2020-11-05T15:12:47.000Z</time>
      </trkpt>
      <trkpt lat="44.49896" lon="6.26251">
        <ele>1293.5999755859</ele>
        <time>2020-11-05T15:12:48.000Z</time>
      </trkpt>
      <trkpt lat="44.49896" lon="6.26251">
        <ele>1292.8000488281</ele>
        <time>2020-11-05T15:12:49.000Z</time>
      </trkpt>
      <trkpt lat="44.49896" lon="6.26251">
        <ele>1291.1999511719</ele>
        <time>2020-11-05T15:12:50.000Z</time>
      </trkpt>
      <trkpt lat="44.49896" lon="6.26251">
        <ele>1290</ele>
        <time>2020-11-05T15:12:54.000Z</time>
      </trkpt>
      <trkpt lat="44.49896" lon="6.26251">
        <ele>1289.5999755859</ele>
        <time>2020-11-05T15:13:01.000Z</time>
      </trkpt>
      <trkpt lat="44.49897" lon="6.26251">
        <ele>1289.5999755859</ele>
        <time>2020-11-05T15:13:08.000Z</time>
      </trkpt>
      <trkpt lat="44.49898" lon="6.26247">
        <ele>1289.5999755859</ele>
        <time>2020-11-05T15:13:11.000Z</time>
      </trkpt>
      <trkpt lat="44.49899" lon="6.26243">
        <ele>1289.5999755859</ele>
        <time>2020-11-05T15:13:13.000Z</time>
      </trkpt>
      <trkpt lat="44.49906" lon="6.26243">
        <ele>1289.8000488281</ele>
        <time>2020-11-05T15:13:17.000Z</time>
      </trkpt>
      <trkpt lat="44.49908" lon="6.2624">
        <ele>1289.8000488281</ele>
        <time>2020-11-05T15:13:19.000Z</time>
      </trkpt>
      <trkpt lat="44.49914" lon="6.26236">
        <ele>1289.8000488281</ele>
        <time>2020-11-05T15:13:22.000Z</time>
      </trkpt>
      <trkpt lat="44.49932" lon="6.26234">
        <ele>1289.4000244141</ele>
        <time>2020-11-05T15:13:28.000Z</time>
      </trkpt>
      <trkpt lat="44.49957" lon="6.26229">
        <ele>1289.1999511719</ele>
        <time>2020-11-05T15:13:35.000Z</time>
      </trkpt>
      <trkpt lat="44.49983" lon="6.26219">
        <ele>1290.5999755859</ele>
        <time>2020-11-05T15:13:41.000Z</time>
      </trkpt>
      <trkpt lat="44.49987" lon="6.26218">
        <ele>1291</ele>
        <time>2020-11-05T15:13:42.000Z</time>
      </trkpt>
      <trkpt lat="44.5" lon="6.26219">
        <ele>1292.4000244141</ele>
        <time>2020-11-05T15:13:45.000Z</time>
      </trkpt>
      <trkpt lat="44.50035" lon="6.26226">
        <ele>1293</ele>
        <time>2020-11-05T15:13:52.000Z</time>
      </trkpt>
      <trkpt lat="44.50041" lon="6.26227">
        <ele>1293</ele>
        <time>2020-11-05T15:13:53.000Z</time>
      </trkpt>
      <trkpt lat="44.50062" lon="6.26223">
        <ele>1293</ele>
        <time>2020-11-05T15:13:56.000Z</time>
      </trkpt>
      <trkpt lat="44.5007" lon="6.26221">
        <ele>1292.8000488281</ele>
        <time>2020-11-05T15:13:57.000Z</time>
      </trkpt>
      <trkpt lat="44.50091" lon="6.26207">
        <ele>1291.8000488281</ele>
        <time>2020-11-05T15:14:00.000Z</time>
      </trkpt>
      <trkpt lat="44.50097" lon="6.262">
        <ele>1291.4000244141</ele>
        <time>2020-11-05T15:14:01.000Z</time>
      </trkpt>
      <trkpt lat="44.50103" lon="6.26194">
        <ele>1290.8000488281</ele>
        <time>2020-11-05T15:14:02.000Z</time>
      </trkpt>
      <trkpt lat="44.50111" lon="6.26183">
        <ele>1289.1999511719</ele>
        <time>2020-11-05T15:14:04.000Z</time>
      </trkpt>
      <trkpt lat="44.50115" lon="6.26177">
        <ele>1288.1999511719</ele>
        <time>2020-11-05T15:14:05.000Z</time>
      </trkpt>
      <trkpt lat="44.50118" lon="6.26173">
        <ele>1287.8000488281</ele>
        <time>2020-11-05T15:14:06.000Z</time>
      </trkpt>
      <trkpt lat="44.50129" lon="6.2615">
        <ele>1287.4000244141</ele>
        <time>2020-11-05T15:14:11.000Z</time>
      </trkpt>
      <trkpt lat="44.50138" lon="6.26133">
        <ele>1287.8000488281</ele>
        <time>2020-11-05T15:14:15.000Z</time>
      </trkpt>
      <trkpt lat="44.50144" lon="6.26121">
        <ele>1289</ele>
        <time>2020-11-05T15:14:18.000Z</time>
      </trkpt>
      <trkpt lat="44.50146" lon="6.26117">
        <ele>1289.4000244141</ele>
        <time>2020-11-05T15:14:19.000Z</time>
      </trkpt>
      <trkpt lat="44.5015" lon="6.2611">
        <ele>1290</ele>
        <time>2020-11-05T15:14:21.000Z</time>
      </trkpt>
      <trkpt lat="44.50155" lon="6.26098">
        <ele>1291.4000244141</ele>
        <time>2020-11-05T15:14:24.000Z</time>
      </trkpt>
      <trkpt lat="44.50158" lon="6.2609">
        <ele>1292</ele>
        <time>2020-11-05T15:14:26.000Z</time>
      </trkpt>
      <trkpt lat="44.5016" lon="6.26085">
        <ele>1292.4000244141</ele>
        <time>2020-11-05T15:14:27.000Z</time>
      </trkpt>
      <trkpt lat="44.50164" lon="6.2607">
        <ele>1293.8000488281</ele>
        <time>2020-11-05T15:14:30.000Z</time>
      </trkpt>
      <trkpt lat="44.50166" lon="6.26059">
        <ele>1294.5999755859</ele>
        <time>2020-11-05T15:14:32.000Z</time>
      </trkpt>
      <trkpt lat="44.50167" lon="6.26052">
        <ele>1295</ele>
        <time>2020-11-05T15:14:33.000Z</time>
      </trkpt>
      <trkpt lat="44.50169" lon="6.26035">
        <ele>1296.1999511719</ele>
        <time>2020-11-05T15:14:36.000Z</time>
      </trkpt>
      <trkpt lat="44.5017" lon="6.26027">
        <ele>1296.4000244141</ele>
        <time>2020-11-05T15:14:38.000Z</time>
      </trkpt>
      <trkpt lat="44.50173" lon="6.26011">
        <ele>1297.1999511719</ele>
        <time>2020-11-05T15:14:44.000Z</time>
      </trkpt>
      <trkpt lat="44.50173" lon="6.26006">
        <ele>1297.4000244141</ele>
        <time>2020-11-05T15:14:45.000Z</time>
      </trkpt>
      <trkpt lat="44.50176" lon="6.25989">
        <ele>1297.4000244141</ele>
        <time>2020-11-05T15:14:48.000Z</time>
      </trkpt>
      <trkpt lat="44.50178" lon="6.25967">
        <ele>1297.4000244141</ele>
        <time>2020-11-05T15:14:53.000Z</time>
      </trkpt>
      <trkpt lat="44.50179" lon="6.25965">
        <ele>1297.4000244141</ele>
        <time>2020-11-05T15:14:56.000Z</time>
      </trkpt>
      <trkpt lat="44.50179" lon="6.25965">
        <ele>1297.5999755859</ele>
        <time>2020-11-05T15:15:05.000Z</time>
      </trkpt>
      <trkpt lat="44.50181" lon="6.25959">
        <ele>1297.5999755859</ele>
        <time>2020-11-05T15:15:10.000Z</time>
      </trkpt>
      <trkpt lat="44.50185" lon="6.25949">
        <ele>1297.5999755859</ele>
        <time>2020-11-05T15:15:12.000Z</time>
      </trkpt>
      <trkpt lat="44.50186" lon="6.25933">
        <ele>1297.4000244141</ele>
        <time>2020-11-05T15:15:15.000Z</time>
      </trkpt>
      <trkpt lat="44.50192" lon="6.2592">
        <ele>1297</ele>
        <time>2020-11-05T15:15:18.000Z</time>
      </trkpt>
      <trkpt lat="44.50206" lon="6.25905">
        <ele>1296</ele>
        <time>2020-11-05T15:15:22.000Z</time>
      </trkpt>
      <trkpt lat="44.50208" lon="6.25898">
        <ele>1296</ele>
        <time>2020-11-05T15:15:23.000Z</time>
      </trkpt>
      <trkpt lat="44.50211" lon="6.25885">
        <ele>1295.5999755859</ele>
        <time>2020-11-05T15:15:25.000Z</time>
      </trkpt>
      <trkpt lat="44.50212" lon="6.25879">
        <ele>1295.5999755859</ele>
        <time>2020-11-05T15:15:26.000Z</time>
      </trkpt>
      <trkpt lat="44.50216" lon="6.25874">
        <ele>1295.1999511719</ele>
        <time>2020-11-05T15:15:27.000Z</time>
      </trkpt>
      <trkpt lat="44.50225" lon="6.25868">
        <ele>1294.8000488281</ele>
        <time>2020-11-05T15:15:29.000Z</time>
      </trkpt>
      <trkpt lat="44.50231" lon="6.25867">
        <ele>1294.4000244141</ele>
        <time>2020-11-05T15:15:30.000Z</time>
      </trkpt>
      <trkpt lat="44.50236" lon="6.25865">
        <ele>1294</ele>
        <time>2020-11-05T15:15:31.000Z</time>
      </trkpt>
      <trkpt lat="44.5024" lon="6.25861">
        <ele>1293.5999755859</ele>
        <time>2020-11-05T15:15:32.000Z</time>
      </trkpt>
      <trkpt lat="44.50242" lon="6.25855">
        <ele>1293.4000244141</ele>
        <time>2020-11-05T15:15:33.000Z</time>
      </trkpt>
      <trkpt lat="44.50239" lon="6.2584">
        <ele>1293</ele>
        <time>2020-11-05T15:15:36.000Z</time>
      </trkpt>
      <trkpt lat="44.50237" lon="6.25824">
        <ele>1292.4000244141</ele>
        <time>2020-11-05T15:15:39.000Z</time>
      </trkpt>
      <trkpt lat="44.50237" lon="6.25819">
        <ele>1292</ele>
        <time>2020-11-05T15:15:40.000Z</time>
      </trkpt>
      <trkpt lat="44.50237" lon="6.25789">
        <ele>1291.4000244141</ele>
        <time>2020-11-05T15:15:45.000Z</time>
      </trkpt>
      <trkpt lat="44.50236" lon="6.25782">
        <ele>1291.1999511719</ele>
        <time>2020-11-05T15:15:46.000Z</time>
      </trkpt>
      <trkpt lat="44.50228" lon="6.25756">
        <ele>1290.5999755859</ele>
        <time>2020-11-05T15:15:50.000Z</time>
      </trkpt>
      <trkpt lat="44.50226" lon="6.25751">
        <ele>1290.5999755859</ele>
        <time>2020-11-05T15:15:51.000Z</time>
      </trkpt>
      <trkpt lat="44.50212" lon="6.25733">
        <ele>1289.5999755859</ele>
        <time>2020-11-05T15:15:55.000Z</time>
      </trkpt>
      <trkpt lat="44.50209" lon="6.25719">
        <ele>1289.1999511719</ele>
        <time>2020-11-05T15:15:57.000Z</time>
      </trkpt>
      <trkpt lat="44.50206" lon="6.25698">
        <ele>1288.4000244141</ele>
        <time>2020-11-05T15:16:00.000Z</time>
      </trkpt>
      <trkpt lat="44.50211" lon="6.25671">
        <ele>1287.1999511719</ele>
        <time>2020-11-05T15:16:04.000Z</time>
      </trkpt>
      <trkpt lat="44.50223" lon="6.25657">
        <ele>1285.5999755859</ele>
        <time>2020-11-05T15:16:07.000Z</time>
      </trkpt>
      <trkpt lat="44.50227" lon="6.25653">
        <ele>1285.4000244141</ele>
        <time>2020-11-05T15:16:08.000Z</time>
      </trkpt>
      <trkpt lat="44.5024" lon="6.25642">
        <ele>1284.5999755859</ele>
        <time>2020-11-05T15:16:11.000Z</time>
      </trkpt>
      <trkpt lat="44.5025" lon="6.2563">
        <ele>1284</ele>
        <time>2020-11-05T15:16:14.000Z</time>
      </trkpt>
      <trkpt lat="44.50259" lon="6.25613">
        <ele>1283.5999755859</ele>
        <time>2020-11-05T15:16:17.000Z</time>
      </trkpt>
      <trkpt lat="44.50261" lon="6.25607">
        <ele>1283.5999755859</ele>
        <time>2020-11-05T15:16:18.000Z</time>
      </trkpt>
      <trkpt lat="44.50261" lon="6.25601">
        <ele>1283.5999755859</ele>
        <time>2020-11-05T15:16:19.000Z</time>
      </trkpt>
      <trkpt lat="44.50257" lon="6.25593">
        <ele>1283.4000244141</ele>
        <time>2020-11-05T15:16:21.000Z</time>
      </trkpt>
      <trkpt lat="44.50254" lon="6.2558">
        <ele>1283.1999511719</ele>
        <time>2020-11-05T15:16:24.000Z</time>
      </trkpt>
      <trkpt lat="44.50262" lon="6.25571">
        <ele>1283</ele>
        <time>2020-11-05T15:16:27.000Z</time>
      </trkpt>
      <trkpt lat="44.50269" lon="6.25558">
        <ele>1283</ele>
        <time>2020-11-05T15:16:30.000Z</time>
      </trkpt>
      <trkpt lat="44.50266" lon="6.25548">
        <ele>1282.4000244141</ele>
        <time>2020-11-05T15:16:33.000Z</time>
      </trkpt>
      <trkpt lat="44.50255" lon="6.2554">
        <ele>1281.8000488281</ele>
        <time>2020-11-05T15:16:36.000Z</time>
      </trkpt>
      <trkpt lat="44.50252" lon="6.2552">
        <ele>1281.5999755859</ele>
        <time>2020-11-05T15:16:39.000Z</time>
      </trkpt>
      <trkpt lat="44.50245" lon="6.2551">
        <ele>1281.4000244141</ele>
        <time>2020-11-05T15:16:41.000Z</time>
      </trkpt>
      <trkpt lat="44.50235" lon="6.25507">
        <ele>1281.1999511719</ele>
        <time>2020-11-05T15:16:43.000Z</time>
      </trkpt>
      <trkpt lat="44.50231" lon="6.25504">
        <ele>1281</ele>
        <time>2020-11-05T15:16:44.000Z</time>
      </trkpt>
      <trkpt lat="44.50226" lon="6.255">
        <ele>1280.8000488281</ele>
        <time>2020-11-05T15:16:45.000Z</time>
      </trkpt>
      <trkpt lat="44.50217" lon="6.25491">
        <ele>1279.8000488281</ele>
        <time>2020-11-05T15:16:47.000Z</time>
      </trkpt>
      <trkpt lat="44.50207" lon="6.25487">
        <ele>1279</ele>
        <time>2020-11-05T15:16:49.000Z</time>
      </trkpt>
      <trkpt lat="44.50196" lon="6.25485">
        <ele>1278.5999755859</ele>
        <time>2020-11-05T15:16:51.000Z</time>
      </trkpt>
      <trkpt lat="44.50176" lon="6.25483">
        <ele>1277.8000488281</ele>
        <time>2020-11-05T15:16:55.000Z</time>
      </trkpt>
      <trkpt lat="44.50171" lon="6.25481">
        <ele>1277.4000244141</ele>
        <time>2020-11-05T15:16:56.000Z</time>
      </trkpt>
      <trkpt lat="44.50156" lon="6.25472">
        <ele>1276.8000488281</ele>
        <time>2020-11-05T15:16:59.000Z</time>
      </trkpt>
      <trkpt lat="44.50132" lon="6.2545">
        <ele>1276.4000244141</ele>
        <time>2020-11-05T15:17:04.000Z</time>
      </trkpt>
      <trkpt lat="44.50122" lon="6.2544">
        <ele>1275.5999755859</ele>
        <time>2020-11-05T15:17:06.000Z</time>
      </trkpt>
      <trkpt lat="44.50112" lon="6.25431">
        <ele>1275</ele>
        <time>2020-11-05T15:17:08.000Z</time>
      </trkpt>
      <trkpt lat="44.50093" lon="6.25412">
        <ele>1273.8000488281</ele>
        <time>2020-11-05T15:17:13.000Z</time>
      </trkpt>
      <trkpt lat="44.50091" lon="6.25412">
        <ele>1273.5999755859</ele>
        <time>2020-11-05T15:17:14.000Z</time>
      </trkpt>
      <trkpt lat="44.5009" lon="6.25414">
        <ele>1273.4000244141</ele>
        <time>2020-11-05T15:17:16.000Z</time>
      </trkpt>
      <trkpt lat="44.50091" lon="6.25415">
        <ele>1273.1999511719</ele>
        <time>2020-11-05T15:17:17.000Z</time>
      </trkpt>
      <trkpt lat="44.50095" lon="6.25424">
        <ele>1273.1999511719</ele>
        <time>2020-11-05T15:17:21.000Z</time>
      </trkpt>
      <trkpt lat="44.50106" lon="6.25442">
        <ele>1272.8000488281</ele>
        <time>2020-11-05T15:17:25.000Z</time>
      </trkpt>
      <trkpt lat="44.50109" lon="6.25446">
        <ele>1272.4000244141</ele>
        <time>2020-11-05T15:17:26.000Z</time>
      </trkpt>
      <trkpt lat="44.50117" lon="6.25458">
        <ele>1272.1999511719</ele>
        <time>2020-11-05T15:17:29.000Z</time>
      </trkpt>
      <trkpt lat="44.50118" lon="6.25462">
        <ele>1271.5999755859</ele>
        <time>2020-11-05T15:17:30.000Z</time>
      </trkpt>
      <trkpt lat="44.50122" lon="6.25469">
        <ele>1270.4000244141</ele>
        <time>2020-11-05T15:17:32.000Z</time>
      </trkpt>
      <trkpt lat="44.50125" lon="6.25473">
        <ele>1269.8000488281</ele>
        <time>2020-11-05T15:17:33.000Z</time>
      </trkpt>
      <trkpt lat="44.50128" lon="6.25477">
        <ele>1269.1999511719</ele>
        <time>2020-11-05T15:17:34.000Z</time>
      </trkpt>
      <trkpt lat="44.50132" lon="6.25486">
        <ele>1268</ele>
        <time>2020-11-05T15:17:36.000Z</time>
      </trkpt>
      <trkpt lat="44.50134" lon="6.25491">
        <ele>1267.4000244141</ele>
        <time>2020-11-05T15:17:37.000Z</time>
      </trkpt>
      <trkpt lat="44.50137" lon="6.25495">
        <ele>1267</ele>
        <time>2020-11-05T15:17:38.000Z</time>
      </trkpt>
      <trkpt lat="44.50141" lon="6.255">
        <ele>1266.5999755859</ele>
        <time>2020-11-05T15:17:39.000Z</time>
      </trkpt>
      <trkpt lat="44.50149" lon="6.25508">
        <ele>1265.5999755859</ele>
        <time>2020-11-05T15:17:41.000Z</time>
      </trkpt>
      <trkpt lat="44.50152" lon="6.25511">
        <ele>1265</ele>
        <time>2020-11-05T15:17:42.000Z</time>
      </trkpt>
      <trkpt lat="44.50159" lon="6.25516">
        <ele>1263.5999755859</ele>
        <time>2020-11-05T15:17:44.000Z</time>
      </trkpt>
      <trkpt lat="44.50162" lon="6.25517">
        <ele>1263.4000244141</ele>
        <time>2020-11-05T15:17:45.000Z</time>
      </trkpt>
      <trkpt lat="44.50167" lon="6.2552">
        <ele>1262.1999511719</ele>
        <time>2020-11-05T15:17:47.000Z</time>
      </trkpt>
      <trkpt lat="44.50171" lon="6.25521">
        <ele>1261.4000244141</ele>
        <time>2020-11-05T15:17:49.000Z</time>
      </trkpt>
      <trkpt lat="44.50173" lon="6.25523">
        <ele>1261</ele>
        <time>2020-11-05T15:17:50.000Z</time>
      </trkpt>
      <trkpt lat="44.50174" lon="6.25525">
        <ele>1260.5999755859</ele>
        <time>2020-11-05T15:17:51.000Z</time>
      </trkpt>
      <trkpt lat="44.50174" lon="6.2553">
        <ele>1260</ele>
        <time>2020-11-05T15:17:53.000Z</time>
      </trkpt>
      <trkpt lat="44.50174" lon="6.25533">
        <ele>1259.8000488281</ele>
        <time>2020-11-05T15:17:54.000Z</time>
      </trkpt>
      <trkpt lat="44.50175" lon="6.25536">
        <ele>1259.4000244141</ele>
        <time>2020-11-05T15:17:55.000Z</time>
      </trkpt>
      <trkpt lat="44.50176" lon="6.25539">
        <ele>1259.4000244141</ele>
        <time>2020-11-05T15:17:56.000Z</time>
      </trkpt>
      <trkpt lat="44.50178" lon="6.25541">
        <ele>1259.1999511719</ele>
        <time>2020-11-05T15:17:57.000Z</time>
      </trkpt>
      <trkpt lat="44.50188" lon="6.25544">
        <ele>1258.8000488281</ele>
        <time>2020-11-05T15:18:01.000Z</time>
      </trkpt>
      <trkpt lat="44.50189" lon="6.25546">
        <ele>1258.5999755859</ele>
        <time>2020-11-05T15:18:02.000Z</time>
      </trkpt>
      <trkpt lat="44.50189" lon="6.2555">
        <ele>1257.5999755859</ele>
        <time>2020-11-05T15:18:04.000Z</time>
      </trkpt>
      <trkpt lat="44.50188" lon="6.25552">
        <ele>1257</ele>
        <time>2020-11-05T15:18:05.000Z</time>
      </trkpt>
      <trkpt lat="44.50186" lon="6.25554">
        <ele>1255.8000488281</ele>
        <time>2020-11-05T15:18:07.000Z</time>
      </trkpt>
      <trkpt lat="44.50184" lon="6.25556">
        <ele>1254.1999511719</ele>
        <time>2020-11-05T15:18:09.000Z</time>
      </trkpt>
      <trkpt lat="44.50182" lon="6.25559">
        <ele>1253.4000244141</ele>
        <time>2020-11-05T15:18:10.000Z</time>
      </trkpt>
      <trkpt lat="44.5018" lon="6.25562">
        <ele>1252.8000488281</ele>
        <time>2020-11-05T15:18:11.000Z</time>
      </trkpt>
      <trkpt lat="44.5017" lon="6.25576">
        <ele>1252.4000244141</ele>
        <time>2020-11-05T15:18:15.000Z</time>
      </trkpt>
      <trkpt lat="44.50157" lon="6.25589">
        <ele>1252.4000244141</ele>
        <time>2020-11-05T15:18:20.000Z</time>
      </trkpt>
      <trkpt lat="44.50154" lon="6.25598">
        <ele>1252.4000244141</ele>
        <time>2020-11-05T15:18:22.000Z</time>
      </trkpt>
      <trkpt lat="44.50153" lon="6.25603">
        <ele>1252.4000244141</ele>
        <time>2020-11-05T15:18:23.000Z</time>
      </trkpt>
      <trkpt lat="44.50156" lon="6.25613">
        <ele>1252.1999511719</ele>
        <time>2020-11-05T15:18:26.000Z</time>
      </trkpt>
      <trkpt lat="44.50153" lon="6.2562">
        <ele>1251.5999755859</ele>
        <time>2020-11-05T15:18:30.000Z</time>
      </trkpt>
      <trkpt lat="44.50145" lon="6.25633">
        <ele>1250.8000488281</ele>
        <time>2020-11-05T15:18:34.000Z</time>
      </trkpt>
      <trkpt lat="44.50138" lon="6.25658">
        <ele>1250.5999755859</ele>
        <time>2020-11-05T15:18:40.000Z</time>
      </trkpt>
      <trkpt lat="44.50139" lon="6.25661">
        <ele>1250.5999755859</ele>
        <time>2020-11-05T15:18:41.000Z</time>
      </trkpt>
      <trkpt lat="44.50139" lon="6.25666">
        <ele>1250.4000244141</ele>
        <time>2020-11-05T15:18:44.000Z</time>
      </trkpt>
      <trkpt lat="44.50137" lon="6.2567">
        <ele>1250.1999511719</ele>
        <time>2020-11-05T15:18:46.000Z</time>
      </trkpt>
      <trkpt lat="44.50137" lon="6.25672">
        <ele>1250</ele>
        <time>2020-11-05T15:18:49.000Z</time>
      </trkpt>
      <trkpt lat="44.50136" lon="6.25674">
        <ele>1249.4000244141</ele>
        <time>2020-11-05T15:18:52.000Z</time>
      </trkpt>
      <trkpt lat="44.50137" lon="6.25674">
        <ele>1248.1999511719</ele>
        <time>2020-11-05T15:18:55.000Z</time>
      </trkpt>
      <trkpt lat="44.50137" lon="6.25677">
        <ele>1248</ele>
        <time>2020-11-05T15:18:59.000Z</time>
      </trkpt>
      <trkpt lat="44.50136" lon="6.25678">
        <ele>1248.1999511719</ele>
        <time>2020-11-05T15:19:12.000Z</time>
      </trkpt>
      <trkpt lat="44.50136" lon="6.25678">
        <ele>1248.1999511719</ele>
        <time>2020-11-05T15:19:49.000Z</time>
      </trkpt>
      <trkpt lat="44.50136" lon="6.25679">
        <ele>1248</ele>
        <time>2020-11-05T15:20:27.000Z</time>
      </trkpt>
      <trkpt lat="44.50137" lon="6.25679">
        <ele>1248</ele>
        <time>2020-11-05T15:21:00.000Z</time>
      </trkpt>
      <trkpt lat="44.50137" lon="6.25679">
        <ele>1247.8000488281</ele>
        <time>2020-11-05T15:21:23.000Z</time>
      </trkpt>
      <trkpt lat="44.50137" lon="6.25679">
        <ele>1248</ele>
        <time>2020-11-05T15:21:48.000Z</time>
      </trkpt>
      <trkpt lat="44.50137" lon="6.25679">
        <ele>1248</ele>
        <time>2020-11-05T15:22:04.000Z</time>
      </trkpt>
      <trkpt lat="44.50133" lon="6.25685">
        <ele>1248.1999511719</ele>
        <time>2020-11-05T15:22:17.000Z</time>
      </trkpt>
      <trkpt lat="44.50126" lon="6.25693">
        <ele>1248.1999511719</ele>
        <time>2020-11-05T15:22:20.000Z</time>
      </trkpt>
      <trkpt lat="44.50125" lon="6.25694">
        <ele>1248.1999511719</ele>
        <time>2020-11-05T15:22:21.000Z</time>
      </trkpt>
      <trkpt lat="44.50118" lon="6.25695">
        <ele>1246.4000244141</ele>
        <time>2020-11-05T15:22:26.000Z</time>
      </trkpt>
      <trkpt lat="44.50117" lon="6.25695">
        <ele>1246.1999511719</ele>
        <time>2020-11-05T15:22:27.000Z</time>
      </trkpt>
      <trkpt lat="44.50107" lon="6.25693">
        <ele>1246</ele>
        <time>2020-11-05T15:22:32.000Z</time>
      </trkpt>
      <trkpt lat="44.50094" lon="6.25684">
        <ele>1247</ele>
        <time>2020-11-05T15:22:38.000Z</time>
      </trkpt>
      <trkpt lat="44.50088" lon="6.25679">
        <ele>1247.4000244141</ele>
        <time>2020-11-05T15:22:40.000Z</time>
      </trkpt>
      <trkpt lat="44.50083" lon="6.25674">
        <ele>1247.8000488281</ele>
        <time>2020-11-05T15:22:42.000Z</time>
      </trkpt>
      <trkpt lat="44.50078" lon="6.2567">
        <ele>1248</ele>
        <time>2020-11-05T15:22:44.000Z</time>
      </trkpt>
      <trkpt lat="44.50074" lon="6.25666">
        <ele>1248</ele>
        <time>2020-11-05T15:22:46.000Z</time>
      </trkpt>
      <trkpt lat="44.50071" lon="6.25662">
        <ele>1248</ele>
        <time>2020-11-05T15:22:48.000Z</time>
      </trkpt>
      <trkpt lat="44.50064" lon="6.25656">
        <ele>1248</ele>
        <time>2020-11-05T15:22:51.000Z</time>
      </trkpt>
      <trkpt lat="44.50052" lon="6.2564">
        <ele>1248</ele>
        <time>2020-11-05T15:22:56.000Z</time>
      </trkpt>
      <trkpt lat="44.50039" lon="6.25629">
        <ele>1247</ele>
        <time>2020-11-05T15:23:01.000Z</time>
      </trkpt>
      <trkpt lat="44.50033" lon="6.25626">
        <ele>1246.5999755859</ele>
        <time>2020-11-05T15:23:03.000Z</time>
      </trkpt>
      <trkpt lat="44.5003" lon="6.25626">
        <ele>1246.4000244141</ele>
        <time>2020-11-05T15:23:04.000Z</time>
      </trkpt>
      <trkpt lat="44.50027" lon="6.25628">
        <ele>1246.1999511719</ele>
        <time>2020-11-05T15:23:05.000Z</time>
      </trkpt>
      <trkpt lat="44.50016" lon="6.2563">
        <ele>1245.4000244141</ele>
        <time>2020-11-05T15:23:08.000Z</time>
      </trkpt>
      <trkpt lat="44.50011" lon="6.25633">
        <ele>1244.8000488281</ele>
        <time>2020-11-05T15:23:09.000Z</time>
      </trkpt>
      <trkpt lat="44.5" lon="6.25639">
        <ele>1243.8000488281</ele>
        <time>2020-11-05T15:23:11.000Z</time>
      </trkpt>
      <trkpt lat="44.49996" lon="6.25641">
        <ele>1243.1999511719</ele>
        <time>2020-11-05T15:23:12.000Z</time>
      </trkpt>
      <trkpt lat="44.49993" lon="6.25643">
        <ele>1242.4000244141</ele>
        <time>2020-11-05T15:23:13.000Z</time>
      </trkpt>
      <trkpt lat="44.49991" lon="6.25646">
        <ele>1241.4000244141</ele>
        <time>2020-11-05T15:23:14.000Z</time>
      </trkpt>
      <trkpt lat="44.4999" lon="6.25649">
        <ele>1240.1999511719</ele>
        <time>2020-11-05T15:23:15.000Z</time>
      </trkpt>
      <trkpt lat="44.49989" lon="6.25651">
        <ele>1239.1999511719</ele>
        <time>2020-11-05T15:23:16.000Z</time>
      </trkpt>
      <trkpt lat="44.49988" lon="6.25652">
        <ele>1237.8000488281</ele>
        <time>2020-11-05T15:23:17.000Z</time>
      </trkpt>
      <trkpt lat="44.49987" lon="6.25652">
        <ele>1236.4000244141</ele>
        <time>2020-11-05T15:23:18.000Z</time>
      </trkpt>
      <trkpt lat="44.49986" lon="6.25651">
        <ele>1235</ele>
        <time>2020-11-05T15:23:19.000Z</time>
      </trkpt>
      <trkpt lat="44.49984" lon="6.2565">
        <ele>1233.8000488281</ele>
        <time>2020-11-05T15:23:20.000Z</time>
      </trkpt>
      <trkpt lat="44.49983" lon="6.2565">
        <ele>1233.1999511719</ele>
        <time>2020-11-05T15:23:21.000Z</time>
      </trkpt>
      <trkpt lat="44.49978" lon="6.2565">
        <ele>1232.8000488281</ele>
        <time>2020-11-05T15:23:23.000Z</time>
      </trkpt>
      <trkpt lat="44.49973" lon="6.25651">
        <ele>1232.5999755859</ele>
        <time>2020-11-05T15:23:24.000Z</time>
      </trkpt>
      <trkpt lat="44.49958" lon="6.25656">
        <ele>1232</ele>
        <time>2020-11-05T15:23:27.000Z</time>
      </trkpt>
      <trkpt lat="44.49952" lon="6.25656">
        <ele>1231.8000488281</ele>
        <time>2020-11-05T15:23:28.000Z</time>
      </trkpt>
      <trkpt lat="44.49945" lon="6.25656">
        <ele>1231.5999755859</ele>
        <time>2020-11-05T15:23:29.000Z</time>
      </trkpt>
      <trkpt lat="44.4993" lon="6.25659">
        <ele>1231.4000244141</ele>
        <time>2020-11-05T15:23:31.000Z</time>
      </trkpt>
      <trkpt lat="44.49913" lon="6.25675">
        <ele>1230.5999755859</ele>
        <time>2020-11-05T15:23:34.000Z</time>
      </trkpt>
      <trkpt lat="44.49909" lon="6.25681">
        <ele>1229.8000488281</ele>
        <time>2020-11-05T15:23:35.000Z</time>
      </trkpt>
      <trkpt lat="44.49905" lon="6.2569">
        <ele>1228.1999511719</ele>
        <time>2020-11-05T15:23:37.000Z</time>
      </trkpt>
      <trkpt lat="44.499" lon="6.25692">
        <ele>1226.4000244141</ele>
        <time>2020-11-05T15:23:39.000Z</time>
      </trkpt>
      <trkpt lat="44.49898" lon="6.2569">
        <ele>1225.4000244141</ele>
        <time>2020-11-05T15:23:40.000Z</time>
      </trkpt>
      <trkpt lat="44.49894" lon="6.25685">
        <ele>1224</ele>
        <time>2020-11-05T15:23:42.000Z</time>
      </trkpt>
      <trkpt lat="44.4989" lon="6.25681">
        <ele>1223.4000244141</ele>
        <time>2020-11-05T15:23:44.000Z</time>
      </trkpt>
      <trkpt lat="44.49888" lon="6.25677">
        <ele>1222.8000488281</ele>
        <time>2020-11-05T15:23:46.000Z</time>
      </trkpt>
      <trkpt lat="44.49888" lon="6.25677">
        <ele>1222.1999511719</ele>
        <time>2020-11-05T15:23:48.000Z</time>
      </trkpt>
      <trkpt lat="44.49888" lon="6.25676">
        <ele>1221.8000488281</ele>
        <time>2020-11-05T15:23:54.000Z</time>
      </trkpt>
      <trkpt lat="44.49888" lon="6.25676">
        <ele>1221.5999755859</ele>
        <time>2020-11-05T15:24:04.000Z</time>
      </trkpt>
      <trkpt lat="44.49887" lon="6.25676">
        <ele>1221.8000488281</ele>
        <time>2020-11-05T15:24:24.000Z</time>
      </trkpt>
      <trkpt lat="44.49887" lon="6.25675">
        <ele>1221.4000244141</ele>
        <time>2020-11-05T15:25:23.000Z</time>
      </trkpt>
      <trkpt lat="44.49887" lon="6.25675">
        <ele>1221.5999755859</ele>
        <time>2020-11-05T15:25:58.000Z</time>
      </trkpt>
      <trkpt lat="44.49888" lon="6.25674">
        <ele>1221.4000244141</ele>
        <time>2020-11-05T15:26:19.000Z</time>
      </trkpt>
      <trkpt lat="44.49884" lon="6.25664">
        <ele>1221.4000244141</ele>
        <time>2020-11-05T15:26:29.000Z</time>
      </trkpt>
      <trkpt lat="44.49872" lon="6.25646">
        <ele>1221.1999511719</ele>
        <time>2020-11-05T15:26:34.000Z</time>
      </trkpt>
      <trkpt lat="44.49868" lon="6.25643">
        <ele>1221.1999511719</ele>
        <time>2020-11-05T15:26:35.000Z</time>
      </trkpt>
      <trkpt lat="44.49854" lon="6.25634">
        <ele>1220.8000488281</ele>
        <time>2020-11-05T15:26:39.000Z</time>
      </trkpt>
      <trkpt lat="44.49843" lon="6.25623">
        <ele>1220</ele>
        <time>2020-11-05T15:26:43.000Z</time>
      </trkpt>
      <trkpt lat="44.49843" lon="6.25621">
        <ele>1219.1999511719</ele>
        <time>2020-11-05T15:26:44.000Z</time>
      </trkpt>
      <trkpt lat="44.49845" lon="6.25617">
        <ele>1217</ele>
        <time>2020-11-05T15:26:46.000Z</time>
      </trkpt>
      <trkpt lat="44.49848" lon="6.25612">
        <ele>1215</ele>
        <time>2020-11-05T15:26:48.000Z</time>
      </trkpt>
      <trkpt lat="44.49849" lon="6.25607">
        <ele>1214</ele>
        <time>2020-11-05T15:26:49.000Z</time>
      </trkpt>
      <trkpt lat="44.49849" lon="6.25602">
        <ele>1213</ele>
        <time>2020-11-05T15:26:50.000Z</time>
      </trkpt>
      <trkpt lat="44.4985" lon="6.25597">
        <ele>1212</ele>
        <time>2020-11-05T15:26:51.000Z</time>
      </trkpt>
      <trkpt lat="44.4985" lon="6.25594">
        <ele>1211.4000244141</ele>
        <time>2020-11-05T15:26:52.000Z</time>
      </trkpt>
      <trkpt lat="44.49852" lon="6.25582">
        <ele>1210.1999511719</ele>
        <time>2020-11-05T15:26:55.000Z</time>
      </trkpt>
      <trkpt lat="44.49851" lon="6.25567">
        <ele>1208.8000488281</ele>
        <time>2020-11-05T15:26:58.000Z</time>
      </trkpt>
      <trkpt lat="44.4985" lon="6.25557">
        <ele>1207.4000244141</ele>
        <time>2020-11-05T15:27:00.000Z</time>
      </trkpt>
      <trkpt lat="44.49849" lon="6.25544">
        <ele>1206.1999511719</ele>
        <time>2020-11-05T15:27:02.000Z</time>
      </trkpt>
      <trkpt lat="44.49849" lon="6.25533">
        <ele>1204.4000244141</ele>
        <time>2020-11-05T15:27:04.000Z</time>
      </trkpt>
      <trkpt lat="44.49848" lon="6.25531">
        <ele>1203.5999755859</ele>
        <time>2020-11-05T15:27:05.000Z</time>
      </trkpt>
      <trkpt lat="44.49848" lon="6.25529">
        <ele>1202.8000488281</ele>
        <time>2020-11-05T15:27:06.000Z</time>
      </trkpt>
      <trkpt lat="44.49849" lon="6.25528">
        <ele>1201.8000488281</ele>
        <time>2020-11-05T15:27:07.000Z</time>
      </trkpt>
      <trkpt lat="44.49849" lon="6.25528">
        <ele>1200.8000488281</ele>
        <time>2020-11-05T15:27:08.000Z</time>
      </trkpt>
      <trkpt lat="44.49849" lon="6.25527">
        <ele>1199.5999755859</ele>
        <time>2020-11-05T15:27:09.000Z</time>
      </trkpt>
      <trkpt lat="44.49848" lon="6.25526">
        <ele>1198.1999511719</ele>
        <time>2020-11-05T15:27:10.000Z</time>
      </trkpt>
      <trkpt lat="44.49848" lon="6.25524">
        <ele>1196.8000488281</ele>
        <time>2020-11-05T15:27:11.000Z</time>
      </trkpt>
      <trkpt lat="44.49847" lon="6.25521">
        <ele>1195.5999755859</ele>
        <time>2020-11-05T15:27:12.000Z</time>
      </trkpt>
      <trkpt lat="44.49848" lon="6.25516">
        <ele>1194.4000244141</ele>
        <time>2020-11-05T15:27:14.000Z</time>
      </trkpt>
      <trkpt lat="44.49848" lon="6.25507">
        <ele>1194.1999511719</ele>
        <time>2020-11-05T15:27:17.000Z</time>
      </trkpt>
      <trkpt lat="44.49844" lon="6.25485">
        <ele>1193.1999511719</ele>
        <time>2020-11-05T15:27:23.000Z</time>
      </trkpt>
      <trkpt lat="44.49843" lon="6.25468">
        <ele>1192.5999755859</ele>
        <time>2020-11-05T15:27:28.000Z</time>
      </trkpt>
      <trkpt lat="44.49843" lon="6.25462">
        <ele>1192.4000244141</ele>
        <time>2020-11-05T15:27:30.000Z</time>
      </trkpt>
      <trkpt lat="44.49844" lon="6.25459">
        <ele>1192.1999511719</ele>
        <time>2020-11-05T15:27:32.000Z</time>
      </trkpt>
      <trkpt lat="44.49845" lon="6.25455">
        <ele>1192</ele>
        <time>2020-11-05T15:27:34.000Z</time>
      </trkpt>
      <trkpt lat="44.49848" lon="6.25447">
        <ele>1191.8000488281</ele>
        <time>2020-11-05T15:27:37.000Z</time>
      </trkpt>
      <trkpt lat="44.4985" lon="6.25444">
        <ele>1191.8000488281</ele>
        <time>2020-11-05T15:27:38.000Z</time>
      </trkpt>
      <trkpt lat="44.49857" lon="6.25429">
        <ele>1191</ele>
        <time>2020-11-05T15:27:42.000Z</time>
      </trkpt>
      <trkpt lat="44.49858" lon="6.25424">
        <ele>1190.4000244141</ele>
        <time>2020-11-05T15:27:43.000Z</time>
      </trkpt>
      <trkpt lat="44.49858" lon="6.25419">
        <ele>1189.1999511719</ele>
        <time>2020-11-05T15:27:44.000Z</time>
      </trkpt>
      <trkpt lat="44.49857" lon="6.25415">
        <ele>1187.8000488281</ele>
        <time>2020-11-05T15:27:45.000Z</time>
      </trkpt>
      <trkpt lat="44.49856" lon="6.25413">
        <ele>1186.4000244141</ele>
        <time>2020-11-05T15:27:46.000Z</time>
      </trkpt>
      <trkpt lat="44.49854" lon="6.25412">
        <ele>1185.1999511719</ele>
        <time>2020-11-05T15:27:47.000Z</time>
      </trkpt>
      <trkpt lat="44.49853" lon="6.25412">
        <ele>1183.8000488281</ele>
        <time>2020-11-05T15:27:48.000Z</time>
      </trkpt>
      <trkpt lat="44.4985" lon="6.25412">
        <ele>1182.8000488281</ele>
        <time>2020-11-05T15:27:49.000Z</time>
      </trkpt>
      <trkpt lat="44.49848" lon="6.25411">
        <ele>1181.8000488281</ele>
        <time>2020-11-05T15:27:50.000Z</time>
      </trkpt>
      <trkpt lat="44.49845" lon="6.2541">
        <ele>1181</ele>
        <time>2020-11-05T15:27:51.000Z</time>
      </trkpt>
      <trkpt lat="44.49841" lon="6.25408">
        <ele>1179.1999511719</ele>
        <time>2020-11-05T15:27:53.000Z</time>
      </trkpt>
      <trkpt lat="44.4984" lon="6.25406">
        <ele>1178.4000244141</ele>
        <time>2020-11-05T15:27:54.000Z</time>
      </trkpt>
      <trkpt lat="44.49839" lon="6.25404">
        <ele>1177.5999755859</ele>
        <time>2020-11-05T15:27:55.000Z</time>
      </trkpt>
      <trkpt lat="44.49837" lon="6.25401">
        <ele>1176.5999755859</ele>
        <time>2020-11-05T15:27:57.000Z</time>
      </trkpt>
      <trkpt lat="44.49836" lon="6.25398">
        <ele>1176</ele>
        <time>2020-11-05T15:27:58.000Z</time>
      </trkpt>
      <trkpt lat="44.49835" lon="6.25397">
        <ele>1175.1999511719</ele>
        <time>2020-11-05T15:27:59.000Z</time>
      </trkpt>
      <trkpt lat="44.49832" lon="6.25394">
        <ele>1173.5999755859</ele>
        <time>2020-11-05T15:28:01.000Z</time>
      </trkpt>
      <trkpt lat="44.4983" lon="6.25391">
        <ele>1173</ele>
        <time>2020-11-05T15:28:02.000Z</time>
      </trkpt>
      <trkpt lat="44.49829" lon="6.25389">
        <ele>1172.5999755859</ele>
        <time>2020-11-05T15:28:03.000Z</time>
      </trkpt>
      <trkpt lat="44.49828" lon="6.25382">
        <ele>1171.1999511719</ele>
        <time>2020-11-05T15:28:06.000Z</time>
      </trkpt>
      <trkpt lat="44.4983" lon="6.25379">
        <ele>1170.5999755859</ele>
        <time>2020-11-05T15:28:07.000Z</time>
      </trkpt>
      <trkpt lat="44.49833" lon="6.25375">
        <ele>1169.8000488281</ele>
        <time>2020-11-05T15:28:09.000Z</time>
      </trkpt>
      <trkpt lat="44.49834" lon="6.25373">
        <ele>1169.5999755859</ele>
        <time>2020-11-05T15:28:10.000Z</time>
      </trkpt>
      <trkpt lat="44.49837" lon="6.25366">
        <ele>1168.8000488281</ele>
        <time>2020-11-05T15:28:14.000Z</time>
      </trkpt>
      <trkpt lat="44.49838" lon="6.25364">
        <ele>1168.8000488281</ele>
        <time>2020-11-05T15:28:15.000Z</time>
      </trkpt>
      <trkpt lat="44.4984" lon="6.25358">
        <ele>1168.1999511719</ele>
        <time>2020-11-05T15:28:19.000Z</time>
      </trkpt>
      <trkpt lat="44.49841" lon="6.25355">
        <ele>1167.5999755859</ele>
        <time>2020-11-05T15:28:23.000Z</time>
      </trkpt>
      <trkpt lat="44.4984" lon="6.25352">
        <ele>1166.4000244141</ele>
        <time>2020-11-05T15:28:27.000Z</time>
      </trkpt>
      <trkpt lat="44.4984" lon="6.25352">
        <ele>1166.4000244141</ele>
        <time>2020-11-05T15:28:28.000Z</time>
      </trkpt>
      <trkpt lat="44.49839" lon="6.25351">
        <ele>1166.4000244141</ele>
        <time>2020-11-05T15:28:35.000Z</time>
      </trkpt>
      <trkpt lat="44.49839" lon="6.25352">
        <ele>1166</ele>
        <time>2020-11-05T15:28:57.000Z</time>
      </trkpt>
      <trkpt lat="44.49839" lon="6.25351">
        <ele>1166</ele>
        <time>2020-11-05T15:29:47.000Z</time>
      </trkpt>
      <trkpt lat="44.49836" lon="6.25347">
        <ele>1166</ele>
        <time>2020-11-05T15:29:56.000Z</time>
      </trkpt>
      <trkpt lat="44.49835" lon="6.25346">
        <ele>1166</ele>
        <time>2020-11-05T15:29:57.000Z</time>
      </trkpt>
      <trkpt lat="44.49832" lon="6.25342">
        <ele>1166</ele>
        <time>2020-11-05T15:30:01.000Z</time>
      </trkpt>
      <trkpt lat="44.49828" lon="6.25341">
        <ele>1165.5999755859</ele>
        <time>2020-11-05T15:30:03.000Z</time>
      </trkpt>
      <trkpt lat="44.4982" lon="6.25342">
        <ele>1164.4000244141</ele>
        <time>2020-11-05T15:30:09.000Z</time>
      </trkpt>
      <trkpt lat="44.49819" lon="6.25342">
        <ele>1164.1999511719</ele>
        <time>2020-11-05T15:30:10.000Z</time>
      </trkpt>
      <trkpt lat="44.49817" lon="6.25342">
        <ele>1163.4000244141</ele>
        <time>2020-11-05T15:30:15.000Z</time>
      </trkpt>
      <trkpt lat="44.49816" lon="6.25342">
        <ele>1163.1999511719</ele>
        <time>2020-11-05T15:30:17.000Z</time>
      </trkpt>
      <trkpt lat="44.49814" lon="6.25343">
        <ele>1163</ele>
        <time>2020-11-05T15:30:26.000Z</time>
      </trkpt>
      <trkpt lat="44.49813" lon="6.25342">
        <ele>1164</ele>
        <time>2020-11-05T15:30:41.000Z</time>
      </trkpt>
      <trkpt lat="44.49813" lon="6.25342">
        <ele>1164</ele>
        <time>2020-11-05T15:30:42.000Z</time>
      </trkpt>
      <trkpt lat="44.49808" lon="6.25343">
        <ele>1164.8000488281</ele>
        <time>2020-11-05T15:30:52.000Z</time>
      </trkpt>
      <trkpt lat="44.49807" lon="6.25343">
        <ele>1165</ele>
        <time>2020-11-05T15:30:53.000Z</time>
      </trkpt>
      <trkpt lat="44.498" lon="6.25343">
        <ele>1165</ele>
        <time>2020-11-05T15:30:59.000Z</time>
      </trkpt>
      <trkpt lat="44.49799" lon="6.25341">
        <ele>1165</ele>
        <time>2020-11-05T15:31:00.000Z</time>
      </trkpt>
      <trkpt lat="44.49798" lon="6.25338">
        <ele>1165</ele>
        <time>2020-11-05T15:31:02.000Z</time>
      </trkpt>
      <trkpt lat="44.49793" lon="6.25334">
        <ele>1164.8000488281</ele>
        <time>2020-11-05T15:31:05.000Z</time>
      </trkpt>
      <trkpt lat="44.4979" lon="6.25331">
        <ele>1164.5999755859</ele>
        <time>2020-11-05T15:31:07.000Z</time>
      </trkpt>
      <trkpt lat="44.49789" lon="6.25327">
        <ele>1164.1999511719</ele>
        <time>2020-11-05T15:31:09.000Z</time>
      </trkpt>
      <trkpt lat="44.49788" lon="6.25325">
        <ele>1164.1999511719</ele>
        <time>2020-11-05T15:31:10.000Z</time>
      </trkpt>
      <trkpt lat="44.49783" lon="6.25321">
        <ele>1163.4000244141</ele>
        <time>2020-11-05T15:31:13.000Z</time>
      </trkpt>
      <trkpt lat="44.49781" lon="6.25319">
        <ele>1163.4000244141</ele>
        <time>2020-11-05T15:31:14.000Z</time>
      </trkpt>
      <trkpt lat="44.49777" lon="6.25312">
        <ele>1162.5999755859</ele>
        <time>2020-11-05T15:31:19.000Z</time>
      </trkpt>
      <trkpt lat="44.49774" lon="6.25309">
        <ele>1162.4000244141</ele>
        <time>2020-11-05T15:31:20.000Z</time>
      </trkpt>
      <trkpt lat="44.49771" lon="6.25304">
        <ele>1162</ele>
        <time>2020-11-05T15:31:22.000Z</time>
      </trkpt>
      <trkpt lat="44.49771" lon="6.25302">
        <ele>1161.8000488281</ele>
        <time>2020-11-05T15:31:23.000Z</time>
      </trkpt>
      <trkpt lat="44.4977" lon="6.25296">
        <ele>1161</ele>
        <time>2020-11-05T15:31:25.000Z</time>
      </trkpt>
      <trkpt lat="44.49766" lon="6.25289">
        <ele>1159.8000488281</ele>
        <time>2020-11-05T15:31:28.000Z</time>
      </trkpt>
      <trkpt lat="44.49765" lon="6.25287">
        <ele>1158.4000244141</ele>
        <time>2020-11-05T15:31:29.000Z</time>
      </trkpt>
      <trkpt lat="44.49763" lon="6.25284">
        <ele>1157.4000244141</ele>
        <time>2020-11-05T15:31:30.000Z</time>
      </trkpt>
      <trkpt lat="44.49758" lon="6.2528">
        <ele>1156</ele>
        <time>2020-11-05T15:31:32.000Z</time>
      </trkpt>
      <trkpt lat="44.49756" lon="6.25279">
        <ele>1155.4000244141</ele>
        <time>2020-11-05T15:31:33.000Z</time>
      </trkpt>
      <trkpt lat="44.4975" lon="6.25276">
        <ele>1155</ele>
        <time>2020-11-05T15:31:35.000Z</time>
      </trkpt>
      <trkpt lat="44.49746" lon="6.2527">
        <ele>1154.4000244141</ele>
        <time>2020-11-05T15:31:37.000Z</time>
      </trkpt>
      <trkpt lat="44.49743" lon="6.2526">
        <ele>1153.8000488281</ele>
        <time>2020-11-05T15:31:40.000Z</time>
      </trkpt>
      <trkpt lat="44.49739" lon="6.25257">
        <ele>1153.5999755859</ele>
        <time>2020-11-05T15:31:42.000Z</time>
      </trkpt>
      <trkpt lat="44.49735" lon="6.25255">
        <ele>1153.4000244141</ele>
        <time>2020-11-05T15:31:44.000Z</time>
      </trkpt>
      <trkpt lat="44.49732" lon="6.25252">
        <ele>1153</ele>
        <time>2020-11-05T15:31:46.000Z</time>
      </trkpt>
      <trkpt lat="44.49731" lon="6.25249">
        <ele>1152.5999755859</ele>
        <time>2020-11-05T15:31:47.000Z</time>
      </trkpt>
      <trkpt lat="44.4973" lon="6.25245">
        <ele>1152.1999511719</ele>
        <time>2020-11-05T15:31:48.000Z</time>
      </trkpt>
      <trkpt lat="44.49729" lon="6.25239">
        <ele>1151.1999511719</ele>
        <time>2020-11-05T15:31:50.000Z</time>
      </trkpt>
      <trkpt lat="44.49726" lon="6.25228">
        <ele>1150.4000244141</ele>
        <time>2020-11-05T15:31:53.000Z</time>
      </trkpt>
      <trkpt lat="44.49724" lon="6.2522">
        <ele>1150.1999511719</ele>
        <time>2020-11-05T15:31:55.000Z</time>
      </trkpt>
      <trkpt lat="44.49722" lon="6.25213">
        <ele>1150</ele>
        <time>2020-11-05T15:31:57.000Z</time>
      </trkpt>
      <trkpt lat="44.49721" lon="6.25208">
        <ele>1149.5999755859</ele>
        <time>2020-11-05T15:31:59.000Z</time>
      </trkpt>
      <trkpt lat="44.49719" lon="6.252">
        <ele>1148.8000488281</ele>
        <time>2020-11-05T15:32:03.000Z</time>
      </trkpt>
      <trkpt lat="44.49718" lon="6.25195">
        <ele>1148.1999511719</ele>
        <time>2020-11-05T15:32:05.000Z</time>
      </trkpt>
      <trkpt lat="44.49715" lon="6.25182">
        <ele>1147.8000488281</ele>
        <time>2020-11-05T15:32:10.000Z</time>
      </trkpt>
      <trkpt lat="44.49715" lon="6.25176">
        <ele>1147.8000488281</ele>
        <time>2020-11-05T15:32:12.000Z</time>
      </trkpt>
      <trkpt lat="44.49714" lon="6.2517">
        <ele>1147.5999755859</ele>
        <time>2020-11-05T15:32:15.000Z</time>
      </trkpt>
      <trkpt lat="44.49712" lon="6.25159">
        <ele>1147.1999511719</ele>
        <time>2020-11-05T15:32:23.000Z</time>
      </trkpt>
      <trkpt lat="44.4971" lon="6.25148">
        <ele>1147.1999511719</ele>
        <time>2020-11-05T15:32:28.000Z</time>
      </trkpt>
      <trkpt lat="44.49711" lon="6.25145">
        <ele>1147.1999511719</ele>
        <time>2020-11-05T15:32:30.000Z</time>
      </trkpt>
      <trkpt lat="44.49713" lon="6.25144">
        <ele>1147.1999511719</ele>
        <time>2020-11-05T15:32:34.000Z</time>
      </trkpt>
      <trkpt lat="44.49715" lon="6.25144">
        <ele>1147.1999511719</ele>
        <time>2020-11-05T15:32:35.000Z</time>
      </trkpt>
      <trkpt lat="44.49722" lon="6.25139">
        <ele>1147.1999511719</ele>
        <time>2020-11-05T15:32:40.000Z</time>
      </trkpt>
      <trkpt lat="44.49724" lon="6.25134">
        <ele>1146.1999511719</ele>
        <time>2020-11-05T15:32:44.000Z</time>
      </trkpt>
      <trkpt lat="44.49723" lon="6.25131">
        <ele>1145</ele>
        <time>2020-11-05T15:32:46.000Z</time>
      </trkpt>
      <trkpt lat="44.49718" lon="6.25122">
        <ele>1144</ele>
        <time>2020-11-05T15:32:50.000Z</time>
      </trkpt>
      <trkpt lat="44.49718" lon="6.25121">
        <ele>1143.8000488281</ele>
        <time>2020-11-05T15:32:51.000Z</time>
      </trkpt>
      <trkpt lat="44.49718" lon="6.25119">
        <ele>1143.8000488281</ele>
        <time>2020-11-05T15:32:53.000Z</time>
      </trkpt>
      <trkpt lat="44.49721" lon="6.25117">
        <ele>1143.4000244141</ele>
        <time>2020-11-05T15:32:55.000Z</time>
      </trkpt>
      <trkpt lat="44.49724" lon="6.25116">
        <ele>1142.8000488281</ele>
        <time>2020-11-05T15:32:56.000Z</time>
      </trkpt>
      <trkpt lat="44.49727" lon="6.25114">
        <ele>1141.4000244141</ele>
        <time>2020-11-05T15:32:58.000Z</time>
      </trkpt>
      <trkpt lat="44.49728" lon="6.2511">
        <ele>1140.5999755859</ele>
        <time>2020-11-05T15:33:00.000Z</time>
      </trkpt>
      <trkpt lat="44.49728" lon="6.25108">
        <ele>1140.1999511719</ele>
        <time>2020-11-05T15:33:01.000Z</time>
      </trkpt>
      <trkpt lat="44.49729" lon="6.25104">
        <ele>1138.4000244141</ele>
        <time>2020-11-05T15:33:04.000Z</time>
      </trkpt>
      <trkpt lat="44.49728" lon="6.25104">
        <ele>1137.8000488281</ele>
        <time>2020-11-05T15:33:05.000Z</time>
      </trkpt>
      <trkpt lat="44.49728" lon="6.25104">
        <ele>1137</ele>
        <time>2020-11-05T15:33:06.000Z</time>
      </trkpt>
      <trkpt lat="44.49728" lon="6.25102">
        <ele>1135.8000488281</ele>
        <time>2020-11-05T15:33:08.000Z</time>
      </trkpt>
      <trkpt lat="44.49728" lon="6.25101">
        <ele>1134.1999511719</ele>
        <time>2020-11-05T15:33:10.000Z</time>
      </trkpt>
      <trkpt lat="44.49729" lon="6.25101">
        <ele>1132.5999755859</ele>
        <time>2020-11-05T15:33:12.000Z</time>
      </trkpt>
      <trkpt lat="44.49729" lon="6.251">
        <ele>1132.1999511719</ele>
        <time>2020-11-05T15:33:13.000Z</time>
      </trkpt>
      <trkpt lat="44.4973" lon="6.25098">
        <ele>1131.5999755859</ele>
        <time>2020-11-05T15:33:17.000Z</time>
      </trkpt>
      <trkpt lat="44.49731" lon="6.25095">
        <ele>1131.1999511719</ele>
        <time>2020-11-05T15:33:21.000Z</time>
      </trkpt>
      <trkpt lat="44.49732" lon="6.25093">
        <ele>1130.1999511719</ele>
        <time>2020-11-05T15:33:26.000Z</time>
      </trkpt>
      <trkpt lat="44.49732" lon="6.25093">
        <ele>1129.4000244141</ele>
        <time>2020-11-05T15:33:28.000Z</time>
      </trkpt>
      <trkpt lat="44.49732" lon="6.25092">
        <ele>1129</ele>
        <time>2020-11-05T15:33:29.000Z</time>
      </trkpt>
      <trkpt lat="44.49733" lon="6.25091">
        <ele>1128.8000488281</ele>
        <time>2020-11-05T15:33:30.000Z</time>
      </trkpt>
      <trkpt lat="44.49734" lon="6.25086">
        <ele>1128.4000244141</ele>
        <time>2020-11-05T15:33:32.000Z</time>
      </trkpt>
      <trkpt lat="44.49736" lon="6.2507">
        <ele>1128</ele>
        <time>2020-11-05T15:33:37.000Z</time>
      </trkpt>
      <trkpt lat="44.49738" lon="6.25064">
        <ele>1128</ele>
        <time>2020-11-05T15:33:39.000Z</time>
      </trkpt>
      <trkpt lat="44.49739" lon="6.25052">
        <ele>1126.5999755859</ele>
        <time>2020-11-05T15:33:43.000Z</time>
      </trkpt>
      <trkpt lat="44.4974" lon="6.2505">
        <ele>1126.1999511719</ele>
        <time>2020-11-05T15:33:44.000Z</time>
      </trkpt>
      <trkpt lat="44.49741" lon="6.25048">
        <ele>1125.5999755859</ele>
        <time>2020-11-05T15:33:45.000Z</time>
      </trkpt>
      <trkpt lat="44.49743" lon="6.25042">
        <ele>1124.1999511719</ele>
        <time>2020-11-05T15:33:48.000Z</time>
      </trkpt>
      <trkpt lat="44.49743" lon="6.25039">
        <ele>1123.8000488281</ele>
        <time>2020-11-05T15:33:49.000Z</time>
      </trkpt>
      <trkpt lat="44.49748" lon="6.2503">
        <ele>1123.1999511719</ele>
        <time>2020-11-05T15:33:52.000Z</time>
      </trkpt>
      <trkpt lat="44.4975" lon="6.25026">
        <ele>1123.1999511719</ele>
        <time>2020-11-05T15:33:53.000Z</time>
      </trkpt>
      <trkpt lat="44.49751" lon="6.25022">
        <ele>1123</ele>
        <time>2020-11-05T15:33:54.000Z</time>
      </trkpt>
      <trkpt lat="44.49754" lon="6.25013">
        <ele>1122.4000244141</ele>
        <time>2020-11-05T15:33:58.000Z</time>
      </trkpt>
      <trkpt lat="44.49754" lon="6.25011">
        <ele>1121.5999755859</ele>
        <time>2020-11-05T15:34:00.000Z</time>
      </trkpt>
      <trkpt lat="44.49754" lon="6.2501">
        <ele>1120.1999511719</ele>
        <time>2020-11-05T15:34:03.000Z</time>
      </trkpt>
      <trkpt lat="44.49755" lon="6.25009">
        <ele>1119.5999755859</ele>
        <time>2020-11-05T15:34:05.000Z</time>
      </trkpt>
      <trkpt lat="44.49756" lon="6.25008">
        <ele>1119</ele>
        <time>2020-11-05T15:34:11.000Z</time>
      </trkpt>
      <trkpt lat="44.49756" lon="6.25008">
        <ele>1119</ele>
        <time>2020-11-05T15:34:13.000Z</time>
      </trkpt>
      <trkpt lat="44.49756" lon="6.25007">
        <ele>1119</ele>
        <time>2020-11-05T15:34:21.000Z</time>
      </trkpt>
      <trkpt lat="44.49759" lon="6.25001">
        <ele>1119</ele>
        <time>2020-11-05T15:34:29.000Z</time>
      </trkpt>
      <trkpt lat="44.49761" lon="6.24983">
        <ele>1119</ele>
        <time>2020-11-05T15:34:33.000Z</time>
      </trkpt>
      <trkpt lat="44.49761" lon="6.24964">
        <ele>1118.5999755859</ele>
        <time>2020-11-05T15:34:37.000Z</time>
      </trkpt>
      <trkpt lat="44.4976" lon="6.24955">
        <ele>1117.4000244141</ele>
        <time>2020-11-05T15:34:39.000Z</time>
      </trkpt>
      <trkpt lat="44.49759" lon="6.24945">
        <ele>1116.4000244141</ele>
        <time>2020-11-05T15:34:41.000Z</time>
      </trkpt>
      <trkpt lat="44.49758" lon="6.24939">
        <ele>1116</ele>
        <time>2020-11-05T15:34:42.000Z</time>
      </trkpt>
      <trkpt lat="44.49756" lon="6.24917">
        <ele>1115</ele>
        <time>2020-11-05T15:34:46.000Z</time>
      </trkpt>
      <trkpt lat="44.49755" lon="6.24905">
        <ele>1114.5999755859</ele>
        <time>2020-11-05T15:34:48.000Z</time>
      </trkpt>
      <trkpt lat="44.49753" lon="6.24887">
        <ele>1114</ele>
        <time>2020-11-05T15:34:51.000Z</time>
      </trkpt>
      <trkpt lat="44.4975" lon="6.24864">
        <ele>1112.4000244141</ele>
        <time>2020-11-05T15:34:54.000Z</time>
      </trkpt>
      <trkpt lat="44.49749" lon="6.24857">
        <ele>1111.8000488281</ele>
        <time>2020-11-05T15:34:55.000Z</time>
      </trkpt>
      <trkpt lat="44.49747" lon="6.24851">
        <ele>1111.1999511719</ele>
        <time>2020-11-05T15:34:56.000Z</time>
      </trkpt>
      <trkpt lat="44.49745" lon="6.2484">
        <ele>1109.1999511719</ele>
        <time>2020-11-05T15:34:58.000Z</time>
      </trkpt>
      <trkpt lat="44.49743" lon="6.24833">
        <ele>1107.8000488281</ele>
        <time>2020-11-05T15:35:00.000Z</time>
      </trkpt>
      <trkpt lat="44.49742" lon="6.24828">
        <ele>1106</ele>
        <time>2020-11-05T15:35:02.000Z</time>
      </trkpt>
      <trkpt lat="44.49741" lon="6.2482">
        <ele>1104.4000244141</ele>
        <time>2020-11-05T15:35:04.000Z</time>
      </trkpt>
      <trkpt lat="44.4974" lon="6.24815">
        <ele>1103.5999755859</ele>
        <time>2020-11-05T15:35:05.000Z</time>
      </trkpt>
      <trkpt lat="44.4974" lon="6.24809">
        <ele>1103</ele>
        <time>2020-11-05T15:35:06.000Z</time>
      </trkpt>
      <trkpt lat="44.4974" lon="6.248">
        <ele>1101.8000488281</ele>
        <time>2020-11-05T15:35:08.000Z</time>
      </trkpt>
      <trkpt lat="44.4974" lon="6.24796">
        <ele>1101.8000488281</ele>
        <time>2020-11-05T15:35:09.000Z</time>
      </trkpt>
      <trkpt lat="44.49739" lon="6.24789">
        <ele>1100.5999755859</ele>
        <time>2020-11-05T15:35:12.000Z</time>
      </trkpt>
      <trkpt lat="44.49738" lon="6.24782">
        <ele>1099.1999511719</ele>
        <time>2020-11-05T15:35:14.000Z</time>
      </trkpt>
      <trkpt lat="44.49736" lon="6.24778">
        <ele>1098.5999755859</ele>
        <time>2020-11-05T15:35:15.000Z</time>
      </trkpt>
      <trkpt lat="44.49733" lon="6.24768">
        <ele>1098.1999511719</ele>
        <time>2020-11-05T15:35:17.000Z</time>
      </trkpt>
      <trkpt lat="44.4973" lon="6.24756">
        <ele>1098</ele>
        <time>2020-11-05T15:35:19.000Z</time>
      </trkpt>
      <trkpt lat="44.49726" lon="6.24736">
        <ele>1097</ele>
        <time>2020-11-05T15:35:23.000Z</time>
      </trkpt>
      <trkpt lat="44.49724" lon="6.24731">
        <ele>1096.4000244141</ele>
        <time>2020-11-05T15:35:24.000Z</time>
      </trkpt>
      <trkpt lat="44.49723" lon="6.24725">
        <ele>1095.8000488281</ele>
        <time>2020-11-05T15:35:25.000Z</time>
      </trkpt>
      <trkpt lat="44.49721" lon="6.24718">
        <ele>1094.8000488281</ele>
        <time>2020-11-05T15:35:26.000Z</time>
      </trkpt>
      <trkpt lat="44.49718" lon="6.24705">
        <ele>1093.4000244141</ele>
        <time>2020-11-05T15:35:28.000Z</time>
      </trkpt>
      <trkpt lat="44.49717" lon="6.24698">
        <ele>1092.1999511719</ele>
        <time>2020-11-05T15:35:30.000Z</time>
      </trkpt>
      <trkpt lat="44.49715" lon="6.24692">
        <ele>1091.4000244141</ele>
        <time>2020-11-05T15:35:32.000Z</time>
      </trkpt>
      <trkpt lat="44.49715" lon="6.24689">
        <ele>1090.8000488281</ele>
        <time>2020-11-05T15:35:33.000Z</time>
      </trkpt>
      <trkpt lat="44.49714" lon="6.24685">
        <ele>1089.4000244141</ele>
        <time>2020-11-05T15:35:36.000Z</time>
      </trkpt>
      <trkpt lat="44.49714" lon="6.24685">
        <ele>1089.4000244141</ele>
        <time>2020-11-05T15:35:37.000Z</time>
      </trkpt>
      <trkpt lat="44.49713" lon="6.24682">
        <ele>1089.4000244141</ele>
        <time>2020-11-05T15:35:41.000Z</time>
      </trkpt>
      <trkpt lat="44.49711" lon="6.24679">
        <ele>1089.4000244141</ele>
        <time>2020-11-05T15:35:43.000Z</time>
      </trkpt>
      <trkpt lat="44.49707" lon="6.24669">
        <ele>1089.4000244141</ele>
        <time>2020-11-05T15:35:47.000Z</time>
      </trkpt>
      <trkpt lat="44.49707" lon="6.24665">
        <ele>1089.4000244141</ele>
        <time>2020-11-05T15:35:48.000Z</time>
      </trkpt>
      <trkpt lat="44.49707" lon="6.2465">
        <ele>1089.1999511719</ele>
        <time>2020-11-05T15:35:51.000Z</time>
      </trkpt>
      <trkpt lat="44.49705" lon="6.24639">
        <ele>1089</ele>
        <time>2020-11-05T15:35:53.000Z</time>
      </trkpt>
      <trkpt lat="44.49704" lon="6.24624">
        <ele>1088.1999511719</ele>
        <time>2020-11-05T15:35:56.000Z</time>
      </trkpt>
      <trkpt lat="44.49702" lon="6.24619">
        <ele>1087.8000488281</ele>
        <time>2020-11-05T15:35:57.000Z</time>
      </trkpt>
      <trkpt lat="44.497" lon="6.24606">
        <ele>1087</ele>
        <time>2020-11-05T15:35:59.000Z</time>
      </trkpt>
      <trkpt lat="44.497" lon="6.24592">
        <ele>1086</ele>
        <time>2020-11-05T15:36:01.000Z</time>
      </trkpt>
      <trkpt lat="44.49699" lon="6.24584">
        <ele>1085.5999755859</ele>
        <time>2020-11-05T15:36:02.000Z</time>
      </trkpt>
      <trkpt lat="44.49698" lon="6.24578">
        <ele>1085</ele>
        <time>2020-11-05T15:36:03.000Z</time>
      </trkpt>
      <trkpt lat="44.49694" lon="6.24566">
        <ele>1084</ele>
        <time>2020-11-05T15:36:05.000Z</time>
      </trkpt>
      <trkpt lat="44.49687" lon="6.24556">
        <ele>1082.5999755859</ele>
        <time>2020-11-05T15:36:07.000Z</time>
      </trkpt>
      <trkpt lat="44.49677" lon="6.24544">
        <ele>1081.1999511719</ele>
        <time>2020-11-05T15:36:09.000Z</time>
      </trkpt>
      <trkpt lat="44.49668" lon="6.24532">
        <ele>1079.5999755859</ele>
        <time>2020-11-05T15:36:11.000Z</time>
      </trkpt>
      <trkpt lat="44.49665" lon="6.24526">
        <ele>1079.1999511719</ele>
        <time>2020-11-05T15:36:12.000Z</time>
      </trkpt>
      <trkpt lat="44.49662" lon="6.24521">
        <ele>1078.5999755859</ele>
        <time>2020-11-05T15:36:13.000Z</time>
      </trkpt>
      <trkpt lat="44.49659" lon="6.24516">
        <ele>1078</ele>
        <time>2020-11-05T15:36:14.000Z</time>
      </trkpt>
      <trkpt lat="44.49654" lon="6.24507">
        <ele>1076.4000244141</ele>
        <time>2020-11-05T15:36:16.000Z</time>
      </trkpt>
      <trkpt lat="44.49646" lon="6.24497">
        <ele>1074</ele>
        <time>2020-11-05T15:36:18.000Z</time>
      </trkpt>
      <trkpt lat="44.49642" lon="6.24492">
        <ele>1073</ele>
        <time>2020-11-05T15:36:19.000Z</time>
      </trkpt>
      <trkpt lat="44.49632" lon="6.24481">
        <ele>1072</ele>
        <time>2020-11-05T15:36:21.000Z</time>
      </trkpt>
      <trkpt lat="44.49622" lon="6.24469">
        <ele>1071.1999511719</ele>
        <time>2020-11-05T15:36:23.000Z</time>
      </trkpt>
      <trkpt lat="44.49616" lon="6.24461">
        <ele>1070.5999755859</ele>
        <time>2020-11-05T15:36:25.000Z</time>
      </trkpt>
      <trkpt lat="44.49612" lon="6.24452">
        <ele>1069.1999511719</ele>
        <time>2020-11-05T15:36:27.000Z</time>
      </trkpt>
      <trkpt lat="44.49608" lon="6.2444">
        <ele>1066</ele>
        <time>2020-11-05T15:36:29.000Z</time>
      </trkpt>
      <trkpt lat="44.49602" lon="6.24426">
        <ele>1064.4000244141</ele>
        <time>2020-11-05T15:36:31.000Z</time>
      </trkpt>
      <trkpt lat="44.49594" lon="6.24406">
        <ele>1063.1999511719</ele>
        <time>2020-11-05T15:36:34.000Z</time>
      </trkpt>
      <trkpt lat="44.49591" lon="6.244">
        <ele>1062.8000488281</ele>
        <time>2020-11-05T15:36:35.000Z</time>
      </trkpt>
      <trkpt lat="44.49589" lon="6.24397">
        <ele>1062.4000244141</ele>
        <time>2020-11-05T15:36:36.000Z</time>
      </trkpt>
      <trkpt lat="44.49588" lon="6.24395">
        <ele>1061.8000488281</ele>
        <time>2020-11-05T15:36:37.000Z</time>
      </trkpt>
      <trkpt lat="44.49587" lon="6.24395">
        <ele>1060.4000244141</ele>
        <time>2020-11-05T15:36:39.000Z</time>
      </trkpt>
      <trkpt lat="44.49587" lon="6.24394">
        <ele>1058.8000488281</ele>
        <time>2020-11-05T15:36:41.000Z</time>
      </trkpt>
      <trkpt lat="44.49586" lon="6.24391">
        <ele>1058</ele>
        <time>2020-11-05T15:36:49.000Z</time>
      </trkpt>
      <trkpt lat="44.49585" lon="6.2439">
        <ele>1057.5999755859</ele>
        <time>2020-11-05T15:36:59.000Z</time>
      </trkpt>
      <trkpt lat="44.49585" lon="6.2439">
        <ele>1057.5999755859</ele>
        <time>2020-11-05T15:37:00.000Z</time>
      </trkpt>
      <trkpt lat="44.49585" lon="6.2439">
        <ele>1057.4000244141</ele>
        <time>2020-11-05T15:37:23.000Z</time>
      </trkpt>
      <trkpt lat="44.49585" lon="6.2439">
        <ele>1057.4000244141</ele>
        <time>2020-11-05T15:38:27.000Z</time>
      </trkpt>
      <trkpt lat="44.49585" lon="6.24387">
        <ele>1057.4000244141</ele>
        <time>2020-11-05T15:38:30.000Z</time>
      </trkpt>
      <trkpt lat="44.49582" lon="6.24382">
        <ele>1057.4000244141</ele>
        <time>2020-11-05T15:38:32.000Z</time>
      </trkpt>
      <trkpt lat="44.49574" lon="6.24363">
        <ele>1057.4000244141</ele>
        <time>2020-11-05T15:38:37.000Z</time>
      </trkpt>
      <trkpt lat="44.49567" lon="6.24348">
        <ele>1057.4000244141</ele>
        <time>2020-11-05T15:38:40.000Z</time>
      </trkpt>
      <trkpt lat="44.49562" lon="6.24336">
        <ele>1056.4000244141</ele>
        <time>2020-11-05T15:38:42.000Z</time>
      </trkpt>
      <trkpt lat="44.49559" lon="6.2433">
        <ele>1055.8000488281</ele>
        <time>2020-11-05T15:38:43.000Z</time>
      </trkpt>
      <trkpt lat="44.49554" lon="6.24319">
        <ele>1054.4000244141</ele>
        <time>2020-11-05T15:38:45.000Z</time>
      </trkpt>
      <trkpt lat="44.49551" lon="6.24312">
        <ele>1053.5999755859</ele>
        <time>2020-11-05T15:38:46.000Z</time>
      </trkpt>
      <trkpt lat="44.49547" lon="6.24305">
        <ele>1052.8000488281</ele>
        <time>2020-11-05T15:38:47.000Z</time>
      </trkpt>
      <trkpt lat="44.49539" lon="6.24294">
        <ele>1050.4000244141</ele>
        <time>2020-11-05T15:38:49.000Z</time>
      </trkpt>
      <trkpt lat="44.49535" lon="6.24289">
        <ele>1049.5999755859</ele>
        <time>2020-11-05T15:38:50.000Z</time>
      </trkpt>
      <trkpt lat="44.4953" lon="6.24283">
        <ele>1048.5999755859</ele>
        <time>2020-11-05T15:38:51.000Z</time>
      </trkpt>
      <trkpt lat="44.4952" lon="6.24271">
        <ele>1047.1999511719</ele>
        <time>2020-11-05T15:38:53.000Z</time>
      </trkpt>
      <trkpt lat="44.49514" lon="6.24265">
        <ele>1046.4000244141</ele>
        <time>2020-11-05T15:38:54.000Z</time>
      </trkpt>
      <trkpt lat="44.49508" lon="6.24259">
        <ele>1045.8000488281</ele>
        <time>2020-11-05T15:38:55.000Z</time>
      </trkpt>
      <trkpt lat="44.49498" lon="6.24248">
        <ele>1044.4000244141</ele>
        <time>2020-11-05T15:38:57.000Z</time>
      </trkpt>
      <trkpt lat="44.49495" lon="6.24243">
        <ele>1043.8000488281</ele>
        <time>2020-11-05T15:38:58.000Z</time>
      </trkpt>
      <trkpt lat="44.49494" lon="6.24237">
        <ele>1043</ele>
        <time>2020-11-05T15:38:59.000Z</time>
      </trkpt>
      <trkpt lat="44.49495" lon="6.24231">
        <ele>1041.5999755859</ele>
        <time>2020-11-05T15:39:00.000Z</time>
      </trkpt>
      <trkpt lat="44.49497" lon="6.24225">
        <ele>1040.4000244141</ele>
        <time>2020-11-05T15:39:01.000Z</time>
      </trkpt>
      <trkpt lat="44.49499" lon="6.24221">
        <ele>1039.4000244141</ele>
        <time>2020-11-05T15:39:02.000Z</time>
      </trkpt>
      <trkpt lat="44.49501" lon="6.24219">
        <ele>1038.1999511719</ele>
        <time>2020-11-05T15:39:03.000Z</time>
      </trkpt>
      <trkpt lat="44.49502" lon="6.24218">
        <ele>1037.1999511719</ele>
        <time>2020-11-05T15:39:04.000Z</time>
      </trkpt>
      <trkpt lat="44.49503" lon="6.24216">
        <ele>1036.4000244141</ele>
        <time>2020-11-05T15:39:05.000Z</time>
      </trkpt>
      <trkpt lat="44.49507" lon="6.2421">
        <ele>1035.4000244141</ele>
        <time>2020-11-05T15:39:07.000Z</time>
      </trkpt>
      <trkpt lat="44.49508" lon="6.24207">
        <ele>1034.8000488281</ele>
        <time>2020-11-05T15:39:08.000Z</time>
      </trkpt>
      <trkpt lat="44.4951" lon="6.24202">
        <ele>1033.5999755859</ele>
        <time>2020-11-05T15:39:10.000Z</time>
      </trkpt>
      <trkpt lat="44.4951" lon="6.24194">
        <ele>1033.1999511719</ele>
        <time>2020-11-05T15:39:12.000Z</time>
      </trkpt>
      <trkpt lat="44.49514" lon="6.24182">
        <ele>1032.5999755859</ele>
        <time>2020-11-05T15:39:16.000Z</time>
      </trkpt>
      <trkpt lat="44.49514" lon="6.2418">
        <ele>1032.4000244141</ele>
        <time>2020-11-05T15:39:17.000Z</time>
      </trkpt>
      <trkpt lat="44.49515" lon="6.24178">
        <ele>1032.4000244141</ele>
        <time>2020-11-05T15:39:21.000Z</time>
      </trkpt>
      <trkpt lat="44.49515" lon="6.24178">
        <ele>1032.5999755859</ele>
        <time>2020-11-05T15:39:29.000Z</time>
      </trkpt>
      <trkpt lat="44.49514" lon="6.24178">
        <ele>1032.8000488281</ele>
        <time>2020-11-05T15:39:35.000Z</time>
      </trkpt>
      <trkpt lat="44.49514" lon="6.24178">
        <ele>1032.8000488281</ele>
        <time>2020-11-05T15:39:49.000Z</time>
      </trkpt>
      <trkpt lat="44.49514" lon="6.24175">
        <ele>1032.8000488281</ele>
        <time>2020-11-05T15:40:06.000Z</time>
      </trkpt>
      <trkpt lat="44.49513" lon="6.2417">
        <ele>1032.8000488281</ele>
        <time>2020-11-05T15:40:08.000Z</time>
      </trkpt>
      <trkpt lat="44.4951" lon="6.24164">
        <ele>1032.8000488281</ele>
        <time>2020-11-05T15:40:11.000Z</time>
      </trkpt>
      <trkpt lat="44.49506" lon="6.2416">
        <ele>1032.8000488281</ele>
        <time>2020-11-05T15:40:14.000Z</time>
      </trkpt>
      <trkpt lat="44.49503" lon="6.24159">
        <ele>1032.8000488281</ele>
        <time>2020-11-05T15:40:16.000Z</time>
      </trkpt>
      <trkpt lat="44.495" lon="6.24159">
        <ele>1032.8000488281</ele>
        <time>2020-11-05T15:40:18.000Z</time>
      </trkpt>
      <trkpt lat="44.49498" lon="6.24158">
        <ele>1032.8000488281</ele>
        <time>2020-11-05T15:40:22.000Z</time>
      </trkpt>
      <trkpt lat="44.49498" lon="6.24157">
        <ele>1033.1999511719</ele>
        <time>2020-11-05T15:40:27.000Z</time>
      </trkpt>
      <trkpt lat="44.49498" lon="6.24158">
        <ele>1033.5999755859</ele>
        <time>2020-11-05T15:40:32.000Z</time>
      </trkpt>
      <trkpt lat="44.49498" lon="6.24158">
        <ele>1033.8000488281</ele>
        <time>2020-11-05T15:40:45.000Z</time>
      </trkpt>
      <trkpt lat="44.49498" lon="6.24158">
        <ele>1033.8000488281</ele>
        <time>2020-11-05T15:41:01.000Z</time>
      </trkpt>
      <trkpt lat="44.49495" lon="6.24159">
        <ele>1033.8000488281</ele>
        <time>2020-11-05T15:41:20.000Z</time>
      </trkpt>
      <trkpt lat="44.49487" lon="6.24155">
        <ele>1033.5999755859</ele>
        <time>2020-11-05T15:41:26.000Z</time>
      </trkpt>
      <trkpt lat="44.49483" lon="6.24153">
        <ele>1034</ele>
        <time>2020-11-05T15:41:29.000Z</time>
      </trkpt>
      <trkpt lat="44.49479" lon="6.24153">
        <ele>1034</ele>
        <time>2020-11-05T15:41:32.000Z</time>
      </trkpt>
      <trkpt lat="44.49479" lon="6.24153">
        <ele>1034</ele>
        <time>2020-11-05T15:41:33.000Z</time>
      </trkpt>
      <trkpt lat="44.49479" lon="6.24153">
        <ele>1034</ele>
        <time>2020-11-05T15:41:41.000Z</time>
      </trkpt>
      <trkpt lat="44.49479" lon="6.24153">
        <ele>1034.1999511719</ele>
        <time>2020-11-05T15:41:52.000Z</time>
      </trkpt>
      <trkpt lat="44.49479" lon="6.24153">
        <ele>1034</ele>
        <time>2020-11-05T15:42:04.000Z</time>
      </trkpt>
      <trkpt lat="44.49474" lon="6.24157">
        <ele>1034</ele>
        <time>2020-11-05T15:42:09.000Z</time>
      </trkpt>
      <trkpt lat="44.4947" lon="6.2416">
        <ele>1034</ele>
        <time>2020-11-05T15:42:12.000Z</time>
      </trkpt>
      <trkpt lat="44.49468" lon="6.24161">
        <ele>1034</ele>
        <time>2020-11-05T15:42:13.000Z</time>
      </trkpt>
      <trkpt lat="44.4946" lon="6.24167">
        <ele>1034.1999511719</ele>
        <time>2020-11-05T15:42:18.000Z</time>
      </trkpt>
      <trkpt lat="44.49453" lon="6.24173">
        <ele>1034.5999755859</ele>
        <time>2020-11-05T15:42:23.000Z</time>
      </trkpt>
      <trkpt lat="44.49451" lon="6.24174">
        <ele>1034.8000488281</ele>
        <time>2020-11-05T15:42:24.000Z</time>
      </trkpt>
      <trkpt lat="44.4944" lon="6.24177">
        <ele>1035.4000244141</ele>
        <time>2020-11-05T15:42:30.000Z</time>
      </trkpt>
      <trkpt lat="44.49435" lon="6.24178">
        <ele>1035.8000488281</ele>
        <time>2020-11-05T15:42:32.000Z</time>
      </trkpt>
      <trkpt lat="44.49423" lon="6.24182">
        <ele>1036</ele>
        <time>2020-11-05T15:42:37.000Z</time>
      </trkpt>
      <trkpt lat="44.49406" lon="6.24184">
        <ele>1036.1999511719</ele>
        <time>2020-11-05T15:42:42.000Z</time>
      </trkpt>
      <trkpt lat="44.49378" lon="6.24183">
        <ele>1036.1999511719</ele>
        <time>2020-11-05T15:42:46.000Z</time>
      </trkpt>
      <trkpt lat="44.49345" lon="6.24176">
        <ele>1035</ele>
        <time>2020-11-05T15:42:50.000Z</time>
      </trkpt>
      <trkpt lat="44.49338" lon="6.24172">
        <ele>1034.1999511719</ele>
        <time>2020-11-05T15:42:51.000Z</time>
      </trkpt>
      <trkpt lat="44.49326" lon="6.24161">
        <ele>1032.1999511719</ele>
        <time>2020-11-05T15:42:53.000Z</time>
      </trkpt>
      <trkpt lat="44.4932" lon="6.24156">
        <ele>1030.5999755859</ele>
        <time>2020-11-05T15:42:54.000Z</time>
      </trkpt>
      <trkpt lat="44.49315" lon="6.2415">
        <ele>1029.4000244141</ele>
        <time>2020-11-05T15:42:55.000Z</time>
      </trkpt>
      <trkpt lat="44.49306" lon="6.2414">
        <ele>1027.8000488281</ele>
        <time>2020-11-05T15:42:57.000Z</time>
      </trkpt>
      <trkpt lat="44.49296" lon="6.24132">
        <ele>1027.4000244141</ele>
        <time>2020-11-05T15:42:59.000Z</time>
      </trkpt>
      <trkpt lat="44.49273" lon="6.24118">
        <ele>1027</ele>
        <time>2020-11-05T15:43:03.000Z</time>
      </trkpt>
      <trkpt lat="44.49258" lon="6.241">
        <ele>1026.8000488281</ele>
        <time>2020-11-05T15:43:06.000Z</time>
      </trkpt>
      <trkpt lat="44.49251" lon="6.24098">
        <ele>1026.8000488281</ele>
        <time>2020-11-05T15:43:07.000Z</time>
      </trkpt>
      <trkpt lat="44.49244" lon="6.24097">
        <ele>1026.5999755859</ele>
        <time>2020-11-05T15:43:08.000Z</time>
      </trkpt>
      <trkpt lat="44.49231" lon="6.24091">
        <ele>1024.8000488281</ele>
        <time>2020-11-05T15:43:10.000Z</time>
      </trkpt>
      <trkpt lat="44.49226" lon="6.24084">
        <ele>1023.799987793</ele>
        <time>2020-11-05T15:43:11.000Z</time>
      </trkpt>
      <trkpt lat="44.4922" lon="6.24077">
        <ele>1023</ele>
        <time>2020-11-05T15:43:12.000Z</time>
      </trkpt>
      <trkpt lat="44.49209" lon="6.24058">
        <ele>1021.200012207</ele>
        <time>2020-11-05T15:43:14.000Z</time>
      </trkpt>
      <trkpt lat="44.49202" lon="6.24049">
        <ele>1019.4000244141</ele>
        <time>2020-11-05T15:43:15.000Z</time>
      </trkpt>
      <trkpt lat="44.49195" lon="6.24042">
        <ele>1017.799987793</ele>
        <time>2020-11-05T15:43:16.000Z</time>
      </trkpt>
      <trkpt lat="44.49186" lon="6.24039">
        <ele>1016.5999755859</ele>
        <time>2020-11-05T15:43:17.000Z</time>
      </trkpt>
      <trkpt lat="44.49178" lon="6.24034">
        <ele>1016.200012207</ele>
        <time>2020-11-05T15:43:18.000Z</time>
      </trkpt>
      <trkpt lat="44.4917" lon="6.2403">
        <ele>1015.5999755859</ele>
        <time>2020-11-05T15:43:19.000Z</time>
      </trkpt>
      <trkpt lat="44.49154" lon="6.24016">
        <ele>1013.799987793</ele>
        <time>2020-11-05T15:43:21.000Z</time>
      </trkpt>
      <trkpt lat="44.49146" lon="6.24008">
        <ele>1012.5999755859</ele>
        <time>2020-11-05T15:43:22.000Z</time>
      </trkpt>
      <trkpt lat="44.49128" lon="6.23991">
        <ele>1010</ele>
        <time>2020-11-05T15:43:24.000Z</time>
      </trkpt>
      <trkpt lat="44.49112" lon="6.23977">
        <ele>1008.5999755859</ele>
        <time>2020-11-05T15:43:26.000Z</time>
      </trkpt>
      <trkpt lat="44.49104" lon="6.23973">
        <ele>1008.200012207</ele>
        <time>2020-11-05T15:43:27.000Z</time>
      </trkpt>
      <trkpt lat="44.49089" lon="6.23969">
        <ele>1006.4000244141</ele>
        <time>2020-11-05T15:43:29.000Z</time>
      </trkpt>
      <trkpt lat="44.4908" lon="6.2397">
        <ele>1004.5999755859</ele>
        <time>2020-11-05T15:43:30.000Z</time>
      </trkpt>
      <trkpt lat="44.49073" lon="6.23972">
        <ele>1002.4000244141</ele>
        <time>2020-11-05T15:43:31.000Z</time>
      </trkpt>
      <trkpt lat="44.49066" lon="6.23973">
        <ele>1000.799987793</ele>
        <time>2020-11-05T15:43:32.000Z</time>
      </trkpt>
      <trkpt lat="44.49061" lon="6.23971">
        <ele>999.20001220703</ele>
        <time>2020-11-05T15:43:33.000Z</time>
      </trkpt>
      <trkpt lat="44.49049" lon="6.23963">
        <ele>997.79998779297</ele>
        <time>2020-11-05T15:43:35.000Z</time>
      </trkpt>
      <trkpt lat="44.49036" lon="6.23954">
        <ele>996.79998779297</ele>
        <time>2020-11-05T15:43:37.000Z</time>
      </trkpt>
      <trkpt lat="44.49028" lon="6.2395">
        <ele>995.40002441406</ele>
        <time>2020-11-05T15:43:38.000Z</time>
      </trkpt>
      <trkpt lat="44.49021" lon="6.23946">
        <ele>994.20001220703</ele>
        <time>2020-11-05T15:43:39.000Z</time>
      </trkpt>
      <trkpt lat="44.49006" lon="6.23934">
        <ele>993</ele>
        <time>2020-11-05T15:43:41.000Z</time>
      </trkpt>
      <trkpt lat="44.48996" lon="6.23925">
        <ele>991.40002441406</ele>
        <time>2020-11-05T15:43:43.000Z</time>
      </trkpt>
      <trkpt lat="44.48993" lon="6.23923">
        <ele>990.40002441406</ele>
        <time>2020-11-05T15:43:44.000Z</time>
      </trkpt>
      <trkpt lat="44.4899" lon="6.23922">
        <ele>989.40002441406</ele>
        <time>2020-11-05T15:43:45.000Z</time>
      </trkpt>
      <trkpt lat="44.48987" lon="6.23923">
        <ele>988.40002441406</ele>
        <time>2020-11-05T15:43:46.000Z</time>
      </trkpt>
      <trkpt lat="44.48985" lon="6.23926">
        <ele>987.20001220703</ele>
        <time>2020-11-05T15:43:47.000Z</time>
      </trkpt>
      <trkpt lat="44.48984" lon="6.23931">
        <ele>986</ele>
        <time>2020-11-05T15:43:48.000Z</time>
      </trkpt>
      <trkpt lat="44.48985" lon="6.23935">
        <ele>984.40002441406</ele>
        <time>2020-11-05T15:43:49.000Z</time>
      </trkpt>
      <trkpt lat="44.48986" lon="6.23939">
        <ele>983.40002441406</ele>
        <time>2020-11-05T15:43:50.000Z</time>
      </trkpt>
      <trkpt lat="44.48988" lon="6.23943">
        <ele>982.59997558594</ele>
        <time>2020-11-05T15:43:51.000Z</time>
      </trkpt>
      <trkpt lat="44.48991" lon="6.23947">
        <ele>982.20001220703</ele>
        <time>2020-11-05T15:43:52.000Z</time>
      </trkpt>
      <trkpt lat="44.48996" lon="6.23958">
        <ele>981</ele>
        <time>2020-11-05T15:43:54.000Z</time>
      </trkpt>
      <trkpt lat="44.48998" lon="6.23964">
        <ele>980.59997558594</ele>
        <time>2020-11-05T15:43:55.000Z</time>
      </trkpt>
      <trkpt lat="44.48999" lon="6.23979">
        <ele>980</ele>
        <time>2020-11-05T15:43:58.000Z</time>
      </trkpt>
      <trkpt lat="44.48999" lon="6.23984">
        <ele>979.59997558594</ele>
        <time>2020-11-05T15:43:59.000Z</time>
      </trkpt>
      <trkpt lat="44.48997" lon="6.23997">
        <ele>978.40002441406</ele>
        <time>2020-11-05T15:44:02.000Z</time>
      </trkpt>
      <trkpt lat="44.48996" lon="6.24">
        <ele>978.20001220703</ele>
        <time>2020-11-05T15:44:03.000Z</time>
      </trkpt>
      <trkpt lat="44.48987" lon="6.24007">
        <ele>978</ele>
        <time>2020-11-05T15:44:08.000Z</time>
      </trkpt>
      <trkpt lat="44.4898" lon="6.24005">
        <ele>978</ele>
        <time>2020-11-05T15:44:11.000Z</time>
      </trkpt>
      <trkpt lat="44.48976" lon="6.24004">
        <ele>978.40002441406</ele>
        <time>2020-11-05T15:44:13.000Z</time>
      </trkpt>
      <trkpt lat="44.48965" lon="6.23996">
        <ele>979</ele>
        <time>2020-11-05T15:44:19.000Z</time>
      </trkpt>
      <trkpt lat="44.48963" lon="6.23993">
        <ele>979.40002441406</ele>
        <time>2020-11-05T15:44:20.000Z</time>
      </trkpt>
      <trkpt lat="44.48955" lon="6.2399">
        <ele>979.40002441406</ele>
        <time>2020-11-05T15:44:22.000Z</time>
      </trkpt>
      <trkpt lat="44.48951" lon="6.23988">
        <ele>979.59997558594</ele>
        <time>2020-11-05T15:44:23.000Z</time>
      </trkpt>
      <trkpt lat="44.48943" lon="6.23984">
        <ele>979.59997558594</ele>
        <time>2020-11-05T15:44:27.000Z</time>
      </trkpt>
      <trkpt lat="44.48936" lon="6.23981">
        <ele>979.59997558594</ele>
        <time>2020-11-05T15:44:36.000Z</time>
      </trkpt>
      <trkpt lat="44.48925" lon="6.23977">
        <ele>979.59997558594</ele>
        <time>2020-11-05T15:44:42.000Z</time>
      </trkpt>
      <trkpt lat="44.48912" lon="6.23976">
        <ele>980.59997558594</ele>
        <time>2020-11-05T15:44:48.000Z</time>
      </trkpt>
      <trkpt lat="44.48898" lon="6.23975">
        <ele>981.59997558594</ele>
        <time>2020-11-05T15:44:55.000Z</time>
      </trkpt>
      <trkpt lat="44.48896" lon="6.23976">
        <ele>981.59997558594</ele>
        <time>2020-11-05T15:44:56.000Z</time>
      </trkpt>
      <trkpt lat="44.4889" lon="6.23983">
        <ele>982.40002441406</ele>
        <time>2020-11-05T15:45:00.000Z</time>
      </trkpt>
      <trkpt lat="44.48889" lon="6.23987">
        <ele>982.79998779297</ele>
        <time>2020-11-05T15:45:02.000Z</time>
      </trkpt>
      <trkpt lat="44.48887" lon="6.23992">
        <ele>983.40002441406</ele>
        <time>2020-11-05T15:45:05.000Z</time>
      </trkpt>
      <trkpt lat="44.48883" lon="6.23996">
        <ele>983.79998779297</ele>
        <time>2020-11-05T15:45:08.000Z</time>
      </trkpt>
      <trkpt lat="44.48877" lon="6.23998">
        <ele>984.40002441406</ele>
        <time>2020-11-05T15:45:11.000Z</time>
      </trkpt>
      <trkpt lat="44.48872" lon="6.23994">
        <ele>984.79998779297</ele>
        <time>2020-11-05T15:45:14.000Z</time>
      </trkpt>
      <trkpt lat="44.48869" lon="6.23991">
        <ele>985.40002441406</ele>
        <time>2020-11-05T15:45:16.000Z</time>
      </trkpt>
      <trkpt lat="44.48865" lon="6.23986">
        <ele>985.79998779297</ele>
        <time>2020-11-05T15:45:18.000Z</time>
      </trkpt>
      <trkpt lat="44.48858" lon="6.23976">
        <ele>986.59997558594</ele>
        <time>2020-11-05T15:45:22.000Z</time>
      </trkpt>
      <trkpt lat="44.48855" lon="6.23971">
        <ele>987</ele>
        <time>2020-11-05T15:45:24.000Z</time>
      </trkpt>
      <trkpt lat="44.48848" lon="6.23958">
        <ele>988</ele>
        <time>2020-11-05T15:45:29.000Z</time>
      </trkpt>
      <trkpt lat="44.48846" lon="6.23956">
        <ele>988.40002441406</ele>
        <time>2020-11-05T15:45:30.000Z</time>
      </trkpt>
      <trkpt lat="44.48836" lon="6.23951">
        <ele>989.40002441406</ele>
        <time>2020-11-05T15:45:34.000Z</time>
      </trkpt>
      <trkpt lat="44.48831" lon="6.23949">
        <ele>990</ele>
        <time>2020-11-05T15:45:36.000Z</time>
      </trkpt>
      <trkpt lat="44.48826" lon="6.23948">
        <ele>990.59997558594</ele>
        <time>2020-11-05T15:45:38.000Z</time>
      </trkpt>
      <trkpt lat="44.48816" lon="6.23944">
        <ele>991.59997558594</ele>
        <time>2020-11-05T15:45:42.000Z</time>
      </trkpt>
      <trkpt lat="44.48811" lon="6.23942">
        <ele>992.20001220703</ele>
        <time>2020-11-05T15:45:44.000Z</time>
      </trkpt>
      <trkpt lat="44.48806" lon="6.23939">
        <ele>992.59997558594</ele>
        <time>2020-11-05T15:45:46.000Z</time>
      </trkpt>
      <trkpt lat="44.48794" lon="6.23934">
        <ele>993.79998779297</ele>
        <time>2020-11-05T15:45:51.000Z</time>
      </trkpt>
      <trkpt lat="44.48791" lon="6.23932">
        <ele>994</ele>
        <time>2020-11-05T15:45:52.000Z</time>
      </trkpt>
      <trkpt lat="44.48783" lon="6.23928">
        <ele>995</ele>
        <time>2020-11-05T15:45:56.000Z</time>
      </trkpt>
      <trkpt lat="44.48775" lon="6.2392">
        <ele>995.79998779297</ele>
        <time>2020-11-05T15:46:00.000Z</time>
      </trkpt>
      <trkpt lat="44.48773" lon="6.23917">
        <ele>996.20001220703</ele>
        <time>2020-11-05T15:46:01.000Z</time>
      </trkpt>
      <trkpt lat="44.48769" lon="6.23903">
        <ele>997</ele>
        <time>2020-11-05T15:46:05.000Z</time>
      </trkpt>
      <trkpt lat="44.48767" lon="6.23899">
        <ele>997.20001220703</ele>
        <time>2020-11-05T15:46:06.000Z</time>
      </trkpt>
      <trkpt lat="44.4876" lon="6.23885">
        <ele>998.79998779297</ele>
        <time>2020-11-05T15:46:11.000Z</time>
      </trkpt>
      <trkpt lat="44.48752" lon="6.23873">
        <ele>999.79998779297</ele>
        <time>2020-11-05T15:46:16.000Z</time>
      </trkpt>
      <trkpt lat="44.48748" lon="6.2387">
        <ele>1000.5999755859</ele>
        <time>2020-11-05T15:46:18.000Z</time>
      </trkpt>
      <trkpt lat="44.48743" lon="6.23867">
        <ele>1001.200012207</ele>
        <time>2020-11-05T15:46:20.000Z</time>
      </trkpt>
      <trkpt lat="44.48733" lon="6.23867">
        <ele>1002.4000244141</ele>
        <time>2020-11-05T15:46:24.000Z</time>
      </trkpt>
      <trkpt lat="44.48723" lon="6.23872">
        <ele>1003.799987793</ele>
        <time>2020-11-05T15:46:28.000Z</time>
      </trkpt>
      <trkpt lat="44.48716" lon="6.23877">
        <ele>1004.5999755859</ele>
        <time>2020-11-05T15:46:31.000Z</time>
      </trkpt>
      <trkpt lat="44.48711" lon="6.2388">
        <ele>1005</ele>
        <time>2020-11-05T15:46:33.000Z</time>
      </trkpt>
      <trkpt lat="44.48699" lon="6.23887">
        <ele>1006.200012207</ele>
        <time>2020-11-05T15:46:38.000Z</time>
      </trkpt>
      <trkpt lat="44.48686" lon="6.23885">
        <ele>1007.4000244141</ele>
        <time>2020-11-05T15:46:43.000Z</time>
      </trkpt>
      <trkpt lat="44.48684" lon="6.23883">
        <ele>1007.5999755859</ele>
        <time>2020-11-05T15:46:44.000Z</time>
      </trkpt>
      <trkpt lat="44.48676" lon="6.23872">
        <ele>1008.5999755859</ele>
        <time>2020-11-05T15:46:48.000Z</time>
      </trkpt>
      <trkpt lat="44.48668" lon="6.23864">
        <ele>1009.799987793</ele>
        <time>2020-11-05T15:46:52.000Z</time>
      </trkpt>
      <trkpt lat="44.48665" lon="6.23863">
        <ele>1010.200012207</ele>
        <time>2020-11-05T15:46:53.000Z</time>
      </trkpt>
      <trkpt lat="44.48658" lon="6.23861">
        <ele>1010.799987793</ele>
        <time>2020-11-05T15:46:56.000Z</time>
      </trkpt>
      <trkpt lat="44.48648" lon="6.23862">
        <ele>1011.799987793</ele>
        <time>2020-11-05T15:47:00.000Z</time>
      </trkpt>
      <trkpt lat="44.48646" lon="6.23863">
        <ele>1012</ele>
        <time>2020-11-05T15:47:01.000Z</time>
      </trkpt>
      <trkpt lat="44.48636" lon="6.23867">
        <ele>1013.200012207</ele>
        <time>2020-11-05T15:47:05.000Z</time>
      </trkpt>
      <trkpt lat="44.48633" lon="6.23868">
        <ele>1013.5999755859</ele>
        <time>2020-11-05T15:47:06.000Z</time>
      </trkpt>
      <trkpt lat="44.48627" lon="6.23867">
        <ele>1014.4000244141</ele>
        <time>2020-11-05T15:47:09.000Z</time>
      </trkpt>
      <trkpt lat="44.48624" lon="6.23864">
        <ele>1014.5999755859</ele>
        <time>2020-11-05T15:47:11.000Z</time>
      </trkpt>
      <trkpt lat="44.48619" lon="6.23859">
        <ele>1015.4000244141</ele>
        <time>2020-11-05T15:47:13.000Z</time>
      </trkpt>
      <trkpt lat="44.4861" lon="6.23851">
        <ele>1016.5999755859</ele>
        <time>2020-11-05T15:47:17.000Z</time>
      </trkpt>
      <trkpt lat="44.48607" lon="6.23849">
        <ele>1016.799987793</ele>
        <time>2020-11-05T15:47:18.000Z</time>
      </trkpt>
      <trkpt lat="44.48597" lon="6.23841">
        <ele>1017.5999755859</ele>
        <time>2020-11-05T15:47:22.000Z</time>
      </trkpt>
      <trkpt lat="44.48586" lon="6.23836">
        <ele>1018.200012207</ele>
        <time>2020-11-05T15:47:26.000Z</time>
      </trkpt>
      <trkpt lat="44.48583" lon="6.23835">
        <ele>1018.5999755859</ele>
        <time>2020-11-05T15:47:27.000Z</time>
      </trkpt>
      <trkpt lat="44.48569" lon="6.2383">
        <ele>1019.5999755859</ele>
        <time>2020-11-05T15:47:32.000Z</time>
      </trkpt>
      <trkpt lat="44.48562" lon="6.23821">
        <ele>1020.799987793</ele>
        <time>2020-11-05T15:47:35.000Z</time>
      </trkpt>
      <trkpt lat="44.48559" lon="6.23813">
        <ele>1021.4000244141</ele>
        <time>2020-11-05T15:47:37.000Z</time>
      </trkpt>
      <trkpt lat="44.48555" lon="6.23806">
        <ele>1021.799987793</ele>
        <time>2020-11-05T15:47:39.000Z</time>
      </trkpt>
      <trkpt lat="44.48545" lon="6.23797">
        <ele>1022.799987793</ele>
        <time>2020-11-05T15:47:43.000Z</time>
      </trkpt>
      <trkpt lat="44.48532" lon="6.23793">
        <ele>1024</ele>
        <time>2020-11-05T15:47:48.000Z</time>
      </trkpt>
      <trkpt lat="44.48528" lon="6.2379">
        <ele>1024.5999755859</ele>
        <time>2020-11-05T15:47:50.000Z</time>
      </trkpt>
      <trkpt lat="44.48521" lon="6.23784">
        <ele>1025</ele>
        <time>2020-11-05T15:47:53.000Z</time>
      </trkpt>
      <trkpt lat="44.48516" lon="6.23773">
        <ele>1025.8000488281</ele>
        <time>2020-11-05T15:47:56.000Z</time>
      </trkpt>
      <trkpt lat="44.48513" lon="6.23765">
        <ele>1026.1999511719</ele>
        <time>2020-11-05T15:47:58.000Z</time>
      </trkpt>
      <trkpt lat="44.48508" lon="6.23754">
        <ele>1027.4000244141</ele>
        <time>2020-11-05T15:48:01.000Z</time>
      </trkpt>
      <trkpt lat="44.48501" lon="6.23745">
        <ele>1027.8000488281</ele>
        <time>2020-11-05T15:48:04.000Z</time>
      </trkpt>
      <trkpt lat="44.48488" lon="6.23739">
        <ele>1028.5999755859</ele>
        <time>2020-11-05T15:48:08.000Z</time>
      </trkpt>
      <trkpt lat="44.48482" lon="6.23737">
        <ele>1028.8000488281</ele>
        <time>2020-11-05T15:48:10.000Z</time>
      </trkpt>
      <trkpt lat="44.48466" lon="6.23734">
        <ele>1029.5999755859</ele>
        <time>2020-11-05T15:48:15.000Z</time>
      </trkpt>
      <trkpt lat="44.4846" lon="6.23733">
        <ele>1029.8000488281</ele>
        <time>2020-11-05T15:48:17.000Z</time>
      </trkpt>
      <trkpt lat="44.48446" lon="6.23729">
        <ele>1030.5999755859</ele>
        <time>2020-11-05T15:48:22.000Z</time>
      </trkpt>
      <trkpt lat="44.48443" lon="6.23728">
        <ele>1031</ele>
        <time>2020-11-05T15:48:23.000Z</time>
      </trkpt>
      <trkpt lat="44.48424" lon="6.23723">
        <ele>1032.1999511719</ele>
        <time>2020-11-05T15:48:29.000Z</time>
      </trkpt>
      <trkpt lat="44.48418" lon="6.23722">
        <ele>1032.8000488281</ele>
        <time>2020-11-05T15:48:31.000Z</time>
      </trkpt>
      <trkpt lat="44.48405" lon="6.23718">
        <ele>1033.4000244141</ele>
        <time>2020-11-05T15:48:35.000Z</time>
      </trkpt>
      <trkpt lat="44.48392" lon="6.23715">
        <ele>1034.4000244141</ele>
        <time>2020-11-05T15:48:39.000Z</time>
      </trkpt>
      <trkpt lat="44.48389" lon="6.23714">
        <ele>1034.5999755859</ele>
        <time>2020-11-05T15:48:40.000Z</time>
      </trkpt>
      <trkpt lat="44.48374" lon="6.2371">
        <ele>1035.5999755859</ele>
        <time>2020-11-05T15:48:45.000Z</time>
      </trkpt>
      <trkpt lat="44.48369" lon="6.2371">
        <ele>1036</ele>
        <time>2020-11-05T15:48:47.000Z</time>
      </trkpt>
      <trkpt lat="44.4836" lon="6.23708">
        <ele>1036.8000488281</ele>
        <time>2020-11-05T15:48:50.000Z</time>
      </trkpt>
      <trkpt lat="44.48348" lon="6.23705">
        <ele>1038</ele>
        <time>2020-11-05T15:48:54.000Z</time>
      </trkpt>
      <trkpt lat="44.48336" lon="6.23702">
        <ele>1039.1999511719</ele>
        <time>2020-11-05T15:48:58.000Z</time>
      </trkpt>
      <trkpt lat="44.48326" lon="6.23699">
        <ele>1040</ele>
        <time>2020-11-05T15:49:01.000Z</time>
      </trkpt>
      <trkpt lat="44.48323" lon="6.23698">
        <ele>1040.4000244141</ele>
        <time>2020-11-05T15:49:02.000Z</time>
      </trkpt>
      <trkpt lat="44.48311" lon="6.23693">
        <ele>1041.4000244141</ele>
        <time>2020-11-05T15:49:06.000Z</time>
      </trkpt>
      <trkpt lat="44.48308" lon="6.23692">
        <ele>1041.5999755859</ele>
        <time>2020-11-05T15:49:07.000Z</time>
      </trkpt>
      <trkpt lat="44.48297" lon="6.23688">
        <ele>1042.5999755859</ele>
        <time>2020-11-05T15:49:11.000Z</time>
      </trkpt>
      <trkpt lat="44.48294" lon="6.23686">
        <ele>1042.8000488281</ele>
        <time>2020-11-05T15:49:12.000Z</time>
      </trkpt>
      <trkpt lat="44.48285" lon="6.23683">
        <ele>1043.8000488281</ele>
        <time>2020-11-05T15:49:15.000Z</time>
      </trkpt>
      <trkpt lat="44.48274" lon="6.23678">
        <ele>1045</ele>
        <time>2020-11-05T15:49:19.000Z</time>
      </trkpt>
      <trkpt lat="44.48257" lon="6.23676">
        <ele>1046.1999511719</ele>
        <time>2020-11-05T15:49:24.000Z</time>
      </trkpt>
      <trkpt lat="44.48251" lon="6.23677">
        <ele>1047.1999511719</ele>
        <time>2020-11-05T15:49:26.000Z</time>
      </trkpt>
      <trkpt lat="44.48248" lon="6.23678">
        <ele>1047.5999755859</ele>
        <time>2020-11-05T15:49:27.000Z</time>
      </trkpt>
      <trkpt lat="44.48235" lon="6.23683">
        <ele>1048.5999755859</ele>
        <time>2020-11-05T15:49:32.000Z</time>
      </trkpt>
      <trkpt lat="44.48223" lon="6.23689">
        <ele>1049.8000488281</ele>
        <time>2020-11-05T15:49:37.000Z</time>
      </trkpt>
      <trkpt lat="44.4822" lon="6.2369">
        <ele>1050</ele>
        <time>2020-11-05T15:49:38.000Z</time>
      </trkpt>
      <trkpt lat="44.48205" lon="6.23699">
        <ele>1050.8000488281</ele>
        <time>2020-11-05T15:49:43.000Z</time>
      </trkpt>
      <trkpt lat="44.48202" lon="6.23701">
        <ele>1051</ele>
        <time>2020-11-05T15:49:44.000Z</time>
      </trkpt>
      <trkpt lat="44.48186" lon="6.23707">
        <ele>1052</ele>
        <time>2020-11-05T15:49:49.000Z</time>
      </trkpt>
      <trkpt lat="44.48179" lon="6.23711">
        <ele>1052.4000244141</ele>
        <time>2020-11-05T15:49:51.000Z</time>
      </trkpt>
      <trkpt lat="44.48172" lon="6.23715">
        <ele>1053</ele>
        <time>2020-11-05T15:49:53.000Z</time>
      </trkpt>
      <trkpt lat="44.48155" lon="6.23725">
        <ele>1053.8000488281</ele>
        <time>2020-11-05T15:49:58.000Z</time>
      </trkpt>
      <trkpt lat="44.48145" lon="6.2373">
        <ele>1054.1999511719</ele>
        <time>2020-11-05T15:50:01.000Z</time>
      </trkpt>
      <trkpt lat="44.48135" lon="6.23733">
        <ele>1054.5999755859</ele>
        <time>2020-11-05T15:50:04.000Z</time>
      </trkpt>
      <trkpt lat="44.48124" lon="6.23737">
        <ele>1055.4000244141</ele>
        <time>2020-11-05T15:50:07.000Z</time>
      </trkpt>
      <trkpt lat="44.48111" lon="6.23744">
        <ele>1056.5999755859</ele>
        <time>2020-11-05T15:50:11.000Z</time>
      </trkpt>
      <trkpt lat="44.48095" lon="6.23751">
        <ele>1057.8000488281</ele>
        <time>2020-11-05T15:50:16.000Z</time>
      </trkpt>
      <trkpt lat="44.48081" lon="6.23753">
        <ele>1059</ele>
        <time>2020-11-05T15:50:20.000Z</time>
      </trkpt>
      <trkpt lat="44.4807" lon="6.23752">
        <ele>1059.8000488281</ele>
        <time>2020-11-05T15:50:23.000Z</time>
      </trkpt>
      <trkpt lat="44.48063" lon="6.23751">
        <ele>1060.4000244141</ele>
        <time>2020-11-05T15:50:25.000Z</time>
      </trkpt>
      <trkpt lat="44.48044" lon="6.23748">
        <ele>1061.4000244141</ele>
        <time>2020-11-05T15:50:30.000Z</time>
      </trkpt>
      <trkpt lat="44.4804" lon="6.23747">
        <ele>1061.5999755859</ele>
        <time>2020-11-05T15:50:31.000Z</time>
      </trkpt>
      <trkpt lat="44.48017" lon="6.23746">
        <ele>1062.5999755859</ele>
        <time>2020-11-05T15:50:37.000Z</time>
      </trkpt>
      <trkpt lat="44.4799" lon="6.23755">
        <ele>1063.8000488281</ele>
        <time>2020-11-05T15:50:44.000Z</time>
      </trkpt>
      <trkpt lat="44.47963" lon="6.23759">
        <ele>1064.8000488281</ele>
        <time>2020-11-05T15:50:51.000Z</time>
      </trkpt>
      <trkpt lat="44.47951" lon="6.23748">
        <ele>1065.1999511719</ele>
        <time>2020-11-05T15:50:55.000Z</time>
      </trkpt>
      <trkpt lat="44.47935" lon="6.23721">
        <ele>1065.8000488281</ele>
        <time>2020-11-05T15:51:01.000Z</time>
      </trkpt>
      <trkpt lat="44.47931" lon="6.23718">
        <ele>1065.8000488281</ele>
        <time>2020-11-05T15:51:02.000Z</time>
      </trkpt>
      <trkpt lat="44.47922" lon="6.23717">
        <ele>1066</ele>
        <time>2020-11-05T15:51:04.000Z</time>
      </trkpt>
      <trkpt lat="44.4791" lon="6.23723">
        <ele>1066</ele>
        <time>2020-11-05T15:51:07.000Z</time>
      </trkpt>
      <trkpt lat="44.47907" lon="6.23726">
        <ele>1066</ele>
        <time>2020-11-05T15:51:08.000Z</time>
      </trkpt>
      <trkpt lat="44.47899" lon="6.23731">
        <ele>1066</ele>
        <time>2020-11-05T15:51:10.000Z</time>
      </trkpt>
      <trkpt lat="44.47884" lon="6.23742">
        <ele>1065.8000488281</ele>
        <time>2020-11-05T15:51:14.000Z</time>
      </trkpt>
      <trkpt lat="44.47877" lon="6.23755">
        <ele>1065.4000244141</ele>
        <time>2020-11-05T15:51:17.000Z</time>
      </trkpt>
      <trkpt lat="44.47876" lon="6.23761">
        <ele>1065.4000244141</ele>
        <time>2020-11-05T15:51:18.000Z</time>
      </trkpt>
      <trkpt lat="44.47877" lon="6.23781">
        <ele>1065</ele>
        <time>2020-11-05T15:51:22.000Z</time>
      </trkpt>
      <trkpt lat="44.47879" lon="6.23806">
        <ele>1064.5999755859</ele>
        <time>2020-11-05T15:51:27.000Z</time>
      </trkpt>
      <trkpt lat="44.47868" lon="6.23837">
        <ele>1064.1999511719</ele>
        <time>2020-11-05T15:51:32.000Z</time>
      </trkpt>
      <trkpt lat="44.47858" lon="6.23855">
        <ele>1064</ele>
        <time>2020-11-05T15:51:35.000Z</time>
      </trkpt>
      <trkpt lat="44.4785" lon="6.23871">
        <ele>1063.8000488281</ele>
        <time>2020-11-05T15:51:38.000Z</time>
      </trkpt>
      <trkpt lat="44.47848" lon="6.23877">
        <ele>1063.5999755859</ele>
        <time>2020-11-05T15:51:39.000Z</time>
      </trkpt>
      <trkpt lat="44.47839" lon="6.23905">
        <ele>1063.1999511719</ele>
        <time>2020-11-05T15:51:45.000Z</time>
      </trkpt>
      <trkpt lat="44.4784" lon="6.23911">
        <ele>1063.1999511719</ele>
        <time>2020-11-05T15:51:46.000Z</time>
      </trkpt>
      <trkpt lat="44.47844" lon="6.23923">
        <ele>1063.1999511719</ele>
        <time>2020-11-05T15:51:48.000Z</time>
      </trkpt>
      <trkpt lat="44.47845" lon="6.2395">
        <ele>1064.4000244141</ele>
        <time>2020-11-05T15:51:52.000Z</time>
      </trkpt>
      <trkpt lat="44.47842" lon="6.23968">
        <ele>1064.5999755859</ele>
        <time>2020-11-05T15:51:54.000Z</time>
      </trkpt>
      <trkpt lat="44.47839" lon="6.2399">
        <ele>1064.5999755859</ele>
        <time>2020-11-05T15:51:56.000Z</time>
      </trkpt>
      <trkpt lat="44.47841" lon="6.24034">
        <ele>1064.5999755859</ele>
        <time>2020-11-05T15:52:00.000Z</time>
      </trkpt>
      <trkpt lat="44.47843" lon="6.24062">
        <ele>1062.5999755859</ele>
        <time>2020-11-05T15:52:03.000Z</time>
      </trkpt>
      <trkpt lat="44.47844" lon="6.24071">
        <ele>1061.4000244141</ele>
        <time>2020-11-05T15:52:04.000Z</time>
      </trkpt>
      <trkpt lat="44.47844" lon="6.24079">
        <ele>1060.4000244141</ele>
        <time>2020-11-05T15:52:05.000Z</time>
      </trkpt>
      <trkpt lat="44.47844" lon="6.24086">
        <ele>1060</ele>
        <time>2020-11-05T15:52:06.000Z</time>
      </trkpt>
      <trkpt lat="44.47843" lon="6.24105">
        <ele>1059.5999755859</ele>
        <time>2020-11-05T15:52:09.000Z</time>
      </trkpt>
      <trkpt lat="44.47841" lon="6.24112">
        <ele>1059.5999755859</ele>
        <time>2020-11-05T15:52:11.000Z</time>
      </trkpt>
      <trkpt lat="44.47838" lon="6.24115">
        <ele>1059.5999755859</ele>
        <time>2020-11-05T15:52:13.000Z</time>
      </trkpt>
      <trkpt lat="44.47835" lon="6.24108">
        <ele>1060.5999755859</ele>
        <time>2020-11-05T15:52:16.000Z</time>
      </trkpt>
      <trkpt lat="44.47835" lon="6.24105">
        <ele>1061</ele>
        <time>2020-11-05T15:52:17.000Z</time>
      </trkpt>
      <trkpt lat="44.47835" lon="6.24101">
        <ele>1061.4000244141</ele>
        <time>2020-11-05T15:52:18.000Z</time>
      </trkpt>
      <trkpt lat="44.47833" lon="6.24091">
        <ele>1062.5999755859</ele>
        <time>2020-11-05T15:52:21.000Z</time>
      </trkpt>
      <trkpt lat="44.47831" lon="6.24089">
        <ele>1062.8000488281</ele>
        <time>2020-11-05T15:52:22.000Z</time>
      </trkpt>
      <trkpt lat="44.47827" lon="6.24088">
        <ele>1063.1999511719</ele>
        <time>2020-11-05T15:52:24.000Z</time>
      </trkpt>
      <trkpt lat="44.47824" lon="6.24091">
        <ele>1063.8000488281</ele>
        <time>2020-11-05T15:52:26.000Z</time>
      </trkpt>
      <trkpt lat="44.47821" lon="6.241">
        <ele>1064.8000488281</ele>
        <time>2020-11-05T15:52:29.000Z</time>
      </trkpt>
      <trkpt lat="44.47816" lon="6.24108">
        <ele>1065.8000488281</ele>
        <time>2020-11-05T15:52:32.000Z</time>
      </trkpt>
      <trkpt lat="44.47814" lon="6.24109">
        <ele>1066.1999511719</ele>
        <time>2020-11-05T15:52:33.000Z</time>
      </trkpt>
      <trkpt lat="44.47809" lon="6.24111">
        <ele>1067</ele>
        <time>2020-11-05T15:52:35.000Z</time>
      </trkpt>
      <trkpt lat="44.47802" lon="6.2411">
        <ele>1068.1999511719</ele>
        <time>2020-11-05T15:52:38.000Z</time>
      </trkpt>
      <trkpt lat="44.47797" lon="6.2411">
        <ele>1069.4000244141</ele>
        <time>2020-11-05T15:52:40.000Z</time>
      </trkpt>
      <trkpt lat="44.47787" lon="6.24113">
        <ele>1070.5999755859</ele>
        <time>2020-11-05T15:52:44.000Z</time>
      </trkpt>
      <trkpt lat="44.47782" lon="6.24114">
        <ele>1071</ele>
        <time>2020-11-05T15:52:46.000Z</time>
      </trkpt>
      <trkpt lat="44.47775" lon="6.24114">
        <ele>1071.8000488281</ele>
        <time>2020-11-05T15:52:49.000Z</time>
      </trkpt>
      <trkpt lat="44.47765" lon="6.24114">
        <ele>1073.4000244141</ele>
        <time>2020-11-05T15:52:53.000Z</time>
      </trkpt>
      <trkpt lat="44.4776" lon="6.24114">
        <ele>1074</ele>
        <time>2020-11-05T15:52:55.000Z</time>
      </trkpt>
      <trkpt lat="44.47756" lon="6.24112">
        <ele>1074.5999755859</ele>
        <time>2020-11-05T15:52:57.000Z</time>
      </trkpt>
      <trkpt lat="44.47746" lon="6.2411">
        <ele>1075.8000488281</ele>
        <time>2020-11-05T15:53:01.000Z</time>
      </trkpt>
      <trkpt lat="44.47741" lon="6.24108">
        <ele>1076.4000244141</ele>
        <time>2020-11-05T15:53:03.000Z</time>
      </trkpt>
      <trkpt lat="44.47736" lon="6.24107">
        <ele>1077</ele>
        <time>2020-11-05T15:53:05.000Z</time>
      </trkpt>
      <trkpt lat="44.47731" lon="6.24106">
        <ele>1078</ele>
        <time>2020-11-05T15:53:07.000Z</time>
      </trkpt>
      <trkpt lat="44.47721" lon="6.24105">
        <ele>1079.1999511719</ele>
        <time>2020-11-05T15:53:11.000Z</time>
      </trkpt>
      <trkpt lat="44.47718" lon="6.24105">
        <ele>1079.5999755859</ele>
        <time>2020-11-05T15:53:12.000Z</time>
      </trkpt>
      <trkpt lat="44.47711" lon="6.24105">
        <ele>1080.5999755859</ele>
        <time>2020-11-05T15:53:15.000Z</time>
      </trkpt>
      <trkpt lat="44.47703" lon="6.24105">
        <ele>1081.8000488281</ele>
        <time>2020-11-05T15:53:18.000Z</time>
      </trkpt>
      <trkpt lat="44.47695" lon="6.24103">
        <ele>1082.4000244141</ele>
        <time>2020-11-05T15:53:21.000Z</time>
      </trkpt>
      <trkpt lat="44.47691" lon="6.241">
        <ele>1082.8000488281</ele>
        <time>2020-11-05T15:53:23.000Z</time>
      </trkpt>
      <trkpt lat="44.47679" lon="6.24093">
        <ele>1083.5999755859</ele>
        <time>2020-11-05T15:53:28.000Z</time>
      </trkpt>
      <trkpt lat="44.47677" lon="6.24091">
        <ele>1084</ele>
        <time>2020-11-05T15:53:29.000Z</time>
      </trkpt>
      <trkpt lat="44.4767" lon="6.24081">
        <ele>1085</ele>
        <time>2020-11-05T15:53:33.000Z</time>
      </trkpt>
      <trkpt lat="44.47668" lon="6.24079">
        <ele>1085.1999511719</ele>
        <time>2020-11-05T15:53:34.000Z</time>
      </trkpt>
      <trkpt lat="44.47661" lon="6.24062">
        <ele>1086</ele>
        <time>2020-11-05T15:53:41.000Z</time>
      </trkpt>
      <trkpt lat="44.47661" lon="6.2406">
        <ele>1086.5999755859</ele>
        <time>2020-11-05T15:53:42.000Z</time>
      </trkpt>
      <trkpt lat="44.47663" lon="6.24058">
        <ele>1087.4000244141</ele>
        <time>2020-11-05T15:53:44.000Z</time>
      </trkpt>
      <trkpt lat="44.47665" lon="6.24057">
        <ele>1087.8000488281</ele>
        <time>2020-11-05T15:53:45.000Z</time>
      </trkpt>
      <trkpt lat="44.47667" lon="6.24057">
        <ele>1088.1999511719</ele>
        <time>2020-11-05T15:53:46.000Z</time>
      </trkpt>
      <trkpt lat="44.47669" lon="6.24056">
        <ele>1088.4000244141</ele>
        <time>2020-11-05T15:53:47.000Z</time>
      </trkpt>
      <trkpt lat="44.47675" lon="6.24053">
        <ele>1089.4000244141</ele>
        <time>2020-11-05T15:53:51.000Z</time>
      </trkpt>
      <trkpt lat="44.47677" lon="6.24053">
        <ele>1089.5999755859</ele>
        <time>2020-11-05T15:53:52.000Z</time>
      </trkpt>
      <trkpt lat="44.47681" lon="6.24052">
        <ele>1090.5999755859</ele>
        <time>2020-11-05T15:53:57.000Z</time>
      </trkpt>
      <trkpt lat="44.47682" lon="6.24052">
        <ele>1092.1999511719</ele>
        <time>2020-11-05T15:54:00.000Z</time>
      </trkpt>
      <trkpt lat="44.47683" lon="6.24052">
        <ele>1094</ele>
        <time>2020-11-05T15:54:02.000Z</time>
      </trkpt>
      <trkpt lat="44.47683" lon="6.24052">
        <ele>1094.8000488281</ele>
        <time>2020-11-05T15:54:05.000Z</time>
      </trkpt>
      <trkpt lat="44.47683" lon="6.24052">
        <ele>1095.1999511719</ele>
        <time>2020-11-05T15:54:06.000Z</time>
      </trkpt>
      <trkpt lat="44.47685" lon="6.24053">
        <ele>1096.1999511719</ele>
        <time>2020-11-05T15:54:11.000Z</time>
      </trkpt>
      <trkpt lat="44.47686" lon="6.24053">
        <ele>1096.4000244141</ele>
        <time>2020-11-05T15:54:13.000Z</time>
      </trkpt>
      <trkpt lat="44.47689" lon="6.24055">
        <ele>1097</ele>
        <time>2020-11-05T15:54:20.000Z</time>
      </trkpt>
      <trkpt lat="44.47691" lon="6.24055">
        <ele>1097</ele>
        <time>2020-11-05T15:54:21.000Z</time>
      </trkpt>
      <trkpt lat="44.47697" lon="6.24051">
        <ele>1097.1999511719</ele>
        <time>2020-11-05T15:54:26.000Z</time>
      </trkpt>
      <trkpt lat="44.47699" lon="6.24047">
        <ele>1097.1999511719</ele>
        <time>2020-11-05T15:54:28.000Z</time>
      </trkpt>
      <trkpt lat="44.47703" lon="6.24036">
        <ele>1098.4000244141</ele>
        <time>2020-11-05T15:54:32.000Z</time>
      </trkpt>
      <trkpt lat="44.47705" lon="6.24034">
        <ele>1098.5999755859</ele>
        <time>2020-11-05T15:54:33.000Z</time>
      </trkpt>
      <trkpt lat="44.4772" lon="6.24018">
        <ele>1099</ele>
        <time>2020-11-05T15:54:39.000Z</time>
      </trkpt>
      <trkpt lat="44.4773" lon="6.24008">
        <ele>1098.8000488281</ele>
        <time>2020-11-05T15:54:43.000Z</time>
      </trkpt>
      <trkpt lat="44.47731" lon="6.24007">
        <ele>1097</ele>
        <time>2020-11-05T15:54:46.000Z</time>
      </trkpt>
      <trkpt lat="44.47731" lon="6.24007">
        <ele>1095.1999511719</ele>
        <time>2020-11-05T15:54:48.000Z</time>
      </trkpt>
      <trkpt lat="44.47731" lon="6.24006">
        <ele>1094.4000244141</ele>
        <time>2020-11-05T15:54:49.000Z</time>
      </trkpt>
      <trkpt lat="44.47731" lon="6.24006">
        <ele>1094.1999511719</ele>
        <time>2020-11-05T15:54:50.000Z</time>
      </trkpt>
      <trkpt lat="44.47735" lon="6.24004">
        <ele>1093.1999511719</ele>
        <time>2020-11-05T15:54:58.000Z</time>
      </trkpt>
      <trkpt lat="44.47741" lon="6.23998">
        <ele>1093.1999511719</ele>
        <time>2020-11-05T15:55:02.000Z</time>
      </trkpt>
      <trkpt lat="44.4774" lon="6.23997">
        <ele>1093.1999511719</ele>
        <time>2020-11-05T15:55:05.000Z</time>
      </trkpt>
      <trkpt lat="44.4774" lon="6.23997">
        <ele>1092.4000244141</ele>
        <time>2020-11-05T15:55:08.000Z</time>
      </trkpt>
      <trkpt lat="44.4774" lon="6.23997">
        <ele>1092</ele>
        <time>2020-11-05T15:55:18.000Z</time>
      </trkpt>
      <trkpt lat="44.4774" lon="6.23997">
        <ele>1092.1999511719</ele>
        <time>2020-11-05T15:55:54.000Z</time>
      </trkpt>
      <trkpt lat="44.4774" lon="6.23995">
        <ele>1092.1999511719</ele>
        <time>2020-11-05T15:56:20.000Z</time>
      </trkpt>
      <trkpt lat="44.47743" lon="6.23993">
        <ele>1092.1999511719</ele>
        <time>2020-11-05T15:56:27.000Z</time>
      </trkpt>
      <trkpt lat="44.47745" lon="6.2399">
        <ele>1092.1999511719</ele>
        <time>2020-11-05T15:56:33.000Z</time>
      </trkpt>
      <trkpt lat="44.47746" lon="6.23989">
        <ele>1091.4000244141</ele>
        <time>2020-11-05T15:56:38.000Z</time>
      </trkpt>
      <trkpt lat="44.47749" lon="6.23985">
        <ele>1091.1999511719</ele>
        <time>2020-11-05T15:56:48.000Z</time>
      </trkpt>
      <trkpt lat="44.47755" lon="6.23979">
        <ele>1091</ele>
        <time>2020-11-05T15:56:53.000Z</time>
      </trkpt>
      <trkpt lat="44.47757" lon="6.23975">
        <ele>1090.8000488281</ele>
        <time>2020-11-05T15:56:56.000Z</time>
      </trkpt>
      <trkpt lat="44.47758" lon="6.23972">
        <ele>1090.4000244141</ele>
        <time>2020-11-05T15:56:57.000Z</time>
      </trkpt>
      <trkpt lat="44.47759" lon="6.2397">
        <ele>1089.8000488281</ele>
        <time>2020-11-05T15:56:58.000Z</time>
      </trkpt>
      <trkpt lat="44.4776" lon="6.23967">
        <ele>1089.1999511719</ele>
        <time>2020-11-05T15:56:59.000Z</time>
      </trkpt>
      <trkpt lat="44.4776" lon="6.23965">
        <ele>1088.8000488281</ele>
        <time>2020-11-05T15:57:00.000Z</time>
      </trkpt>
      <trkpt lat="44.4776" lon="6.2396">
        <ele>1088</ele>
        <time>2020-11-05T15:57:02.000Z</time>
      </trkpt>
      <trkpt lat="44.47764" lon="6.23953">
        <ele>1087.1999511719</ele>
        <time>2020-11-05T15:57:05.000Z</time>
      </trkpt>
      <trkpt lat="44.47766" lon="6.2395">
        <ele>1086.5999755859</ele>
        <time>2020-11-05T15:57:06.000Z</time>
      </trkpt>
      <trkpt lat="44.4777" lon="6.23947">
        <ele>1085.1999511719</ele>
        <time>2020-11-05T15:57:08.000Z</time>
      </trkpt>
      <trkpt lat="44.47772" lon="6.23943">
        <ele>1083.5999755859</ele>
        <time>2020-11-05T15:57:10.000Z</time>
      </trkpt>
      <trkpt lat="44.47773" lon="6.23941">
        <ele>1082.8000488281</ele>
        <time>2020-11-05T15:57:11.000Z</time>
      </trkpt>
      <trkpt lat="44.47773" lon="6.23939">
        <ele>1082</ele>
        <time>2020-11-05T15:57:12.000Z</time>
      </trkpt>
      <trkpt lat="44.47773" lon="6.23936">
        <ele>1080.5999755859</ele>
        <time>2020-11-05T15:57:14.000Z</time>
      </trkpt>
      <trkpt lat="44.47775" lon="6.23935">
        <ele>1079.5999755859</ele>
        <time>2020-11-05T15:57:15.000Z</time>
      </trkpt>
      <trkpt lat="44.47777" lon="6.23933">
        <ele>1077.5999755859</ele>
        <time>2020-11-05T15:57:16.000Z</time>
      </trkpt>
      <trkpt lat="44.47778" lon="6.23929">
        <ele>1075.5999755859</ele>
        <time>2020-11-05T15:57:18.000Z</time>
      </trkpt>
      <trkpt lat="44.47779" lon="6.23927">
        <ele>1075</ele>
        <time>2020-11-05T15:57:19.000Z</time>
      </trkpt>
      <trkpt lat="44.4778" lon="6.23924">
        <ele>1074.1999511719</ele>
        <time>2020-11-05T15:57:20.000Z</time>
      </trkpt>
      <trkpt lat="44.47782" lon="6.23919">
        <ele>1072.4000244141</ele>
        <time>2020-11-05T15:57:22.000Z</time>
      </trkpt>
      <trkpt lat="44.47781" lon="6.23915">
        <ele>1071.4000244141</ele>
        <time>2020-11-05T15:57:23.000Z</time>
      </trkpt>
      <trkpt lat="44.47781" lon="6.23911">
        <ele>1070.5999755859</ele>
        <time>2020-11-05T15:57:24.000Z</time>
      </trkpt>
      <trkpt lat="44.47782" lon="6.23903">
        <ele>1069</ele>
        <time>2020-11-05T15:57:26.000Z</time>
      </trkpt>
      <trkpt lat="44.47782" lon="6.23899">
        <ele>1068.1999511719</ele>
        <time>2020-11-05T15:57:27.000Z</time>
      </trkpt>
      <trkpt lat="44.47782" lon="6.23894">
        <ele>1067</ele>
        <time>2020-11-05T15:57:28.000Z</time>
      </trkpt>
      <trkpt lat="44.47784" lon="6.23891">
        <ele>1066</ele>
        <time>2020-11-05T15:57:29.000Z</time>
      </trkpt>
      <trkpt lat="44.47789" lon="6.23884">
        <ele>1064.4000244141</ele>
        <time>2020-11-05T15:57:31.000Z</time>
      </trkpt>
      <trkpt lat="44.47791" lon="6.23879">
        <ele>1063</ele>
        <time>2020-11-05T15:57:33.000Z</time>
      </trkpt>
      <trkpt lat="44.47792" lon="6.23876">
        <ele>1062</ele>
        <time>2020-11-05T15:57:34.000Z</time>
      </trkpt>
      <trkpt lat="44.47792" lon="6.23872">
        <ele>1061</ele>
        <time>2020-11-05T15:57:35.000Z</time>
      </trkpt>
      <trkpt lat="44.47792" lon="6.23868">
        <ele>1059.8000488281</ele>
        <time>2020-11-05T15:57:36.000Z</time>
      </trkpt>
      <trkpt lat="44.47793" lon="6.23859">
        <ele>1058</ele>
        <time>2020-11-05T15:57:38.000Z</time>
      </trkpt>
      <trkpt lat="44.47791" lon="6.2385">
        <ele>1057</ele>
        <time>2020-11-05T15:57:40.000Z</time>
      </trkpt>
      <trkpt lat="44.47791" lon="6.23843">
        <ele>1055.8000488281</ele>
        <time>2020-11-05T15:57:42.000Z</time>
      </trkpt>
      <trkpt lat="44.47787" lon="6.23834">
        <ele>1052.5999755859</ele>
        <time>2020-11-05T15:57:44.000Z</time>
      </trkpt>
      <trkpt lat="44.47783" lon="6.2383">
        <ele>1051.1999511719</ele>
        <time>2020-11-05T15:57:45.000Z</time>
      </trkpt>
      <trkpt lat="44.4778" lon="6.23826">
        <ele>1050.1999511719</ele>
        <time>2020-11-05T15:57:46.000Z</time>
      </trkpt>
      <trkpt lat="44.47775" lon="6.23823">
        <ele>1048.1999511719</ele>
        <time>2020-11-05T15:57:48.000Z</time>
      </trkpt>
      <trkpt lat="44.47772" lon="6.23822">
        <ele>1047.1999511719</ele>
        <time>2020-11-05T15:57:49.000Z</time>
      </trkpt>
      <trkpt lat="44.4777" lon="6.2382">
        <ele>1046</ele>
        <time>2020-11-05T15:57:50.000Z</time>
      </trkpt>
      <trkpt lat="44.47769" lon="6.23817">
        <ele>1045</ele>
        <time>2020-11-05T15:57:51.000Z</time>
      </trkpt>
      <trkpt lat="44.47769" lon="6.23813">
        <ele>1043.5999755859</ele>
        <time>2020-11-05T15:57:52.000Z</time>
      </trkpt>
      <trkpt lat="44.47769" lon="6.2381">
        <ele>1042.4000244141</ele>
        <time>2020-11-05T15:57:53.000Z</time>
      </trkpt>
      <trkpt lat="44.47769" lon="6.23806">
        <ele>1041.5999755859</ele>
        <time>2020-11-05T15:57:54.000Z</time>
      </trkpt>
      <trkpt lat="44.47768" lon="6.23801">
        <ele>1041.1999511719</ele>
        <time>2020-11-05T15:57:55.000Z</time>
      </trkpt>
      <trkpt lat="44.47765" lon="6.23788">
        <ele>1040.5999755859</ele>
        <time>2020-11-05T15:57:58.000Z</time>
      </trkpt>
      <trkpt lat="44.47763" lon="6.23779">
        <ele>1040</ele>
        <time>2020-11-05T15:58:00.000Z</time>
      </trkpt>
      <trkpt lat="44.47761" lon="6.23771">
        <ele>1038.5999755859</ele>
        <time>2020-11-05T15:58:02.000Z</time>
      </trkpt>
      <trkpt lat="44.47759" lon="6.23769">
        <ele>1037.5999755859</ele>
        <time>2020-11-05T15:58:03.000Z</time>
      </trkpt>
      <trkpt lat="44.47758" lon="6.23766">
        <ele>1036.5999755859</ele>
        <time>2020-11-05T15:58:04.000Z</time>
      </trkpt>
      <trkpt lat="44.47758" lon="6.23759">
        <ele>1034.8000488281</ele>
        <time>2020-11-05T15:58:06.000Z</time>
      </trkpt>
      <trkpt lat="44.47758" lon="6.23755">
        <ele>1034</ele>
        <time>2020-11-05T15:58:07.000Z</time>
      </trkpt>
      <trkpt lat="44.47758" lon="6.23751">
        <ele>1032.8000488281</ele>
        <time>2020-11-05T15:58:08.000Z</time>
      </trkpt>
      <trkpt lat="44.47756" lon="6.2374">
        <ele>1031.1999511719</ele>
        <time>2020-11-05T15:58:10.000Z</time>
      </trkpt>
      <trkpt lat="44.47752" lon="6.23733">
        <ele>1030</ele>
        <time>2020-11-05T15:58:12.000Z</time>
      </trkpt>
      <trkpt lat="44.47747" lon="6.23728">
        <ele>1029.4000244141</ele>
        <time>2020-11-05T15:58:14.000Z</time>
      </trkpt>
      <trkpt lat="44.47745" lon="6.23726">
        <ele>1029.1999511719</ele>
        <time>2020-11-05T15:58:15.000Z</time>
      </trkpt>
      <trkpt lat="44.47742" lon="6.23726">
        <ele>1028.8000488281</ele>
        <time>2020-11-05T15:58:16.000Z</time>
      </trkpt>
      <trkpt lat="44.4774" lon="6.23726">
        <ele>1028.1999511719</ele>
        <time>2020-11-05T15:58:17.000Z</time>
      </trkpt>
      <trkpt lat="44.47739" lon="6.23724">
        <ele>1027.5999755859</ele>
        <time>2020-11-05T15:58:18.000Z</time>
      </trkpt>
      <trkpt lat="44.47736" lon="6.2372">
        <ele>1026.4000244141</ele>
        <time>2020-11-05T15:58:20.000Z</time>
      </trkpt>
      <trkpt lat="44.47735" lon="6.23718">
        <ele>1025.4000244141</ele>
        <time>2020-11-05T15:58:21.000Z</time>
      </trkpt>
      <trkpt lat="44.47734" lon="6.23715">
        <ele>1024.8000488281</ele>
        <time>2020-11-05T15:58:22.000Z</time>
      </trkpt>
      <trkpt lat="44.47731" lon="6.23709">
        <ele>1023.5999755859</ele>
        <time>2020-11-05T15:58:24.000Z</time>
      </trkpt>
      <trkpt lat="44.47729" lon="6.23708">
        <ele>1023.200012207</ele>
        <time>2020-11-05T15:58:25.000Z</time>
      </trkpt>
      <trkpt lat="44.47726" lon="6.2371">
        <ele>1022.4000244141</ele>
        <time>2020-11-05T15:58:27.000Z</time>
      </trkpt>
      <trkpt lat="44.47721" lon="6.23711">
        <ele>1020.799987793</ele>
        <time>2020-11-05T15:58:29.000Z</time>
      </trkpt>
      <trkpt lat="44.47718" lon="6.23711">
        <ele>1019.4000244141</ele>
        <time>2020-11-05T15:58:30.000Z</time>
      </trkpt>
      <trkpt lat="44.47716" lon="6.2371">
        <ele>1018.200012207</ele>
        <time>2020-11-05T15:58:31.000Z</time>
      </trkpt>
      <trkpt lat="44.47714" lon="6.23709">
        <ele>1017</ele>
        <time>2020-11-05T15:58:32.000Z</time>
      </trkpt>
      <trkpt lat="44.47713" lon="6.23707">
        <ele>1016</ele>
        <time>2020-11-05T15:58:33.000Z</time>
      </trkpt>
      <trkpt lat="44.47711" lon="6.23706">
        <ele>1015.200012207</ele>
        <time>2020-11-05T15:58:34.000Z</time>
      </trkpt>
      <trkpt lat="44.4771" lon="6.23705">
        <ele>1014.4000244141</ele>
        <time>2020-11-05T15:58:35.000Z</time>
      </trkpt>
      <trkpt lat="44.47707" lon="6.23701">
        <ele>1013.799987793</ele>
        <time>2020-11-05T15:58:37.000Z</time>
      </trkpt>
      <trkpt lat="44.47704" lon="6.23699">
        <ele>1013.4000244141</ele>
        <time>2020-11-05T15:58:38.000Z</time>
      </trkpt>
      <trkpt lat="44.47699" lon="6.23698">
        <ele>1012.799987793</ele>
        <time>2020-11-05T15:58:39.000Z</time>
      </trkpt>
      <trkpt lat="44.47696" lon="6.23697">
        <ele>1012</ele>
        <time>2020-11-05T15:58:40.000Z</time>
      </trkpt>
      <trkpt lat="44.47688" lon="6.23697">
        <ele>1010.799987793</ele>
        <time>2020-11-05T15:58:42.000Z</time>
      </trkpt>
      <trkpt lat="44.47684" lon="6.23696">
        <ele>1009.5999755859</ele>
        <time>2020-11-05T15:58:44.000Z</time>
      </trkpt>
      <trkpt lat="44.47681" lon="6.23695">
        <ele>1008.200012207</ele>
        <time>2020-11-05T15:58:46.000Z</time>
      </trkpt>
      <trkpt lat="44.47678" lon="6.23693">
        <ele>1006</ele>
        <time>2020-11-05T15:58:48.000Z</time>
      </trkpt>
      <trkpt lat="44.47676" lon="6.23692">
        <ele>1005</ele>
        <time>2020-11-05T15:58:49.000Z</time>
      </trkpt>
      <trkpt lat="44.47673" lon="6.2369">
        <ele>1004</ele>
        <time>2020-11-05T15:58:50.000Z</time>
      </trkpt>
      <trkpt lat="44.47666" lon="6.23684">
        <ele>1002.799987793</ele>
        <time>2020-11-05T15:58:52.000Z</time>
      </trkpt>
      <trkpt lat="44.47662" lon="6.23679">
        <ele>1002.5999755859</ele>
        <time>2020-11-05T15:58:53.000Z</time>
      </trkpt>
      <trkpt lat="44.47657" lon="6.23671">
        <ele>1001.4000244141</ele>
        <time>2020-11-05T15:58:55.000Z</time>
      </trkpt>
      <trkpt lat="44.47652" lon="6.2366">
        <ele>1000.4000244141</ele>
        <time>2020-11-05T15:58:57.000Z</time>
      </trkpt>
      <trkpt lat="44.47649" lon="6.23649">
        <ele>998.40002441406</ele>
        <time>2020-11-05T15:58:59.000Z</time>
      </trkpt>
      <trkpt lat="44.47647" lon="6.23643">
        <ele>996.59997558594</ele>
        <time>2020-11-05T15:59:00.000Z</time>
      </trkpt>
      <trkpt lat="44.47646" lon="6.23638">
        <ele>994.59997558594</ele>
        <time>2020-11-05T15:59:01.000Z</time>
      </trkpt>
      <trkpt lat="44.47644" lon="6.23632">
        <ele>993.59997558594</ele>
        <time>2020-11-05T15:59:02.000Z</time>
      </trkpt>
      <trkpt lat="44.47638" lon="6.23617">
        <ele>992.40002441406</ele>
        <time>2020-11-05T15:59:04.000Z</time>
      </trkpt>
      <trkpt lat="44.4763" lon="6.236">
        <ele>991.79998779297</ele>
        <time>2020-11-05T15:59:06.000Z</time>
      </trkpt>
      <trkpt lat="44.47626" lon="6.23592">
        <ele>990.59997558594</ele>
        <time>2020-11-05T15:59:07.000Z</time>
      </trkpt>
      <trkpt lat="44.47616" lon="6.23576">
        <ele>989</ele>
        <time>2020-11-05T15:59:09.000Z</time>
      </trkpt>
      <trkpt lat="44.47607" lon="6.23562">
        <ele>987.20001220703</ele>
        <time>2020-11-05T15:59:11.000Z</time>
      </trkpt>
      <trkpt lat="44.47603" lon="6.23555">
        <ele>986.20001220703</ele>
        <time>2020-11-05T15:59:12.000Z</time>
      </trkpt>
      <trkpt lat="44.47596" lon="6.23545">
        <ele>984.40002441406</ele>
        <time>2020-11-05T15:59:14.000Z</time>
      </trkpt>
      <trkpt lat="44.47594" lon="6.23542">
        <ele>983.40002441406</ele>
        <time>2020-11-05T15:59:15.000Z</time>
      </trkpt>
      <trkpt lat="44.47592" lon="6.2354">
        <ele>982.40002441406</ele>
        <time>2020-11-05T15:59:16.000Z</time>
      </trkpt>
      <trkpt lat="44.4759" lon="6.23538">
        <ele>980.59997558594</ele>
        <time>2020-11-05T15:59:18.000Z</time>
      </trkpt>
      <trkpt lat="44.47589" lon="6.23538">
        <ele>980.20001220703</ele>
        <time>2020-11-05T15:59:19.000Z</time>
      </trkpt>
      <trkpt lat="44.47588" lon="6.23536">
        <ele>979.59997558594</ele>
        <time>2020-11-05T15:59:20.000Z</time>
      </trkpt>
      <trkpt lat="44.47587" lon="6.23535">
        <ele>978.40002441406</ele>
        <time>2020-11-05T15:59:22.000Z</time>
      </trkpt>
      <trkpt lat="44.47586" lon="6.23533">
        <ele>977.59997558594</ele>
        <time>2020-11-05T15:59:24.000Z</time>
      </trkpt>
      <trkpt lat="44.47586" lon="6.23533">
        <ele>977.40002441406</ele>
        <time>2020-11-05T15:59:25.000Z</time>
      </trkpt>
      <trkpt lat="44.47586" lon="6.23534">
        <ele>976.40002441406</ele>
        <time>2020-11-05T15:59:35.000Z</time>
      </trkpt>
      <trkpt lat="44.47588" lon="6.23532">
        <ele>976.40002441406</ele>
        <time>2020-11-05T15:59:41.000Z</time>
      </trkpt>
      <trkpt lat="44.47588" lon="6.23529">
        <ele>976.59997558594</ele>
        <time>2020-11-05T15:59:42.000Z</time>
      </trkpt>
      <trkpt lat="44.47581" lon="6.23518">
        <ele>976.59997558594</ele>
        <time>2020-11-05T15:59:47.000Z</time>
      </trkpt>
      <trkpt lat="44.4757" lon="6.23508">
        <ele>976.20001220703</ele>
        <time>2020-11-05T15:59:51.000Z</time>
      </trkpt>
      <trkpt lat="44.47564" lon="6.23503">
        <ele>975.40002441406</ele>
        <time>2020-11-05T15:59:53.000Z</time>
      </trkpt>
      <trkpt lat="44.4756" lon="6.235">
        <ele>974.59997558594</ele>
        <time>2020-11-05T15:59:54.000Z</time>
      </trkpt>
      <trkpt lat="44.47556" lon="6.23497">
        <ele>973.40002441406</ele>
        <time>2020-11-05T15:59:55.000Z</time>
      </trkpt>
      <trkpt lat="44.47552" lon="6.23493">
        <ele>972.40002441406</ele>
        <time>2020-11-05T15:59:56.000Z</time>
      </trkpt>
      <trkpt lat="44.47548" lon="6.23488">
        <ele>971.79998779297</ele>
        <time>2020-11-05T15:59:57.000Z</time>
      </trkpt>
      <trkpt lat="44.47543" lon="6.23483">
        <ele>971</ele>
        <time>2020-11-05T15:59:58.000Z</time>
      </trkpt>
      <trkpt lat="44.47535" lon="6.23476">
        <ele>970.40002441406</ele>
        <time>2020-11-05T16:00:00.000Z</time>
      </trkpt>
      <trkpt lat="44.47531" lon="6.23474">
        <ele>969.59997558594</ele>
        <time>2020-11-05T16:00:01.000Z</time>
      </trkpt>
      <trkpt lat="44.47523" lon="6.23471">
        <ele>967.59997558594</ele>
        <time>2020-11-05T16:00:03.000Z</time>
      </trkpt>
      <trkpt lat="44.4752" lon="6.23469">
        <ele>966.40002441406</ele>
        <time>2020-11-05T16:00:04.000Z</time>
      </trkpt>
      <trkpt lat="44.47518" lon="6.23468">
        <ele>965.59997558594</ele>
        <time>2020-11-05T16:00:05.000Z</time>
      </trkpt>
      <trkpt lat="44.47517" lon="6.23467">
        <ele>964.79998779297</ele>
        <time>2020-11-05T16:00:06.000Z</time>
      </trkpt>
      <trkpt lat="44.47513" lon="6.23464">
        <ele>963.20001220703</ele>
        <time>2020-11-05T16:00:08.000Z</time>
      </trkpt>
      <trkpt lat="44.4751" lon="6.23461">
        <ele>962.20001220703</ele>
        <time>2020-11-05T16:00:09.000Z</time>
      </trkpt>
      <trkpt lat="44.47507" lon="6.23458">
        <ele>961.20001220703</ele>
        <time>2020-11-05T16:00:10.000Z</time>
      </trkpt>
      <trkpt lat="44.47503" lon="6.23454">
        <ele>959.79998779297</ele>
        <time>2020-11-05T16:00:12.000Z</time>
      </trkpt>
      <trkpt lat="44.47503" lon="6.23452">
        <ele>959.40002441406</ele>
        <time>2020-11-05T16:00:13.000Z</time>
      </trkpt>
      <trkpt lat="44.47506" lon="6.2345">
        <ele>958.40002441406</ele>
        <time>2020-11-05T16:00:15.000Z</time>
      </trkpt>
      <trkpt lat="44.47511" lon="6.23447">
        <ele>956</ele>
        <time>2020-11-05T16:00:17.000Z</time>
      </trkpt>
      <trkpt lat="44.47514" lon="6.23444">
        <ele>953.79998779297</ele>
        <time>2020-11-05T16:00:18.000Z</time>
      </trkpt>
      <trkpt lat="44.47518" lon="6.23442">
        <ele>951.40002441406</ele>
        <time>2020-11-05T16:00:19.000Z</time>
      </trkpt>
      <trkpt lat="44.47522" lon="6.2344">
        <ele>950</ele>
        <time>2020-11-05T16:00:20.000Z</time>
      </trkpt>
      <trkpt lat="44.47526" lon="6.23437">
        <ele>949.20001220703</ele>
        <time>2020-11-05T16:00:21.000Z</time>
      </trkpt>
      <trkpt lat="44.47531" lon="6.23434">
        <ele>948.59997558594</ele>
        <time>2020-11-05T16:00:22.000Z</time>
      </trkpt>
      <trkpt lat="44.47536" lon="6.23432">
        <ele>948.40002441406</ele>
        <time>2020-11-05T16:00:23.000Z</time>
      </trkpt>
      <trkpt lat="44.47546" lon="6.2343">
        <ele>947.79998779297</ele>
        <time>2020-11-05T16:00:25.000Z</time>
      </trkpt>
      <trkpt lat="44.47556" lon="6.2343">
        <ele>947.40002441406</ele>
        <time>2020-11-05T16:00:27.000Z</time>
      </trkpt>
      <trkpt lat="44.47569" lon="6.23431">
        <ele>946.20001220703</ele>
        <time>2020-11-05T16:00:31.000Z</time>
      </trkpt>
      <trkpt lat="44.47582" lon="6.23439">
        <ele>946.20001220703</ele>
        <time>2020-11-05T16:00:36.000Z</time>
      </trkpt>
      <trkpt lat="44.47595" lon="6.23435">
        <ele>946.59997558594</ele>
        <time>2020-11-05T16:00:40.000Z</time>
      </trkpt>
      <trkpt lat="44.47598" lon="6.23435">
        <ele>946.79998779297</ele>
        <time>2020-11-05T16:00:41.000Z</time>
      </trkpt>
      <trkpt lat="44.47613" lon="6.23438">
        <ele>947</ele>
        <time>2020-11-05T16:00:45.000Z</time>
      </trkpt>
      <trkpt lat="44.4762" lon="6.2344">
        <ele>947.40002441406</ele>
        <time>2020-11-05T16:00:47.000Z</time>
      </trkpt>
      <trkpt lat="44.47632" lon="6.23447">
        <ele>948.59997558594</ele>
        <time>2020-11-05T16:00:51.000Z</time>
      </trkpt>
      <trkpt lat="44.47638" lon="6.23456">
        <ele>949.40002441406</ele>
        <time>2020-11-05T16:00:54.000Z</time>
      </trkpt>
      <trkpt lat="44.4764" lon="6.2346">
        <ele>949.59997558594</ele>
        <time>2020-11-05T16:00:55.000Z</time>
      </trkpt>
      <trkpt lat="44.47645" lon="6.23476">
        <ele>951</ele>
        <time>2020-11-05T16:00:58.000Z</time>
      </trkpt>
      <trkpt lat="44.47646" lon="6.2348">
        <ele>951.40002441406</ele>
        <time>2020-11-05T16:00:59.000Z</time>
      </trkpt>
      <trkpt lat="44.47657" lon="6.23496">
        <ele>951.79998779297</ele>
        <time>2020-11-05T16:01:03.000Z</time>
      </trkpt>
      <trkpt lat="44.47668" lon="6.23506">
        <ele>951.79998779297</ele>
        <time>2020-11-05T16:01:07.000Z</time>
      </trkpt>
      <trkpt lat="44.47675" lon="6.23496">
        <ele>951.79998779297</ele>
        <time>2020-11-05T16:01:10.000Z</time>
      </trkpt>
      <trkpt lat="44.47687" lon="6.2348">
        <ele>951.59997558594</ele>
        <time>2020-11-05T16:01:14.000Z</time>
      </trkpt>
      <trkpt lat="44.47698" lon="6.23476">
        <ele>951.59997558594</ele>
        <time>2020-11-05T16:01:17.000Z</time>
      </trkpt>
      <trkpt lat="44.47702" lon="6.23476">
        <ele>951.40002441406</ele>
        <time>2020-11-05T16:01:18.000Z</time>
      </trkpt>
      <trkpt lat="44.47726" lon="6.23478">
        <ele>951.20001220703</ele>
        <time>2020-11-05T16:01:24.000Z</time>
      </trkpt>
      <trkpt lat="44.4774" lon="6.23477">
        <ele>951.20001220703</ele>
        <time>2020-11-05T16:01:29.000Z</time>
      </trkpt>
      <trkpt lat="44.47752" lon="6.23474">
        <ele>952.20001220703</ele>
        <time>2020-11-05T16:01:34.000Z</time>
      </trkpt>
      <trkpt lat="44.47762" lon="6.23474">
        <ele>953.40002441406</ele>
        <time>2020-11-05T16:01:37.000Z</time>
      </trkpt>
      <trkpt lat="44.47769" lon="6.23475">
        <ele>954</ele>
        <time>2020-11-05T16:01:39.000Z</time>
      </trkpt>
      <trkpt lat="44.47776" lon="6.23475">
        <ele>954.79998779297</ele>
        <time>2020-11-05T16:01:41.000Z</time>
      </trkpt>
      <trkpt lat="44.47785" lon="6.23467">
        <ele>956</ele>
        <time>2020-11-05T16:01:44.000Z</time>
      </trkpt>
      <trkpt lat="44.47791" lon="6.23458">
        <ele>957.20001220703</ele>
        <time>2020-11-05T16:01:47.000Z</time>
      </trkpt>
      <trkpt lat="44.47797" lon="6.23455">
        <ele>958.20001220703</ele>
        <time>2020-11-05T16:01:49.000Z</time>
      </trkpt>
      <trkpt lat="44.47803" lon="6.23454">
        <ele>959.20001220703</ele>
        <time>2020-11-05T16:01:51.000Z</time>
      </trkpt>
      <trkpt lat="44.47809" lon="6.23453">
        <ele>960.40002441406</ele>
        <time>2020-11-05T16:01:53.000Z</time>
      </trkpt>
      <trkpt lat="44.47817" lon="6.23454">
        <ele>962</ele>
        <time>2020-11-05T16:01:55.000Z</time>
      </trkpt>
      <trkpt lat="44.4783" lon="6.23457">
        <ele>963.20001220703</ele>
        <time>2020-11-05T16:01:59.000Z</time>
      </trkpt>
      <trkpt lat="44.47833" lon="6.23455">
        <ele>963.40002441406</ele>
        <time>2020-11-05T16:02:00.000Z</time>
      </trkpt>
      <trkpt lat="44.47842" lon="6.23437">
        <ele>964.20001220703</ele>
        <time>2020-11-05T16:02:04.000Z</time>
      </trkpt>
      <trkpt lat="44.47857" lon="6.23421">
        <ele>964.40002441406</ele>
        <time>2020-11-05T16:02:08.000Z</time>
      </trkpt>
      <trkpt lat="44.47876" lon="6.23405">
        <ele>964.40002441406</ele>
        <time>2020-11-05T16:02:12.000Z</time>
      </trkpt>
      <trkpt lat="44.47882" lon="6.23399">
        <ele>964.40002441406</ele>
        <time>2020-11-05T16:02:13.000Z</time>
      </trkpt>
      <trkpt lat="44.47898" lon="6.23382">
        <ele>963.59997558594</ele>
        <time>2020-11-05T16:02:16.000Z</time>
      </trkpt>
      <trkpt lat="44.47904" lon="6.2338">
        <ele>963.40002441406</ele>
        <time>2020-11-05T16:02:17.000Z</time>
      </trkpt>
      <trkpt lat="44.47916" lon="6.23376">
        <ele>962.40002441406</ele>
        <time>2020-11-05T16:02:19.000Z</time>
      </trkpt>
      <trkpt lat="44.47923" lon="6.23372">
        <ele>962</ele>
        <time>2020-11-05T16:02:20.000Z</time>
      </trkpt>
      <trkpt lat="44.47935" lon="6.23361">
        <ele>960.40002441406</ele>
        <time>2020-11-05T16:02:22.000Z</time>
      </trkpt>
      <trkpt lat="44.4794" lon="6.23356">
        <ele>958</ele>
        <time>2020-11-05T16:02:23.000Z</time>
      </trkpt>
      <trkpt lat="44.47952" lon="6.23349">
        <ele>956</ele>
        <time>2020-11-05T16:02:25.000Z</time>
      </trkpt>
      <trkpt lat="44.47957" lon="6.23347">
        <ele>954.79998779297</ele>
        <time>2020-11-05T16:02:26.000Z</time>
      </trkpt>
      <trkpt lat="44.47964" lon="6.23346">
        <ele>953.40002441406</ele>
        <time>2020-11-05T16:02:27.000Z</time>
      </trkpt>
      <trkpt lat="44.47971" lon="6.23345">
        <ele>952.40002441406</ele>
        <time>2020-11-05T16:02:28.000Z</time>
      </trkpt>
      <trkpt lat="44.47984" lon="6.23343">
        <ele>951.40002441406</ele>
        <time>2020-11-05T16:02:30.000Z</time>
      </trkpt>
      <trkpt lat="44.47991" lon="6.23342">
        <ele>951.20001220703</ele>
        <time>2020-11-05T16:02:31.000Z</time>
      </trkpt>
      <trkpt lat="44.48009" lon="6.23334">
        <ele>949.59997558594</ele>
        <time>2020-11-05T16:02:34.000Z</time>
      </trkpt>
      <trkpt lat="44.48017" lon="6.2333">
        <ele>949</ele>
        <time>2020-11-05T16:02:35.000Z</time>
      </trkpt>
      <trkpt lat="44.48023" lon="6.23326">
        <ele>948.59997558594</ele>
        <time>2020-11-05T16:02:36.000Z</time>
      </trkpt>
      <trkpt lat="44.48042" lon="6.23319">
        <ele>948</ele>
        <time>2020-11-05T16:02:39.000Z</time>
      </trkpt>
      <trkpt lat="44.48058" lon="6.23316">
        <ele>947.59997558594</ele>
        <time>2020-11-05T16:02:43.000Z</time>
      </trkpt>
      <trkpt lat="44.48073" lon="6.23323">
        <ele>947.59997558594</ele>
        <time>2020-11-05T16:02:47.000Z</time>
      </trkpt>
      <trkpt lat="44.48077" lon="6.23324">
        <ele>947.40002441406</ele>
        <time>2020-11-05T16:02:48.000Z</time>
      </trkpt>
      <trkpt lat="44.48086" lon="6.23318">
        <ele>947.20001220703</ele>
        <time>2020-11-05T16:02:50.000Z</time>
      </trkpt>
      <trkpt lat="44.48109" lon="6.23305">
        <ele>946.79998779297</ele>
        <time>2020-11-05T16:02:55.000Z</time>
      </trkpt>
      <trkpt lat="44.48127" lon="6.23307">
        <ele>946.79998779297</ele>
        <time>2020-11-05T16:02:58.000Z</time>
      </trkpt>
      <trkpt lat="44.48144" lon="6.23321">
        <ele>946</ele>
        <time>2020-11-05T16:03:01.000Z</time>
      </trkpt>
      <trkpt lat="44.4815" lon="6.23326">
        <ele>945.40002441406</ele>
        <time>2020-11-05T16:03:02.000Z</time>
      </trkpt>
      <trkpt lat="44.48156" lon="6.23331">
        <ele>944.40002441406</ele>
        <time>2020-11-05T16:03:03.000Z</time>
      </trkpt>
      <trkpt lat="44.48162" lon="6.23336">
        <ele>943.20001220703</ele>
        <time>2020-11-05T16:03:04.000Z</time>
      </trkpt>
      <trkpt lat="44.48168" lon="6.23343">
        <ele>942.40002441406</ele>
        <time>2020-11-05T16:03:05.000Z</time>
      </trkpt>
      <trkpt lat="44.48175" lon="6.23351">
        <ele>941.40002441406</ele>
        <time>2020-11-05T16:03:06.000Z</time>
      </trkpt>
      <trkpt lat="44.4818" lon="6.23358">
        <ele>940.59997558594</ele>
        <time>2020-11-05T16:03:07.000Z</time>
      </trkpt>
      <trkpt lat="44.48186" lon="6.23364">
        <ele>940</ele>
        <time>2020-11-05T16:03:08.000Z</time>
      </trkpt>
      <trkpt lat="44.48191" lon="6.23368">
        <ele>939.40002441406</ele>
        <time>2020-11-05T16:03:09.000Z</time>
      </trkpt>
      <trkpt lat="44.48196" lon="6.2337">
        <ele>938.59997558594</ele>
        <time>2020-11-05T16:03:10.000Z</time>
      </trkpt>
      <trkpt lat="44.48205" lon="6.2337">
        <ele>936.59997558594</ele>
        <time>2020-11-05T16:03:12.000Z</time>
      </trkpt>
      <trkpt lat="44.4821" lon="6.23371">
        <ele>935.59997558594</ele>
        <time>2020-11-05T16:03:13.000Z</time>
      </trkpt>
      <trkpt lat="44.48215" lon="6.23373">
        <ele>935</ele>
        <time>2020-11-05T16:03:14.000Z</time>
      </trkpt>
      <trkpt lat="44.48227" lon="6.23375">
        <ele>934.20001220703</ele>
        <time>2020-11-05T16:03:16.000Z</time>
      </trkpt>
      <trkpt lat="44.48232" lon="6.23376">
        <ele>933.79998779297</ele>
        <time>2020-11-05T16:03:17.000Z</time>
      </trkpt>
      <trkpt lat="44.48237" lon="6.23376">
        <ele>933.40002441406</ele>
        <time>2020-11-05T16:03:18.000Z</time>
      </trkpt>
      <trkpt lat="44.48249" lon="6.23377">
        <ele>933</ele>
        <time>2020-11-05T16:03:20.000Z</time>
      </trkpt>
      <trkpt lat="44.48255" lon="6.23381">
        <ele>932.40002441406</ele>
        <time>2020-11-05T16:03:21.000Z</time>
      </trkpt>
      <trkpt lat="44.48261" lon="6.23385">
        <ele>932.20001220703</ele>
        <time>2020-11-05T16:03:22.000Z</time>
      </trkpt>
      <trkpt lat="44.48269" lon="6.23392">
        <ele>931.59997558594</ele>
        <time>2020-11-05T16:03:24.000Z</time>
      </trkpt>
      <trkpt lat="44.48273" lon="6.23392">
        <ele>931.40002441406</ele>
        <time>2020-11-05T16:03:25.000Z</time>
      </trkpt>
      <trkpt lat="44.48278" lon="6.23392">
        <ele>931.20001220703</ele>
        <time>2020-11-05T16:03:26.000Z</time>
      </trkpt>
      <trkpt lat="44.48288" lon="6.23392">
        <ele>929.79998779297</ele>
        <time>2020-11-05T16:03:28.000Z</time>
      </trkpt>
      <trkpt lat="44.48295" lon="6.23393">
        <ele>928.79998779297</ele>
        <time>2020-11-05T16:03:29.000Z</time>
      </trkpt>
      <trkpt lat="44.48302" lon="6.23395">
        <ele>928</ele>
        <time>2020-11-05T16:03:30.000Z</time>
      </trkpt>
      <trkpt lat="44.48309" lon="6.23396">
        <ele>927.40002441406</ele>
        <time>2020-11-05T16:03:31.000Z</time>
      </trkpt>
      <trkpt lat="44.48328" lon="6.23404">
        <ele>926.79998779297</ele>
        <time>2020-11-05T16:03:34.000Z</time>
      </trkpt>
      <trkpt lat="44.48338" lon="6.23409">
        <ele>926</ele>
        <time>2020-11-05T16:03:36.000Z</time>
      </trkpt>
      <trkpt lat="44.48349" lon="6.23412">
        <ele>924.20001220703</ele>
        <time>2020-11-05T16:03:38.000Z</time>
      </trkpt>
      <trkpt lat="44.48356" lon="6.23413">
        <ele>923.20001220703</ele>
        <time>2020-11-05T16:03:39.000Z</time>
      </trkpt>
      <trkpt lat="44.48367" lon="6.23414">
        <ele>921.79998779297</ele>
        <time>2020-11-05T16:03:41.000Z</time>
      </trkpt>
      <trkpt lat="44.48384" lon="6.23416">
        <ele>920.79998779297</ele>
        <time>2020-11-05T16:03:44.000Z</time>
      </trkpt>
      <trkpt lat="44.48396" lon="6.23415">
        <ele>919.20001220703</ele>
        <time>2020-11-05T16:03:47.000Z</time>
      </trkpt>
      <trkpt lat="44.48398" lon="6.23413">
        <ele>918.79998779297</ele>
        <time>2020-11-05T16:03:48.000Z</time>
      </trkpt>
      <trkpt lat="44.484" lon="6.23411">
        <ele>918.40002441406</ele>
        <time>2020-11-05T16:03:50.000Z</time>
      </trkpt>
      <trkpt lat="44.48401" lon="6.23408">
        <ele>918.20001220703</ele>
        <time>2020-11-05T16:03:52.000Z</time>
      </trkpt>
      <trkpt lat="44.48399" lon="6.23398">
        <ele>917.20001220703</ele>
        <time>2020-11-05T16:03:56.000Z</time>
      </trkpt>
      <trkpt lat="44.48398" lon="6.23394">
        <ele>917</ele>
        <time>2020-11-05T16:03:57.000Z</time>
      </trkpt>
      <trkpt lat="44.48394" lon="6.23374">
        <ele>916.20001220703</ele>
        <time>2020-11-05T16:04:02.000Z</time>
      </trkpt>
      <trkpt lat="44.48388" lon="6.23364">
        <ele>915.79998779297</ele>
        <time>2020-11-05T16:04:06.000Z</time>
      </trkpt>
      <trkpt lat="44.48383" lon="6.23355">
        <ele>915.40002441406</ele>
        <time>2020-11-05T16:04:09.000Z</time>
      </trkpt>
      <trkpt lat="44.48376" lon="6.23346">
        <ele>915.40002441406</ele>
        <time>2020-11-05T16:04:14.000Z</time>
      </trkpt>
      <trkpt lat="44.48373" lon="6.23348">
        <ele>916.20001220703</ele>
        <time>2020-11-05T16:04:19.000Z</time>
      </trkpt>
      <trkpt lat="44.48372" lon="6.23349">
        <ele>916.40002441406</ele>
        <time>2020-11-05T16:04:20.000Z</time>
      </trkpt>
      <trkpt lat="44.48363" lon="6.23346">
        <ele>916.40002441406</ele>
        <time>2020-11-05T16:04:23.000Z</time>
      </trkpt>
      <trkpt lat="44.48359" lon="6.23343">
        <ele>916.40002441406</ele>
        <time>2020-11-05T16:04:24.000Z</time>
      </trkpt>
      <trkpt lat="44.48342" lon="6.23334">
        <ele>916.40002441406</ele>
        <time>2020-11-05T16:04:27.000Z</time>
      </trkpt>
      <trkpt lat="44.48307" lon="6.23326">
        <ele>915.40002441406</ele>
        <time>2020-11-05T16:04:32.000Z</time>
      </trkpt>
      <trkpt lat="44.48291" lon="6.23323">
        <ele>914</ele>
        <time>2020-11-05T16:04:34.000Z</time>
      </trkpt>
      <trkpt lat="44.48276" lon="6.23314">
        <ele>913</ele>
        <time>2020-11-05T16:04:36.000Z</time>
      </trkpt>
      <trkpt lat="44.48262" lon="6.23299">
        <ele>911.40002441406</ele>
        <time>2020-11-05T16:04:39.000Z</time>
      </trkpt>
      <trkpt lat="44.4826" lon="6.23296">
        <ele>910.40002441406</ele>
        <time>2020-11-05T16:04:40.000Z</time>
      </trkpt>
      <trkpt lat="44.48258" lon="6.23294">
        <ele>908.79998779297</ele>
        <time>2020-11-05T16:04:41.000Z</time>
      </trkpt>
      <trkpt lat="44.48256" lon="6.23294">
        <ele>906.40002441406</ele>
        <time>2020-11-05T16:04:42.000Z</time>
      </trkpt>
      <trkpt lat="44.48247" lon="6.23287">
        <ele>905.40002441406</ele>
        <time>2020-11-05T16:04:45.000Z</time>
      </trkpt>
      <trkpt lat="44.48244" lon="6.23284">
        <ele>905</ele>
        <time>2020-11-05T16:04:46.000Z</time>
      </trkpt>
      <trkpt lat="44.48236" lon="6.23279">
        <ele>904.79998779297</ele>
        <time>2020-11-05T16:04:48.000Z</time>
      </trkpt>
      <trkpt lat="44.48224" lon="6.23272">
        <ele>904.20001220703</ele>
        <time>2020-11-05T16:04:50.000Z</time>
      </trkpt>
      <trkpt lat="44.48205" lon="6.2326">
        <ele>903.59997558594</ele>
        <time>2020-11-05T16:04:53.000Z</time>
      </trkpt>
      <trkpt lat="44.48195" lon="6.23249">
        <ele>903.40002441406</ele>
        <time>2020-11-05T16:04:55.000Z</time>
      </trkpt>
      <trkpt lat="44.48189" lon="6.23239">
        <ele>902.79998779297</ele>
        <time>2020-11-05T16:04:57.000Z</time>
      </trkpt>
      <trkpt lat="44.48183" lon="6.23228">
        <ele>900.79998779297</ele>
        <time>2020-11-05T16:04:59.000Z</time>
      </trkpt>
      <trkpt lat="44.4818" lon="6.23222">
        <ele>900</ele>
        <time>2020-11-05T16:05:00.000Z</time>
      </trkpt>
      <trkpt lat="44.48176" lon="6.23217">
        <ele>899.59997558594</ele>
        <time>2020-11-05T16:05:01.000Z</time>
      </trkpt>
      <trkpt lat="44.48167" lon="6.23205">
        <ele>899</ele>
        <time>2020-11-05T16:05:03.000Z</time>
      </trkpt>
      <trkpt lat="44.48162" lon="6.23199">
        <ele>898.59997558594</ele>
        <time>2020-11-05T16:05:04.000Z</time>
      </trkpt>
      <trkpt lat="44.48156" lon="6.23192">
        <ele>898.40002441406</ele>
        <time>2020-11-05T16:05:05.000Z</time>
      </trkpt>
      <trkpt lat="44.4815" lon="6.23186">
        <ele>898.20001220703</ele>
        <time>2020-11-05T16:05:06.000Z</time>
      </trkpt>
      <trkpt lat="44.4813" lon="6.23167">
        <ele>897.59997558594</ele>
        <time>2020-11-05T16:05:09.000Z</time>
      </trkpt>
      <trkpt lat="44.48124" lon="6.23161">
        <ele>896.40002441406</ele>
        <time>2020-11-05T16:05:10.000Z</time>
      </trkpt>
      <trkpt lat="44.4811" lon="6.23149">
        <ele>895.59997558594</ele>
        <time>2020-11-05T16:05:12.000Z</time>
      </trkpt>
      <trkpt lat="44.48103" lon="6.23145">
        <ele>895</ele>
        <time>2020-11-05T16:05:13.000Z</time>
      </trkpt>
      <trkpt lat="44.48096" lon="6.23143">
        <ele>894.40002441406</ele>
        <time>2020-11-05T16:05:14.000Z</time>
      </trkpt>
      <trkpt lat="44.48089" lon="6.23141">
        <ele>893.59997558594</ele>
        <time>2020-11-05T16:05:15.000Z</time>
      </trkpt>
      <trkpt lat="44.48077" lon="6.23138">
        <ele>892.20001220703</ele>
        <time>2020-11-05T16:05:17.000Z</time>
      </trkpt>
      <trkpt lat="44.48072" lon="6.23137">
        <ele>891.79998779297</ele>
        <time>2020-11-05T16:05:18.000Z</time>
      </trkpt>
      <trkpt lat="44.48057" lon="6.23131">
        <ele>891.20001220703</ele>
        <time>2020-11-05T16:05:21.000Z</time>
      </trkpt>
      <trkpt lat="44.48046" lon="6.23129">
        <ele>890.79998779297</ele>
        <time>2020-11-05T16:05:23.000Z</time>
      </trkpt>
      <trkpt lat="44.48036" lon="6.23128">
        <ele>890.20001220703</ele>
        <time>2020-11-05T16:05:25.000Z</time>
      </trkpt>
      <trkpt lat="44.48019" lon="6.23128">
        <ele>890</ele>
        <time>2020-11-05T16:05:29.000Z</time>
      </trkpt>
      <trkpt lat="44.48004" lon="6.23126">
        <ele>890.79998779297</ele>
        <time>2020-11-05T16:05:34.000Z</time>
      </trkpt>
      <trkpt lat="44.47991" lon="6.23129">
        <ele>891.20001220703</ele>
        <time>2020-11-05T16:05:38.000Z</time>
      </trkpt>
      <trkpt lat="44.47983" lon="6.2313">
        <ele>892.59997558594</ele>
        <time>2020-11-05T16:05:40.000Z</time>
      </trkpt>
      <trkpt lat="44.47967" lon="6.23131">
        <ele>893.59997558594</ele>
        <time>2020-11-05T16:05:44.000Z</time>
      </trkpt>
      <trkpt lat="44.47956" lon="6.23133">
        <ele>894</ele>
        <time>2020-11-05T16:05:48.000Z</time>
      </trkpt>
      <trkpt lat="44.47943" lon="6.23134">
        <ele>894.59997558594</ele>
        <time>2020-11-05T16:05:51.000Z</time>
      </trkpt>
      <trkpt lat="44.47935" lon="6.23136">
        <ele>895</ele>
        <time>2020-11-05T16:05:53.000Z</time>
      </trkpt>
      <trkpt lat="44.47929" lon="6.2314">
        <ele>895.59997558594</ele>
        <time>2020-11-05T16:05:55.000Z</time>
      </trkpt>
      <trkpt lat="44.47916" lon="6.2315">
        <ele>896</ele>
        <time>2020-11-05T16:05:58.000Z</time>
      </trkpt>
      <trkpt lat="44.47903" lon="6.23175">
        <ele>896</ele>
        <time>2020-11-05T16:06:02.000Z</time>
      </trkpt>
      <trkpt lat="44.47899" lon="6.23181">
        <ele>896</ele>
        <time>2020-11-05T16:06:03.000Z</time>
      </trkpt>
      <trkpt lat="44.47891" lon="6.23192">
        <ele>896.20001220703</ele>
        <time>2020-11-05T16:06:06.000Z</time>
      </trkpt>
      <trkpt lat="44.47871" lon="6.23195">
        <ele>896.59997558594</ele>
        <time>2020-11-05T16:06:11.000Z</time>
      </trkpt>
      <trkpt lat="44.47866" lon="6.23196">
        <ele>896.59997558594</ele>
        <time>2020-11-05T16:06:12.000Z</time>
      </trkpt>
      <trkpt lat="44.47853" lon="6.23199">
        <ele>897.79998779297</ele>
        <time>2020-11-05T16:06:15.000Z</time>
      </trkpt>
      <trkpt lat="44.47845" lon="6.23201">
        <ele>898.20001220703</ele>
        <time>2020-11-05T16:06:17.000Z</time>
      </trkpt>
      <trkpt lat="44.47842" lon="6.232">
        <ele>898.20001220703</ele>
        <time>2020-11-05T16:06:18.000Z</time>
      </trkpt>
      <trkpt lat="44.47839" lon="6.23194">
        <ele>898.40002441406</ele>
        <time>2020-11-05T16:06:20.000Z</time>
      </trkpt>
      <trkpt lat="44.47836" lon="6.23186">
        <ele>898.59997558594</ele>
        <time>2020-11-05T16:06:22.000Z</time>
      </trkpt>
      <trkpt lat="44.47837" lon="6.23175">
        <ele>898.59997558594</ele>
        <time>2020-11-05T16:06:24.000Z</time>
      </trkpt>
      <trkpt lat="44.47844" lon="6.23154">
        <ele>898.79998779297</ele>
        <time>2020-11-05T16:06:28.000Z</time>
      </trkpt>
      <trkpt lat="44.47845" lon="6.23149">
        <ele>898.79998779297</ele>
        <time>2020-11-05T16:06:29.000Z</time>
      </trkpt>
      <trkpt lat="44.47845" lon="6.23129">
        <ele>899</ele>
        <time>2020-11-05T16:06:33.000Z</time>
      </trkpt>
      <trkpt lat="44.47849" lon="6.23108">
        <ele>899</ele>
        <time>2020-11-05T16:06:38.000Z</time>
      </trkpt>
      <trkpt lat="44.47851" lon="6.23097">
        <ele>899.59997558594</ele>
        <time>2020-11-05T16:06:40.000Z</time>
      </trkpt>
      <trkpt lat="44.47851" lon="6.23092">
        <ele>900.20001220703</ele>
        <time>2020-11-05T16:06:41.000Z</time>
      </trkpt>
      <trkpt lat="44.4785" lon="6.23082">
        <ele>901.20001220703</ele>
        <time>2020-11-05T16:06:43.000Z</time>
      </trkpt>
      <trkpt lat="44.47844" lon="6.23066">
        <ele>901.79998779297</ele>
        <time>2020-11-05T16:06:47.000Z</time>
      </trkpt>
      <trkpt lat="44.47833" lon="6.23057">
        <ele>901.79998779297</ele>
        <time>2020-11-05T16:06:50.000Z</time>
      </trkpt>
      <trkpt lat="44.47826" lon="6.23037">
        <ele>901.20001220703</ele>
        <time>2020-11-05T16:06:54.000Z</time>
      </trkpt>
      <trkpt lat="44.47824" lon="6.23027">
        <ele>900</ele>
        <time>2020-11-05T16:06:56.000Z</time>
      </trkpt>
      <trkpt lat="44.47821" lon="6.23019">
        <ele>898.40002441406</ele>
        <time>2020-11-05T16:06:58.000Z</time>
      </trkpt>
      <trkpt lat="44.47817" lon="6.23015">
        <ele>897</ele>
        <time>2020-11-05T16:07:00.000Z</time>
      </trkpt>
      <trkpt lat="44.47814" lon="6.23013">
        <ele>895.20001220703</ele>
        <time>2020-11-05T16:07:01.000Z</time>
      </trkpt>
      <trkpt lat="44.47812" lon="6.23012">
        <ele>895</ele>
        <time>2020-11-05T16:07:02.000Z</time>
      </trkpt>
      <trkpt lat="44.47802" lon="6.23012">
        <ele>894.59997558594</ele>
        <time>2020-11-05T16:07:06.000Z</time>
      </trkpt>
      <trkpt lat="44.4779" lon="6.23017">
        <ele>894.59997558594</ele>
        <time>2020-11-05T16:07:09.000Z</time>
      </trkpt>
      <trkpt lat="44.47786" lon="6.23021">
        <ele>894.40002441406</ele>
        <time>2020-11-05T16:07:10.000Z</time>
      </trkpt>
      <trkpt lat="44.47776" lon="6.23029">
        <ele>894.20001220703</ele>
        <time>2020-11-05T16:07:13.000Z</time>
      </trkpt>
      <trkpt lat="44.47773" lon="6.23034">
        <ele>894.20001220703</ele>
        <time>2020-11-05T16:07:14.000Z</time>
      </trkpt>
      <trkpt lat="44.47767" lon="6.23043">
        <ele>894.20001220703</ele>
        <time>2020-11-05T16:07:16.000Z</time>
      </trkpt>
      <trkpt lat="44.4776" lon="6.23046">
        <ele>894.20001220703</ele>
        <time>2020-11-05T16:07:18.000Z</time>
      </trkpt>
      <trkpt lat="44.47744" lon="6.23037">
        <ele>893.40002441406</ele>
        <time>2020-11-05T16:07:22.000Z</time>
      </trkpt>
      <trkpt lat="44.47739" lon="6.23037">
        <ele>892.79998779297</ele>
        <time>2020-11-05T16:07:23.000Z</time>
      </trkpt>
      <trkpt lat="44.47735" lon="6.23038">
        <ele>892.40002441406</ele>
        <time>2020-11-05T16:07:24.000Z</time>
      </trkpt>
      <trkpt lat="44.47721" lon="6.23042">
        <ele>891.59997558594</ele>
        <time>2020-11-05T16:07:27.000Z</time>
      </trkpt>
      <trkpt lat="44.47711" lon="6.23046">
        <ele>890.40002441406</ele>
        <time>2020-11-05T16:07:29.000Z</time>
      </trkpt>
      <trkpt lat="44.47706" lon="6.23049">
        <ele>889.79998779297</ele>
        <time>2020-11-05T16:07:30.000Z</time>
      </trkpt>
      <trkpt lat="44.47701" lon="6.23054">
        <ele>889.20001220703</ele>
        <time>2020-11-05T16:07:31.000Z</time>
      </trkpt>
      <trkpt lat="44.47697" lon="6.23059">
        <ele>888.59997558594</ele>
        <time>2020-11-05T16:07:32.000Z</time>
      </trkpt>
      <trkpt lat="44.47693" lon="6.23065">
        <ele>888.20001220703</ele>
        <time>2020-11-05T16:07:33.000Z</time>
      </trkpt>
      <trkpt lat="44.47687" lon="6.23079">
        <ele>886.79998779297</ele>
        <time>2020-11-05T16:07:35.000Z</time>
      </trkpt>
      <trkpt lat="44.47682" lon="6.23085">
        <ele>885.59997558594</ele>
        <time>2020-11-05T16:07:36.000Z</time>
      </trkpt>
      <trkpt lat="44.47678" lon="6.23089">
        <ele>884.59997558594</ele>
        <time>2020-11-05T16:07:37.000Z</time>
      </trkpt>
      <trkpt lat="44.47675" lon="6.23091">
        <ele>883.59997558594</ele>
        <time>2020-11-05T16:07:38.000Z</time>
      </trkpt>
      <trkpt lat="44.47672" lon="6.2309">
        <ele>882.59997558594</ele>
        <time>2020-11-05T16:07:39.000Z</time>
      </trkpt>
      <trkpt lat="44.47673" lon="6.23081">
        <ele>880.79998779297</ele>
        <time>2020-11-05T16:07:41.000Z</time>
      </trkpt>
      <trkpt lat="44.47674" lon="6.23075">
        <ele>880</ele>
        <time>2020-11-05T16:07:42.000Z</time>
      </trkpt>
      <trkpt lat="44.47676" lon="6.23068">
        <ele>879.20001220703</ele>
        <time>2020-11-05T16:07:43.000Z</time>
      </trkpt>
      <trkpt lat="44.47678" lon="6.23054">
        <ele>877.59997558594</ele>
        <time>2020-11-05T16:07:45.000Z</time>
      </trkpt>
      <trkpt lat="44.47681" lon="6.2304">
        <ele>877</ele>
        <time>2020-11-05T16:07:47.000Z</time>
      </trkpt>
      <trkpt lat="44.4769" lon="6.23022">
        <ele>876.20001220703</ele>
        <time>2020-11-05T16:07:50.000Z</time>
      </trkpt>
      <trkpt lat="44.47692" lon="6.23016">
        <ele>875.40002441406</ele>
        <time>2020-11-05T16:07:51.000Z</time>
      </trkpt>
      <trkpt lat="44.47694" lon="6.2301">
        <ele>875</ele>
        <time>2020-11-05T16:07:52.000Z</time>
      </trkpt>
      <trkpt lat="44.47696" lon="6.22995">
        <ele>874.40002441406</ele>
        <time>2020-11-05T16:07:54.000Z</time>
      </trkpt>
      <trkpt lat="44.47701" lon="6.22976">
        <ele>874</ele>
        <time>2020-11-05T16:07:57.000Z</time>
      </trkpt>
      <trkpt lat="44.47701" lon="6.22971">
        <ele>873.79998779297</ele>
        <time>2020-11-05T16:07:58.000Z</time>
      </trkpt>
      <trkpt lat="44.47697" lon="6.22964">
        <ele>873.79998779297</ele>
        <time>2020-11-05T16:08:00.000Z</time>
      </trkpt>
      <trkpt lat="44.47693" lon="6.22962">
        <ele>873.79998779297</ele>
        <time>2020-11-05T16:08:01.000Z</time>
      </trkpt>
      <trkpt lat="44.47677" lon="6.22958">
        <ele>873.40002441406</ele>
        <time>2020-11-05T16:08:04.000Z</time>
      </trkpt>
      <trkpt lat="44.47671" lon="6.22959">
        <ele>873.20001220703</ele>
        <time>2020-11-05T16:08:05.000Z</time>
      </trkpt>
      <trkpt lat="44.47666" lon="6.2296">
        <ele>872.79998779297</ele>
        <time>2020-11-05T16:08:06.000Z</time>
      </trkpt>
      <trkpt lat="44.47658" lon="6.22963">
        <ele>871.59997558594</ele>
        <time>2020-11-05T16:08:08.000Z</time>
      </trkpt>
      <trkpt lat="44.47654" lon="6.22964">
        <ele>871.20001220703</ele>
        <time>2020-11-05T16:08:09.000Z</time>
      </trkpt>
      <trkpt lat="44.47639" lon="6.22973">
        <ele>870.79998779297</ele>
        <time>2020-11-05T16:08:13.000Z</time>
      </trkpt>
      <trkpt lat="44.47636" lon="6.22977">
        <ele>870.79998779297</ele>
        <time>2020-11-05T16:08:14.000Z</time>
      </trkpt>
      <trkpt lat="44.47625" lon="6.22991">
        <ele>870.40002441406</ele>
        <time>2020-11-05T16:08:17.000Z</time>
      </trkpt>
      <trkpt lat="44.47621" lon="6.22992">
        <ele>870.40002441406</ele>
        <time>2020-11-05T16:08:18.000Z</time>
      </trkpt>
      <trkpt lat="44.47612" lon="6.22987">
        <ele>869.59997558594</ele>
        <time>2020-11-05T16:08:21.000Z</time>
      </trkpt>
      <trkpt lat="44.4761" lon="6.22982">
        <ele>869.20001220703</ele>
        <time>2020-11-05T16:08:22.000Z</time>
      </trkpt>
      <trkpt lat="44.47609" lon="6.22967">
        <ele>869</ele>
        <time>2020-11-05T16:08:24.000Z</time>
      </trkpt>
      <trkpt lat="44.4761" lon="6.22952">
        <ele>868</ele>
        <time>2020-11-05T16:08:26.000Z</time>
      </trkpt>
      <trkpt lat="44.47614" lon="6.22941">
        <ele>867</ele>
        <time>2020-11-05T16:08:28.000Z</time>
      </trkpt>
      <trkpt lat="44.47617" lon="6.22936">
        <ele>866.40002441406</ele>
        <time>2020-11-05T16:08:29.000Z</time>
      </trkpt>
      <trkpt lat="44.4762" lon="6.2293">
        <ele>865.79998779297</ele>
        <time>2020-11-05T16:08:30.000Z</time>
      </trkpt>
      <trkpt lat="44.47622" lon="6.22924">
        <ele>865.40002441406</ele>
        <time>2020-11-05T16:08:31.000Z</time>
      </trkpt>
      <trkpt lat="44.47622" lon="6.22919">
        <ele>865</ele>
        <time>2020-11-05T16:08:32.000Z</time>
      </trkpt>
      <trkpt lat="44.47621" lon="6.22914">
        <ele>864.79998779297</ele>
        <time>2020-11-05T16:08:33.000Z</time>
      </trkpt>
      <trkpt lat="44.47615" lon="6.2291">
        <ele>864.40002441406</ele>
        <time>2020-11-05T16:08:35.000Z</time>
      </trkpt>
      <trkpt lat="44.47602" lon="6.22904">
        <ele>864.20001220703</ele>
        <time>2020-11-05T16:08:38.000Z</time>
      </trkpt>
      <trkpt lat="44.47598" lon="6.22902">
        <ele>864.20001220703</ele>
        <time>2020-11-05T16:08:39.000Z</time>
      </trkpt>
      <trkpt lat="44.47584" lon="6.22908">
        <ele>863.79998779297</ele>
        <time>2020-11-05T16:08:42.000Z</time>
      </trkpt>
      <trkpt lat="44.47573" lon="6.22913">
        <ele>863.79998779297</ele>
        <time>2020-11-05T16:08:44.000Z</time>
      </trkpt>
      <trkpt lat="44.47567" lon="6.22915">
        <ele>863.79998779297</ele>
        <time>2020-11-05T16:08:45.000Z</time>
      </trkpt>
      <trkpt lat="44.47555" lon="6.22918">
        <ele>863.40002441406</ele>
        <time>2020-11-05T16:08:47.000Z</time>
      </trkpt>
      <trkpt lat="44.47543" lon="6.22923">
        <ele>862.59997558594</ele>
        <time>2020-11-05T16:08:49.000Z</time>
      </trkpt>
      <trkpt lat="44.47522" lon="6.22934">
        <ele>861</ele>
        <time>2020-11-05T16:08:52.000Z</time>
      </trkpt>
      <trkpt lat="44.47515" lon="6.22937">
        <ele>859.79998779297</ele>
        <time>2020-11-05T16:08:53.000Z</time>
      </trkpt>
      <trkpt lat="44.47502" lon="6.22936">
        <ele>859</ele>
        <time>2020-11-05T16:08:55.000Z</time>
      </trkpt>
      <trkpt lat="44.47497" lon="6.22934">
        <ele>858.59997558594</ele>
        <time>2020-11-05T16:08:56.000Z</time>
      </trkpt>
      <trkpt lat="44.47488" lon="6.22925">
        <ele>857.20001220703</ele>
        <time>2020-11-05T16:08:58.000Z</time>
      </trkpt>
      <trkpt lat="44.47478" lon="6.22915">
        <ele>855.79998779297</ele>
        <time>2020-11-05T16:09:00.000Z</time>
      </trkpt>
      <trkpt lat="44.47467" lon="6.22902">
        <ele>855.40002441406</ele>
        <time>2020-11-05T16:09:02.000Z</time>
      </trkpt>
      <trkpt lat="44.4746" lon="6.22897">
        <ele>855</ele>
        <time>2020-11-05T16:09:03.000Z</time>
      </trkpt>
      <trkpt lat="44.47454" lon="6.22893">
        <ele>854.79998779297</ele>
        <time>2020-11-05T16:09:04.000Z</time>
      </trkpt>
      <trkpt lat="44.47448" lon="6.22888">
        <ele>854.40002441406</ele>
        <time>2020-11-05T16:09:05.000Z</time>
      </trkpt>
      <trkpt lat="44.47442" lon="6.22877">
        <ele>853.59997558594</ele>
        <time>2020-11-05T16:09:07.000Z</time>
      </trkpt>
      <trkpt lat="44.47435" lon="6.22871">
        <ele>852.59997558594</ele>
        <time>2020-11-05T16:09:09.000Z</time>
      </trkpt>
      <trkpt lat="44.47431" lon="6.22871">
        <ele>851.79998779297</ele>
        <time>2020-11-05T16:09:10.000Z</time>
      </trkpt>
      <trkpt lat="44.47426" lon="6.2287">
        <ele>851.20001220703</ele>
        <time>2020-11-05T16:09:11.000Z</time>
      </trkpt>
      <trkpt lat="44.47415" lon="6.22871">
        <ele>850.79998779297</ele>
        <time>2020-11-05T16:09:13.000Z</time>
      </trkpt>
      <trkpt lat="44.47409" lon="6.22873">
        <ele>850.59997558594</ele>
        <time>2020-11-05T16:09:14.000Z</time>
      </trkpt>
      <trkpt lat="44.47391" lon="6.22878">
        <ele>850</ele>
        <time>2020-11-05T16:09:17.000Z</time>
      </trkpt>
      <trkpt lat="44.47372" lon="6.22884">
        <ele>849.59997558594</ele>
        <time>2020-11-05T16:09:20.000Z</time>
      </trkpt>
      <trkpt lat="44.47365" lon="6.22884">
        <ele>849.40002441406</ele>
        <time>2020-11-05T16:09:21.000Z</time>
      </trkpt>
      <trkpt lat="44.47345" lon="6.22886">
        <ele>848.59997558594</ele>
        <time>2020-11-05T16:09:24.000Z</time>
      </trkpt>
      <trkpt lat="44.47339" lon="6.22886">
        <ele>847.79998779297</ele>
        <time>2020-11-05T16:09:25.000Z</time>
      </trkpt>
      <trkpt lat="44.47332" lon="6.22885">
        <ele>847.40002441406</ele>
        <time>2020-11-05T16:09:26.000Z</time>
      </trkpt>
      <trkpt lat="44.47323" lon="6.22879">
        <ele>846.59997558594</ele>
        <time>2020-11-05T16:09:28.000Z</time>
      </trkpt>
      <trkpt lat="44.47318" lon="6.22874">
        <ele>846.40002441406</ele>
        <time>2020-11-05T16:09:29.000Z</time>
      </trkpt>
      <trkpt lat="44.47304" lon="6.22855">
        <ele>845.20001220703</ele>
        <time>2020-11-05T16:09:32.000Z</time>
      </trkpt>
      <trkpt lat="44.47287" lon="6.22833">
        <ele>844.40002441406</ele>
        <time>2020-11-05T16:09:36.000Z</time>
      </trkpt>
      <trkpt lat="44.47282" lon="6.22828">
        <ele>843.59997558594</ele>
        <time>2020-11-05T16:09:37.000Z</time>
      </trkpt>
      <trkpt lat="44.47277" lon="6.22823">
        <ele>842.59997558594</ele>
        <time>2020-11-05T16:09:38.000Z</time>
      </trkpt>
      <trkpt lat="44.47272" lon="6.22818">
        <ele>841.79998779297</ele>
        <time>2020-11-05T16:09:39.000Z</time>
      </trkpt>
      <trkpt lat="44.47266" lon="6.22816">
        <ele>841</ele>
        <time>2020-11-05T16:09:40.000Z</time>
      </trkpt>
      <trkpt lat="44.47261" lon="6.22813">
        <ele>840.40002441406</ele>
        <time>2020-11-05T16:09:41.000Z</time>
      </trkpt>
      <trkpt lat="44.47255" lon="6.22809">
        <ele>839.79998779297</ele>
        <time>2020-11-05T16:09:42.000Z</time>
      </trkpt>
      <trkpt lat="44.47245" lon="6.228">
        <ele>839</ele>
        <time>2020-11-05T16:09:44.000Z</time>
      </trkpt>
      <trkpt lat="44.4724" lon="6.22795">
        <ele>838.59997558594</ele>
        <time>2020-11-05T16:09:45.000Z</time>
      </trkpt>
      <trkpt lat="44.47235" lon="6.22791">
        <ele>838</ele>
        <time>2020-11-05T16:09:46.000Z</time>
      </trkpt>
      <trkpt lat="44.47231" lon="6.22786">
        <ele>837.40002441406</ele>
        <time>2020-11-05T16:09:47.000Z</time>
      </trkpt>
      <trkpt lat="44.47228" lon="6.22781">
        <ele>836.59997558594</ele>
        <time>2020-11-05T16:09:48.000Z</time>
      </trkpt>
      <trkpt lat="44.47224" lon="6.22777">
        <ele>835.59997558594</ele>
        <time>2020-11-05T16:09:49.000Z</time>
      </trkpt>
      <trkpt lat="44.47217" lon="6.22779">
        <ele>834.40002441406</ele>
        <time>2020-11-05T16:09:51.000Z</time>
      </trkpt>
      <trkpt lat="44.47208" lon="6.22781">
        <ele>833.79998779297</ele>
        <time>2020-11-05T16:09:53.000Z</time>
      </trkpt>
      <trkpt lat="44.47196" lon="6.22779">
        <ele>833.20001220703</ele>
        <time>2020-11-05T16:09:55.000Z</time>
      </trkpt>
      <trkpt lat="44.47184" lon="6.22775">
        <ele>832.59997558594</ele>
        <time>2020-11-05T16:09:57.000Z</time>
      </trkpt>
      <trkpt lat="44.47173" lon="6.22773">
        <ele>832.40002441406</ele>
        <time>2020-11-05T16:09:59.000Z</time>
      </trkpt>
      <trkpt lat="44.47162" lon="6.22766">
        <ele>831.79998779297</ele>
        <time>2020-11-05T16:10:01.000Z</time>
      </trkpt>
      <trkpt lat="44.47149" lon="6.22765">
        <ele>830.20001220703</ele>
        <time>2020-11-05T16:10:03.000Z</time>
      </trkpt>
      <trkpt lat="44.47144" lon="6.22766">
        <ele>829.40002441406</ele>
        <time>2020-11-05T16:10:04.000Z</time>
      </trkpt>
      <trkpt lat="44.47137" lon="6.22765">
        <ele>828.59997558594</ele>
        <time>2020-11-05T16:10:05.000Z</time>
      </trkpt>
      <trkpt lat="44.47124" lon="6.22763">
        <ele>827.20001220703</ele>
        <time>2020-11-05T16:10:07.000Z</time>
      </trkpt>
      <trkpt lat="44.4711" lon="6.2276">
        <ele>826.20001220703</ele>
        <time>2020-11-05T16:10:09.000Z</time>
      </trkpt>
      <trkpt lat="44.47103" lon="6.22761">
        <ele>825.20001220703</ele>
        <time>2020-11-05T16:10:10.000Z</time>
      </trkpt>
      <trkpt lat="44.47098" lon="6.22763">
        <ele>824.59997558594</ele>
        <time>2020-11-05T16:10:11.000Z</time>
      </trkpt>
      <trkpt lat="44.47088" lon="6.22763">
        <ele>822.79998779297</ele>
        <time>2020-11-05T16:10:13.000Z</time>
      </trkpt>
      <trkpt lat="44.47084" lon="6.22759">
        <ele>821.40002441406</ele>
        <time>2020-11-05T16:10:14.000Z</time>
      </trkpt>
      <trkpt lat="44.47078" lon="6.22757">
        <ele>820.40002441406</ele>
        <time>2020-11-05T16:10:15.000Z</time>
      </trkpt>
      <trkpt lat="44.47068" lon="6.22753">
        <ele>817.20001220703</ele>
        <time>2020-11-05T16:10:17.000Z</time>
      </trkpt>
      <trkpt lat="44.47056" lon="6.22748">
        <ele>816</ele>
        <time>2020-11-05T16:10:19.000Z</time>
      </trkpt>
      <trkpt lat="44.4705" lon="6.22746">
        <ele>815.59997558594</ele>
        <time>2020-11-05T16:10:20.000Z</time>
      </trkpt>
      <trkpt lat="44.4704" lon="6.22742">
        <ele>815</ele>
        <time>2020-11-05T16:10:22.000Z</time>
      </trkpt>
      <trkpt lat="44.47037" lon="6.2274">
        <ele>814.20001220703</ele>
        <time>2020-11-05T16:10:23.000Z</time>
      </trkpt>
      <trkpt lat="44.47034" lon="6.22739">
        <ele>813.40002441406</ele>
        <time>2020-11-05T16:10:24.000Z</time>
      </trkpt>
      <trkpt lat="44.47032" lon="6.2274">
        <ele>812.79998779297</ele>
        <time>2020-11-05T16:10:25.000Z</time>
      </trkpt>
      <trkpt lat="44.47032" lon="6.22742">
        <ele>811.79998779297</ele>
        <time>2020-11-05T16:10:26.000Z</time>
      </trkpt>
      <trkpt lat="44.47032" lon="6.22745">
        <ele>810.79998779297</ele>
        <time>2020-11-05T16:10:27.000Z</time>
      </trkpt>
      <trkpt lat="44.47037" lon="6.22752">
        <ele>809.40002441406</ele>
        <time>2020-11-05T16:10:29.000Z</time>
      </trkpt>
      <trkpt lat="44.47041" lon="6.22757">
        <ele>809</ele>
        <time>2020-11-05T16:10:30.000Z</time>
      </trkpt>
      <trkpt lat="44.4705" lon="6.22769">
        <ele>808.59997558594</ele>
        <time>2020-11-05T16:10:32.000Z</time>
      </trkpt>
      <trkpt lat="44.47054" lon="6.22776">
        <ele>808.40002441406</ele>
        <time>2020-11-05T16:10:33.000Z</time>
      </trkpt>
      <trkpt lat="44.47058" lon="6.22782">
        <ele>808.20001220703</ele>
        <time>2020-11-05T16:10:34.000Z</time>
      </trkpt>
      <trkpt lat="44.47066" lon="6.22791">
        <ele>807.79998779297</ele>
        <time>2020-11-05T16:10:36.000Z</time>
      </trkpt>
      <trkpt lat="44.4707" lon="6.22796">
        <ele>807</ele>
        <time>2020-11-05T16:10:37.000Z</time>
      </trkpt>
      <trkpt lat="44.47077" lon="6.22803">
        <ele>805.20001220703</ele>
        <time>2020-11-05T16:10:39.000Z</time>
      </trkpt>
      <trkpt lat="44.47082" lon="6.22805">
        <ele>804</ele>
        <time>2020-11-05T16:10:40.000Z</time>
      </trkpt>
      <trkpt lat="44.47086" lon="6.22805">
        <ele>802.79998779297</ele>
        <time>2020-11-05T16:10:41.000Z</time>
      </trkpt>
      <trkpt lat="44.47095" lon="6.22808">
        <ele>801.20001220703</ele>
        <time>2020-11-05T16:10:43.000Z</time>
      </trkpt>
      <trkpt lat="44.47099" lon="6.2282">
        <ele>799.20001220703</ele>
        <time>2020-11-05T16:10:45.000Z</time>
      </trkpt>
      <trkpt lat="44.47101" lon="6.22826">
        <ele>798.79998779297</ele>
        <time>2020-11-05T16:10:46.000Z</time>
      </trkpt>
      <trkpt lat="44.47104" lon="6.22831">
        <ele>798.20001220703</ele>
        <time>2020-11-05T16:10:47.000Z</time>
      </trkpt>
      <trkpt lat="44.47113" lon="6.22837">
        <ele>797</ele>
        <time>2020-11-05T16:10:49.000Z</time>
      </trkpt>
      <trkpt lat="44.4712" lon="6.22838">
        <ele>796</ele>
        <time>2020-11-05T16:10:51.000Z</time>
      </trkpt>
      <trkpt lat="44.47122" lon="6.22839">
        <ele>795.79998779297</ele>
        <time>2020-11-05T16:10:52.000Z</time>
      </trkpt>
      <trkpt lat="44.47119" lon="6.22844">
        <ele>795</ele>
        <time>2020-11-05T16:10:54.000Z</time>
      </trkpt>
      <trkpt lat="44.47114" lon="6.22845">
        <ele>794.40002441406</ele>
        <time>2020-11-05T16:10:55.000Z</time>
      </trkpt>
      <trkpt lat="44.47109" lon="6.22847">
        <ele>794</ele>
        <time>2020-11-05T16:10:56.000Z</time>
      </trkpt>
      <trkpt lat="44.47103" lon="6.22849">
        <ele>793.40002441406</ele>
        <time>2020-11-05T16:10:57.000Z</time>
      </trkpt>
      <trkpt lat="44.47097" lon="6.22851">
        <ele>792.79998779297</ele>
        <time>2020-11-05T16:10:58.000Z</time>
      </trkpt>
      <trkpt lat="44.47086" lon="6.22848">
        <ele>792</ele>
        <time>2020-11-05T16:11:00.000Z</time>
      </trkpt>
      <trkpt lat="44.47075" lon="6.22849">
        <ele>791.40002441406</ele>
        <time>2020-11-05T16:11:02.000Z</time>
      </trkpt>
      <trkpt lat="44.4707" lon="6.22849">
        <ele>790.59997558594</ele>
        <time>2020-11-05T16:11:03.000Z</time>
      </trkpt>
      <trkpt lat="44.47067" lon="6.2285">
        <ele>789.59997558594</ele>
        <time>2020-11-05T16:11:04.000Z</time>
      </trkpt>
      <trkpt lat="44.47064" lon="6.22852">
        <ele>788.40002441406</ele>
        <time>2020-11-05T16:11:05.000Z</time>
      </trkpt>
      <trkpt lat="44.47061" lon="6.22853">
        <ele>787</ele>
        <time>2020-11-05T16:11:06.000Z</time>
      </trkpt>
      <trkpt lat="44.47058" lon="6.22853">
        <ele>785.79998779297</ele>
        <time>2020-11-05T16:11:07.000Z</time>
      </trkpt>
      <trkpt lat="44.47055" lon="6.22851">
        <ele>784.59997558594</ele>
        <time>2020-11-05T16:11:08.000Z</time>
      </trkpt>
      <trkpt lat="44.47051" lon="6.22849">
        <ele>783.20001220703</ele>
        <time>2020-11-05T16:11:09.000Z</time>
      </trkpt>
      <trkpt lat="44.47047" lon="6.22847">
        <ele>782.20001220703</ele>
        <time>2020-11-05T16:11:10.000Z</time>
      </trkpt>
      <trkpt lat="44.47043" lon="6.22847">
        <ele>781.20001220703</ele>
        <time>2020-11-05T16:11:11.000Z</time>
      </trkpt>
      <trkpt lat="44.4704" lon="6.22847">
        <ele>780.59997558594</ele>
        <time>2020-11-05T16:11:12.000Z</time>
      </trkpt>
      <trkpt lat="44.47034" lon="6.22848">
        <ele>779.20001220703</ele>
        <time>2020-11-05T16:11:14.000Z</time>
      </trkpt>
      <trkpt lat="44.47027" lon="6.22848">
        <ele>778</ele>
        <time>2020-11-05T16:11:16.000Z</time>
      </trkpt>
      <trkpt lat="44.47023" lon="6.22844">
        <ele>776.79998779297</ele>
        <time>2020-11-05T16:11:17.000Z</time>
      </trkpt>
      <trkpt lat="44.4702" lon="6.22839">
        <ele>775.79998779297</ele>
        <time>2020-11-05T16:11:18.000Z</time>
      </trkpt>
      <trkpt lat="44.47012" lon="6.22829">
        <ele>774.40002441406</ele>
        <time>2020-11-05T16:11:20.000Z</time>
      </trkpt>
      <trkpt lat="44.47003" lon="6.22821">
        <ele>773.20001220703</ele>
        <time>2020-11-05T16:11:22.000Z</time>
      </trkpt>
      <trkpt lat="44.46995" lon="6.2281">
        <ele>772</ele>
        <time>2020-11-05T16:11:24.000Z</time>
      </trkpt>
      <trkpt lat="44.46992" lon="6.22804">
        <ele>771.20001220703</ele>
        <time>2020-11-05T16:11:25.000Z</time>
      </trkpt>
      <trkpt lat="44.4699" lon="6.22798">
        <ele>770</ele>
        <time>2020-11-05T16:11:26.000Z</time>
      </trkpt>
      <trkpt lat="44.46989" lon="6.22792">
        <ele>768.59997558594</ele>
        <time>2020-11-05T16:11:27.000Z</time>
      </trkpt>
      <trkpt lat="44.46988" lon="6.22786">
        <ele>766.79998779297</ele>
        <time>2020-11-05T16:11:28.000Z</time>
      </trkpt>
      <trkpt lat="44.46985" lon="6.22781">
        <ele>765.40002441406</ele>
        <time>2020-11-05T16:11:29.000Z</time>
      </trkpt>
      <trkpt lat="44.46982" lon="6.22777">
        <ele>764.20001220703</ele>
        <time>2020-11-05T16:11:30.000Z</time>
      </trkpt>
      <trkpt lat="44.46979" lon="6.22773">
        <ele>763</ele>
        <time>2020-11-05T16:11:31.000Z</time>
      </trkpt>
      <trkpt lat="44.46977" lon="6.22769">
        <ele>762</ele>
        <time>2020-11-05T16:11:32.000Z</time>
      </trkpt>
      <trkpt lat="44.46974" lon="6.22763">
        <ele>761.20001220703</ele>
        <time>2020-11-05T16:11:33.000Z</time>
      </trkpt>
      <trkpt lat="44.46972" lon="6.22758">
        <ele>760.40002441406</ele>
        <time>2020-11-05T16:11:34.000Z</time>
      </trkpt>
      <trkpt lat="44.46968" lon="6.22748">
        <ele>759.20001220703</ele>
        <time>2020-11-05T16:11:36.000Z</time>
      </trkpt>
      <trkpt lat="44.46965" lon="6.2274">
        <ele>757.79998779297</ele>
        <time>2020-11-05T16:11:38.000Z</time>
      </trkpt>
      <trkpt lat="44.46964" lon="6.22737">
        <ele>757.20001220703</ele>
        <time>2020-11-05T16:11:39.000Z</time>
      </trkpt>
      <trkpt lat="44.46962" lon="6.22738">
        <ele>756.59997558594</ele>
        <time>2020-11-05T16:11:40.000Z</time>
      </trkpt>
      <trkpt lat="44.46962" lon="6.22741">
        <ele>754.59997558594</ele>
        <time>2020-11-05T16:11:41.000Z</time>
      </trkpt>
      <trkpt lat="44.46963" lon="6.2275">
        <ele>752.79998779297</ele>
        <time>2020-11-05T16:11:43.000Z</time>
      </trkpt>
      <trkpt lat="44.46964" lon="6.22756">
        <ele>751.79998779297</ele>
        <time>2020-11-05T16:11:44.000Z</time>
      </trkpt>
      <trkpt lat="44.46965" lon="6.22764">
        <ele>751</ele>
        <time>2020-11-05T16:11:45.000Z</time>
      </trkpt>
      <trkpt lat="44.46967" lon="6.22781">
        <ele>750.20001220703</ele>
        <time>2020-11-05T16:11:47.000Z</time>
      </trkpt>
      <trkpt lat="44.46969" lon="6.2279">
        <ele>749.40002441406</ele>
        <time>2020-11-05T16:11:48.000Z</time>
      </trkpt>
      <trkpt lat="44.4697" lon="6.22798">
        <ele>748.79998779297</ele>
        <time>2020-11-05T16:11:49.000Z</time>
      </trkpt>
      <trkpt lat="44.4697" lon="6.22806">
        <ele>748.20001220703</ele>
        <time>2020-11-05T16:11:50.000Z</time>
      </trkpt>
      <trkpt lat="44.4697" lon="6.22813">
        <ele>747.20001220703</ele>
        <time>2020-11-05T16:11:51.000Z</time>
      </trkpt>
      <trkpt lat="44.4697" lon="6.22818">
        <ele>746.20001220703</ele>
        <time>2020-11-05T16:11:52.000Z</time>
      </trkpt>
      <trkpt lat="44.4697" lon="6.22823">
        <ele>744.40002441406</ele>
        <time>2020-11-05T16:11:54.000Z</time>
      </trkpt>
      <trkpt lat="44.46969" lon="6.22824">
        <ele>743.20001220703</ele>
        <time>2020-11-05T16:11:55.000Z</time>
      </trkpt>
      <trkpt lat="44.46967" lon="6.22822">
        <ele>741.79998779297</ele>
        <time>2020-11-05T16:11:56.000Z</time>
      </trkpt>
      <trkpt lat="44.46966" lon="6.22818">
        <ele>741</ele>
        <time>2020-11-05T16:11:57.000Z</time>
      </trkpt>
      <trkpt lat="44.46964" lon="6.22812">
        <ele>740.59997558594</ele>
        <time>2020-11-05T16:11:58.000Z</time>
      </trkpt>
      <trkpt lat="44.4696" lon="6.22798">
        <ele>739.59997558594</ele>
        <time>2020-11-05T16:12:00.000Z</time>
      </trkpt>
      <trkpt lat="44.46957" lon="6.22791">
        <ele>739.20001220703</ele>
        <time>2020-11-05T16:12:01.000Z</time>
      </trkpt>
      <trkpt lat="44.46948" lon="6.22773">
        <ele>738.40002441406</ele>
        <time>2020-11-05T16:12:04.000Z</time>
      </trkpt>
      <trkpt lat="44.46945" lon="6.22768">
        <ele>738</ele>
        <time>2020-11-05T16:12:05.000Z</time>
      </trkpt>
      <trkpt lat="44.46939" lon="6.22756">
        <ele>736</ele>
        <time>2020-11-05T16:12:07.000Z</time>
      </trkpt>
      <trkpt lat="44.46935" lon="6.2275">
        <ele>735</ele>
        <time>2020-11-05T16:12:08.000Z</time>
      </trkpt>
      <trkpt lat="44.46932" lon="6.22743">
        <ele>732.79998779297</ele>
        <time>2020-11-05T16:12:09.000Z</time>
      </trkpt>
      <trkpt lat="44.46929" lon="6.22736">
        <ele>732</ele>
        <time>2020-11-05T16:12:10.000Z</time>
      </trkpt>
      <trkpt lat="44.46926" lon="6.22729">
        <ele>731.20001220703</ele>
        <time>2020-11-05T16:12:11.000Z</time>
      </trkpt>
      <trkpt lat="44.46919" lon="6.22716">
        <ele>729.79998779297</ele>
        <time>2020-11-05T16:12:13.000Z</time>
      </trkpt>
      <trkpt lat="44.46917" lon="6.22709">
        <ele>728.79998779297</ele>
        <time>2020-11-05T16:12:14.000Z</time>
      </trkpt>
      <trkpt lat="44.46914" lon="6.22704">
        <ele>727.40002441406</ele>
        <time>2020-11-05T16:12:15.000Z</time>
      </trkpt>
      <trkpt lat="44.46913" lon="6.22699">
        <ele>726.20001220703</ele>
        <time>2020-11-05T16:12:16.000Z</time>
      </trkpt>
      <trkpt lat="44.46911" lon="6.22696">
        <ele>725</ele>
        <time>2020-11-05T16:12:17.000Z</time>
      </trkpt>
      <trkpt lat="44.46908" lon="6.22692">
        <ele>723</ele>
        <time>2020-11-05T16:12:19.000Z</time>
      </trkpt>
      <trkpt lat="44.46908" lon="6.22692">
        <ele>722</ele>
        <time>2020-11-05T16:12:20.000Z</time>
      </trkpt>
      <trkpt lat="44.46908" lon="6.22692">
        <ele>720.79998779297</ele>
        <time>2020-11-05T16:12:21.000Z</time>
      </trkpt>
      <trkpt lat="44.46908" lon="6.22694">
        <ele>718.79998779297</ele>
        <time>2020-11-05T16:12:23.000Z</time>
      </trkpt>
      <trkpt lat="44.46908" lon="6.22697">
        <ele>718</ele>
        <time>2020-11-05T16:12:24.000Z</time>
      </trkpt>
      <trkpt lat="44.46909" lon="6.227">
        <ele>717.40002441406</ele>
        <time>2020-11-05T16:12:25.000Z</time>
      </trkpt>
      <trkpt lat="44.46905" lon="6.22717">
        <ele>716.40002441406</ele>
        <time>2020-11-05T16:12:28.000Z</time>
      </trkpt>
      <trkpt lat="44.46906" lon="6.22742">
        <ele>716.20001220703</ele>
        <time>2020-11-05T16:12:31.000Z</time>
      </trkpt>
      <trkpt lat="44.46908" lon="6.2275">
        <ele>716.20001220703</ele>
        <time>2020-11-05T16:12:32.000Z</time>
      </trkpt>
      <trkpt lat="44.46914" lon="6.22766">
        <ele>715.20001220703</ele>
        <time>2020-11-05T16:12:34.000Z</time>
      </trkpt>
      <trkpt lat="44.46918" lon="6.22782">
        <ele>713.59997558594</ele>
        <time>2020-11-05T16:12:36.000Z</time>
      </trkpt>
      <trkpt lat="44.46919" lon="6.22789">
        <ele>711.20001220703</ele>
        <time>2020-11-05T16:12:37.000Z</time>
      </trkpt>
      <trkpt lat="44.46916" lon="6.22797">
        <ele>709.79998779297</ele>
        <time>2020-11-05T16:12:38.000Z</time>
      </trkpt>
      <trkpt lat="44.46911" lon="6.22805">
        <ele>708.59997558594</ele>
        <time>2020-11-05T16:12:39.000Z</time>
      </trkpt>
      <trkpt lat="44.469" lon="6.22821">
        <ele>707.20001220703</ele>
        <time>2020-11-05T16:12:41.000Z</time>
      </trkpt>
      <trkpt lat="44.46889" lon="6.22837">
        <ele>706.40002441406</ele>
        <time>2020-11-05T16:12:43.000Z</time>
      </trkpt>
      <trkpt lat="44.46884" lon="6.22845">
        <ele>706</ele>
        <time>2020-11-05T16:12:44.000Z</time>
      </trkpt>
      <trkpt lat="44.46875" lon="6.22866">
        <ele>704</ele>
        <time>2020-11-05T16:12:47.000Z</time>
      </trkpt>
      <trkpt lat="44.46874" lon="6.22878">
        <ele>702.79998779297</ele>
        <time>2020-11-05T16:12:49.000Z</time>
      </trkpt>
      <trkpt lat="44.46875" lon="6.22882">
        <ele>702.59997558594</ele>
        <time>2020-11-05T16:12:50.000Z</time>
      </trkpt>
      <trkpt lat="44.46889" lon="6.22898">
        <ele>702.40002441406</ele>
        <time>2020-11-05T16:12:55.000Z</time>
      </trkpt>
      <trkpt lat="44.46892" lon="6.22901">
        <ele>702.40002441406</ele>
        <time>2020-11-05T16:12:56.000Z</time>
      </trkpt>
      <trkpt lat="44.46902" lon="6.22918">
        <ele>703.79998779297</ele>
        <time>2020-11-05T16:13:01.000Z</time>
      </trkpt>
      <trkpt lat="44.46902" lon="6.22932">
        <ele>704.79998779297</ele>
        <time>2020-11-05T16:13:04.000Z</time>
      </trkpt>
      <trkpt lat="44.46901" lon="6.22942">
        <ele>706.20001220703</ele>
        <time>2020-11-05T16:13:06.000Z</time>
      </trkpt>
      <trkpt lat="44.46901" lon="6.22955">
        <ele>707</ele>
        <time>2020-11-05T16:13:08.000Z</time>
      </trkpt>
      <trkpt lat="44.46901" lon="6.22961">
        <ele>707.59997558594</ele>
        <time>2020-11-05T16:13:09.000Z</time>
      </trkpt>
      <trkpt lat="44.46902" lon="6.22975">
        <ele>708.40002441406</ele>
        <time>2020-11-05T16:13:11.000Z</time>
      </trkpt>
      <trkpt lat="44.46903" lon="6.22981">
        <ele>708.59997558594</ele>
        <time>2020-11-05T16:13:12.000Z</time>
      </trkpt>
      <trkpt lat="44.46905" lon="6.22991">
        <ele>709</ele>
        <time>2020-11-05T16:13:14.000Z</time>
      </trkpt>
      <trkpt lat="44.46907" lon="6.22994">
        <ele>709</ele>
        <time>2020-11-05T16:13:15.000Z</time>
      </trkpt>
      <trkpt lat="44.46917" lon="6.2299">
        <ele>709.20001220703</ele>
        <time>2020-11-05T16:13:18.000Z</time>
      </trkpt>
      <trkpt lat="44.46927" lon="6.22984">
        <ele>709.40002441406</ele>
        <time>2020-11-05T16:13:22.000Z</time>
      </trkpt>
      <trkpt lat="44.4693" lon="6.22988">
        <ele>709.59997558594</ele>
        <time>2020-11-05T16:13:25.000Z</time>
      </trkpt>
      <trkpt lat="44.46931" lon="6.22991">
        <ele>709.59997558594</ele>
        <time>2020-11-05T16:13:28.000Z</time>
      </trkpt>
      <trkpt lat="44.46931" lon="6.22993">
        <ele>709.59997558594</ele>
        <time>2020-11-05T16:13:34.000Z</time>
      </trkpt>
      <trkpt lat="44.4693" lon="6.22989">
        <ele>709.40002441406</ele>
        <time>2020-11-05T16:13:43.000Z</time>
      </trkpt>
      <trkpt lat="44.46931" lon="6.2299">
        <ele>709.59997558594</ele>
        <time>2020-11-05T16:13:49.000Z</time>
      </trkpt>
      <trkpt lat="44.46928" lon="6.22985">
        <ele>709.79998779297</ele>
        <time>2020-11-05T16:13:58.000Z</time>
      </trkpt>
      <trkpt lat="44.46928" lon="6.22983">
        <ele>709.79998779297</ele>
        <time>2020-11-05T16:13:59.000Z</time>
      </trkpt>
      <trkpt lat="44.46934" lon="6.2298">
        <ele>709.79998779297</ele>
        <time>2020-11-05T16:14:03.000Z</time>
      </trkpt>
      <trkpt lat="44.46936" lon="6.22981">
        <ele>710</ele>
        <time>2020-11-05T16:14:04.000Z</time>
      </trkpt>
      <trkpt lat="44.46939" lon="6.22985">
        <ele>710.59997558594</ele>
        <time>2020-11-05T16:14:07.000Z</time>
      </trkpt>
      <trkpt lat="44.46939" lon="6.22988">
        <ele>710.59997558594</ele>
        <time>2020-11-05T16:14:08.000Z</time>
      </trkpt>
      <trkpt lat="44.46941" lon="6.22991">
        <ele>710.79998779297</ele>
        <time>2020-11-05T16:14:09.000Z</time>
      </trkpt>
      <trkpt lat="44.46945" lon="6.22995">
        <ele>710.79998779297</ele>
        <time>2020-11-05T16:14:11.000Z</time>
      </trkpt>
      <trkpt lat="44.46952" lon="6.22993">
        <ele>710.79998779297</ele>
        <time>2020-11-05T16:14:14.000Z</time>
      </trkpt>
      <trkpt lat="44.46957" lon="6.22992">
        <ele>710.79998779297</ele>
        <time>2020-11-05T16:14:16.000Z</time>
      </trkpt>
      <trkpt lat="44.46969" lon="6.22983">
        <ele>710</ele>
        <time>2020-11-05T16:14:21.000Z</time>
      </trkpt>
      <trkpt lat="44.46979" lon="6.22982">
        <ele>710</ele>
        <time>2020-11-05T16:14:25.000Z</time>
      </trkpt>
      <trkpt lat="44.46986" lon="6.22977">
        <ele>710.40002441406</ele>
        <time>2020-11-05T16:14:28.000Z</time>
      </trkpt>
      <trkpt lat="44.46989" lon="6.22974">
        <ele>710.79998779297</ele>
        <time>2020-11-05T16:14:30.000Z</time>
      </trkpt>
      <trkpt lat="44.46991" lon="6.22974">
        <ele>711.20001220703</ele>
        <time>2020-11-05T16:14:31.000Z</time>
      </trkpt>
      <trkpt lat="44.46996" lon="6.22968">
        <ele>711.79998779297</ele>
        <time>2020-11-05T16:14:34.000Z</time>
      </trkpt>
      <trkpt lat="44.46999" lon="6.22963">
        <ele>712.40002441406</ele>
        <time>2020-11-05T16:14:36.000Z</time>
      </trkpt>
      <trkpt lat="44.47009" lon="6.22954">
        <ele>713.20001220703</ele>
        <time>2020-11-05T16:14:40.000Z</time>
      </trkpt>
      <trkpt lat="44.47011" lon="6.22953">
        <ele>713.40002441406</ele>
        <time>2020-11-05T16:14:41.000Z</time>
      </trkpt>
      <trkpt lat="44.47013" lon="6.22954">
        <ele>713.59997558594</ele>
        <time>2020-11-05T16:14:42.000Z</time>
      </trkpt>
      <trkpt lat="44.47018" lon="6.22956">
        <ele>713.79998779297</ele>
        <time>2020-11-05T16:14:44.000Z</time>
      </trkpt>
      <trkpt lat="44.4702" lon="6.22955">
        <ele>714</ele>
        <time>2020-11-05T16:14:45.000Z</time>
      </trkpt>
      <trkpt lat="44.47025" lon="6.22951">
        <ele>714.59997558594</ele>
        <time>2020-11-05T16:14:48.000Z</time>
      </trkpt>
      <trkpt lat="44.47027" lon="6.2295">
        <ele>715</ele>
        <time>2020-11-05T16:14:49.000Z</time>
      </trkpt>
      <trkpt lat="44.4703" lon="6.22948">
        <ele>716</ele>
        <time>2020-11-05T16:14:51.000Z</time>
      </trkpt>
      <trkpt lat="44.47035" lon="6.22943">
        <ele>717.40002441406</ele>
        <time>2020-11-05T16:14:54.000Z</time>
      </trkpt>
      <trkpt lat="44.4704" lon="6.22951">
        <ele>718.20001220703</ele>
        <time>2020-11-05T16:14:58.000Z</time>
      </trkpt>
      <trkpt lat="44.47041" lon="6.22955">
        <ele>718.40002441406</ele>
        <time>2020-11-05T16:14:59.000Z</time>
      </trkpt>
      <trkpt lat="44.47046" lon="6.22961">
        <ele>718.59997558594</ele>
        <time>2020-11-05T16:15:02.000Z</time>
      </trkpt>
      <trkpt lat="44.47053" lon="6.22958">
        <ele>719</ele>
        <time>2020-11-05T16:15:05.000Z</time>
      </trkpt>
      <trkpt lat="44.47055" lon="6.22956">
        <ele>719.20001220703</ele>
        <time>2020-11-05T16:15:06.000Z</time>
      </trkpt>
      <trkpt lat="44.47061" lon="6.22954">
        <ele>719.40002441406</ele>
        <time>2020-11-05T16:15:09.000Z</time>
      </trkpt>
      <trkpt lat="44.47063" lon="6.22956">
        <ele>719.59997558594</ele>
        <time>2020-11-05T16:15:10.000Z</time>
      </trkpt>
      <trkpt lat="44.47073" lon="6.22963">
        <ele>720.59997558594</ele>
        <time>2020-11-05T16:15:14.000Z</time>
      </trkpt>
      <trkpt lat="44.47076" lon="6.22963">
        <ele>720.59997558594</ele>
        <time>2020-11-05T16:15:15.000Z</time>
      </trkpt>
      <trkpt lat="44.47085" lon="6.22961">
        <ele>721.40002441406</ele>
        <time>2020-11-05T16:15:18.000Z</time>
      </trkpt>
      <trkpt lat="44.47087" lon="6.2296">
        <ele>721.59997558594</ele>
        <time>2020-11-05T16:15:19.000Z</time>
      </trkpt>
      <trkpt lat="44.47088" lon="6.2296">
        <ele>721.79998779297</ele>
        <time>2020-11-05T16:15:20.000Z</time>
      </trkpt>
      <trkpt lat="44.47091" lon="6.22962">
        <ele>722</ele>
        <time>2020-11-05T16:15:22.000Z</time>
      </trkpt>
      <trkpt lat="44.47093" lon="6.22964">
        <ele>722</ele>
        <time>2020-11-05T16:15:23.000Z</time>
      </trkpt>
      <trkpt lat="44.47101" lon="6.22958">
        <ele>722.59997558594</ele>
        <time>2020-11-05T16:15:27.000Z</time>
      </trkpt>
      <trkpt lat="44.47104" lon="6.22956">
        <ele>723</ele>
        <time>2020-11-05T16:15:28.000Z</time>
      </trkpt>
      <trkpt lat="44.47118" lon="6.22947">
        <ele>723.79998779297</ele>
        <time>2020-11-05T16:15:33.000Z</time>
      </trkpt>
      <trkpt lat="44.47121" lon="6.22947">
        <ele>723.79998779297</ele>
        <time>2020-11-05T16:15:34.000Z</time>
      </trkpt>
      <trkpt lat="44.47127" lon="6.22948">
        <ele>724</ele>
        <time>2020-11-05T16:15:36.000Z</time>
      </trkpt>
      <trkpt lat="44.47131" lon="6.22948">
        <ele>725.20001220703</ele>
        <time>2020-11-05T16:15:38.000Z</time>
      </trkpt>
      <trkpt lat="44.47135" lon="6.2295">
        <ele>725.79998779297</ele>
        <time>2020-11-05T16:15:40.000Z</time>
      </trkpt>
      <trkpt lat="44.47137" lon="6.22955">
        <ele>726.20001220703</ele>
        <time>2020-11-05T16:15:42.000Z</time>
      </trkpt>
      <trkpt lat="44.47139" lon="6.22961">
        <ele>726.40002441406</ele>
        <time>2020-11-05T16:15:44.000Z</time>
      </trkpt>
      <trkpt lat="44.47144" lon="6.22964">
        <ele>727.20001220703</ele>
        <time>2020-11-05T16:15:46.000Z</time>
      </trkpt>
      <trkpt lat="44.47146" lon="6.22964">
        <ele>727.40002441406</ele>
        <time>2020-11-05T16:15:47.000Z</time>
      </trkpt>
      <trkpt lat="44.47148" lon="6.22963">
        <ele>727.59997558594</ele>
        <time>2020-11-05T16:15:48.000Z</time>
      </trkpt>
      <trkpt lat="44.47151" lon="6.22961">
        <ele>728.59997558594</ele>
        <time>2020-11-05T16:15:50.000Z</time>
      </trkpt>
      <trkpt lat="44.47156" lon="6.22959">
        <ele>729.40002441406</ele>
        <time>2020-11-05T16:15:53.000Z</time>
      </trkpt>
      <trkpt lat="44.47157" lon="6.2296">
        <ele>729.40002441406</ele>
        <time>2020-11-05T16:15:54.000Z</time>
      </trkpt>
      <trkpt lat="44.47159" lon="6.22961">
        <ele>729.59997558594</ele>
        <time>2020-11-05T16:15:55.000Z</time>
      </trkpt>
      <trkpt lat="44.47166" lon="6.22963">
        <ele>730.59997558594</ele>
        <time>2020-11-05T16:15:58.000Z</time>
      </trkpt>
      <trkpt lat="44.47168" lon="6.22964">
        <ele>731</ele>
        <time>2020-11-05T16:15:59.000Z</time>
      </trkpt>
      <trkpt lat="44.47172" lon="6.22967">
        <ele>732</ele>
        <time>2020-11-05T16:16:01.000Z</time>
      </trkpt>
      <trkpt lat="44.47174" lon="6.22968">
        <ele>732.40002441406</ele>
        <time>2020-11-05T16:16:02.000Z</time>
      </trkpt>
      <trkpt lat="44.47179" lon="6.22969">
        <ele>733.40002441406</ele>
        <time>2020-11-05T16:16:04.000Z</time>
      </trkpt>
      <trkpt lat="44.4718" lon="6.22969">
        <ele>733.59997558594</ele>
        <time>2020-11-05T16:16:05.000Z</time>
      </trkpt>
      <trkpt lat="44.47185" lon="6.22971">
        <ele>734.79998779297</ele>
        <time>2020-11-05T16:16:08.000Z</time>
      </trkpt>
      <trkpt lat="44.47189" lon="6.22972">
        <ele>735.20001220703</ele>
        <time>2020-11-05T16:16:10.000Z</time>
      </trkpt>
      <trkpt lat="44.47197" lon="6.22973">
        <ele>735.79998779297</ele>
        <time>2020-11-05T16:16:15.000Z</time>
      </trkpt>
      <trkpt lat="44.47199" lon="6.22972">
        <ele>735.79998779297</ele>
        <time>2020-11-05T16:16:16.000Z</time>
      </trkpt>
      <trkpt lat="44.47207" lon="6.22967">
        <ele>737</ele>
        <time>2020-11-05T16:16:20.000Z</time>
      </trkpt>
      <trkpt lat="44.47209" lon="6.22967">
        <ele>737.40002441406</ele>
        <time>2020-11-05T16:16:21.000Z</time>
      </trkpt>
      <trkpt lat="44.47214" lon="6.22968">
        <ele>738.20001220703</ele>
        <time>2020-11-05T16:16:24.000Z</time>
      </trkpt>
      <trkpt lat="44.47219" lon="6.22968">
        <ele>738.79998779297</ele>
        <time>2020-11-05T16:16:26.000Z</time>
      </trkpt>
      <trkpt lat="44.47222" lon="6.22968">
        <ele>739</ele>
        <time>2020-11-05T16:16:28.000Z</time>
      </trkpt>
      <trkpt lat="44.47231" lon="6.22973">
        <ele>739.20001220703</ele>
        <time>2020-11-05T16:16:31.000Z</time>
      </trkpt>
      <trkpt lat="44.47233" lon="6.22973">
        <ele>739.20001220703</ele>
        <time>2020-11-05T16:16:32.000Z</time>
      </trkpt>
      <trkpt lat="44.4724" lon="6.22975">
        <ele>739.20001220703</ele>
        <time>2020-11-05T16:16:36.000Z</time>
      </trkpt>
      <trkpt lat="44.47241" lon="6.22974">
        <ele>739.20001220703</ele>
        <time>2020-11-05T16:16:38.000Z</time>
      </trkpt>
      <trkpt lat="44.47244" lon="6.22977">
        <ele>739.20001220703</ele>
        <time>2020-11-05T16:16:52.000Z</time>
      </trkpt>
      <trkpt lat="44.47243" lon="6.22977">
        <ele>739.20001220703</ele>
        <time>2020-11-05T16:17:02.000Z</time>
      </trkpt>
      <trkpt lat="44.47238" lon="6.22977">
        <ele>739</ele>
        <time>2020-11-05T16:17:07.000Z</time>
      </trkpt>
      <trkpt lat="44.47235" lon="6.22976">
        <ele>739</ele>
        <time>2020-11-05T16:17:09.000Z</time>
      </trkpt>
      <trkpt lat="44.47227" lon="6.22971">
        <ele>738.79998779297</ele>
        <time>2020-11-05T16:17:14.000Z</time>
      </trkpt>
      <trkpt lat="44.47225" lon="6.22971">
        <ele>738.79998779297</ele>
        <time>2020-11-05T16:17:15.000Z</time>
      </trkpt>
      <trkpt lat="44.47216" lon="6.22971">
        <ele>738.79998779297</ele>
        <time>2020-11-05T16:17:18.000Z</time>
      </trkpt>
      <trkpt lat="44.47212" lon="6.22974">
        <ele>738.79998779297</ele>
        <time>2020-11-05T16:17:20.000Z</time>
      </trkpt>
      <trkpt lat="44.472" lon="6.22976">
        <ele>738.79998779297</ele>
        <time>2020-11-05T16:17:24.000Z</time>
      </trkpt>
      <trkpt lat="44.47191" lon="6.22976">
        <ele>739</ele>
        <time>2020-11-05T16:17:26.000Z</time>
      </trkpt>
      <trkpt lat="44.47186" lon="6.22975">
        <ele>739</ele>
        <time>2020-11-05T16:17:27.000Z</time>
      </trkpt>
      <trkpt lat="44.47177" lon="6.22971">
        <ele>739</ele>
        <time>2020-11-05T16:17:29.000Z</time>
      </trkpt>
      <trkpt lat="44.47159" lon="6.22965">
        <ele>738.20001220703</ele>
        <time>2020-11-05T16:17:34.000Z</time>
      </trkpt>
      <trkpt lat="44.47155" lon="6.22966">
        <ele>737.40002441406</ele>
        <time>2020-11-05T16:17:35.000Z</time>
      </trkpt>
      <trkpt lat="44.47148" lon="6.22967">
        <ele>736</ele>
        <time>2020-11-05T16:17:37.000Z</time>
      </trkpt>
      <trkpt lat="44.47147" lon="6.22964">
        <ele>735.59997558594</ele>
        <time>2020-11-05T16:17:38.000Z</time>
      </trkpt>
      <trkpt lat="44.47145" lon="6.22958">
        <ele>734.40002441406</ele>
        <time>2020-11-05T16:17:40.000Z</time>
      </trkpt>
      <trkpt lat="44.4714" lon="6.22956">
        <ele>733.40002441406</ele>
        <time>2020-11-05T16:17:42.000Z</time>
      </trkpt>
      <trkpt lat="44.47137" lon="6.22955">
        <ele>732.20001220703</ele>
        <time>2020-11-05T16:17:43.000Z</time>
      </trkpt>
      <trkpt lat="44.47132" lon="6.22954">
        <ele>731.20001220703</ele>
        <time>2020-11-05T16:17:44.000Z</time>
      </trkpt>
      <trkpt lat="44.47127" lon="6.22954">
        <ele>730.40002441406</ele>
        <time>2020-11-05T16:17:45.000Z</time>
      </trkpt>
      <trkpt lat="44.47122" lon="6.22956">
        <ele>730</ele>
        <time>2020-11-05T16:17:46.000Z</time>
      </trkpt>
      <trkpt lat="44.4711" lon="6.22967">
        <ele>728.59997558594</ele>
        <time>2020-11-05T16:17:49.000Z</time>
      </trkpt>
      <trkpt lat="44.471" lon="6.22964">
        <ele>727.79998779297</ele>
        <time>2020-11-05T16:17:52.000Z</time>
      </trkpt>
      <trkpt lat="44.47098" lon="6.22964">
        <ele>727.40002441406</ele>
        <time>2020-11-05T16:17:53.000Z</time>
      </trkpt>
      <trkpt lat="44.47095" lon="6.22965">
        <ele>726.79998779297</ele>
        <time>2020-11-05T16:17:54.000Z</time>
      </trkpt>
      <trkpt lat="44.47091" lon="6.22966">
        <ele>726.59997558594</ele>
        <time>2020-11-05T16:17:55.000Z</time>
      </trkpt>
      <trkpt lat="44.47087" lon="6.22965">
        <ele>726.20001220703</ele>
        <time>2020-11-05T16:17:56.000Z</time>
      </trkpt>
      <trkpt lat="44.4708" lon="6.22962">
        <ele>724.59997558594</ele>
        <time>2020-11-05T16:17:58.000Z</time>
      </trkpt>
      <trkpt lat="44.47077" lon="6.22958">
        <ele>724.20001220703</ele>
        <time>2020-11-05T16:17:59.000Z</time>
      </trkpt>
      <trkpt lat="44.4707" lon="6.22956">
        <ele>723.40002441406</ele>
        <time>2020-11-05T16:18:01.000Z</time>
      </trkpt>
      <trkpt lat="44.47068" lon="6.22958">
        <ele>723.59997558594</ele>
        <time>2020-11-05T16:18:02.000Z</time>
      </trkpt>
      <trkpt lat="44.47061" lon="6.22963">
        <ele>722.59997558594</ele>
        <time>2020-11-05T16:18:04.000Z</time>
      </trkpt>
      <trkpt lat="44.47058" lon="6.22963">
        <ele>722.20001220703</ele>
        <time>2020-11-05T16:18:05.000Z</time>
      </trkpt>
      <trkpt lat="44.47053" lon="6.22955">
        <ele>721.40002441406</ele>
        <time>2020-11-05T16:18:08.000Z</time>
      </trkpt>
      <trkpt lat="44.47049" lon="6.22949">
        <ele>721</ele>
        <time>2020-11-05T16:18:10.000Z</time>
      </trkpt>
      <trkpt lat="44.47045" lon="6.22949">
        <ele>720.79998779297</ele>
        <time>2020-11-05T16:18:11.000Z</time>
      </trkpt>
      <trkpt lat="44.47033" lon="6.22956">
        <ele>719.79998779297</ele>
        <time>2020-11-05T16:18:15.000Z</time>
      </trkpt>
      <trkpt lat="44.47018" lon="6.22957">
        <ele>719.20001220703</ele>
        <time>2020-11-05T16:18:19.000Z</time>
      </trkpt>
      <trkpt lat="44.47013" lon="6.22959">
        <ele>718.79998779297</ele>
        <time>2020-11-05T16:18:20.000Z</time>
      </trkpt>
      <trkpt lat="44.47005" lon="6.22964">
        <ele>718.59997558594</ele>
        <time>2020-11-05T16:18:22.000Z</time>
      </trkpt>
      <trkpt lat="44.46997" lon="6.22971">
        <ele>718</ele>
        <time>2020-11-05T16:18:24.000Z</time>
      </trkpt>
      <trkpt lat="44.46993" lon="6.22972">
        <ele>717.40002441406</ele>
        <time>2020-11-05T16:18:25.000Z</time>
      </trkpt>
      <trkpt lat="44.4699" lon="6.22973">
        <ele>717</ele>
        <time>2020-11-05T16:18:26.000Z</time>
      </trkpt>
      <trkpt lat="44.46988" lon="6.22974">
        <ele>716.20001220703</ele>
        <time>2020-11-05T16:18:28.000Z</time>
      </trkpt>
      <trkpt lat="44.46988" lon="6.22974">
        <ele>715.59997558594</ele>
        <time>2020-11-05T16:18:29.000Z</time>
      </trkpt>
      <trkpt lat="44.46988" lon="6.22975">
        <ele>715</ele>
        <time>2020-11-05T16:18:30.000Z</time>
      </trkpt>
      <trkpt lat="44.46986" lon="6.2298">
        <ele>713.79998779297</ele>
        <time>2020-11-05T16:18:33.000Z</time>
      </trkpt>
      <trkpt lat="44.4698" lon="6.22984">
        <ele>713.20001220703</ele>
        <time>2020-11-05T16:18:35.000Z</time>
      </trkpt>
      <trkpt lat="44.46971" lon="6.22983">
        <ele>713</ele>
        <time>2020-11-05T16:18:38.000Z</time>
      </trkpt>
      <trkpt lat="44.46964" lon="6.22986">
        <ele>712.79998779297</ele>
        <time>2020-11-05T16:18:40.000Z</time>
      </trkpt>
      <trkpt lat="44.46958" lon="6.22991">
        <ele>712.59997558594</ele>
        <time>2020-11-05T16:18:42.000Z</time>
      </trkpt>
      <trkpt lat="44.46944" lon="6.22995">
        <ele>711.79998779297</ele>
        <time>2020-11-05T16:18:46.000Z</time>
      </trkpt>
      <trkpt lat="44.46943" lon="6.22993">
        <ele>711.40002441406</ele>
        <time>2020-11-05T16:18:47.000Z</time>
      </trkpt>
      <trkpt lat="44.4694" lon="6.22986">
        <ele>710.20001220703</ele>
        <time>2020-11-05T16:18:51.000Z</time>
      </trkpt>
      <trkpt lat="44.46937" lon="6.22979">
        <ele>710</ele>
        <time>2020-11-05T16:18:57.000Z</time>
      </trkpt>
      <trkpt lat="44.46937" lon="6.22979">
        <ele>711.40002441406</ele>
        <time>2020-11-05T16:19:02.000Z</time>
      </trkpt>
      <trkpt lat="44.46936" lon="6.22979">
        <ele>712.20001220703</ele>
        <time>2020-11-05T16:19:11.000Z</time>
      </trkpt>
      <trkpt lat="44.46934" lon="6.22979">
        <ele>712.20001220703</ele>
        <time>2020-11-05T16:19:14.000Z</time>
      </trkpt>
      <trkpt lat="44.4693" lon="6.2298">
        <ele>712</ele>
        <time>2020-11-05T16:19:16.000Z</time>
      </trkpt>
      <trkpt lat="44.46923" lon="6.22984">
        <ele>712</ele>
        <time>2020-11-05T16:19:18.000Z</time>
      </trkpt>
      <trkpt lat="44.4692" lon="6.22988">
        <ele>712</ele>
        <time>2020-11-05T16:19:19.000Z</time>
      </trkpt>
      <trkpt lat="44.4691" lon="6.22998">
        <ele>712.20001220703</ele>
        <time>2020-11-05T16:19:22.000Z</time>
      </trkpt>
      <trkpt lat="44.46901" lon="6.23005">
        <ele>712</ele>
        <time>2020-11-05T16:19:24.000Z</time>
      </trkpt>
      <trkpt lat="44.46877" lon="6.23021">
        <ele>710.40002441406</ele>
        <time>2020-11-05T16:19:28.000Z</time>
      </trkpt>
      <trkpt lat="44.46871" lon="6.23025">
        <ele>710</ele>
        <time>2020-11-05T16:19:29.000Z</time>
      </trkpt>
      <trkpt lat="44.46852" lon="6.23043">
        <ele>709.20001220703</ele>
        <time>2020-11-05T16:19:32.000Z</time>
      </trkpt>
      <trkpt lat="44.46838" lon="6.23052">
        <ele>708</ele>
        <time>2020-11-05T16:19:34.000Z</time>
      </trkpt>
      <trkpt lat="44.46822" lon="6.2306">
        <ele>706.20001220703</ele>
        <time>2020-11-05T16:19:36.000Z</time>
      </trkpt>
      <trkpt lat="44.46808" lon="6.23066">
        <ele>704.40002441406</ele>
        <time>2020-11-05T16:19:38.000Z</time>
      </trkpt>
      <trkpt lat="44.46802" lon="6.2307">
        <ele>703.40002441406</ele>
        <time>2020-11-05T16:19:39.000Z</time>
      </trkpt>
      <trkpt lat="44.46797" lon="6.23074">
        <ele>702.59997558594</ele>
        <time>2020-11-05T16:19:40.000Z</time>
      </trkpt>
      <trkpt lat="44.46792" lon="6.23079">
        <ele>702</ele>
        <time>2020-11-05T16:19:41.000Z</time>
      </trkpt>
      <trkpt lat="44.46787" lon="6.23082">
        <ele>701.20001220703</ele>
        <time>2020-11-05T16:19:42.000Z</time>
      </trkpt>
      <trkpt lat="44.46775" lon="6.2309">
        <ele>699.40002441406</ele>
        <time>2020-11-05T16:19:44.000Z</time>
      </trkpt>
      <trkpt lat="44.46769" lon="6.23092">
        <ele>698.40002441406</ele>
        <time>2020-11-05T16:19:45.000Z</time>
      </trkpt>
      <trkpt lat="44.46764" lon="6.23093">
        <ele>698</ele>
        <time>2020-11-05T16:19:46.000Z</time>
      </trkpt>
      <trkpt lat="44.46759" lon="6.23095">
        <ele>697.59997558594</ele>
        <time>2020-11-05T16:19:47.000Z</time>
      </trkpt>
      <trkpt lat="44.46757" lon="6.23098">
        <ele>697.20001220703</ele>
        <time>2020-11-05T16:19:48.000Z</time>
      </trkpt>
      <trkpt lat="44.46756" lon="6.23102">
        <ele>696.59997558594</ele>
        <time>2020-11-05T16:19:49.000Z</time>
      </trkpt>
      <trkpt lat="44.4676" lon="6.23113">
        <ele>696</ele>
        <time>2020-11-05T16:19:51.000Z</time>
      </trkpt>
      <trkpt lat="44.46762" lon="6.23118">
        <ele>695</ele>
        <time>2020-11-05T16:19:52.000Z</time>
      </trkpt>
      <trkpt lat="44.46767" lon="6.23129">
        <ele>693.79998779297</ele>
        <time>2020-11-05T16:19:54.000Z</time>
      </trkpt>
      <trkpt lat="44.46768" lon="6.23139">
        <ele>693.40002441406</ele>
        <time>2020-11-05T16:19:56.000Z</time>
      </trkpt>
      <trkpt lat="44.46768" lon="6.23144">
        <ele>693.59997558594</ele>
        <time>2020-11-05T16:19:57.000Z</time>
      </trkpt>
      <trkpt lat="44.46769" lon="6.23148">
        <ele>692.79998779297</ele>
        <time>2020-11-05T16:19:58.000Z</time>
      </trkpt>
      <trkpt lat="44.46772" lon="6.23165">
        <ele>692.20001220703</ele>
        <time>2020-11-05T16:20:02.000Z</time>
      </trkpt>
      <trkpt lat="44.46784" lon="6.23187">
        <ele>692.20001220703</ele>
        <time>2020-11-05T16:20:08.000Z</time>
      </trkpt>
      <trkpt lat="44.46796" lon="6.23191">
        <ele>692.20001220703</ele>
        <time>2020-11-05T16:20:12.000Z</time>
      </trkpt>
      <trkpt lat="44.46806" lon="6.23182">
        <ele>692.59997558594</ele>
        <time>2020-11-05T16:20:16.000Z</time>
      </trkpt>
      <trkpt lat="44.46816" lon="6.23174">
        <ele>694</ele>
        <time>2020-11-05T16:20:20.000Z</time>
      </trkpt>
      <trkpt lat="44.46819" lon="6.23174">
        <ele>694.40002441406</ele>
        <time>2020-11-05T16:20:21.000Z</time>
      </trkpt>
      <trkpt lat="44.46821" lon="6.23174">
        <ele>694.59997558594</ele>
        <time>2020-11-05T16:20:22.000Z</time>
      </trkpt>
      <trkpt lat="44.46824" lon="6.23179">
        <ele>695.20001220703</ele>
        <time>2020-11-05T16:20:24.000Z</time>
      </trkpt>
      <trkpt lat="44.46827" lon="6.23185">
        <ele>696</ele>
        <time>2020-11-05T16:20:26.000Z</time>
      </trkpt>
      <trkpt lat="44.46831" lon="6.23191">
        <ele>696.40002441406</ele>
        <time>2020-11-05T16:20:28.000Z</time>
      </trkpt>
      <trkpt lat="44.46833" lon="6.23194">
        <ele>696.59997558594</ele>
        <time>2020-11-05T16:20:29.000Z</time>
      </trkpt>
      <trkpt lat="44.46842" lon="6.23198">
        <ele>697</ele>
        <time>2020-11-05T16:20:33.000Z</time>
      </trkpt>
      <trkpt lat="44.4684" lon="6.23203">
        <ele>697.20001220703</ele>
        <time>2020-11-05T16:20:36.000Z</time>
      </trkpt>
      <trkpt lat="44.46837" lon="6.23198">
        <ele>697.40002441406</ele>
        <time>2020-11-05T16:20:39.000Z</time>
      </trkpt>
      <trkpt lat="44.46835" lon="6.23195">
        <ele>697.59997558594</ele>
        <time>2020-11-05T16:20:40.000Z</time>
      </trkpt>
      <trkpt lat="44.46827" lon="6.23185">
        <ele>697.59997558594</ele>
        <time>2020-11-05T16:20:44.000Z</time>
      </trkpt>
      <trkpt lat="44.46825" lon="6.23182">
        <ele>697.59997558594</ele>
        <time>2020-11-05T16:20:45.000Z</time>
      </trkpt>
      <trkpt lat="44.46822" lon="6.23175">
        <ele>697.59997558594</ele>
        <time>2020-11-05T16:20:48.000Z</time>
      </trkpt>
      <trkpt lat="44.46821" lon="6.23174">
        <ele>697.59997558594</ele>
        <time>2020-11-05T16:20:49.000Z</time>
      </trkpt>
      <trkpt lat="44.46814" lon="6.23176">
        <ele>697.40002441406</ele>
        <time>2020-11-05T16:20:53.000Z</time>
      </trkpt>
      <trkpt lat="44.46803" lon="6.23187">
        <ele>697.20001220703</ele>
        <time>2020-11-05T16:20:57.000Z</time>
      </trkpt>
      <trkpt lat="44.46799" lon="6.2319">
        <ele>697</ele>
        <time>2020-11-05T16:20:58.000Z</time>
      </trkpt>
      <trkpt lat="44.46789" lon="6.23198">
        <ele>697</ele>
        <time>2020-11-05T16:21:00.000Z</time>
      </trkpt>
      <trkpt lat="44.46785" lon="6.23204">
        <ele>697</ele>
        <time>2020-11-05T16:21:01.000Z</time>
      </trkpt>
      <trkpt lat="44.46768" lon="6.23235">
        <ele>696.40002441406</ele>
        <time>2020-11-05T16:21:05.000Z</time>
      </trkpt>
      <trkpt lat="44.46768" lon="6.23261">
        <ele>695.20001220703</ele>
        <time>2020-11-05T16:21:08.000Z</time>
      </trkpt>
      <trkpt lat="44.46772" lon="6.23269">
        <ele>694.59997558594</ele>
        <time>2020-11-05T16:21:09.000Z</time>
      </trkpt>
      <trkpt lat="44.46775" lon="6.23277">
        <ele>693.59997558594</ele>
        <time>2020-11-05T16:21:10.000Z</time>
      </trkpt>
      <trkpt lat="44.46779" lon="6.23284">
        <ele>692.40002441406</ele>
        <time>2020-11-05T16:21:11.000Z</time>
      </trkpt>
      <trkpt lat="44.46788" lon="6.23291">
        <ele>690.79998779297</ele>
        <time>2020-11-05T16:21:13.000Z</time>
      </trkpt>
      <trkpt lat="44.46798" lon="6.23286">
        <ele>690</ele>
        <time>2020-11-05T16:21:16.000Z</time>
      </trkpt>
      <trkpt lat="44.468" lon="6.23284">
        <ele>690</ele>
        <time>2020-11-05T16:21:17.000Z</time>
      </trkpt>
      <trkpt lat="44.46815" lon="6.23267">
        <ele>690.20001220703</ele>
        <time>2020-11-05T16:21:25.000Z</time>
      </trkpt>
      <trkpt lat="44.46829" lon="6.23249">
        <ele>691.79998779297</ele>
        <time>2020-11-05T16:21:34.000Z</time>
      </trkpt>
      <trkpt lat="44.46831" lon="6.23247">
        <ele>692</ele>
        <time>2020-11-05T16:21:35.000Z</time>
      </trkpt>
      <trkpt lat="44.46838" lon="6.2324">
        <ele>693.40002441406</ele>
        <time>2020-11-05T16:21:39.000Z</time>
      </trkpt>
      <trkpt lat="44.46846" lon="6.2323">
        <ele>694.40002441406</ele>
        <time>2020-11-05T16:21:44.000Z</time>
      </trkpt>
      <trkpt lat="44.46848" lon="6.23228">
        <ele>694.40002441406</ele>
        <time>2020-11-05T16:21:45.000Z</time>
      </trkpt>
      <trkpt lat="44.46857" lon="6.2322">
        <ele>695.59997558594</ele>
        <time>2020-11-05T16:21:50.000Z</time>
      </trkpt>
      <trkpt lat="44.46867" lon="6.23217">
        <ele>696.40002441406</ele>
        <time>2020-11-05T16:21:55.000Z</time>
      </trkpt>
      <trkpt lat="44.46871" lon="6.23217">
        <ele>696.59997558594</ele>
        <time>2020-11-05T16:21:57.000Z</time>
      </trkpt>
      <trkpt lat="44.46878" lon="6.23226">
        <ele>697.59997558594</ele>
        <time>2020-11-05T16:22:02.000Z</time>
      </trkpt>
      <trkpt lat="44.46879" lon="6.23228">
        <ele>697.79998779297</ele>
        <time>2020-11-05T16:22:03.000Z</time>
      </trkpt>
      <trkpt lat="44.46882" lon="6.23242">
        <ele>698.79998779297</ele>
        <time>2020-11-05T16:22:08.000Z</time>
      </trkpt>
      <trkpt lat="44.46883" lon="6.23257">
        <ele>700</ele>
        <time>2020-11-05T16:22:13.000Z</time>
      </trkpt>
      <trkpt lat="44.46883" lon="6.23266">
        <ele>700.59997558594</ele>
        <time>2020-11-05T16:22:16.000Z</time>
      </trkpt>
      <trkpt lat="44.46885" lon="6.23278">
        <ele>701</ele>
        <time>2020-11-05T16:22:20.000Z</time>
      </trkpt>
      <trkpt lat="44.46886" lon="6.2329">
        <ele>701.59997558594</ele>
        <time>2020-11-05T16:22:24.000Z</time>
      </trkpt>
      <trkpt lat="44.46885" lon="6.23298">
        <ele>702</ele>
        <time>2020-11-05T16:22:27.000Z</time>
      </trkpt>
      <trkpt lat="44.46887" lon="6.23305">
        <ele>702.59997558594</ele>
        <time>2020-11-05T16:22:30.000Z</time>
      </trkpt>
      <trkpt lat="44.46888" lon="6.23306">
        <ele>702.79998779297</ele>
        <time>2020-11-05T16:22:31.000Z</time>
      </trkpt>
      <trkpt lat="44.4689" lon="6.23306">
        <ele>703.20001220703</ele>
        <time>2020-11-05T16:22:32.000Z</time>
      </trkpt>
      <trkpt lat="44.46895" lon="6.23302">
        <ele>704</ele>
        <time>2020-11-05T16:22:36.000Z</time>
      </trkpt>
      <trkpt lat="44.46895" lon="6.23301">
        <ele>704.20001220703</ele>
        <time>2020-11-05T16:22:37.000Z</time>
      </trkpt>
      <trkpt lat="44.46895" lon="6.23301">
        <ele>705</ele>
        <time>2020-11-05T16:22:41.000Z</time>
      </trkpt>
      <trkpt lat="44.46895" lon="6.23301">
        <ele>705.59997558594</ele>
        <time>2020-11-05T16:22:42.000Z</time>
      </trkpt>
      <trkpt lat="44.46896" lon="6.23302">
        <ele>706.59997558594</ele>
        <time>2020-11-05T16:22:56.000Z</time>
      </trkpt>
    </trkseg>
  </trk>
</gpx>